<?xml version="1.0" encoding="UTF-8" standalone="no" ?>
<gpx xmlns="http://www.topografix.com/GPX/1/1" xmlns:xsi="http://www.w3.org/2001/XMLSchema-instance" xsi:schemaLocation="http://www.topografix.com/GPX/1/1 http://www.topografix.com/GPX/1/1/gpx.xsd" version="1.1" creator="VisuGPX - https://www.visugpx.com">
  <metadata>
    <name>VTT Bois de L'huisserie 070609</name>
    <desc><![CDATA[Parcours VTT dans le bois de l'huisserie près de LAVAL]]></desc>
  </metadata>
  <trk>
    <name><![CDATA[07/06/09 08:00:25]]></name>
    <desc><![CDATA[15,04 km 01:11:16 ex stop 0,0 12,7 32,9 km/h battery 43% 1h40m left]]></desc>
    <trkseg>
      <trkpt lat="48.04257" lon="-0.77916">
        <ele>165</ele>
        <time>2009-06-07T08:00:25Z</time>
      </trkpt>
      <trkpt lat="48.04257" lon="-0.77916">
        <ele>165</ele>
        <time>2009-06-07T08:00:27Z</time>
      </trkpt>
      <trkpt lat="48.04257" lon="-0.77916">
        <ele>166</ele>
        <time>2009-06-07T08:00:29Z</time>
      </trkpt>
      <trkpt lat="48.04258" lon="-0.77916">
        <ele>166</ele>
        <time>2009-06-07T08:00:31Z</time>
      </trkpt>
      <trkpt lat="48.04258" lon="-0.77914">
        <ele>166</ele>
        <time>2009-06-07T08:00:33Z</time>
      </trkpt>
      <trkpt lat="48.04258" lon="-0.77914">
        <ele>166</ele>
        <time>2009-06-07T08:00:35Z</time>
      </trkpt>
      <trkpt lat="48.04258" lon="-0.77916">
        <ele>165</ele>
        <time>2009-06-07T08:00:37Z</time>
      </trkpt>
      <trkpt lat="48.04259" lon="-0.77915">
        <ele>164</ele>
        <time>2009-06-07T08:00:39Z</time>
      </trkpt>
      <trkpt lat="48.04259" lon="-0.77915">
        <ele>164</ele>
        <time>2009-06-07T08:00:41Z</time>
      </trkpt>
      <trkpt lat="48.04259" lon="-0.77915">
        <ele>164</ele>
        <time>2009-06-07T08:00:43Z</time>
      </trkpt>
      <trkpt lat="48.04259" lon="-0.77915">
        <ele>164</ele>
        <time>2009-06-07T08:00:45Z</time>
      </trkpt>
      <trkpt lat="48.04258" lon="-0.77914">
        <ele>164</ele>
        <time>2009-06-07T08:00:47Z</time>
      </trkpt>
      <trkpt lat="48.04258" lon="-0.77914">
        <ele>164</ele>
        <time>2009-06-07T08:00:49Z</time>
      </trkpt>
      <trkpt lat="48.04258" lon="-0.77914">
        <ele>164</ele>
        <time>2009-06-07T08:00:51Z</time>
      </trkpt>
      <trkpt lat="48.04258" lon="-0.77914">
        <ele>165</ele>
        <time>2009-06-07T08:00:53Z</time>
      </trkpt>
      <trkpt lat="48.04258" lon="-0.77913">
        <ele>166</ele>
        <time>2009-06-07T08:00:55Z</time>
      </trkpt>
      <trkpt lat="48.04258" lon="-0.77913">
        <ele>166</ele>
        <time>2009-06-07T08:00:57Z</time>
      </trkpt>
      <trkpt lat="48.04258" lon="-0.77913">
        <ele>166</ele>
        <time>2009-06-07T08:00:59Z</time>
      </trkpt>
      <trkpt lat="48.04258" lon="-0.77913">
        <ele>165</ele>
        <time>2009-06-07T08:01:01Z</time>
      </trkpt>
      <trkpt lat="48.04258" lon="-0.77913">
        <ele>165</ele>
        <time>2009-06-07T08:01:03Z</time>
      </trkpt>
      <trkpt lat="48.04259" lon="-0.77913">
        <ele>165</ele>
        <time>2009-06-07T08:01:05Z</time>
      </trkpt>
      <trkpt lat="48.04259" lon="-0.77913">
        <ele>165</ele>
        <time>2009-06-07T08:01:07Z</time>
      </trkpt>
      <trkpt lat="48.04259" lon="-0.77914">
        <ele>166</ele>
        <time>2009-06-07T08:01:09Z</time>
      </trkpt>
      <trkpt lat="48.04261" lon="-0.77914">
        <ele>166</ele>
        <time>2009-06-07T08:01:11Z</time>
      </trkpt>
      <trkpt lat="48.04261" lon="-0.77915">
        <ele>166</ele>
        <time>2009-06-07T08:01:13Z</time>
      </trkpt>
      <trkpt lat="48.04261" lon="-0.77915">
        <ele>166</ele>
        <time>2009-06-07T08:01:15Z</time>
      </trkpt>
      <trkpt lat="48.04261" lon="-0.77915">
        <ele>166</ele>
        <time>2009-06-07T08:01:17Z</time>
      </trkpt>
      <trkpt lat="48.04261" lon="-0.77915">
        <ele>166</ele>
        <time>2009-06-07T08:01:19Z</time>
      </trkpt>
      <trkpt lat="48.04263" lon="-0.77915">
        <ele>166</ele>
        <time>2009-06-07T08:01:21Z</time>
      </trkpt>
      <trkpt lat="48.04263" lon="-0.77915">
        <ele>166</ele>
        <time>2009-06-07T08:01:23Z</time>
      </trkpt>
      <trkpt lat="48.04263" lon="-0.77915">
        <ele>166</ele>
        <time>2009-06-07T08:01:25Z</time>
      </trkpt>
      <trkpt lat="48.04263" lon="-0.77915">
        <ele>166</ele>
        <time>2009-06-07T08:01:27Z</time>
      </trkpt>
      <trkpt lat="48.04263" lon="-0.77915">
        <ele>166</ele>
        <time>2009-06-07T08:01:29Z</time>
      </trkpt>
      <trkpt lat="48.04263" lon="-0.77915">
        <ele>166</ele>
        <time>2009-06-07T08:01:31Z</time>
      </trkpt>
      <trkpt lat="48.04263" lon="-0.77915">
        <ele>166</ele>
        <time>2009-06-07T08:01:33Z</time>
      </trkpt>
      <trkpt lat="48.04263" lon="-0.77915">
        <ele>166</ele>
        <time>2009-06-07T08:01:35Z</time>
      </trkpt>
      <trkpt lat="48.04263" lon="-0.77915">
        <ele>166</ele>
        <time>2009-06-07T08:01:37Z</time>
      </trkpt>
      <trkpt lat="48.04263" lon="-0.77915">
        <ele>166</ele>
        <time>2009-06-07T08:01:39Z</time>
      </trkpt>
      <trkpt lat="48.04263" lon="-0.77915">
        <ele>165</ele>
        <time>2009-06-07T08:01:41Z</time>
      </trkpt>
      <trkpt lat="48.04263" lon="-0.77915">
        <ele>164</ele>
        <time>2009-06-07T08:01:44Z</time>
      </trkpt>
      <trkpt lat="48.04263" lon="-0.77915">
        <ele>164</ele>
        <time>2009-06-07T08:01:46Z</time>
      </trkpt>
      <trkpt lat="48.04263" lon="-0.77915">
        <ele>164</ele>
        <time>2009-06-07T08:01:48Z</time>
      </trkpt>
      <trkpt lat="48.04263" lon="-0.77915">
        <ele>164</ele>
        <time>2009-06-07T08:01:50Z</time>
      </trkpt>
      <trkpt lat="48.04263" lon="-0.77915">
        <ele>164</ele>
        <time>2009-06-07T08:01:52Z</time>
      </trkpt>
      <trkpt lat="48.04263" lon="-0.77915">
        <ele>164</ele>
        <time>2009-06-07T08:01:54Z</time>
      </trkpt>
      <trkpt lat="48.04263" lon="-0.77915">
        <ele>164</ele>
        <time>2009-06-07T08:01:56Z</time>
      </trkpt>
      <trkpt lat="48.04261" lon="-0.77915">
        <ele>164</ele>
        <time>2009-06-07T08:01:58Z</time>
      </trkpt>
      <trkpt lat="48.04261" lon="-0.77915">
        <ele>164</ele>
        <time>2009-06-07T08:02:00Z</time>
      </trkpt>
      <trkpt lat="48.04261" lon="-0.77915">
        <ele>164</ele>
        <time>2009-06-07T08:02:02Z</time>
      </trkpt>
      <trkpt lat="48.04261" lon="-0.77915">
        <ele>164</ele>
        <time>2009-06-07T08:02:04Z</time>
      </trkpt>
      <trkpt lat="48.04261" lon="-0.77915">
        <ele>165</ele>
        <time>2009-06-07T08:02:06Z</time>
      </trkpt>
      <trkpt lat="48.04261" lon="-0.77915">
        <ele>165</ele>
        <time>2009-06-07T08:02:08Z</time>
      </trkpt>
      <trkpt lat="48.04261" lon="-0.77915">
        <ele>165</ele>
        <time>2009-06-07T08:02:10Z</time>
      </trkpt>
      <trkpt lat="48.04261" lon="-0.77915">
        <ele>165</ele>
        <time>2009-06-07T08:02:12Z</time>
      </trkpt>
      <trkpt lat="48.04261" lon="-0.77915">
        <ele>165</ele>
        <time>2009-06-07T08:02:14Z</time>
      </trkpt>
      <trkpt lat="48.04261" lon="-0.77915">
        <ele>165</ele>
        <time>2009-06-07T08:02:16Z</time>
      </trkpt>
      <trkpt lat="48.04261" lon="-0.77915">
        <ele>165</ele>
        <time>2009-06-07T08:02:18Z</time>
      </trkpt>
      <trkpt lat="48.04261" lon="-0.77915">
        <ele>165</ele>
        <time>2009-06-07T08:02:20Z</time>
      </trkpt>
      <trkpt lat="48.04261" lon="-0.77915">
        <ele>165</ele>
        <time>2009-06-07T08:02:22Z</time>
      </trkpt>
      <trkpt lat="48.04261" lon="-0.77915">
        <ele>165</ele>
        <time>2009-06-07T08:02:24Z</time>
      </trkpt>
      <trkpt lat="48.04261" lon="-0.77915">
        <ele>165</ele>
        <time>2009-06-07T08:02:26Z</time>
      </trkpt>
      <trkpt lat="48.04261" lon="-0.77915">
        <ele>165</ele>
        <time>2009-06-07T08:02:28Z</time>
      </trkpt>
      <trkpt lat="48.04261" lon="-0.77915">
        <ele>165</ele>
        <time>2009-06-07T08:02:30Z</time>
      </trkpt>
      <trkpt lat="48.04261" lon="-0.77915">
        <ele>165</ele>
        <time>2009-06-07T08:02:32Z</time>
      </trkpt>
      <trkpt lat="48.04261" lon="-0.77915">
        <ele>165</ele>
        <time>2009-06-07T08:02:34Z</time>
      </trkpt>
      <trkpt lat="48.04261" lon="-0.77915">
        <ele>165</ele>
        <time>2009-06-07T08:02:36Z</time>
      </trkpt>
      <trkpt lat="48.04261" lon="-0.77915">
        <ele>165</ele>
        <time>2009-06-07T08:02:38Z</time>
      </trkpt>
      <trkpt lat="48.04261" lon="-0.77915">
        <ele>165</ele>
        <time>2009-06-07T08:02:40Z</time>
      </trkpt>
      <trkpt lat="48.04261" lon="-0.77915">
        <ele>165</ele>
        <time>2009-06-07T08:02:42Z</time>
      </trkpt>
      <trkpt lat="48.04261" lon="-0.77915">
        <ele>165</ele>
        <time>2009-06-07T08:02:44Z</time>
      </trkpt>
      <trkpt lat="48.0426" lon="-0.77915">
        <ele>165</ele>
        <time>2009-06-07T08:02:46Z</time>
      </trkpt>
      <trkpt lat="48.0426" lon="-0.77915">
        <ele>165</ele>
        <time>2009-06-07T08:02:48Z</time>
      </trkpt>
      <trkpt lat="48.0426" lon="-0.77915">
        <ele>165</ele>
        <time>2009-06-07T08:02:50Z</time>
      </trkpt>
      <trkpt lat="48.0426" lon="-0.77915">
        <ele>165</ele>
        <time>2009-06-07T08:02:52Z</time>
      </trkpt>
      <trkpt lat="48.0426" lon="-0.77915">
        <ele>165</ele>
        <time>2009-06-07T08:02:54Z</time>
      </trkpt>
      <trkpt lat="48.0426" lon="-0.77915">
        <ele>165</ele>
        <time>2009-06-07T08:02:56Z</time>
      </trkpt>
      <trkpt lat="48.0426" lon="-0.77915">
        <ele>165</ele>
        <time>2009-06-07T08:02:58Z</time>
      </trkpt>
      <trkpt lat="48.0426" lon="-0.77915">
        <ele>165</ele>
        <time>2009-06-07T08:03:00Z</time>
      </trkpt>
      <trkpt lat="48.0426" lon="-0.77915">
        <ele>165</ele>
        <time>2009-06-07T08:03:02Z</time>
      </trkpt>
      <trkpt lat="48.0426" lon="-0.77915">
        <ele>165</ele>
        <time>2009-06-07T08:03:04Z</time>
      </trkpt>
      <trkpt lat="48.0426" lon="-0.77915">
        <ele>164</ele>
        <time>2009-06-07T08:03:06Z</time>
      </trkpt>
      <trkpt lat="48.0426" lon="-0.77915">
        <ele>164</ele>
        <time>2009-06-07T08:03:08Z</time>
      </trkpt>
      <trkpt lat="48.0426" lon="-0.77915">
        <ele>164</ele>
        <time>2009-06-07T08:03:10Z</time>
      </trkpt>
      <trkpt lat="48.0426" lon="-0.77915">
        <ele>165</ele>
        <time>2009-06-07T08:03:12Z</time>
      </trkpt>
      <trkpt lat="48.0426" lon="-0.77915">
        <ele>165</ele>
        <time>2009-06-07T08:03:14Z</time>
      </trkpt>
      <trkpt lat="48.0426" lon="-0.77915">
        <ele>165</ele>
        <time>2009-06-07T08:03:16Z</time>
      </trkpt>
      <trkpt lat="48.0426" lon="-0.77915">
        <ele>165</ele>
        <time>2009-06-07T08:03:18Z</time>
      </trkpt>
      <trkpt lat="48.0426" lon="-0.77915">
        <ele>165</ele>
        <time>2009-06-07T08:03:20Z</time>
      </trkpt>
      <trkpt lat="48.0426" lon="-0.77915">
        <ele>165</ele>
        <time>2009-06-07T08:03:22Z</time>
      </trkpt>
      <trkpt lat="48.0426" lon="-0.77915">
        <ele>165</ele>
        <time>2009-06-07T08:03:24Z</time>
      </trkpt>
      <trkpt lat="48.0426" lon="-0.77915">
        <ele>165</ele>
        <time>2009-06-07T08:03:26Z</time>
      </trkpt>
      <trkpt lat="48.0426" lon="-0.77915">
        <ele>165</ele>
        <time>2009-06-07T08:03:28Z</time>
      </trkpt>
      <trkpt lat="48.0426" lon="-0.77915">
        <ele>165</ele>
        <time>2009-06-07T08:03:30Z</time>
      </trkpt>
      <trkpt lat="48.0426" lon="-0.77915">
        <ele>165</ele>
        <time>2009-06-07T08:03:32Z</time>
      </trkpt>
      <trkpt lat="48.0426" lon="-0.77915">
        <ele>165</ele>
        <time>2009-06-07T08:03:34Z</time>
      </trkpt>
      <trkpt lat="48.0426" lon="-0.77915">
        <ele>165</ele>
        <time>2009-06-07T08:03:36Z</time>
      </trkpt>
      <trkpt lat="48.0426" lon="-0.77915">
        <ele>165</ele>
        <time>2009-06-07T08:03:38Z</time>
      </trkpt>
      <trkpt lat="48.0426" lon="-0.77915">
        <ele>165</ele>
        <time>2009-06-07T08:03:40Z</time>
      </trkpt>
      <trkpt lat="48.0426" lon="-0.77915">
        <ele>165</ele>
        <time>2009-06-07T08:03:42Z</time>
      </trkpt>
      <trkpt lat="48.0426" lon="-0.77915">
        <ele>165</ele>
        <time>2009-06-07T08:03:44Z</time>
      </trkpt>
      <trkpt lat="48.0426" lon="-0.77915">
        <ele>165</ele>
        <time>2009-06-07T08:03:46Z</time>
      </trkpt>
      <trkpt lat="48.0426" lon="-0.77915">
        <ele>165</ele>
        <time>2009-06-07T08:03:48Z</time>
      </trkpt>
      <trkpt lat="48.0426" lon="-0.77915">
        <ele>165</ele>
        <time>2009-06-07T08:03:50Z</time>
      </trkpt>
      <trkpt lat="48.0426" lon="-0.77915">
        <ele>165</ele>
        <time>2009-06-07T08:03:52Z</time>
      </trkpt>
      <trkpt lat="48.04259" lon="-0.77914">
        <ele>165</ele>
        <time>2009-06-07T08:03:54Z</time>
      </trkpt>
      <trkpt lat="48.04259" lon="-0.77914">
        <ele>165</ele>
        <time>2009-06-07T08:03:56Z</time>
      </trkpt>
      <trkpt lat="48.04259" lon="-0.77914">
        <ele>165</ele>
        <time>2009-06-07T08:03:58Z</time>
      </trkpt>
      <trkpt lat="48.04259" lon="-0.77914">
        <ele>165</ele>
        <time>2009-06-07T08:04:00Z</time>
      </trkpt>
      <trkpt lat="48.04259" lon="-0.77914">
        <ele>164</ele>
        <time>2009-06-07T08:04:02Z</time>
      </trkpt>
      <trkpt lat="48.04259" lon="-0.77914">
        <ele>164</ele>
        <time>2009-06-07T08:04:04Z</time>
      </trkpt>
      <trkpt lat="48.04259" lon="-0.77914">
        <ele>164</ele>
        <time>2009-06-07T08:04:06Z</time>
      </trkpt>
      <trkpt lat="48.04259" lon="-0.77914">
        <ele>164</ele>
        <time>2009-06-07T08:04:08Z</time>
      </trkpt>
      <trkpt lat="48.04259" lon="-0.77914">
        <ele>164</ele>
        <time>2009-06-07T08:04:10Z</time>
      </trkpt>
      <trkpt lat="48.04259" lon="-0.77914">
        <ele>164</ele>
        <time>2009-06-07T08:04:12Z</time>
      </trkpt>
      <trkpt lat="48.04259" lon="-0.77914">
        <ele>164</ele>
        <time>2009-06-07T08:04:14Z</time>
      </trkpt>
      <trkpt lat="48.04259" lon="-0.77914">
        <ele>164</ele>
        <time>2009-06-07T08:04:16Z</time>
      </trkpt>
      <trkpt lat="48.04259" lon="-0.77914">
        <ele>164</ele>
        <time>2009-06-07T08:04:18Z</time>
      </trkpt>
      <trkpt lat="48.04259" lon="-0.77914">
        <ele>164</ele>
        <time>2009-06-07T08:04:20Z</time>
      </trkpt>
      <trkpt lat="48.04259" lon="-0.77914">
        <ele>164</ele>
        <time>2009-06-07T08:04:22Z</time>
      </trkpt>
      <trkpt lat="48.04259" lon="-0.77914">
        <ele>164</ele>
        <time>2009-06-07T08:04:24Z</time>
      </trkpt>
      <trkpt lat="48.04259" lon="-0.77914">
        <ele>164</ele>
        <time>2009-06-07T08:04:26Z</time>
      </trkpt>
      <trkpt lat="48.04259" lon="-0.77914">
        <ele>164</ele>
        <time>2009-06-07T08:04:28Z</time>
      </trkpt>
      <trkpt lat="48.04259" lon="-0.77914">
        <ele>164</ele>
        <time>2009-06-07T08:04:30Z</time>
      </trkpt>
      <trkpt lat="48.04259" lon="-0.77914">
        <ele>164</ele>
        <time>2009-06-07T08:04:32Z</time>
      </trkpt>
      <trkpt lat="48.04259" lon="-0.77914">
        <ele>164</ele>
        <time>2009-06-07T08:04:34Z</time>
      </trkpt>
      <trkpt lat="48.04259" lon="-0.77914">
        <ele>164</ele>
        <time>2009-06-07T08:04:36Z</time>
      </trkpt>
      <trkpt lat="48.04259" lon="-0.77914">
        <ele>164</ele>
        <time>2009-06-07T08:04:38Z</time>
      </trkpt>
      <trkpt lat="48.04259" lon="-0.77914">
        <ele>164</ele>
        <time>2009-06-07T08:04:40Z</time>
      </trkpt>
      <trkpt lat="48.04259" lon="-0.77914">
        <ele>164</ele>
        <time>2009-06-07T08:04:42Z</time>
      </trkpt>
      <trkpt lat="48.04259" lon="-0.77914">
        <ele>164</ele>
        <time>2009-06-07T08:04:44Z</time>
      </trkpt>
      <trkpt lat="48.04259" lon="-0.77914">
        <ele>164</ele>
        <time>2009-06-07T08:04:46Z</time>
      </trkpt>
      <trkpt lat="48.04259" lon="-0.77914">
        <ele>164</ele>
        <time>2009-06-07T08:04:48Z</time>
      </trkpt>
      <trkpt lat="48.04259" lon="-0.77914">
        <ele>165</ele>
        <time>2009-06-07T08:04:50Z</time>
      </trkpt>
      <trkpt lat="48.04259" lon="-0.77914">
        <ele>164</ele>
        <time>2009-06-07T08:04:52Z</time>
      </trkpt>
      <trkpt lat="48.04259" lon="-0.77914">
        <ele>165</ele>
        <time>2009-06-07T08:04:54Z</time>
      </trkpt>
      <trkpt lat="48.04259" lon="-0.77914">
        <ele>165</ele>
        <time>2009-06-07T08:04:56Z</time>
      </trkpt>
      <trkpt lat="48.04259" lon="-0.77914">
        <ele>164</ele>
        <time>2009-06-07T08:04:58Z</time>
      </trkpt>
      <trkpt lat="48.04259" lon="-0.77914">
        <ele>164</ele>
        <time>2009-06-07T08:05:00Z</time>
      </trkpt>
      <trkpt lat="48.04259" lon="-0.77914">
        <ele>164</ele>
        <time>2009-06-07T08:05:02Z</time>
      </trkpt>
      <trkpt lat="48.04259" lon="-0.77914">
        <ele>165</ele>
        <time>2009-06-07T08:05:04Z</time>
      </trkpt>
      <trkpt lat="48.04259" lon="-0.77914">
        <ele>165</ele>
        <time>2009-06-07T08:05:06Z</time>
      </trkpt>
      <trkpt lat="48.04259" lon="-0.77914">
        <ele>165</ele>
        <time>2009-06-07T08:05:08Z</time>
      </trkpt>
      <trkpt lat="48.04259" lon="-0.77914">
        <ele>165</ele>
        <time>2009-06-07T08:05:10Z</time>
      </trkpt>
      <trkpt lat="48.04259" lon="-0.77914">
        <ele>165</ele>
        <time>2009-06-07T08:05:12Z</time>
      </trkpt>
      <trkpt lat="48.04259" lon="-0.77914">
        <ele>165</ele>
        <time>2009-06-07T08:05:14Z</time>
      </trkpt>
      <trkpt lat="48.04259" lon="-0.77914">
        <ele>165</ele>
        <time>2009-06-07T08:05:16Z</time>
      </trkpt>
      <trkpt lat="48.04259" lon="-0.77914">
        <ele>165</ele>
        <time>2009-06-07T08:05:18Z</time>
      </trkpt>
      <trkpt lat="48.04259" lon="-0.77914">
        <ele>165</ele>
        <time>2009-06-07T08:05:20Z</time>
      </trkpt>
      <trkpt lat="48.04259" lon="-0.77914">
        <ele>165</ele>
        <time>2009-06-07T08:05:22Z</time>
      </trkpt>
      <trkpt lat="48.04259" lon="-0.77914">
        <ele>165</ele>
        <time>2009-06-07T08:05:24Z</time>
      </trkpt>
      <trkpt lat="48.04259" lon="-0.77914">
        <ele>164</ele>
        <time>2009-06-07T08:05:26Z</time>
      </trkpt>
      <trkpt lat="48.04259" lon="-0.77914">
        <ele>164</ele>
        <time>2009-06-07T08:05:28Z</time>
      </trkpt>
      <trkpt lat="48.04259" lon="-0.77914">
        <ele>164</ele>
        <time>2009-06-07T08:05:30Z</time>
      </trkpt>
      <trkpt lat="48.04259" lon="-0.77914">
        <ele>164</ele>
        <time>2009-06-07T08:05:32Z</time>
      </trkpt>
      <trkpt lat="48.04259" lon="-0.77914">
        <ele>164</ele>
        <time>2009-06-07T08:05:34Z</time>
      </trkpt>
      <trkpt lat="48.04259" lon="-0.77914">
        <ele>164</ele>
        <time>2009-06-07T08:05:36Z</time>
      </trkpt>
      <trkpt lat="48.04259" lon="-0.77914">
        <ele>164</ele>
        <time>2009-06-07T08:05:38Z</time>
      </trkpt>
      <trkpt lat="48.04259" lon="-0.77914">
        <ele>164</ele>
        <time>2009-06-07T08:05:40Z</time>
      </trkpt>
      <trkpt lat="48.04259" lon="-0.77914">
        <ele>164</ele>
        <time>2009-06-07T08:05:42Z</time>
      </trkpt>
      <trkpt lat="48.04259" lon="-0.77914">
        <ele>164</ele>
        <time>2009-06-07T08:05:44Z</time>
      </trkpt>
      <trkpt lat="48.04259" lon="-0.77914">
        <ele>164</ele>
        <time>2009-06-07T08:05:46Z</time>
      </trkpt>
      <trkpt lat="48.04235" lon="-0.77933">
        <ele>157</ele>
        <time>2009-06-07T08:05:48Z</time>
      </trkpt>
      <trkpt lat="48.04236" lon="-0.77938">
        <ele>157</ele>
        <time>2009-06-07T08:05:50Z</time>
      </trkpt>
      <trkpt lat="48.04238" lon="-0.77943">
        <ele>156</ele>
        <time>2009-06-07T08:05:52Z</time>
      </trkpt>
      <trkpt lat="48.0424" lon="-0.77944">
        <ele>156</ele>
        <time>2009-06-07T08:05:54Z</time>
      </trkpt>
      <trkpt lat="48.04245" lon="-0.77946">
        <ele>156</ele>
        <time>2009-06-07T08:05:56Z</time>
      </trkpt>
      <trkpt lat="48.0425" lon="-0.77948">
        <ele>156</ele>
        <time>2009-06-07T08:05:58Z</time>
      </trkpt>
      <trkpt lat="48.04256" lon="-0.77948">
        <ele>156</ele>
        <time>2009-06-07T08:06:00Z</time>
      </trkpt>
      <trkpt lat="48.04261" lon="-0.77949">
        <ele>155</ele>
        <time>2009-06-07T08:06:02Z</time>
      </trkpt>
      <trkpt lat="48.04267" lon="-0.77949">
        <ele>155</ele>
        <time>2009-06-07T08:06:04Z</time>
      </trkpt>
      <trkpt lat="48.04273" lon="-0.77947">
        <ele>155</ele>
        <time>2009-06-07T08:06:06Z</time>
      </trkpt>
      <trkpt lat="48.04279" lon="-0.77945">
        <ele>155</ele>
        <time>2009-06-07T08:06:08Z</time>
      </trkpt>
      <trkpt lat="48.04285" lon="-0.77948">
        <ele>155</ele>
        <time>2009-06-07T08:06:10Z</time>
      </trkpt>
      <trkpt lat="48.04289" lon="-0.77952">
        <ele>155</ele>
        <time>2009-06-07T08:06:12Z</time>
      </trkpt>
      <trkpt lat="48.04293" lon="-0.77954">
        <ele>155</ele>
        <time>2009-06-07T08:06:14Z</time>
      </trkpt>
      <trkpt lat="48.04297" lon="-0.77957">
        <ele>155</ele>
        <time>2009-06-07T08:06:16Z</time>
      </trkpt>
      <trkpt lat="48.04303" lon="-0.77959">
        <ele>155</ele>
        <time>2009-06-07T08:06:18Z</time>
      </trkpt>
      <trkpt lat="48.04308" lon="-0.77967">
        <ele>155</ele>
        <time>2009-06-07T08:06:20Z</time>
      </trkpt>
      <trkpt lat="48.04317" lon="-0.77971">
        <ele>154</ele>
        <time>2009-06-07T08:06:22Z</time>
      </trkpt>
      <trkpt lat="48.04324" lon="-0.77974">
        <ele>154</ele>
        <time>2009-06-07T08:06:24Z</time>
      </trkpt>
      <trkpt lat="48.0433" lon="-0.77977">
        <ele>154</ele>
        <time>2009-06-07T08:06:26Z</time>
      </trkpt>
      <trkpt lat="48.04335" lon="-0.77975">
        <ele>154</ele>
        <time>2009-06-07T08:06:28Z</time>
      </trkpt>
      <trkpt lat="48.04339" lon="-0.77978">
        <ele>154</ele>
        <time>2009-06-07T08:06:30Z</time>
      </trkpt>
      <trkpt lat="48.04348" lon="-0.77979">
        <ele>154</ele>
        <time>2009-06-07T08:06:32Z</time>
      </trkpt>
      <trkpt lat="48.04359" lon="-0.7798">
        <ele>154</ele>
        <time>2009-06-07T08:06:34Z</time>
      </trkpt>
      <trkpt lat="48.04367" lon="-0.77981">
        <ele>154</ele>
        <time>2009-06-07T08:06:36Z</time>
      </trkpt>
      <trkpt lat="48.04372" lon="-0.77982">
        <ele>153</ele>
        <time>2009-06-07T08:06:38Z</time>
      </trkpt>
      <trkpt lat="48.04379" lon="-0.77985">
        <ele>153</ele>
        <time>2009-06-07T08:06:40Z</time>
      </trkpt>
      <trkpt lat="48.04384" lon="-0.77988">
        <ele>153</ele>
        <time>2009-06-07T08:06:42Z</time>
      </trkpt>
      <trkpt lat="48.0439" lon="-0.77993">
        <ele>153</ele>
        <time>2009-06-07T08:06:44Z</time>
      </trkpt>
      <trkpt lat="48.04388" lon="-0.78">
        <ele>153</ele>
        <time>2009-06-07T08:06:46Z</time>
      </trkpt>
      <trkpt lat="48.04389" lon="-0.78011">
        <ele>153</ele>
        <time>2009-06-07T08:06:48Z</time>
      </trkpt>
      <trkpt lat="48.04388" lon="-0.78019">
        <ele>153</ele>
        <time>2009-06-07T08:06:50Z</time>
      </trkpt>
      <trkpt lat="48.04392" lon="-0.78031">
        <ele>153</ele>
        <time>2009-06-07T08:06:52Z</time>
      </trkpt>
      <trkpt lat="48.04396" lon="-0.78041">
        <ele>153</ele>
        <time>2009-06-07T08:06:54Z</time>
      </trkpt>
      <trkpt lat="48.04398" lon="-0.7805">
        <ele>153</ele>
        <time>2009-06-07T08:06:56Z</time>
      </trkpt>
      <trkpt lat="48.04402" lon="-0.7806">
        <ele>153</ele>
        <time>2009-06-07T08:06:58Z</time>
      </trkpt>
      <trkpt lat="48.04405" lon="-0.78069">
        <ele>153</ele>
        <time>2009-06-07T08:07:00Z</time>
      </trkpt>
      <trkpt lat="48.04408" lon="-0.78078">
        <ele>153</ele>
        <time>2009-06-07T08:07:02Z</time>
      </trkpt>
      <trkpt lat="48.04412" lon="-0.78086">
        <ele>153</ele>
        <time>2009-06-07T08:07:04Z</time>
      </trkpt>
      <trkpt lat="48.04416" lon="-0.78094">
        <ele>152</ele>
        <time>2009-06-07T08:07:06Z</time>
      </trkpt>
      <trkpt lat="48.04421" lon="-0.78102">
        <ele>152</ele>
        <time>2009-06-07T08:07:08Z</time>
      </trkpt>
      <trkpt lat="48.04425" lon="-0.78108">
        <ele>152</ele>
        <time>2009-06-07T08:07:10Z</time>
      </trkpt>
      <trkpt lat="48.04427" lon="-0.78118">
        <ele>153</ele>
        <time>2009-06-07T08:07:12Z</time>
      </trkpt>
      <trkpt lat="48.04431" lon="-0.78129">
        <ele>153</ele>
        <time>2009-06-07T08:07:14Z</time>
      </trkpt>
      <trkpt lat="48.04434" lon="-0.78137">
        <ele>153</ele>
        <time>2009-06-07T08:07:16Z</time>
      </trkpt>
      <trkpt lat="48.04437" lon="-0.78147">
        <ele>153</ele>
        <time>2009-06-07T08:07:18Z</time>
      </trkpt>
      <trkpt lat="48.04441" lon="-0.78156">
        <ele>153</ele>
        <time>2009-06-07T08:07:20Z</time>
      </trkpt>
      <trkpt lat="48.04448" lon="-0.78161">
        <ele>154</ele>
        <time>2009-06-07T08:07:22Z</time>
      </trkpt>
      <trkpt lat="48.04454" lon="-0.78166">
        <ele>154</ele>
        <time>2009-06-07T08:07:24Z</time>
      </trkpt>
      <trkpt lat="48.0446" lon="-0.78169">
        <ele>154</ele>
        <time>2009-06-07T08:07:26Z</time>
      </trkpt>
      <trkpt lat="48.04466" lon="-0.78171">
        <ele>154</ele>
        <time>2009-06-07T08:07:28Z</time>
      </trkpt>
      <trkpt lat="48.04473" lon="-0.78179">
        <ele>154</ele>
        <time>2009-06-07T08:07:30Z</time>
      </trkpt>
      <trkpt lat="48.04475" lon="-0.78191">
        <ele>157</ele>
        <time>2009-06-07T08:07:32Z</time>
      </trkpt>
      <trkpt lat="48.04483" lon="-0.782">
        <ele>158</ele>
        <time>2009-06-07T08:07:34Z</time>
      </trkpt>
      <trkpt lat="48.0449" lon="-0.7821">
        <ele>158</ele>
        <time>2009-06-07T08:07:36Z</time>
      </trkpt>
      <trkpt lat="48.04494" lon="-0.78218">
        <ele>158</ele>
        <time>2009-06-07T08:07:38Z</time>
      </trkpt>
      <trkpt lat="48.04499" lon="-0.78223">
        <ele>158</ele>
        <time>2009-06-07T08:07:40Z</time>
      </trkpt>
      <trkpt lat="48.04504" lon="-0.78226">
        <ele>158</ele>
        <time>2009-06-07T08:07:42Z</time>
      </trkpt>
      <trkpt lat="48.0451" lon="-0.78227">
        <ele>157</ele>
        <time>2009-06-07T08:07:44Z</time>
      </trkpt>
      <trkpt lat="48.04515" lon="-0.78228">
        <ele>158</ele>
        <time>2009-06-07T08:07:46Z</time>
      </trkpt>
      <trkpt lat="48.04517" lon="-0.78234">
        <ele>158</ele>
        <time>2009-06-07T08:07:48Z</time>
      </trkpt>
      <trkpt lat="48.0452" lon="-0.7824">
        <ele>157</ele>
        <time>2009-06-07T08:07:50Z</time>
      </trkpt>
      <trkpt lat="48.04523" lon="-0.78246">
        <ele>157</ele>
        <time>2009-06-07T08:07:52Z</time>
      </trkpt>
      <trkpt lat="48.04526" lon="-0.78252">
        <ele>157</ele>
        <time>2009-06-07T08:07:54Z</time>
      </trkpt>
      <trkpt lat="48.04529" lon="-0.78259">
        <ele>157</ele>
        <time>2009-06-07T08:07:56Z</time>
      </trkpt>
      <trkpt lat="48.04532" lon="-0.78266">
        <ele>157</ele>
        <time>2009-06-07T08:07:58Z</time>
      </trkpt>
      <trkpt lat="48.04535" lon="-0.78274">
        <ele>157</ele>
        <time>2009-06-07T08:08:00Z</time>
      </trkpt>
      <trkpt lat="48.0454" lon="-0.78279">
        <ele>157</ele>
        <time>2009-06-07T08:08:02Z</time>
      </trkpt>
      <trkpt lat="48.04545" lon="-0.78288">
        <ele>157</ele>
        <time>2009-06-07T08:08:04Z</time>
      </trkpt>
      <trkpt lat="48.04551" lon="-0.783">
        <ele>156</ele>
        <time>2009-06-07T08:08:06Z</time>
      </trkpt>
      <trkpt lat="48.04555" lon="-0.78308">
        <ele>156</ele>
        <time>2009-06-07T08:08:08Z</time>
      </trkpt>
      <trkpt lat="48.04559" lon="-0.78312">
        <ele>156</ele>
        <time>2009-06-07T08:08:10Z</time>
      </trkpt>
      <trkpt lat="48.04561" lon="-0.78313">
        <ele>157</ele>
        <time>2009-06-07T08:08:12Z</time>
      </trkpt>
      <trkpt lat="48.04561" lon="-0.78314">
        <ele>157</ele>
        <time>2009-06-07T08:08:14Z</time>
      </trkpt>
      <trkpt lat="48.04562" lon="-0.78316">
        <ele>157</ele>
        <time>2009-06-07T08:08:16Z</time>
      </trkpt>
      <trkpt lat="48.04564" lon="-0.78317">
        <ele>158</ele>
        <time>2009-06-07T08:08:18Z</time>
      </trkpt>
      <trkpt lat="48.04565" lon="-0.78318">
        <ele>158</ele>
        <time>2009-06-07T08:08:20Z</time>
      </trkpt>
      <trkpt lat="48.04566" lon="-0.78318">
        <ele>160</ele>
        <time>2009-06-07T08:08:22Z</time>
      </trkpt>
      <trkpt lat="48.04567" lon="-0.7832">
        <ele>160</ele>
        <time>2009-06-07T08:08:24Z</time>
      </trkpt>
      <trkpt lat="48.04567" lon="-0.78318">
        <ele>160</ele>
        <time>2009-06-07T08:08:26Z</time>
      </trkpt>
      <trkpt lat="48.04568" lon="-0.78318">
        <ele>161</ele>
        <time>2009-06-07T08:08:28Z</time>
      </trkpt>
      <trkpt lat="48.04569" lon="-0.78319">
        <ele>161</ele>
        <time>2009-06-07T08:08:30Z</time>
      </trkpt>
      <trkpt lat="48.0457" lon="-0.78321">
        <ele>161</ele>
        <time>2009-06-07T08:08:32Z</time>
      </trkpt>
      <trkpt lat="48.04571" lon="-0.78322">
        <ele>161</ele>
        <time>2009-06-07T08:08:34Z</time>
      </trkpt>
      <trkpt lat="48.04575" lon="-0.78326">
        <ele>161</ele>
        <time>2009-06-07T08:08:36Z</time>
      </trkpt>
      <trkpt lat="48.04577" lon="-0.78329">
        <ele>161</ele>
        <time>2009-06-07T08:08:38Z</time>
      </trkpt>
      <trkpt lat="48.04578" lon="-0.78332">
        <ele>161</ele>
        <time>2009-06-07T08:08:40Z</time>
      </trkpt>
      <trkpt lat="48.04579" lon="-0.78336">
        <ele>161</ele>
        <time>2009-06-07T08:08:42Z</time>
      </trkpt>
      <trkpt lat="48.04581" lon="-0.78339">
        <ele>161</ele>
        <time>2009-06-07T08:08:44Z</time>
      </trkpt>
      <trkpt lat="48.04584" lon="-0.78344">
        <ele>161</ele>
        <time>2009-06-07T08:08:46Z</time>
      </trkpt>
      <trkpt lat="48.04588" lon="-0.7835">
        <ele>161</ele>
        <time>2009-06-07T08:08:48Z</time>
      </trkpt>
      <trkpt lat="48.04591" lon="-0.78355">
        <ele>161</ele>
        <time>2009-06-07T08:08:50Z</time>
      </trkpt>
      <trkpt lat="48.04593" lon="-0.78361">
        <ele>161</ele>
        <time>2009-06-07T08:08:52Z</time>
      </trkpt>
      <trkpt lat="48.04598" lon="-0.78369">
        <ele>160</ele>
        <time>2009-06-07T08:08:54Z</time>
      </trkpt>
      <trkpt lat="48.04601" lon="-0.78376">
        <ele>159</ele>
        <time>2009-06-07T08:08:56Z</time>
      </trkpt>
      <trkpt lat="48.04606" lon="-0.78382">
        <ele>159</ele>
        <time>2009-06-07T08:08:58Z</time>
      </trkpt>
      <trkpt lat="48.04609" lon="-0.78389">
        <ele>159</ele>
        <time>2009-06-07T08:09:00Z</time>
      </trkpt>
      <trkpt lat="48.04615" lon="-0.78397">
        <ele>159</ele>
        <time>2009-06-07T08:09:02Z</time>
      </trkpt>
      <trkpt lat="48.04619" lon="-0.78401">
        <ele>159</ele>
        <time>2009-06-07T08:09:04Z</time>
      </trkpt>
      <trkpt lat="48.04621" lon="-0.78407">
        <ele>159</ele>
        <time>2009-06-07T08:09:06Z</time>
      </trkpt>
      <trkpt lat="48.04622" lon="-0.78412">
        <ele>159</ele>
        <time>2009-06-07T08:09:08Z</time>
      </trkpt>
      <trkpt lat="48.04621" lon="-0.78421">
        <ele>159</ele>
        <time>2009-06-07T08:09:10Z</time>
      </trkpt>
      <trkpt lat="48.04613" lon="-0.7842">
        <ele>159</ele>
        <time>2009-06-07T08:09:12Z</time>
      </trkpt>
      <trkpt lat="48.04608" lon="-0.7842">
        <ele>160</ele>
        <time>2009-06-07T08:09:14Z</time>
      </trkpt>
      <trkpt lat="48.04601" lon="-0.78416">
        <ele>160</ele>
        <time>2009-06-07T08:09:16Z</time>
      </trkpt>
      <trkpt lat="48.04594" lon="-0.78418">
        <ele>159</ele>
        <time>2009-06-07T08:09:18Z</time>
      </trkpt>
      <trkpt lat="48.04588" lon="-0.78419">
        <ele>159</ele>
        <time>2009-06-07T08:09:20Z</time>
      </trkpt>
      <trkpt lat="48.04583" lon="-0.78422">
        <ele>159</ele>
        <time>2009-06-07T08:09:22Z</time>
      </trkpt>
      <trkpt lat="48.04577" lon="-0.78421">
        <ele>159</ele>
        <time>2009-06-07T08:09:24Z</time>
      </trkpt>
      <trkpt lat="48.04569" lon="-0.78421">
        <ele>159</ele>
        <time>2009-06-07T08:09:26Z</time>
      </trkpt>
      <trkpt lat="48.04562" lon="-0.78422">
        <ele>159</ele>
        <time>2009-06-07T08:09:28Z</time>
      </trkpt>
      <trkpt lat="48.04557" lon="-0.78422">
        <ele>159</ele>
        <time>2009-06-07T08:09:30Z</time>
      </trkpt>
      <trkpt lat="48.04549" lon="-0.78422">
        <ele>159</ele>
        <time>2009-06-07T08:09:32Z</time>
      </trkpt>
      <trkpt lat="48.04543" lon="-0.78421">
        <ele>159</ele>
        <time>2009-06-07T08:09:34Z</time>
      </trkpt>
      <trkpt lat="48.04537" lon="-0.78421">
        <ele>159</ele>
        <time>2009-06-07T08:09:36Z</time>
      </trkpt>
      <trkpt lat="48.0453" lon="-0.78422">
        <ele>159</ele>
        <time>2009-06-07T08:09:38Z</time>
      </trkpt>
      <trkpt lat="48.04524" lon="-0.78423">
        <ele>159</ele>
        <time>2009-06-07T08:09:40Z</time>
      </trkpt>
      <trkpt lat="48.04518" lon="-0.78426">
        <ele>159</ele>
        <time>2009-06-07T08:09:42Z</time>
      </trkpt>
      <trkpt lat="48.04512" lon="-0.78429">
        <ele>158</ele>
        <time>2009-06-07T08:09:44Z</time>
      </trkpt>
      <trkpt lat="48.04506" lon="-0.78434">
        <ele>158</ele>
        <time>2009-06-07T08:09:46Z</time>
      </trkpt>
      <trkpt lat="48.04501" lon="-0.78439">
        <ele>158</ele>
        <time>2009-06-07T08:09:48Z</time>
      </trkpt>
      <trkpt lat="48.04496" lon="-0.78446">
        <ele>158</ele>
        <time>2009-06-07T08:09:50Z</time>
      </trkpt>
      <trkpt lat="48.04491" lon="-0.7845">
        <ele>158</ele>
        <time>2009-06-07T08:09:52Z</time>
      </trkpt>
      <trkpt lat="48.04483" lon="-0.78457">
        <ele>157</ele>
        <time>2009-06-07T08:09:54Z</time>
      </trkpt>
      <trkpt lat="48.04476" lon="-0.78462">
        <ele>157</ele>
        <time>2009-06-07T08:09:56Z</time>
      </trkpt>
      <trkpt lat="48.04469" lon="-0.78469">
        <ele>158</ele>
        <time>2009-06-07T08:09:58Z</time>
      </trkpt>
      <trkpt lat="48.04462" lon="-0.78472">
        <ele>158</ele>
        <time>2009-06-07T08:10:00Z</time>
      </trkpt>
      <trkpt lat="48.04455" lon="-0.78476">
        <ele>158</ele>
        <time>2009-06-07T08:10:02Z</time>
      </trkpt>
      <trkpt lat="48.0445" lon="-0.78482">
        <ele>158</ele>
        <time>2009-06-07T08:10:04Z</time>
      </trkpt>
      <trkpt lat="48.04445" lon="-0.78487">
        <ele>158</ele>
        <time>2009-06-07T08:10:06Z</time>
      </trkpt>
      <trkpt lat="48.0444" lon="-0.78493">
        <ele>158</ele>
        <time>2009-06-07T08:10:08Z</time>
      </trkpt>
      <trkpt lat="48.04436" lon="-0.78501">
        <ele>157</ele>
        <time>2009-06-07T08:10:10Z</time>
      </trkpt>
      <trkpt lat="48.04432" lon="-0.78506">
        <ele>158</ele>
        <time>2009-06-07T08:10:12Z</time>
      </trkpt>
      <trkpt lat="48.04427" lon="-0.78515">
        <ele>159</ele>
        <time>2009-06-07T08:10:14Z</time>
      </trkpt>
      <trkpt lat="48.04422" lon="-0.7852">
        <ele>159</ele>
        <time>2009-06-07T08:10:16Z</time>
      </trkpt>
      <trkpt lat="48.04417" lon="-0.7853">
        <ele>159</ele>
        <time>2009-06-07T08:10:18Z</time>
      </trkpt>
      <trkpt lat="48.04413" lon="-0.7854">
        <ele>159</ele>
        <time>2009-06-07T08:10:20Z</time>
      </trkpt>
      <trkpt lat="48.04409" lon="-0.78549">
        <ele>159</ele>
        <time>2009-06-07T08:10:22Z</time>
      </trkpt>
      <trkpt lat="48.04404" lon="-0.78556">
        <ele>159</ele>
        <time>2009-06-07T08:10:24Z</time>
      </trkpt>
      <trkpt lat="48.044" lon="-0.78566">
        <ele>159</ele>
        <time>2009-06-07T08:10:26Z</time>
      </trkpt>
      <trkpt lat="48.04396" lon="-0.78575">
        <ele>158</ele>
        <time>2009-06-07T08:10:28Z</time>
      </trkpt>
      <trkpt lat="48.04391" lon="-0.78582">
        <ele>158</ele>
        <time>2009-06-07T08:10:30Z</time>
      </trkpt>
      <trkpt lat="48.04388" lon="-0.78589">
        <ele>157</ele>
        <time>2009-06-07T08:10:32Z</time>
      </trkpt>
      <trkpt lat="48.04385" lon="-0.78594">
        <ele>156</ele>
        <time>2009-06-07T08:10:34Z</time>
      </trkpt>
      <trkpt lat="48.04381" lon="-0.786">
        <ele>154</ele>
        <time>2009-06-07T08:10:36Z</time>
      </trkpt>
      <trkpt lat="48.04375" lon="-0.78606">
        <ele>154</ele>
        <time>2009-06-07T08:10:38Z</time>
      </trkpt>
      <trkpt lat="48.04372" lon="-0.78612">
        <ele>154</ele>
        <time>2009-06-07T08:10:40Z</time>
      </trkpt>
      <trkpt lat="48.04368" lon="-0.78618">
        <ele>155</ele>
        <time>2009-06-07T08:10:42Z</time>
      </trkpt>
      <trkpt lat="48.04362" lon="-0.7862">
        <ele>155</ele>
        <time>2009-06-07T08:10:44Z</time>
      </trkpt>
      <trkpt lat="48.04358" lon="-0.78622">
        <ele>156</ele>
        <time>2009-06-07T08:10:46Z</time>
      </trkpt>
      <trkpt lat="48.04355" lon="-0.78621">
        <ele>156</ele>
        <time>2009-06-07T08:10:48Z</time>
      </trkpt>
      <trkpt lat="48.04355" lon="-0.78623">
        <ele>156</ele>
        <time>2009-06-07T08:10:50Z</time>
      </trkpt>
      <trkpt lat="48.04351" lon="-0.78621">
        <ele>157</ele>
        <time>2009-06-07T08:10:52Z</time>
      </trkpt>
      <trkpt lat="48.04348" lon="-0.7862">
        <ele>158</ele>
        <time>2009-06-07T08:10:54Z</time>
      </trkpt>
      <trkpt lat="48.04345" lon="-0.78619">
        <ele>159</ele>
        <time>2009-06-07T08:10:56Z</time>
      </trkpt>
      <trkpt lat="48.04339" lon="-0.78619">
        <ele>160</ele>
        <time>2009-06-07T08:10:58Z</time>
      </trkpt>
      <trkpt lat="48.04333" lon="-0.78617">
        <ele>160</ele>
        <time>2009-06-07T08:11:00Z</time>
      </trkpt>
      <trkpt lat="48.04326" lon="-0.78614">
        <ele>160</ele>
        <time>2009-06-07T08:11:02Z</time>
      </trkpt>
      <trkpt lat="48.04321" lon="-0.78615">
        <ele>160</ele>
        <time>2009-06-07T08:11:04Z</time>
      </trkpt>
      <trkpt lat="48.04316" lon="-0.78615">
        <ele>160</ele>
        <time>2009-06-07T08:11:06Z</time>
      </trkpt>
      <trkpt lat="48.04311" lon="-0.78612">
        <ele>160</ele>
        <time>2009-06-07T08:11:08Z</time>
      </trkpt>
      <trkpt lat="48.04306" lon="-0.7861">
        <ele>160</ele>
        <time>2009-06-07T08:11:10Z</time>
      </trkpt>
      <trkpt lat="48.04306" lon="-0.78606">
        <ele>160</ele>
        <time>2009-06-07T08:11:12Z</time>
      </trkpt>
      <trkpt lat="48.04303" lon="-0.78601">
        <ele>160</ele>
        <time>2009-06-07T08:11:14Z</time>
      </trkpt>
      <trkpt lat="48.04297" lon="-0.78597">
        <ele>160</ele>
        <time>2009-06-07T08:11:16Z</time>
      </trkpt>
      <trkpt lat="48.04293" lon="-0.78592">
        <ele>161</ele>
        <time>2009-06-07T08:11:18Z</time>
      </trkpt>
      <trkpt lat="48.0429" lon="-0.78589">
        <ele>161</ele>
        <time>2009-06-07T08:11:20Z</time>
      </trkpt>
      <trkpt lat="48.04282" lon="-0.78585">
        <ele>160</ele>
        <time>2009-06-07T08:11:22Z</time>
      </trkpt>
      <trkpt lat="48.04274" lon="-0.78582">
        <ele>159</ele>
        <time>2009-06-07T08:11:24Z</time>
      </trkpt>
      <trkpt lat="48.04264" lon="-0.78583">
        <ele>159</ele>
        <time>2009-06-07T08:11:26Z</time>
      </trkpt>
      <trkpt lat="48.04256" lon="-0.78584">
        <ele>159</ele>
        <time>2009-06-07T08:11:29Z</time>
      </trkpt>
      <trkpt lat="48.04248" lon="-0.78585">
        <ele>159</ele>
        <time>2009-06-07T08:11:31Z</time>
      </trkpt>
      <trkpt lat="48.0424" lon="-0.7859">
        <ele>159</ele>
        <time>2009-06-07T08:11:33Z</time>
      </trkpt>
      <trkpt lat="48.04232" lon="-0.78594">
        <ele>160</ele>
        <time>2009-06-07T08:11:35Z</time>
      </trkpt>
      <trkpt lat="48.04225" lon="-0.78603">
        <ele>159</ele>
        <time>2009-06-07T08:11:37Z</time>
      </trkpt>
      <trkpt lat="48.04225" lon="-0.78619">
        <ele>158</ele>
        <time>2009-06-07T08:11:39Z</time>
      </trkpt>
      <trkpt lat="48.04222" lon="-0.78631">
        <ele>157</ele>
        <time>2009-06-07T08:11:41Z</time>
      </trkpt>
      <trkpt lat="48.04222" lon="-0.78643">
        <ele>157</ele>
        <time>2009-06-07T08:11:43Z</time>
      </trkpt>
      <trkpt lat="48.04222" lon="-0.78654">
        <ele>157</ele>
        <time>2009-06-07T08:11:45Z</time>
      </trkpt>
      <trkpt lat="48.04222" lon="-0.78664">
        <ele>156</ele>
        <time>2009-06-07T08:11:47Z</time>
      </trkpt>
      <trkpt lat="48.04224" lon="-0.78674">
        <ele>155</ele>
        <time>2009-06-07T08:11:49Z</time>
      </trkpt>
      <trkpt lat="48.04223" lon="-0.7869">
        <ele>155</ele>
        <time>2009-06-07T08:11:51Z</time>
      </trkpt>
      <trkpt lat="48.04225" lon="-0.78707">
        <ele>155</ele>
        <time>2009-06-07T08:11:53Z</time>
      </trkpt>
      <trkpt lat="48.04226" lon="-0.78718">
        <ele>155</ele>
        <time>2009-06-07T08:11:55Z</time>
      </trkpt>
      <trkpt lat="48.04226" lon="-0.78727">
        <ele>155</ele>
        <time>2009-06-07T08:11:57Z</time>
      </trkpt>
      <trkpt lat="48.04224" lon="-0.78738">
        <ele>155</ele>
        <time>2009-06-07T08:11:59Z</time>
      </trkpt>
      <trkpt lat="48.04224" lon="-0.7875">
        <ele>155</ele>
        <time>2009-06-07T08:12:01Z</time>
      </trkpt>
      <trkpt lat="48.04223" lon="-0.78762">
        <ele>154</ele>
        <time>2009-06-07T08:12:03Z</time>
      </trkpt>
      <trkpt lat="48.04221" lon="-0.78776">
        <ele>153</ele>
        <time>2009-06-07T08:12:05Z</time>
      </trkpt>
      <trkpt lat="48.0422" lon="-0.78788">
        <ele>153</ele>
        <time>2009-06-07T08:12:07Z</time>
      </trkpt>
      <trkpt lat="48.04219" lon="-0.78801">
        <ele>153</ele>
        <time>2009-06-07T08:12:09Z</time>
      </trkpt>
      <trkpt lat="48.04219" lon="-0.78812">
        <ele>153</ele>
        <time>2009-06-07T08:12:11Z</time>
      </trkpt>
      <trkpt lat="48.04219" lon="-0.78824">
        <ele>153</ele>
        <time>2009-06-07T08:12:13Z</time>
      </trkpt>
      <trkpt lat="48.04218" lon="-0.78838">
        <ele>153</ele>
        <time>2009-06-07T08:12:15Z</time>
      </trkpt>
      <trkpt lat="48.04218" lon="-0.78851">
        <ele>153</ele>
        <time>2009-06-07T08:12:17Z</time>
      </trkpt>
      <trkpt lat="48.04217" lon="-0.78863">
        <ele>153</ele>
        <time>2009-06-07T08:12:19Z</time>
      </trkpt>
      <trkpt lat="48.04215" lon="-0.78875">
        <ele>152</ele>
        <time>2009-06-07T08:12:21Z</time>
      </trkpt>
      <trkpt lat="48.04216" lon="-0.78887">
        <ele>152</ele>
        <time>2009-06-07T08:12:23Z</time>
      </trkpt>
      <trkpt lat="48.04215" lon="-0.78898">
        <ele>152</ele>
        <time>2009-06-07T08:12:25Z</time>
      </trkpt>
      <trkpt lat="48.04212" lon="-0.78912">
        <ele>152</ele>
        <time>2009-06-07T08:12:27Z</time>
      </trkpt>
      <trkpt lat="48.04212" lon="-0.78923">
        <ele>151</ele>
        <time>2009-06-07T08:12:29Z</time>
      </trkpt>
      <trkpt lat="48.04211" lon="-0.78933">
        <ele>151</ele>
        <time>2009-06-07T08:12:31Z</time>
      </trkpt>
      <trkpt lat="48.04211" lon="-0.78944">
        <ele>151</ele>
        <time>2009-06-07T08:12:33Z</time>
      </trkpt>
      <trkpt lat="48.04211" lon="-0.78956">
        <ele>151</ele>
        <time>2009-06-07T08:12:35Z</time>
      </trkpt>
      <trkpt lat="48.04211" lon="-0.78967">
        <ele>151</ele>
        <time>2009-06-07T08:12:37Z</time>
      </trkpt>
      <trkpt lat="48.04209" lon="-0.78979">
        <ele>152</ele>
        <time>2009-06-07T08:12:39Z</time>
      </trkpt>
      <trkpt lat="48.04208" lon="-0.7899">
        <ele>152</ele>
        <time>2009-06-07T08:12:41Z</time>
      </trkpt>
      <trkpt lat="48.04206" lon="-0.78998">
        <ele>152</ele>
        <time>2009-06-07T08:12:43Z</time>
      </trkpt>
      <trkpt lat="48.04204" lon="-0.79006">
        <ele>152</ele>
        <time>2009-06-07T08:12:45Z</time>
      </trkpt>
      <trkpt lat="48.04202" lon="-0.79014">
        <ele>153</ele>
        <time>2009-06-07T08:12:47Z</time>
      </trkpt>
      <trkpt lat="48.04202" lon="-0.79022">
        <ele>153</ele>
        <time>2009-06-07T08:12:49Z</time>
      </trkpt>
      <trkpt lat="48.04202" lon="-0.79028">
        <ele>152</ele>
        <time>2009-06-07T08:12:51Z</time>
      </trkpt>
      <trkpt lat="48.042" lon="-0.79033">
        <ele>152</ele>
        <time>2009-06-07T08:12:53Z</time>
      </trkpt>
      <trkpt lat="48.04195" lon="-0.79035">
        <ele>152</ele>
        <time>2009-06-07T08:12:55Z</time>
      </trkpt>
      <trkpt lat="48.04189" lon="-0.79034">
        <ele>152</ele>
        <time>2009-06-07T08:12:57Z</time>
      </trkpt>
      <trkpt lat="48.04181" lon="-0.79032">
        <ele>152</ele>
        <time>2009-06-07T08:12:59Z</time>
      </trkpt>
      <trkpt lat="48.04172" lon="-0.79029">
        <ele>152</ele>
        <time>2009-06-07T08:13:01Z</time>
      </trkpt>
      <trkpt lat="48.04163" lon="-0.79028">
        <ele>152</ele>
        <time>2009-06-07T08:13:03Z</time>
      </trkpt>
      <trkpt lat="48.04154" lon="-0.79027">
        <ele>152</ele>
        <time>2009-06-07T08:13:05Z</time>
      </trkpt>
      <trkpt lat="48.04147" lon="-0.79026">
        <ele>153</ele>
        <time>2009-06-07T08:13:07Z</time>
      </trkpt>
      <trkpt lat="48.04139" lon="-0.79025">
        <ele>153</ele>
        <time>2009-06-07T08:13:09Z</time>
      </trkpt>
      <trkpt lat="48.04129" lon="-0.79024">
        <ele>153</ele>
        <time>2009-06-07T08:13:11Z</time>
      </trkpt>
      <trkpt lat="48.04117" lon="-0.79023">
        <ele>157</ele>
        <time>2009-06-07T08:13:13Z</time>
      </trkpt>
      <trkpt lat="48.04107" lon="-0.79022">
        <ele>158</ele>
        <time>2009-06-07T08:13:15Z</time>
      </trkpt>
      <trkpt lat="48.04097" lon="-0.79019">
        <ele>158</ele>
        <time>2009-06-07T08:13:17Z</time>
      </trkpt>
      <trkpt lat="48.04084" lon="-0.79017">
        <ele>160</ele>
        <time>2009-06-07T08:13:19Z</time>
      </trkpt>
      <trkpt lat="48.04071" lon="-0.79013">
        <ele>161</ele>
        <time>2009-06-07T08:13:21Z</time>
      </trkpt>
      <trkpt lat="48.04058" lon="-0.79008">
        <ele>161</ele>
        <time>2009-06-07T08:13:23Z</time>
      </trkpt>
      <trkpt lat="48.04041" lon="-0.78998">
        <ele>161</ele>
        <time>2009-06-07T08:13:25Z</time>
      </trkpt>
      <trkpt lat="48.04026" lon="-0.78989">
        <ele>161</ele>
        <time>2009-06-07T08:13:27Z</time>
      </trkpt>
      <trkpt lat="48.04012" lon="-0.7899">
        <ele>161</ele>
        <time>2009-06-07T08:13:29Z</time>
      </trkpt>
      <trkpt lat="48.03998" lon="-0.78985">
        <ele>160</ele>
        <time>2009-06-07T08:13:31Z</time>
      </trkpt>
      <trkpt lat="48.03983" lon="-0.78982">
        <ele>160</ele>
        <time>2009-06-07T08:13:33Z</time>
      </trkpt>
      <trkpt lat="48.0397" lon="-0.78981">
        <ele>160</ele>
        <time>2009-06-07T08:13:35Z</time>
      </trkpt>
      <trkpt lat="48.03958" lon="-0.78982">
        <ele>160</ele>
        <time>2009-06-07T08:13:37Z</time>
      </trkpt>
      <trkpt lat="48.03946" lon="-0.78978">
        <ele>160</ele>
        <time>2009-06-07T08:13:39Z</time>
      </trkpt>
      <trkpt lat="48.03934" lon="-0.78977">
        <ele>160</ele>
        <time>2009-06-07T08:13:41Z</time>
      </trkpt>
      <trkpt lat="48.03921" lon="-0.78977">
        <ele>159</ele>
        <time>2009-06-07T08:13:43Z</time>
      </trkpt>
      <trkpt lat="48.03907" lon="-0.78972">
        <ele>160</ele>
        <time>2009-06-07T08:13:45Z</time>
      </trkpt>
      <trkpt lat="48.03894" lon="-0.78966">
        <ele>159</ele>
        <time>2009-06-07T08:13:47Z</time>
      </trkpt>
      <trkpt lat="48.0388" lon="-0.78965">
        <ele>159</ele>
        <time>2009-06-07T08:13:49Z</time>
      </trkpt>
      <trkpt lat="48.03872" lon="-0.78964">
        <ele>159</ele>
        <time>2009-06-07T08:13:51Z</time>
      </trkpt>
      <trkpt lat="48.03862" lon="-0.78964">
        <ele>159</ele>
        <time>2009-06-07T08:13:53Z</time>
      </trkpt>
      <trkpt lat="48.03856" lon="-0.78958">
        <ele>158</ele>
        <time>2009-06-07T08:13:55Z</time>
      </trkpt>
      <trkpt lat="48.03849" lon="-0.78954">
        <ele>158</ele>
        <time>2009-06-07T08:13:57Z</time>
      </trkpt>
      <trkpt lat="48.03844" lon="-0.78948">
        <ele>158</ele>
        <time>2009-06-07T08:13:59Z</time>
      </trkpt>
      <trkpt lat="48.03839" lon="-0.78938">
        <ele>158</ele>
        <time>2009-06-07T08:14:01Z</time>
      </trkpt>
      <trkpt lat="48.03839" lon="-0.78937">
        <ele>158</ele>
        <time>2009-06-07T08:14:03Z</time>
      </trkpt>
      <trkpt lat="48.03834" lon="-0.78928">
        <ele>158</ele>
        <time>2009-06-07T08:14:05Z</time>
      </trkpt>
      <trkpt lat="48.03827" lon="-0.78919">
        <ele>157</ele>
        <time>2009-06-07T08:14:07Z</time>
      </trkpt>
      <trkpt lat="48.03822" lon="-0.78908">
        <ele>157</ele>
        <time>2009-06-07T08:14:09Z</time>
      </trkpt>
      <trkpt lat="48.03816" lon="-0.78896">
        <ele>157</ele>
        <time>2009-06-07T08:14:11Z</time>
      </trkpt>
      <trkpt lat="48.03812" lon="-0.78887">
        <ele>157</ele>
        <time>2009-06-07T08:14:13Z</time>
      </trkpt>
      <trkpt lat="48.03808" lon="-0.78882">
        <ele>157</ele>
        <time>2009-06-07T08:14:15Z</time>
      </trkpt>
      <trkpt lat="48.03805" lon="-0.78878">
        <ele>157</ele>
        <time>2009-06-07T08:14:17Z</time>
      </trkpt>
      <trkpt lat="48.03804" lon="-0.78874">
        <ele>157</ele>
        <time>2009-06-07T08:14:19Z</time>
      </trkpt>
      <trkpt lat="48.03798" lon="-0.78866">
        <ele>157</ele>
        <time>2009-06-07T08:14:21Z</time>
      </trkpt>
      <trkpt lat="48.03795" lon="-0.7886">
        <ele>157</ele>
        <time>2009-06-07T08:14:23Z</time>
      </trkpt>
      <trkpt lat="48.03793" lon="-0.78853">
        <ele>157</ele>
        <time>2009-06-07T08:14:25Z</time>
      </trkpt>
      <trkpt lat="48.03791" lon="-0.78849">
        <ele>157</ele>
        <time>2009-06-07T08:14:27Z</time>
      </trkpt>
      <trkpt lat="48.03789" lon="-0.78847">
        <ele>156</ele>
        <time>2009-06-07T08:14:29Z</time>
      </trkpt>
      <trkpt lat="48.03777" lon="-0.78845">
        <ele>157</ele>
        <time>2009-06-07T08:14:31Z</time>
      </trkpt>
      <trkpt lat="48.03769" lon="-0.78845">
        <ele>157</ele>
        <time>2009-06-07T08:14:33Z</time>
      </trkpt>
      <trkpt lat="48.03763" lon="-0.78844">
        <ele>157</ele>
        <time>2009-06-07T08:14:35Z</time>
      </trkpt>
      <trkpt lat="48.03757" lon="-0.78844">
        <ele>157</ele>
        <time>2009-06-07T08:14:37Z</time>
      </trkpt>
      <trkpt lat="48.03749" lon="-0.78843">
        <ele>157</ele>
        <time>2009-06-07T08:14:39Z</time>
      </trkpt>
      <trkpt lat="48.03743" lon="-0.78845">
        <ele>157</ele>
        <time>2009-06-07T08:14:41Z</time>
      </trkpt>
      <trkpt lat="48.03737" lon="-0.78845">
        <ele>157</ele>
        <time>2009-06-07T08:14:43Z</time>
      </trkpt>
      <trkpt lat="48.03729" lon="-0.78841">
        <ele>157</ele>
        <time>2009-06-07T08:14:45Z</time>
      </trkpt>
      <trkpt lat="48.0372" lon="-0.78842">
        <ele>157</ele>
        <time>2009-06-07T08:14:47Z</time>
      </trkpt>
      <trkpt lat="48.03714" lon="-0.78843">
        <ele>157</ele>
        <time>2009-06-07T08:14:49Z</time>
      </trkpt>
      <trkpt lat="48.03708" lon="-0.78843">
        <ele>157</ele>
        <time>2009-06-07T08:14:51Z</time>
      </trkpt>
      <trkpt lat="48.03704" lon="-0.78846">
        <ele>157</ele>
        <time>2009-06-07T08:14:53Z</time>
      </trkpt>
      <trkpt lat="48.03697" lon="-0.78847">
        <ele>156</ele>
        <time>2009-06-07T08:14:55Z</time>
      </trkpt>
      <trkpt lat="48.03692" lon="-0.78851">
        <ele>156</ele>
        <time>2009-06-07T08:14:57Z</time>
      </trkpt>
      <trkpt lat="48.03688" lon="-0.78854">
        <ele>155</ele>
        <time>2009-06-07T08:14:59Z</time>
      </trkpt>
      <trkpt lat="48.03683" lon="-0.78854">
        <ele>155</ele>
        <time>2009-06-07T08:15:01Z</time>
      </trkpt>
      <trkpt lat="48.0368" lon="-0.78854">
        <ele>155</ele>
        <time>2009-06-07T08:15:03Z</time>
      </trkpt>
      <trkpt lat="48.03673" lon="-0.78854">
        <ele>154</ele>
        <time>2009-06-07T08:15:05Z</time>
      </trkpt>
      <trkpt lat="48.03668" lon="-0.78855">
        <ele>154</ele>
        <time>2009-06-07T08:15:07Z</time>
      </trkpt>
      <trkpt lat="48.03663" lon="-0.78853">
        <ele>155</ele>
        <time>2009-06-07T08:15:09Z</time>
      </trkpt>
      <trkpt lat="48.03658" lon="-0.78854">
        <ele>155</ele>
        <time>2009-06-07T08:15:11Z</time>
      </trkpt>
      <trkpt lat="48.03653" lon="-0.78853">
        <ele>155</ele>
        <time>2009-06-07T08:15:13Z</time>
      </trkpt>
      <trkpt lat="48.03648" lon="-0.78851">
        <ele>156</ele>
        <time>2009-06-07T08:15:15Z</time>
      </trkpt>
      <trkpt lat="48.03644" lon="-0.7885">
        <ele>156</ele>
        <time>2009-06-07T08:15:17Z</time>
      </trkpt>
      <trkpt lat="48.03641" lon="-0.78849">
        <ele>156</ele>
        <time>2009-06-07T08:15:19Z</time>
      </trkpt>
      <trkpt lat="48.03637" lon="-0.78849">
        <ele>156</ele>
        <time>2009-06-07T08:15:21Z</time>
      </trkpt>
      <trkpt lat="48.03631" lon="-0.78848">
        <ele>156</ele>
        <time>2009-06-07T08:15:23Z</time>
      </trkpt>
      <trkpt lat="48.03628" lon="-0.78847">
        <ele>156</ele>
        <time>2009-06-07T08:15:25Z</time>
      </trkpt>
      <trkpt lat="48.03624" lon="-0.78846">
        <ele>156</ele>
        <time>2009-06-07T08:15:27Z</time>
      </trkpt>
      <trkpt lat="48.03622" lon="-0.78846">
        <ele>156</ele>
        <time>2009-06-07T08:15:29Z</time>
      </trkpt>
      <trkpt lat="48.03617" lon="-0.78843">
        <ele>156</ele>
        <time>2009-06-07T08:15:31Z</time>
      </trkpt>
      <trkpt lat="48.03614" lon="-0.78845">
        <ele>156</ele>
        <time>2009-06-07T08:15:33Z</time>
      </trkpt>
      <trkpt lat="48.03611" lon="-0.78844">
        <ele>156</ele>
        <time>2009-06-07T08:15:35Z</time>
      </trkpt>
      <trkpt lat="48.03607" lon="-0.78842">
        <ele>156</ele>
        <time>2009-06-07T08:15:37Z</time>
      </trkpt>
      <trkpt lat="48.03605" lon="-0.7884">
        <ele>156</ele>
        <time>2009-06-07T08:15:39Z</time>
      </trkpt>
      <trkpt lat="48.03603" lon="-0.78839">
        <ele>156</ele>
        <time>2009-06-07T08:15:41Z</time>
      </trkpt>
      <trkpt lat="48.03602" lon="-0.7884">
        <ele>156</ele>
        <time>2009-06-07T08:15:43Z</time>
      </trkpt>
      <trkpt lat="48.036" lon="-0.7884">
        <ele>156</ele>
        <time>2009-06-07T08:15:45Z</time>
      </trkpt>
      <trkpt lat="48.03595" lon="-0.78839">
        <ele>156</ele>
        <time>2009-06-07T08:15:47Z</time>
      </trkpt>
      <trkpt lat="48.03592" lon="-0.78838">
        <ele>156</ele>
        <time>2009-06-07T08:15:49Z</time>
      </trkpt>
      <trkpt lat="48.0359" lon="-0.78836">
        <ele>156</ele>
        <time>2009-06-07T08:15:51Z</time>
      </trkpt>
      <trkpt lat="48.03587" lon="-0.78835">
        <ele>156</ele>
        <time>2009-06-07T08:15:53Z</time>
      </trkpt>
      <trkpt lat="48.03585" lon="-0.78835">
        <ele>156</ele>
        <time>2009-06-07T08:15:55Z</time>
      </trkpt>
      <trkpt lat="48.03584" lon="-0.78835">
        <ele>156</ele>
        <time>2009-06-07T08:15:57Z</time>
      </trkpt>
      <trkpt lat="48.03579" lon="-0.78832">
        <ele>155</ele>
        <time>2009-06-07T08:15:59Z</time>
      </trkpt>
      <trkpt lat="48.03574" lon="-0.78828">
        <ele>155</ele>
        <time>2009-06-07T08:16:01Z</time>
      </trkpt>
      <trkpt lat="48.03568" lon="-0.78824">
        <ele>155</ele>
        <time>2009-06-07T08:16:03Z</time>
      </trkpt>
      <trkpt lat="48.0356" lon="-0.78823">
        <ele>155</ele>
        <time>2009-06-07T08:16:05Z</time>
      </trkpt>
      <trkpt lat="48.03556" lon="-0.78822">
        <ele>154</ele>
        <time>2009-06-07T08:16:07Z</time>
      </trkpt>
      <trkpt lat="48.03552" lon="-0.78821">
        <ele>154</ele>
        <time>2009-06-07T08:16:09Z</time>
      </trkpt>
      <trkpt lat="48.03548" lon="-0.78819">
        <ele>154</ele>
        <time>2009-06-07T08:16:11Z</time>
      </trkpt>
      <trkpt lat="48.03543" lon="-0.78818">
        <ele>153</ele>
        <time>2009-06-07T08:16:13Z</time>
      </trkpt>
      <trkpt lat="48.0354" lon="-0.78817">
        <ele>153</ele>
        <time>2009-06-07T08:16:15Z</time>
      </trkpt>
      <trkpt lat="48.03537" lon="-0.78816">
        <ele>152</ele>
        <time>2009-06-07T08:16:17Z</time>
      </trkpt>
      <trkpt lat="48.03532" lon="-0.78812">
        <ele>152</ele>
        <time>2009-06-07T08:16:19Z</time>
      </trkpt>
      <trkpt lat="48.03529" lon="-0.78811">
        <ele>152</ele>
        <time>2009-06-07T08:16:21Z</time>
      </trkpt>
      <trkpt lat="48.03524" lon="-0.78807">
        <ele>152</ele>
        <time>2009-06-07T08:16:23Z</time>
      </trkpt>
      <trkpt lat="48.03521" lon="-0.78806">
        <ele>152</ele>
        <time>2009-06-07T08:16:25Z</time>
      </trkpt>
      <trkpt lat="48.03518" lon="-0.78803">
        <ele>152</ele>
        <time>2009-06-07T08:16:27Z</time>
      </trkpt>
      <trkpt lat="48.03516" lon="-0.78802">
        <ele>152</ele>
        <time>2009-06-07T08:16:29Z</time>
      </trkpt>
      <trkpt lat="48.03509" lon="-0.78797">
        <ele>152</ele>
        <time>2009-06-07T08:16:31Z</time>
      </trkpt>
      <trkpt lat="48.03501" lon="-0.78796">
        <ele>152</ele>
        <time>2009-06-07T08:16:33Z</time>
      </trkpt>
      <trkpt lat="48.03494" lon="-0.78794">
        <ele>152</ele>
        <time>2009-06-07T08:16:35Z</time>
      </trkpt>
      <trkpt lat="48.03488" lon="-0.78797">
        <ele>153</ele>
        <time>2009-06-07T08:16:37Z</time>
      </trkpt>
      <trkpt lat="48.03483" lon="-0.78795">
        <ele>154</ele>
        <time>2009-06-07T08:16:39Z</time>
      </trkpt>
      <trkpt lat="48.03477" lon="-0.78797">
        <ele>155</ele>
        <time>2009-06-07T08:16:41Z</time>
      </trkpt>
      <trkpt lat="48.03471" lon="-0.78797">
        <ele>155</ele>
        <time>2009-06-07T08:16:43Z</time>
      </trkpt>
      <trkpt lat="48.03466" lon="-0.78796">
        <ele>155</ele>
        <time>2009-06-07T08:16:45Z</time>
      </trkpt>
      <trkpt lat="48.03461" lon="-0.78795">
        <ele>155</ele>
        <time>2009-06-07T08:16:47Z</time>
      </trkpt>
      <trkpt lat="48.03458" lon="-0.78798">
        <ele>155</ele>
        <time>2009-06-07T08:16:49Z</time>
      </trkpt>
      <trkpt lat="48.03457" lon="-0.78806">
        <ele>155</ele>
        <time>2009-06-07T08:16:51Z</time>
      </trkpt>
      <trkpt lat="48.03453" lon="-0.78814">
        <ele>157</ele>
        <time>2009-06-07T08:16:53Z</time>
      </trkpt>
      <trkpt lat="48.0345" lon="-0.78821">
        <ele>157</ele>
        <time>2009-06-07T08:16:55Z</time>
      </trkpt>
      <trkpt lat="48.03448" lon="-0.78825">
        <ele>157</ele>
        <time>2009-06-07T08:16:57Z</time>
      </trkpt>
      <trkpt lat="48.03445" lon="-0.78831">
        <ele>157</ele>
        <time>2009-06-07T08:16:59Z</time>
      </trkpt>
      <trkpt lat="48.03444" lon="-0.78837">
        <ele>156</ele>
        <time>2009-06-07T08:17:01Z</time>
      </trkpt>
      <trkpt lat="48.03438" lon="-0.78844">
        <ele>156</ele>
        <time>2009-06-07T08:17:03Z</time>
      </trkpt>
      <trkpt lat="48.0343" lon="-0.78851">
        <ele>156</ele>
        <time>2009-06-07T08:17:05Z</time>
      </trkpt>
      <trkpt lat="48.03425" lon="-0.78854">
        <ele>156</ele>
        <time>2009-06-07T08:17:07Z</time>
      </trkpt>
      <trkpt lat="48.03422" lon="-0.78858">
        <ele>156</ele>
        <time>2009-06-07T08:17:09Z</time>
      </trkpt>
      <trkpt lat="48.03418" lon="-0.78863">
        <ele>156</ele>
        <time>2009-06-07T08:17:11Z</time>
      </trkpt>
      <trkpt lat="48.03413" lon="-0.78865">
        <ele>156</ele>
        <time>2009-06-07T08:17:13Z</time>
      </trkpt>
      <trkpt lat="48.03407" lon="-0.7887">
        <ele>156</ele>
        <time>2009-06-07T08:17:15Z</time>
      </trkpt>
      <trkpt lat="48.03403" lon="-0.78874">
        <ele>156</ele>
        <time>2009-06-07T08:17:17Z</time>
      </trkpt>
      <trkpt lat="48.03401" lon="-0.78877">
        <ele>156</ele>
        <time>2009-06-07T08:17:19Z</time>
      </trkpt>
      <trkpt lat="48.03395" lon="-0.78878">
        <ele>155</ele>
        <time>2009-06-07T08:17:21Z</time>
      </trkpt>
      <trkpt lat="48.03389" lon="-0.78879">
        <ele>155</ele>
        <time>2009-06-07T08:17:23Z</time>
      </trkpt>
      <trkpt lat="48.03383" lon="-0.78879">
        <ele>155</ele>
        <time>2009-06-07T08:17:25Z</time>
      </trkpt>
      <trkpt lat="48.03378" lon="-0.78883">
        <ele>155</ele>
        <time>2009-06-07T08:17:27Z</time>
      </trkpt>
      <trkpt lat="48.03373" lon="-0.78887">
        <ele>154</ele>
        <time>2009-06-07T08:17:29Z</time>
      </trkpt>
      <trkpt lat="48.03366" lon="-0.7889">
        <ele>154</ele>
        <time>2009-06-07T08:17:31Z</time>
      </trkpt>
      <trkpt lat="48.03363" lon="-0.78892">
        <ele>155</ele>
        <time>2009-06-07T08:17:33Z</time>
      </trkpt>
      <trkpt lat="48.03361" lon="-0.78889">
        <ele>154</ele>
        <time>2009-06-07T08:17:35Z</time>
      </trkpt>
      <trkpt lat="48.03357" lon="-0.78889">
        <ele>153</ele>
        <time>2009-06-07T08:17:37Z</time>
      </trkpt>
      <trkpt lat="48.03354" lon="-0.78888">
        <ele>153</ele>
        <time>2009-06-07T08:17:39Z</time>
      </trkpt>
      <trkpt lat="48.0335" lon="-0.78886">
        <ele>153</ele>
        <time>2009-06-07T08:17:41Z</time>
      </trkpt>
      <trkpt lat="48.03346" lon="-0.78882">
        <ele>153</ele>
        <time>2009-06-07T08:17:43Z</time>
      </trkpt>
      <trkpt lat="48.03345" lon="-0.78878">
        <ele>152</ele>
        <time>2009-06-07T08:17:45Z</time>
      </trkpt>
      <trkpt lat="48.03342" lon="-0.78874">
        <ele>152</ele>
        <time>2009-06-07T08:17:47Z</time>
      </trkpt>
      <trkpt lat="48.0334" lon="-0.78867">
        <ele>153</ele>
        <time>2009-06-07T08:17:49Z</time>
      </trkpt>
      <trkpt lat="48.03337" lon="-0.78862">
        <ele>153</ele>
        <time>2009-06-07T08:17:51Z</time>
      </trkpt>
      <trkpt lat="48.03333" lon="-0.78858">
        <ele>152</ele>
        <time>2009-06-07T08:17:53Z</time>
      </trkpt>
      <trkpt lat="48.03334" lon="-0.7885">
        <ele>152</ele>
        <time>2009-06-07T08:17:55Z</time>
      </trkpt>
      <trkpt lat="48.03333" lon="-0.78845">
        <ele>152</ele>
        <time>2009-06-07T08:17:57Z</time>
      </trkpt>
      <trkpt lat="48.03333" lon="-0.78842">
        <ele>152</ele>
        <time>2009-06-07T08:17:59Z</time>
      </trkpt>
      <trkpt lat="48.03334" lon="-0.78835">
        <ele>152</ele>
        <time>2009-06-07T08:18:01Z</time>
      </trkpt>
      <trkpt lat="48.03335" lon="-0.7883">
        <ele>151</ele>
        <time>2009-06-07T08:18:03Z</time>
      </trkpt>
      <trkpt lat="48.03337" lon="-0.78823">
        <ele>152</ele>
        <time>2009-06-07T08:18:05Z</time>
      </trkpt>
      <trkpt lat="48.03337" lon="-0.78819">
        <ele>152</ele>
        <time>2009-06-07T08:18:07Z</time>
      </trkpt>
      <trkpt lat="48.03337" lon="-0.78815">
        <ele>152</ele>
        <time>2009-06-07T08:18:09Z</time>
      </trkpt>
      <trkpt lat="48.03336" lon="-0.7881">
        <ele>152</ele>
        <time>2009-06-07T08:18:11Z</time>
      </trkpt>
      <trkpt lat="48.03335" lon="-0.78804">
        <ele>152</ele>
        <time>2009-06-07T08:18:13Z</time>
      </trkpt>
      <trkpt lat="48.03334" lon="-0.78799">
        <ele>152</ele>
        <time>2009-06-07T08:18:15Z</time>
      </trkpt>
      <trkpt lat="48.03334" lon="-0.78794">
        <ele>152</ele>
        <time>2009-06-07T08:18:17Z</time>
      </trkpt>
      <trkpt lat="48.03334" lon="-0.78787">
        <ele>152</ele>
        <time>2009-06-07T08:18:19Z</time>
      </trkpt>
      <trkpt lat="48.03333" lon="-0.78783">
        <ele>152</ele>
        <time>2009-06-07T08:18:21Z</time>
      </trkpt>
      <trkpt lat="48.03331" lon="-0.78775">
        <ele>152</ele>
        <time>2009-06-07T08:18:23Z</time>
      </trkpt>
      <trkpt lat="48.03331" lon="-0.7877">
        <ele>152</ele>
        <time>2009-06-07T08:18:25Z</time>
      </trkpt>
      <trkpt lat="48.03331" lon="-0.78766">
        <ele>152</ele>
        <time>2009-06-07T08:18:27Z</time>
      </trkpt>
      <trkpt lat="48.03332" lon="-0.78758">
        <ele>151</ele>
        <time>2009-06-07T08:18:29Z</time>
      </trkpt>
      <trkpt lat="48.03334" lon="-0.78751">
        <ele>151</ele>
        <time>2009-06-07T08:18:31Z</time>
      </trkpt>
      <trkpt lat="48.03333" lon="-0.78744">
        <ele>151</ele>
        <time>2009-06-07T08:18:33Z</time>
      </trkpt>
      <trkpt lat="48.03332" lon="-0.78733">
        <ele>151</ele>
        <time>2009-06-07T08:18:35Z</time>
      </trkpt>
      <trkpt lat="48.03333" lon="-0.78725">
        <ele>151</ele>
        <time>2009-06-07T08:18:37Z</time>
      </trkpt>
      <trkpt lat="48.03334" lon="-0.78717">
        <ele>151</ele>
        <time>2009-06-07T08:18:39Z</time>
      </trkpt>
      <trkpt lat="48.03335" lon="-0.78711">
        <ele>151</ele>
        <time>2009-06-07T08:18:41Z</time>
      </trkpt>
      <trkpt lat="48.03334" lon="-0.78703">
        <ele>151</ele>
        <time>2009-06-07T08:18:43Z</time>
      </trkpt>
      <trkpt lat="48.03334" lon="-0.78696">
        <ele>152</ele>
        <time>2009-06-07T08:18:45Z</time>
      </trkpt>
      <trkpt lat="48.03335" lon="-0.78688">
        <ele>152</ele>
        <time>2009-06-07T08:18:47Z</time>
      </trkpt>
      <trkpt lat="48.03334" lon="-0.78681">
        <ele>152</ele>
        <time>2009-06-07T08:18:49Z</time>
      </trkpt>
      <trkpt lat="48.03335" lon="-0.78673">
        <ele>152</ele>
        <time>2009-06-07T08:18:51Z</time>
      </trkpt>
      <trkpt lat="48.03335" lon="-0.78665">
        <ele>152</ele>
        <time>2009-06-07T08:18:53Z</time>
      </trkpt>
      <trkpt lat="48.03336" lon="-0.78657">
        <ele>152</ele>
        <time>2009-06-07T08:18:55Z</time>
      </trkpt>
      <trkpt lat="48.03337" lon="-0.78649">
        <ele>153</ele>
        <time>2009-06-07T08:18:57Z</time>
      </trkpt>
      <trkpt lat="48.03338" lon="-0.78641">
        <ele>152</ele>
        <time>2009-06-07T08:18:59Z</time>
      </trkpt>
      <trkpt lat="48.03339" lon="-0.78633">
        <ele>153</ele>
        <time>2009-06-07T08:19:01Z</time>
      </trkpt>
      <trkpt lat="48.03339" lon="-0.78622">
        <ele>153</ele>
        <time>2009-06-07T08:19:03Z</time>
      </trkpt>
      <trkpt lat="48.03339" lon="-0.78612">
        <ele>153</ele>
        <time>2009-06-07T08:19:05Z</time>
      </trkpt>
      <trkpt lat="48.03341" lon="-0.78604">
        <ele>153</ele>
        <time>2009-06-07T08:19:07Z</time>
      </trkpt>
      <trkpt lat="48.03341" lon="-0.78594">
        <ele>153</ele>
        <time>2009-06-07T08:19:09Z</time>
      </trkpt>
      <trkpt lat="48.03339" lon="-0.78586">
        <ele>153</ele>
        <time>2009-06-07T08:19:11Z</time>
      </trkpt>
      <trkpt lat="48.03339" lon="-0.78576">
        <ele>153</ele>
        <time>2009-06-07T08:19:13Z</time>
      </trkpt>
      <trkpt lat="48.03338" lon="-0.78565">
        <ele>154</ele>
        <time>2009-06-07T08:19:15Z</time>
      </trkpt>
      <trkpt lat="48.03338" lon="-0.78555">
        <ele>154</ele>
        <time>2009-06-07T08:19:17Z</time>
      </trkpt>
      <trkpt lat="48.03339" lon="-0.78545">
        <ele>154</ele>
        <time>2009-06-07T08:19:19Z</time>
      </trkpt>
      <trkpt lat="48.03337" lon="-0.78535">
        <ele>155</ele>
        <time>2009-06-07T08:19:21Z</time>
      </trkpt>
      <trkpt lat="48.03333" lon="-0.78527">
        <ele>156</ele>
        <time>2009-06-07T08:19:23Z</time>
      </trkpt>
      <trkpt lat="48.03334" lon="-0.78516">
        <ele>156</ele>
        <time>2009-06-07T08:19:25Z</time>
      </trkpt>
      <trkpt lat="48.03334" lon="-0.78507">
        <ele>157</ele>
        <time>2009-06-07T08:19:27Z</time>
      </trkpt>
      <trkpt lat="48.03333" lon="-0.785">
        <ele>157</ele>
        <time>2009-06-07T08:19:29Z</time>
      </trkpt>
      <trkpt lat="48.03333" lon="-0.78491">
        <ele>157</ele>
        <time>2009-06-07T08:19:31Z</time>
      </trkpt>
      <trkpt lat="48.03335" lon="-0.78482">
        <ele>157</ele>
        <time>2009-06-07T08:19:33Z</time>
      </trkpt>
      <trkpt lat="48.03335" lon="-0.78469">
        <ele>158</ele>
        <time>2009-06-07T08:19:35Z</time>
      </trkpt>
      <trkpt lat="48.03334" lon="-0.7846">
        <ele>158</ele>
        <time>2009-06-07T08:19:37Z</time>
      </trkpt>
      <trkpt lat="48.03333" lon="-0.78448">
        <ele>158</ele>
        <time>2009-06-07T08:19:39Z</time>
      </trkpt>
      <trkpt lat="48.03334" lon="-0.78437">
        <ele>159</ele>
        <time>2009-06-07T08:19:41Z</time>
      </trkpt>
      <trkpt lat="48.03336" lon="-0.78426">
        <ele>159</ele>
        <time>2009-06-07T08:19:43Z</time>
      </trkpt>
      <trkpt lat="48.03338" lon="-0.78411">
        <ele>158</ele>
        <time>2009-06-07T08:19:45Z</time>
      </trkpt>
      <trkpt lat="48.03341" lon="-0.784">
        <ele>158</ele>
        <time>2009-06-07T08:19:47Z</time>
      </trkpt>
      <trkpt lat="48.03342" lon="-0.78387">
        <ele>158</ele>
        <time>2009-06-07T08:19:49Z</time>
      </trkpt>
      <trkpt lat="48.03343" lon="-0.78375">
        <ele>159</ele>
        <time>2009-06-07T08:19:51Z</time>
      </trkpt>
      <trkpt lat="48.03344" lon="-0.78367">
        <ele>159</ele>
        <time>2009-06-07T08:19:53Z</time>
      </trkpt>
      <trkpt lat="48.03343" lon="-0.78357">
        <ele>160</ele>
        <time>2009-06-07T08:19:55Z</time>
      </trkpt>
      <trkpt lat="48.03345" lon="-0.78348">
        <ele>159</ele>
        <time>2009-06-07T08:19:57Z</time>
      </trkpt>
      <trkpt lat="48.03345" lon="-0.78337">
        <ele>159</ele>
        <time>2009-06-07T08:19:59Z</time>
      </trkpt>
      <trkpt lat="48.03346" lon="-0.78326">
        <ele>160</ele>
        <time>2009-06-07T08:20:01Z</time>
      </trkpt>
      <trkpt lat="48.03347" lon="-0.78316">
        <ele>161</ele>
        <time>2009-06-07T08:20:03Z</time>
      </trkpt>
      <trkpt lat="48.03347" lon="-0.78305">
        <ele>162</ele>
        <time>2009-06-07T08:20:06Z</time>
      </trkpt>
      <trkpt lat="48.03345" lon="-0.78296">
        <ele>161</ele>
        <time>2009-06-07T08:20:07Z</time>
      </trkpt>
      <trkpt lat="48.03341" lon="-0.78281">
        <ele>165</ele>
        <time>2009-06-07T08:20:09Z</time>
      </trkpt>
      <trkpt lat="48.03342" lon="-0.78273">
        <ele>166</ele>
        <time>2009-06-07T08:20:11Z</time>
      </trkpt>
      <trkpt lat="48.03342" lon="-0.78262">
        <ele>166</ele>
        <time>2009-06-07T08:20:13Z</time>
      </trkpt>
      <trkpt lat="48.03342" lon="-0.78251">
        <ele>166</ele>
        <time>2009-06-07T08:20:15Z</time>
      </trkpt>
      <trkpt lat="48.03345" lon="-0.78242">
        <ele>166</ele>
        <time>2009-06-07T08:20:17Z</time>
      </trkpt>
      <trkpt lat="48.03345" lon="-0.78232">
        <ele>165</ele>
        <time>2009-06-07T08:20:19Z</time>
      </trkpt>
      <trkpt lat="48.03345" lon="-0.78223">
        <ele>164</ele>
        <time>2009-06-07T08:20:21Z</time>
      </trkpt>
      <trkpt lat="48.03346" lon="-0.78214">
        <ele>164</ele>
        <time>2009-06-07T08:20:23Z</time>
      </trkpt>
      <trkpt lat="48.03347" lon="-0.78203">
        <ele>165</ele>
        <time>2009-06-07T08:20:25Z</time>
      </trkpt>
      <trkpt lat="48.03348" lon="-0.78192">
        <ele>165</ele>
        <time>2009-06-07T08:20:27Z</time>
      </trkpt>
      <trkpt lat="48.03349" lon="-0.78184">
        <ele>166</ele>
        <time>2009-06-07T08:20:29Z</time>
      </trkpt>
      <trkpt lat="48.0335" lon="-0.78175">
        <ele>166</ele>
        <time>2009-06-07T08:20:31Z</time>
      </trkpt>
      <trkpt lat="48.03353" lon="-0.78164">
        <ele>166</ele>
        <time>2009-06-07T08:20:33Z</time>
      </trkpt>
      <trkpt lat="48.03357" lon="-0.78154">
        <ele>166</ele>
        <time>2009-06-07T08:20:36Z</time>
      </trkpt>
      <trkpt lat="48.03358" lon="-0.78147">
        <ele>166</ele>
        <time>2009-06-07T08:20:38Z</time>
      </trkpt>
      <trkpt lat="48.03359" lon="-0.78142">
        <ele>166</ele>
        <time>2009-06-07T08:20:40Z</time>
      </trkpt>
      <trkpt lat="48.03361" lon="-0.78135">
        <ele>165</ele>
        <time>2009-06-07T08:20:42Z</time>
      </trkpt>
      <trkpt lat="48.03361" lon="-0.78126">
        <ele>165</ele>
        <time>2009-06-07T08:20:44Z</time>
      </trkpt>
      <trkpt lat="48.03356" lon="-0.78111">
        <ele>167</ele>
        <time>2009-06-07T08:20:46Z</time>
      </trkpt>
      <trkpt lat="48.03356" lon="-0.78102">
        <ele>167</ele>
        <time>2009-06-07T08:20:48Z</time>
      </trkpt>
      <trkpt lat="48.03358" lon="-0.78092">
        <ele>168</ele>
        <time>2009-06-07T08:20:50Z</time>
      </trkpt>
      <trkpt lat="48.0336" lon="-0.78082">
        <ele>168</ele>
        <time>2009-06-07T08:20:52Z</time>
      </trkpt>
      <trkpt lat="48.03363" lon="-0.78068">
        <ele>167</ele>
        <time>2009-06-07T08:20:54Z</time>
      </trkpt>
      <trkpt lat="48.03366" lon="-0.78064">
        <ele>166</ele>
        <time>2009-06-07T08:20:56Z</time>
      </trkpt>
      <trkpt lat="48.03372" lon="-0.78065">
        <ele>166</ele>
        <time>2009-06-07T08:20:58Z</time>
      </trkpt>
      <trkpt lat="48.03374" lon="-0.78065">
        <ele>167</ele>
        <time>2009-06-07T08:21:00Z</time>
      </trkpt>
      <trkpt lat="48.03373" lon="-0.7806">
        <ele>165</ele>
        <time>2009-06-07T08:21:02Z</time>
      </trkpt>
      <trkpt lat="48.03376" lon="-0.78057">
        <ele>164</ele>
        <time>2009-06-07T08:21:04Z</time>
      </trkpt>
      <trkpt lat="48.03377" lon="-0.78055">
        <ele>164</ele>
        <time>2009-06-07T08:21:06Z</time>
      </trkpt>
      <trkpt lat="48.03379" lon="-0.78053">
        <ele>163</ele>
        <time>2009-06-07T08:21:08Z</time>
      </trkpt>
      <trkpt lat="48.03384" lon="-0.78048">
        <ele>162</ele>
        <time>2009-06-07T08:21:10Z</time>
      </trkpt>
      <trkpt lat="48.03389" lon="-0.78043">
        <ele>161</ele>
        <time>2009-06-07T08:21:12Z</time>
      </trkpt>
      <trkpt lat="48.03392" lon="-0.78041">
        <ele>160</ele>
        <time>2009-06-07T08:21:14Z</time>
      </trkpt>
      <trkpt lat="48.03395" lon="-0.78038">
        <ele>160</ele>
        <time>2009-06-07T08:21:16Z</time>
      </trkpt>
      <trkpt lat="48.034" lon="-0.78041">
        <ele>160</ele>
        <time>2009-06-07T08:21:18Z</time>
      </trkpt>
      <trkpt lat="48.03399" lon="-0.78036">
        <ele>161</ele>
        <time>2009-06-07T08:21:20Z</time>
      </trkpt>
      <trkpt lat="48.034" lon="-0.78034">
        <ele>161</ele>
        <time>2009-06-07T08:21:22Z</time>
      </trkpt>
      <trkpt lat="48.03404" lon="-0.78027">
        <ele>160</ele>
        <time>2009-06-07T08:21:24Z</time>
      </trkpt>
      <trkpt lat="48.03407" lon="-0.78025">
        <ele>160</ele>
        <time>2009-06-07T08:21:26Z</time>
      </trkpt>
      <trkpt lat="48.0341" lon="-0.78022">
        <ele>158</ele>
        <time>2009-06-07T08:21:28Z</time>
      </trkpt>
      <trkpt lat="48.03413" lon="-0.7802">
        <ele>157</ele>
        <time>2009-06-07T08:21:30Z</time>
      </trkpt>
      <trkpt lat="48.0342" lon="-0.7802">
        <ele>157</ele>
        <time>2009-06-07T08:21:32Z</time>
      </trkpt>
      <trkpt lat="48.03424" lon="-0.7802">
        <ele>156</ele>
        <time>2009-06-07T08:21:34Z</time>
      </trkpt>
      <trkpt lat="48.03429" lon="-0.78022">
        <ele>155</ele>
        <time>2009-06-07T08:21:36Z</time>
      </trkpt>
      <trkpt lat="48.03428" lon="-0.78025">
        <ele>153</ele>
        <time>2009-06-07T08:21:38Z</time>
      </trkpt>
      <trkpt lat="48.03432" lon="-0.78028">
        <ele>154</ele>
        <time>2009-06-07T08:21:40Z</time>
      </trkpt>
      <trkpt lat="48.0344" lon="-0.78031">
        <ele>153</ele>
        <time>2009-06-07T08:21:42Z</time>
      </trkpt>
      <trkpt lat="48.03445" lon="-0.78032">
        <ele>152</ele>
        <time>2009-06-07T08:21:44Z</time>
      </trkpt>
      <trkpt lat="48.0345" lon="-0.78036">
        <ele>152</ele>
        <time>2009-06-07T08:21:46Z</time>
      </trkpt>
      <trkpt lat="48.03453" lon="-0.78037">
        <ele>151</ele>
        <time>2009-06-07T08:21:48Z</time>
      </trkpt>
      <trkpt lat="48.0346" lon="-0.78037">
        <ele>151</ele>
        <time>2009-06-07T08:21:50Z</time>
      </trkpt>
      <trkpt lat="48.03463" lon="-0.78038">
        <ele>152</ele>
        <time>2009-06-07T08:21:52Z</time>
      </trkpt>
      <trkpt lat="48.03467" lon="-0.78039">
        <ele>152</ele>
        <time>2009-06-07T08:21:54Z</time>
      </trkpt>
      <trkpt lat="48.03473" lon="-0.78038">
        <ele>152</ele>
        <time>2009-06-07T08:21:56Z</time>
      </trkpt>
      <trkpt lat="48.03477" lon="-0.78036">
        <ele>153</ele>
        <time>2009-06-07T08:21:58Z</time>
      </trkpt>
      <trkpt lat="48.0348" lon="-0.78035">
        <ele>153</ele>
        <time>2009-06-07T08:22:00Z</time>
      </trkpt>
      <trkpt lat="48.03484" lon="-0.78029">
        <ele>154</ele>
        <time>2009-06-07T08:22:02Z</time>
      </trkpt>
      <trkpt lat="48.03487" lon="-0.78022">
        <ele>154</ele>
        <time>2009-06-07T08:22:04Z</time>
      </trkpt>
      <trkpt lat="48.03487" lon="-0.78016">
        <ele>154</ele>
        <time>2009-06-07T08:22:06Z</time>
      </trkpt>
      <trkpt lat="48.03489" lon="-0.78008">
        <ele>154</ele>
        <time>2009-06-07T08:22:08Z</time>
      </trkpt>
      <trkpt lat="48.03487" lon="-0.78">
        <ele>154</ele>
        <time>2009-06-07T08:22:10Z</time>
      </trkpt>
      <trkpt lat="48.03489" lon="-0.77997">
        <ele>155</ele>
        <time>2009-06-07T08:22:12Z</time>
      </trkpt>
      <trkpt lat="48.03489" lon="-0.77994">
        <ele>154</ele>
        <time>2009-06-07T08:22:14Z</time>
      </trkpt>
      <trkpt lat="48.03491" lon="-0.77997">
        <ele>155</ele>
        <time>2009-06-07T08:22:16Z</time>
      </trkpt>
      <trkpt lat="48.03494" lon="-0.77997">
        <ele>155</ele>
        <time>2009-06-07T08:22:18Z</time>
      </trkpt>
      <trkpt lat="48.03494" lon="-0.77994">
        <ele>155</ele>
        <time>2009-06-07T08:22:20Z</time>
      </trkpt>
      <trkpt lat="48.03495" lon="-0.77991">
        <ele>156</ele>
        <time>2009-06-07T08:22:22Z</time>
      </trkpt>
      <trkpt lat="48.03495" lon="-0.7799">
        <ele>156</ele>
        <time>2009-06-07T08:22:24Z</time>
      </trkpt>
      <trkpt lat="48.03499" lon="-0.77984">
        <ele>156</ele>
        <time>2009-06-07T08:22:26Z</time>
      </trkpt>
      <trkpt lat="48.03502" lon="-0.77983">
        <ele>156</ele>
        <time>2009-06-07T08:22:28Z</time>
      </trkpt>
      <trkpt lat="48.03502" lon="-0.7798">
        <ele>156</ele>
        <time>2009-06-07T08:22:30Z</time>
      </trkpt>
      <trkpt lat="48.03504" lon="-0.77976">
        <ele>156</ele>
        <time>2009-06-07T08:22:32Z</time>
      </trkpt>
      <trkpt lat="48.03506" lon="-0.77973">
        <ele>156</ele>
        <time>2009-06-07T08:22:34Z</time>
      </trkpt>
      <trkpt lat="48.03506" lon="-0.77969">
        <ele>157</ele>
        <time>2009-06-07T08:22:36Z</time>
      </trkpt>
      <trkpt lat="48.03508" lon="-0.77965">
        <ele>157</ele>
        <time>2009-06-07T08:22:38Z</time>
      </trkpt>
      <trkpt lat="48.0351" lon="-0.77961">
        <ele>157</ele>
        <time>2009-06-07T08:22:40Z</time>
      </trkpt>
      <trkpt lat="48.03515" lon="-0.77954">
        <ele>157</ele>
        <time>2009-06-07T08:22:42Z</time>
      </trkpt>
      <trkpt lat="48.03519" lon="-0.77953">
        <ele>157</ele>
        <time>2009-06-07T08:22:44Z</time>
      </trkpt>
      <trkpt lat="48.03524" lon="-0.77947">
        <ele>159</ele>
        <time>2009-06-07T08:22:46Z</time>
      </trkpt>
      <trkpt lat="48.03529" lon="-0.77944">
        <ele>160</ele>
        <time>2009-06-07T08:22:48Z</time>
      </trkpt>
      <trkpt lat="48.03532" lon="-0.7794">
        <ele>161</ele>
        <time>2009-06-07T08:22:50Z</time>
      </trkpt>
      <trkpt lat="48.03536" lon="-0.77936">
        <ele>162</ele>
        <time>2009-06-07T08:22:52Z</time>
      </trkpt>
      <trkpt lat="48.03539" lon="-0.77933">
        <ele>162</ele>
        <time>2009-06-07T08:22:54Z</time>
      </trkpt>
      <trkpt lat="48.0354" lon="-0.7793">
        <ele>160</ele>
        <time>2009-06-07T08:22:56Z</time>
      </trkpt>
      <trkpt lat="48.03542" lon="-0.7793">
        <ele>160</ele>
        <time>2009-06-07T08:22:58Z</time>
      </trkpt>
      <trkpt lat="48.03541" lon="-0.77929">
        <ele>160</ele>
        <time>2009-06-07T08:23:00Z</time>
      </trkpt>
      <trkpt lat="48.03542" lon="-0.77929">
        <ele>161</ele>
        <time>2009-06-07T08:23:02Z</time>
      </trkpt>
      <trkpt lat="48.03543" lon="-0.77929">
        <ele>161</ele>
        <time>2009-06-07T08:23:04Z</time>
      </trkpt>
      <trkpt lat="48.03543" lon="-0.77929">
        <ele>161</ele>
        <time>2009-06-07T08:23:06Z</time>
      </trkpt>
      <trkpt lat="48.03544" lon="-0.77927">
        <ele>161</ele>
        <time>2009-06-07T08:23:08Z</time>
      </trkpt>
      <trkpt lat="48.03544" lon="-0.77927">
        <ele>162</ele>
        <time>2009-06-07T08:23:10Z</time>
      </trkpt>
      <trkpt lat="48.03545" lon="-0.77927">
        <ele>162</ele>
        <time>2009-06-07T08:23:12Z</time>
      </trkpt>
      <trkpt lat="48.03545" lon="-0.77926">
        <ele>162</ele>
        <time>2009-06-07T08:23:14Z</time>
      </trkpt>
      <trkpt lat="48.03545" lon="-0.77926">
        <ele>162</ele>
        <time>2009-06-07T08:23:16Z</time>
      </trkpt>
      <trkpt lat="48.03545" lon="-0.77926">
        <ele>162</ele>
        <time>2009-06-07T08:23:18Z</time>
      </trkpt>
      <trkpt lat="48.03547" lon="-0.77925">
        <ele>163</ele>
        <time>2009-06-07T08:23:20Z</time>
      </trkpt>
      <trkpt lat="48.03546" lon="-0.77923">
        <ele>163</ele>
        <time>2009-06-07T08:23:22Z</time>
      </trkpt>
      <trkpt lat="48.03547" lon="-0.77923">
        <ele>163</ele>
        <time>2009-06-07T08:23:24Z</time>
      </trkpt>
      <trkpt lat="48.03547" lon="-0.77922">
        <ele>163</ele>
        <time>2009-06-07T08:23:26Z</time>
      </trkpt>
      <trkpt lat="48.03548" lon="-0.77921">
        <ele>163</ele>
        <time>2009-06-07T08:23:28Z</time>
      </trkpt>
      <trkpt lat="48.03547" lon="-0.77919">
        <ele>163</ele>
        <time>2009-06-07T08:23:30Z</time>
      </trkpt>
      <trkpt lat="48.03548" lon="-0.77919">
        <ele>163</ele>
        <time>2009-06-07T08:23:32Z</time>
      </trkpt>
      <trkpt lat="48.03548" lon="-0.77918">
        <ele>163</ele>
        <time>2009-06-07T08:23:34Z</time>
      </trkpt>
      <trkpt lat="48.03556" lon="-0.77868">
        <ele>164</ele>
        <time>2009-06-07T08:23:36Z</time>
      </trkpt>
      <trkpt lat="48.03559" lon="-0.77862">
        <ele>163</ele>
        <time>2009-06-07T08:23:38Z</time>
      </trkpt>
      <trkpt lat="48.03561" lon="-0.77858">
        <ele>163</ele>
        <time>2009-06-07T08:23:40Z</time>
      </trkpt>
      <trkpt lat="48.03568" lon="-0.77849">
        <ele>161</ele>
        <time>2009-06-07T08:23:42Z</time>
      </trkpt>
      <trkpt lat="48.03568" lon="-0.77845">
        <ele>160</ele>
        <time>2009-06-07T08:23:44Z</time>
      </trkpt>
      <trkpt lat="48.03568" lon="-0.77839">
        <ele>160</ele>
        <time>2009-06-07T08:23:46Z</time>
      </trkpt>
      <trkpt lat="48.0357" lon="-0.77835">
        <ele>159</ele>
        <time>2009-06-07T08:23:48Z</time>
      </trkpt>
      <trkpt lat="48.03577" lon="-0.77825">
        <ele>160</ele>
        <time>2009-06-07T08:23:50Z</time>
      </trkpt>
      <trkpt lat="48.03585" lon="-0.77817">
        <ele>161</ele>
        <time>2009-06-07T08:23:52Z</time>
      </trkpt>
      <trkpt lat="48.03587" lon="-0.77812">
        <ele>162</ele>
        <time>2009-06-07T08:23:54Z</time>
      </trkpt>
      <trkpt lat="48.03589" lon="-0.77806">
        <ele>162</ele>
        <time>2009-06-07T08:23:56Z</time>
      </trkpt>
      <trkpt lat="48.03592" lon="-0.77798">
        <ele>162</ele>
        <time>2009-06-07T08:23:58Z</time>
      </trkpt>
      <trkpt lat="48.03592" lon="-0.77793">
        <ele>162</ele>
        <time>2009-06-07T08:24:00Z</time>
      </trkpt>
      <trkpt lat="48.03592" lon="-0.77786">
        <ele>161</ele>
        <time>2009-06-07T08:24:02Z</time>
      </trkpt>
      <trkpt lat="48.03595" lon="-0.77779">
        <ele>161</ele>
        <time>2009-06-07T08:24:04Z</time>
      </trkpt>
      <trkpt lat="48.0361" lon="-0.77764">
        <ele>154</ele>
        <time>2009-06-07T08:24:06Z</time>
      </trkpt>
      <trkpt lat="48.03613" lon="-0.77759">
        <ele>152</ele>
        <time>2009-06-07T08:24:08Z</time>
      </trkpt>
      <trkpt lat="48.03613" lon="-0.77753">
        <ele>152</ele>
        <time>2009-06-07T08:24:10Z</time>
      </trkpt>
      <trkpt lat="48.03614" lon="-0.77751">
        <ele>152</ele>
        <time>2009-06-07T08:24:12Z</time>
      </trkpt>
      <trkpt lat="48.03613" lon="-0.77747">
        <ele>152</ele>
        <time>2009-06-07T08:24:14Z</time>
      </trkpt>
      <trkpt lat="48.03611" lon="-0.77746">
        <ele>152</ele>
        <time>2009-06-07T08:24:16Z</time>
      </trkpt>
      <trkpt lat="48.03617" lon="-0.7774">
        <ele>151</ele>
        <time>2009-06-07T08:24:18Z</time>
      </trkpt>
      <trkpt lat="48.03616" lon="-0.77735">
        <ele>153</ele>
        <time>2009-06-07T08:24:20Z</time>
      </trkpt>
      <trkpt lat="48.03609" lon="-0.77731">
        <ele>154</ele>
        <time>2009-06-07T08:24:22Z</time>
      </trkpt>
      <trkpt lat="48.03606" lon="-0.77729">
        <ele>156</ele>
        <time>2009-06-07T08:24:24Z</time>
      </trkpt>
      <trkpt lat="48.03606" lon="-0.77726">
        <ele>157</ele>
        <time>2009-06-07T08:24:26Z</time>
      </trkpt>
      <trkpt lat="48.03607" lon="-0.77725">
        <ele>157</ele>
        <time>2009-06-07T08:24:28Z</time>
      </trkpt>
      <trkpt lat="48.03607" lon="-0.77722">
        <ele>157</ele>
        <time>2009-06-07T08:24:30Z</time>
      </trkpt>
      <trkpt lat="48.03609" lon="-0.77715">
        <ele>157</ele>
        <time>2009-06-07T08:24:32Z</time>
      </trkpt>
      <trkpt lat="48.03613" lon="-0.77707">
        <ele>155</ele>
        <time>2009-06-07T08:24:34Z</time>
      </trkpt>
      <trkpt lat="48.03614" lon="-0.77703">
        <ele>154</ele>
        <time>2009-06-07T08:24:36Z</time>
      </trkpt>
      <trkpt lat="48.03614" lon="-0.77702">
        <ele>153</ele>
        <time>2009-06-07T08:24:38Z</time>
      </trkpt>
      <trkpt lat="48.03614" lon="-0.777">
        <ele>154</ele>
        <time>2009-06-07T08:24:40Z</time>
      </trkpt>
      <trkpt lat="48.03615" lon="-0.777">
        <ele>153</ele>
        <time>2009-06-07T08:24:42Z</time>
      </trkpt>
      <trkpt lat="48.03614" lon="-0.77699">
        <ele>153</ele>
        <time>2009-06-07T08:24:44Z</time>
      </trkpt>
      <trkpt lat="48.03614" lon="-0.77699">
        <ele>152</ele>
        <time>2009-06-07T08:24:46Z</time>
      </trkpt>
      <trkpt lat="48.03615" lon="-0.77698">
        <ele>154</ele>
        <time>2009-06-07T08:24:48Z</time>
      </trkpt>
      <trkpt lat="48.03615" lon="-0.77698">
        <ele>154</ele>
        <time>2009-06-07T08:24:50Z</time>
      </trkpt>
      <trkpt lat="48.03615" lon="-0.77698">
        <ele>154</ele>
        <time>2009-06-07T08:24:52Z</time>
      </trkpt>
      <trkpt lat="48.03616" lon="-0.77698">
        <ele>155</ele>
        <time>2009-06-07T08:24:54Z</time>
      </trkpt>
      <trkpt lat="48.03617" lon="-0.77698">
        <ele>156</ele>
        <time>2009-06-07T08:24:56Z</time>
      </trkpt>
      <trkpt lat="48.03617" lon="-0.77698">
        <ele>156</ele>
        <time>2009-06-07T08:24:58Z</time>
      </trkpt>
      <trkpt lat="48.03617" lon="-0.77698">
        <ele>156</ele>
        <time>2009-06-07T08:25:00Z</time>
      </trkpt>
      <trkpt lat="48.03617" lon="-0.77696">
        <ele>156</ele>
        <time>2009-06-07T08:25:02Z</time>
      </trkpt>
      <trkpt lat="48.0363" lon="-0.77651">
        <ele>154</ele>
        <time>2009-06-07T08:25:04Z</time>
      </trkpt>
      <trkpt lat="48.03632" lon="-0.77638">
        <ele>154</ele>
        <time>2009-06-07T08:25:06Z</time>
      </trkpt>
      <trkpt lat="48.03636" lon="-0.77626">
        <ele>154</ele>
        <time>2009-06-07T08:25:08Z</time>
      </trkpt>
      <trkpt lat="48.0364" lon="-0.77615">
        <ele>154</ele>
        <time>2009-06-07T08:25:10Z</time>
      </trkpt>
      <trkpt lat="48.03643" lon="-0.77603">
        <ele>154</ele>
        <time>2009-06-07T08:25:12Z</time>
      </trkpt>
      <trkpt lat="48.03647" lon="-0.77592">
        <ele>154</ele>
        <time>2009-06-07T08:25:14Z</time>
      </trkpt>
      <trkpt lat="48.03651" lon="-0.77581">
        <ele>154</ele>
        <time>2009-06-07T08:25:16Z</time>
      </trkpt>
      <trkpt lat="48.03655" lon="-0.77571">
        <ele>154</ele>
        <time>2009-06-07T08:25:18Z</time>
      </trkpt>
      <trkpt lat="48.0366" lon="-0.77562">
        <ele>155</ele>
        <time>2009-06-07T08:25:20Z</time>
      </trkpt>
      <trkpt lat="48.03664" lon="-0.77547">
        <ele>154</ele>
        <time>2009-06-07T08:25:22Z</time>
      </trkpt>
      <trkpt lat="48.03664" lon="-0.77533">
        <ele>154</ele>
        <time>2009-06-07T08:25:24Z</time>
      </trkpt>
      <trkpt lat="48.03667" lon="-0.77522">
        <ele>154</ele>
        <time>2009-06-07T08:25:26Z</time>
      </trkpt>
      <trkpt lat="48.0367" lon="-0.7751">
        <ele>154</ele>
        <time>2009-06-07T08:25:28Z</time>
      </trkpt>
      <trkpt lat="48.03674" lon="-0.77499">
        <ele>154</ele>
        <time>2009-06-07T08:25:30Z</time>
      </trkpt>
      <trkpt lat="48.0368" lon="-0.77487">
        <ele>153</ele>
        <time>2009-06-07T08:25:32Z</time>
      </trkpt>
      <trkpt lat="48.03682" lon="-0.77473">
        <ele>153</ele>
        <time>2009-06-07T08:25:34Z</time>
      </trkpt>
      <trkpt lat="48.03686" lon="-0.77463">
        <ele>153</ele>
        <time>2009-06-07T08:25:36Z</time>
      </trkpt>
      <trkpt lat="48.03689" lon="-0.7745">
        <ele>153</ele>
        <time>2009-06-07T08:25:38Z</time>
      </trkpt>
      <trkpt lat="48.03692" lon="-0.77441">
        <ele>152</ele>
        <time>2009-06-07T08:25:40Z</time>
      </trkpt>
      <trkpt lat="48.03694" lon="-0.77431">
        <ele>152</ele>
        <time>2009-06-07T08:25:42Z</time>
      </trkpt>
      <trkpt lat="48.03696" lon="-0.77423">
        <ele>152</ele>
        <time>2009-06-07T08:25:44Z</time>
      </trkpt>
      <trkpt lat="48.03697" lon="-0.77416">
        <ele>152</ele>
        <time>2009-06-07T08:25:46Z</time>
      </trkpt>
      <trkpt lat="48.03698" lon="-0.7741">
        <ele>152</ele>
        <time>2009-06-07T08:25:48Z</time>
      </trkpt>
      <trkpt lat="48.03699" lon="-0.77402">
        <ele>152</ele>
        <time>2009-06-07T08:25:50Z</time>
      </trkpt>
      <trkpt lat="48.03699" lon="-0.77394">
        <ele>152</ele>
        <time>2009-06-07T08:25:52Z</time>
      </trkpt>
      <trkpt lat="48.03701" lon="-0.77385">
        <ele>153</ele>
        <time>2009-06-07T08:25:54Z</time>
      </trkpt>
      <trkpt lat="48.037" lon="-0.77376">
        <ele>153</ele>
        <time>2009-06-07T08:25:56Z</time>
      </trkpt>
      <trkpt lat="48.03698" lon="-0.77368">
        <ele>154</ele>
        <time>2009-06-07T08:25:58Z</time>
      </trkpt>
      <trkpt lat="48.03699" lon="-0.77361">
        <ele>154</ele>
        <time>2009-06-07T08:26:00Z</time>
      </trkpt>
      <trkpt lat="48.03698" lon="-0.77353">
        <ele>154</ele>
        <time>2009-06-07T08:26:02Z</time>
      </trkpt>
      <trkpt lat="48.03701" lon="-0.77348">
        <ele>154</ele>
        <time>2009-06-07T08:26:04Z</time>
      </trkpt>
      <trkpt lat="48.03702" lon="-0.77334">
        <ele>155</ele>
        <time>2009-06-07T08:26:06Z</time>
      </trkpt>
      <trkpt lat="48.03702" lon="-0.7733">
        <ele>156</ele>
        <time>2009-06-07T08:26:08Z</time>
      </trkpt>
      <trkpt lat="48.03706" lon="-0.77319">
        <ele>156</ele>
        <time>2009-06-07T08:26:10Z</time>
      </trkpt>
      <trkpt lat="48.03708" lon="-0.77307">
        <ele>156</ele>
        <time>2009-06-07T08:26:12Z</time>
      </trkpt>
      <trkpt lat="48.03712" lon="-0.77303">
        <ele>156</ele>
        <time>2009-06-07T08:26:14Z</time>
      </trkpt>
      <trkpt lat="48.03712" lon="-0.77291">
        <ele>156</ele>
        <time>2009-06-07T08:26:16Z</time>
      </trkpt>
      <trkpt lat="48.0371" lon="-0.77284">
        <ele>155</ele>
        <time>2009-06-07T08:26:18Z</time>
      </trkpt>
      <trkpt lat="48.03712" lon="-0.77276">
        <ele>155</ele>
        <time>2009-06-07T08:26:20Z</time>
      </trkpt>
      <trkpt lat="48.03712" lon="-0.77266">
        <ele>155</ele>
        <time>2009-06-07T08:26:22Z</time>
      </trkpt>
      <trkpt lat="48.03711" lon="-0.77258">
        <ele>154</ele>
        <time>2009-06-07T08:26:24Z</time>
      </trkpt>
      <trkpt lat="48.03709" lon="-0.77247">
        <ele>154</ele>
        <time>2009-06-07T08:26:26Z</time>
      </trkpt>
      <trkpt lat="48.03709" lon="-0.77235">
        <ele>154</ele>
        <time>2009-06-07T08:26:28Z</time>
      </trkpt>
      <trkpt lat="48.03706" lon="-0.77226">
        <ele>153</ele>
        <time>2009-06-07T08:26:30Z</time>
      </trkpt>
      <trkpt lat="48.03706" lon="-0.77219">
        <ele>153</ele>
        <time>2009-06-07T08:26:32Z</time>
      </trkpt>
      <trkpt lat="48.03704" lon="-0.77212">
        <ele>152</ele>
        <time>2009-06-07T08:26:34Z</time>
      </trkpt>
      <trkpt lat="48.03705" lon="-0.77203">
        <ele>151</ele>
        <time>2009-06-07T08:26:36Z</time>
      </trkpt>
      <trkpt lat="48.03708" lon="-0.77188">
        <ele>151</ele>
        <time>2009-06-07T08:26:38Z</time>
      </trkpt>
      <trkpt lat="48.03708" lon="-0.7718">
        <ele>152</ele>
        <time>2009-06-07T08:26:40Z</time>
      </trkpt>
      <trkpt lat="48.03707" lon="-0.7717">
        <ele>151</ele>
        <time>2009-06-07T08:26:42Z</time>
      </trkpt>
      <trkpt lat="48.03705" lon="-0.77161">
        <ele>151</ele>
        <time>2009-06-07T08:26:44Z</time>
      </trkpt>
      <trkpt lat="48.03705" lon="-0.77149">
        <ele>151</ele>
        <time>2009-06-07T08:26:46Z</time>
      </trkpt>
      <trkpt lat="48.03701" lon="-0.77137">
        <ele>152</ele>
        <time>2009-06-07T08:26:48Z</time>
      </trkpt>
      <trkpt lat="48.03699" lon="-0.77124">
        <ele>152</ele>
        <time>2009-06-07T08:26:50Z</time>
      </trkpt>
      <trkpt lat="48.03699" lon="-0.77112">
        <ele>152</ele>
        <time>2009-06-07T08:26:52Z</time>
      </trkpt>
      <trkpt lat="48.03696" lon="-0.77096">
        <ele>153</ele>
        <time>2009-06-07T08:26:54Z</time>
      </trkpt>
      <trkpt lat="48.0369" lon="-0.77084">
        <ele>154</ele>
        <time>2009-06-07T08:26:56Z</time>
      </trkpt>
      <trkpt lat="48.03684" lon="-0.77074">
        <ele>154</ele>
        <time>2009-06-07T08:26:58Z</time>
      </trkpt>
      <trkpt lat="48.03676" lon="-0.77058">
        <ele>154</ele>
        <time>2009-06-07T08:27:00Z</time>
      </trkpt>
      <trkpt lat="48.03673" lon="-0.77044">
        <ele>155</ele>
        <time>2009-06-07T08:27:02Z</time>
      </trkpt>
      <trkpt lat="48.03668" lon="-0.77041">
        <ele>155</ele>
        <time>2009-06-07T08:27:04Z</time>
      </trkpt>
      <trkpt lat="48.03667" lon="-0.77038">
        <ele>154</ele>
        <time>2009-06-07T08:27:06Z</time>
      </trkpt>
      <trkpt lat="48.03666" lon="-0.77033">
        <ele>154</ele>
        <time>2009-06-07T08:27:08Z</time>
      </trkpt>
      <trkpt lat="48.03669" lon="-0.77031">
        <ele>154</ele>
        <time>2009-06-07T08:27:10Z</time>
      </trkpt>
      <trkpt lat="48.0367" lon="-0.77031">
        <ele>154</ele>
        <time>2009-06-07T08:27:12Z</time>
      </trkpt>
      <trkpt lat="48.03671" lon="-0.77028">
        <ele>154</ele>
        <time>2009-06-07T08:27:14Z</time>
      </trkpt>
      <trkpt lat="48.03673" lon="-0.77028">
        <ele>153</ele>
        <time>2009-06-07T08:27:16Z</time>
      </trkpt>
      <trkpt lat="48.03675" lon="-0.7703">
        <ele>153</ele>
        <time>2009-06-07T08:27:18Z</time>
      </trkpt>
      <trkpt lat="48.03677" lon="-0.7703">
        <ele>153</ele>
        <time>2009-06-07T08:27:20Z</time>
      </trkpt>
      <trkpt lat="48.03683" lon="-0.77024">
        <ele>153</ele>
        <time>2009-06-07T08:27:22Z</time>
      </trkpt>
      <trkpt lat="48.03693" lon="-0.77026">
        <ele>155</ele>
        <time>2009-06-07T08:27:24Z</time>
      </trkpt>
      <trkpt lat="48.03701" lon="-0.77026">
        <ele>157</ele>
        <time>2009-06-07T08:27:26Z</time>
      </trkpt>
      <trkpt lat="48.03705" lon="-0.77024">
        <ele>157</ele>
        <time>2009-06-07T08:27:28Z</time>
      </trkpt>
      <trkpt lat="48.03706" lon="-0.77022">
        <ele>158</ele>
        <time>2009-06-07T08:27:30Z</time>
      </trkpt>
      <trkpt lat="48.03712" lon="-0.7702">
        <ele>158</ele>
        <time>2009-06-07T08:27:32Z</time>
      </trkpt>
      <trkpt lat="48.03717" lon="-0.77022">
        <ele>159</ele>
        <time>2009-06-07T08:27:34Z</time>
      </trkpt>
      <trkpt lat="48.03722" lon="-0.77025">
        <ele>159</ele>
        <time>2009-06-07T08:27:36Z</time>
      </trkpt>
      <trkpt lat="48.03728" lon="-0.77025">
        <ele>159</ele>
        <time>2009-06-07T08:27:38Z</time>
      </trkpt>
      <trkpt lat="48.03734" lon="-0.7702">
        <ele>158</ele>
        <time>2009-06-07T08:27:40Z</time>
      </trkpt>
      <trkpt lat="48.03738" lon="-0.77018">
        <ele>158</ele>
        <time>2009-06-07T08:27:42Z</time>
      </trkpt>
      <trkpt lat="48.0374" lon="-0.77017">
        <ele>158</ele>
        <time>2009-06-07T08:27:44Z</time>
      </trkpt>
      <trkpt lat="48.03745" lon="-0.77019">
        <ele>158</ele>
        <time>2009-06-07T08:27:46Z</time>
      </trkpt>
      <trkpt lat="48.03749" lon="-0.77018">
        <ele>158</ele>
        <time>2009-06-07T08:27:48Z</time>
      </trkpt>
      <trkpt lat="48.03752" lon="-0.7702">
        <ele>160</ele>
        <time>2009-06-07T08:27:50Z</time>
      </trkpt>
      <trkpt lat="48.03757" lon="-0.77019">
        <ele>160</ele>
        <time>2009-06-07T08:27:52Z</time>
      </trkpt>
      <trkpt lat="48.03763" lon="-0.77019">
        <ele>160</ele>
        <time>2009-06-07T08:27:55Z</time>
      </trkpt>
      <trkpt lat="48.0377" lon="-0.77017">
        <ele>160</ele>
        <time>2009-06-07T08:27:57Z</time>
      </trkpt>
      <trkpt lat="48.03775" lon="-0.77016">
        <ele>159</ele>
        <time>2009-06-07T08:27:59Z</time>
      </trkpt>
      <trkpt lat="48.03783" lon="-0.77017">
        <ele>159</ele>
        <time>2009-06-07T08:28:01Z</time>
      </trkpt>
      <trkpt lat="48.03789" lon="-0.77017">
        <ele>159</ele>
        <time>2009-06-07T08:28:03Z</time>
      </trkpt>
      <trkpt lat="48.03794" lon="-0.77018">
        <ele>159</ele>
        <time>2009-06-07T08:28:05Z</time>
      </trkpt>
      <trkpt lat="48.03799" lon="-0.77015">
        <ele>158</ele>
        <time>2009-06-07T08:28:07Z</time>
      </trkpt>
      <trkpt lat="48.03804" lon="-0.77015">
        <ele>158</ele>
        <time>2009-06-07T08:28:09Z</time>
      </trkpt>
      <trkpt lat="48.03811" lon="-0.77008">
        <ele>157</ele>
        <time>2009-06-07T08:28:11Z</time>
      </trkpt>
      <trkpt lat="48.03819" lon="-0.76998">
        <ele>156</ele>
        <time>2009-06-07T08:28:13Z</time>
      </trkpt>
      <trkpt lat="48.03825" lon="-0.76986">
        <ele>154</ele>
        <time>2009-06-07T08:28:15Z</time>
      </trkpt>
      <trkpt lat="48.03834" lon="-0.76973">
        <ele>154</ele>
        <time>2009-06-07T08:28:17Z</time>
      </trkpt>
      <trkpt lat="48.03843" lon="-0.76958">
        <ele>154</ele>
        <time>2009-06-07T08:28:19Z</time>
      </trkpt>
      <trkpt lat="48.03852" lon="-0.76946">
        <ele>154</ele>
        <time>2009-06-07T08:28:21Z</time>
      </trkpt>
      <trkpt lat="48.03856" lon="-0.76932">
        <ele>154</ele>
        <time>2009-06-07T08:28:23Z</time>
      </trkpt>
      <trkpt lat="48.03856" lon="-0.7692">
        <ele>155</ele>
        <time>2009-06-07T08:28:25Z</time>
      </trkpt>
      <trkpt lat="48.0386" lon="-0.76908">
        <ele>155</ele>
        <time>2009-06-07T08:28:27Z</time>
      </trkpt>
      <trkpt lat="48.03859" lon="-0.76896">
        <ele>155</ele>
        <time>2009-06-07T08:28:29Z</time>
      </trkpt>
      <trkpt lat="48.03861" lon="-0.76882">
        <ele>155</ele>
        <time>2009-06-07T08:28:31Z</time>
      </trkpt>
      <trkpt lat="48.03862" lon="-0.76862">
        <ele>155</ele>
        <time>2009-06-07T08:28:33Z</time>
      </trkpt>
      <trkpt lat="48.03862" lon="-0.76843">
        <ele>156</ele>
        <time>2009-06-07T08:28:35Z</time>
      </trkpt>
      <trkpt lat="48.03865" lon="-0.76824">
        <ele>157</ele>
        <time>2009-06-07T08:28:37Z</time>
      </trkpt>
      <trkpt lat="48.03868" lon="-0.76805">
        <ele>157</ele>
        <time>2009-06-07T08:28:39Z</time>
      </trkpt>
      <trkpt lat="48.03865" lon="-0.76788">
        <ele>157</ele>
        <time>2009-06-07T08:28:41Z</time>
      </trkpt>
      <trkpt lat="48.03865" lon="-0.76775">
        <ele>158</ele>
        <time>2009-06-07T08:28:43Z</time>
      </trkpt>
      <trkpt lat="48.03866" lon="-0.76762">
        <ele>158</ele>
        <time>2009-06-07T08:28:45Z</time>
      </trkpt>
      <trkpt lat="48.03865" lon="-0.7675">
        <ele>159</ele>
        <time>2009-06-07T08:28:47Z</time>
      </trkpt>
      <trkpt lat="48.03865" lon="-0.76738">
        <ele>159</ele>
        <time>2009-06-07T08:28:49Z</time>
      </trkpt>
      <trkpt lat="48.03866" lon="-0.7673">
        <ele>160</ele>
        <time>2009-06-07T08:28:51Z</time>
      </trkpt>
      <trkpt lat="48.03867" lon="-0.76718">
        <ele>160</ele>
        <time>2009-06-07T08:28:53Z</time>
      </trkpt>
      <trkpt lat="48.03867" lon="-0.76705">
        <ele>160</ele>
        <time>2009-06-07T08:28:55Z</time>
      </trkpt>
      <trkpt lat="48.03864" lon="-0.76694">
        <ele>160</ele>
        <time>2009-06-07T08:28:57Z</time>
      </trkpt>
      <trkpt lat="48.03864" lon="-0.76681">
        <ele>160</ele>
        <time>2009-06-07T08:28:59Z</time>
      </trkpt>
      <trkpt lat="48.03864" lon="-0.76667">
        <ele>159</ele>
        <time>2009-06-07T08:29:01Z</time>
      </trkpt>
      <trkpt lat="48.03863" lon="-0.76661">
        <ele>160</ele>
        <time>2009-06-07T08:29:03Z</time>
      </trkpt>
      <trkpt lat="48.03862" lon="-0.76654">
        <ele>160</ele>
        <time>2009-06-07T08:29:05Z</time>
      </trkpt>
      <trkpt lat="48.03862" lon="-0.76643">
        <ele>159</ele>
        <time>2009-06-07T08:29:07Z</time>
      </trkpt>
      <trkpt lat="48.03864" lon="-0.76639">
        <ele>159</ele>
        <time>2009-06-07T08:29:09Z</time>
      </trkpt>
      <trkpt lat="48.03866" lon="-0.76634">
        <ele>159</ele>
        <time>2009-06-07T08:29:11Z</time>
      </trkpt>
      <trkpt lat="48.0387" lon="-0.76632">
        <ele>159</ele>
        <time>2009-06-07T08:29:13Z</time>
      </trkpt>
      <trkpt lat="48.03874" lon="-0.76628">
        <ele>159</ele>
        <time>2009-06-07T08:29:15Z</time>
      </trkpt>
      <trkpt lat="48.03877" lon="-0.76624">
        <ele>159</ele>
        <time>2009-06-07T08:29:17Z</time>
      </trkpt>
      <trkpt lat="48.03881" lon="-0.76621">
        <ele>159</ele>
        <time>2009-06-07T08:29:19Z</time>
      </trkpt>
      <trkpt lat="48.03883" lon="-0.7662">
        <ele>159</ele>
        <time>2009-06-07T08:29:21Z</time>
      </trkpt>
      <trkpt lat="48.03888" lon="-0.76618">
        <ele>159</ele>
        <time>2009-06-07T08:29:23Z</time>
      </trkpt>
      <trkpt lat="48.03894" lon="-0.76616">
        <ele>159</ele>
        <time>2009-06-07T08:29:25Z</time>
      </trkpt>
      <trkpt lat="48.03898" lon="-0.76615">
        <ele>159</ele>
        <time>2009-06-07T08:29:27Z</time>
      </trkpt>
      <trkpt lat="48.03903" lon="-0.76612">
        <ele>159</ele>
        <time>2009-06-07T08:29:29Z</time>
      </trkpt>
      <trkpt lat="48.03908" lon="-0.7661">
        <ele>159</ele>
        <time>2009-06-07T08:29:31Z</time>
      </trkpt>
      <trkpt lat="48.03913" lon="-0.76607">
        <ele>159</ele>
        <time>2009-06-07T08:29:33Z</time>
      </trkpt>
      <trkpt lat="48.03917" lon="-0.7661">
        <ele>158</ele>
        <time>2009-06-07T08:29:35Z</time>
      </trkpt>
      <trkpt lat="48.0392" lon="-0.76613">
        <ele>159</ele>
        <time>2009-06-07T08:29:37Z</time>
      </trkpt>
      <trkpt lat="48.03925" lon="-0.76612">
        <ele>158</ele>
        <time>2009-06-07T08:29:39Z</time>
      </trkpt>
      <trkpt lat="48.03928" lon="-0.76618">
        <ele>157</ele>
        <time>2009-06-07T08:29:41Z</time>
      </trkpt>
      <trkpt lat="48.03928" lon="-0.76618">
        <ele>157</ele>
        <time>2009-06-07T08:29:43Z</time>
      </trkpt>
      <trkpt lat="48.03929" lon="-0.76619">
        <ele>158</ele>
        <time>2009-06-07T08:29:45Z</time>
      </trkpt>
      <trkpt lat="48.03932" lon="-0.76617">
        <ele>158</ele>
        <time>2009-06-07T08:29:47Z</time>
      </trkpt>
      <trkpt lat="48.03935" lon="-0.76624">
        <ele>158</ele>
        <time>2009-06-07T08:29:49Z</time>
      </trkpt>
      <trkpt lat="48.03937" lon="-0.76629">
        <ele>158</ele>
        <time>2009-06-07T08:29:51Z</time>
      </trkpt>
      <trkpt lat="48.03936" lon="-0.76636">
        <ele>159</ele>
        <time>2009-06-07T08:29:53Z</time>
      </trkpt>
      <trkpt lat="48.03935" lon="-0.76637">
        <ele>159</ele>
        <time>2009-06-07T08:29:55Z</time>
      </trkpt>
      <trkpt lat="48.03934" lon="-0.76641">
        <ele>159</ele>
        <time>2009-06-07T08:29:57Z</time>
      </trkpt>
      <trkpt lat="48.03934" lon="-0.76643">
        <ele>159</ele>
        <time>2009-06-07T08:29:59Z</time>
      </trkpt>
      <trkpt lat="48.03935" lon="-0.76641">
        <ele>159</ele>
        <time>2009-06-07T08:30:01Z</time>
      </trkpt>
      <trkpt lat="48.03936" lon="-0.76643">
        <ele>159</ele>
        <time>2009-06-07T08:30:03Z</time>
      </trkpt>
      <trkpt lat="48.03935" lon="-0.76644">
        <ele>159</ele>
        <time>2009-06-07T08:30:05Z</time>
      </trkpt>
      <trkpt lat="48.03937" lon="-0.76647">
        <ele>159</ele>
        <time>2009-06-07T08:30:07Z</time>
      </trkpt>
      <trkpt lat="48.03938" lon="-0.76648">
        <ele>159</ele>
        <time>2009-06-07T08:30:09Z</time>
      </trkpt>
      <trkpt lat="48.03946" lon="-0.76656">
        <ele>157</ele>
        <time>2009-06-07T08:30:11Z</time>
      </trkpt>
      <trkpt lat="48.0395" lon="-0.76656">
        <ele>156</ele>
        <time>2009-06-07T08:30:13Z</time>
      </trkpt>
      <trkpt lat="48.03955" lon="-0.76657">
        <ele>155</ele>
        <time>2009-06-07T08:30:15Z</time>
      </trkpt>
      <trkpt lat="48.0396" lon="-0.76656">
        <ele>154</ele>
        <time>2009-06-07T08:30:17Z</time>
      </trkpt>
      <trkpt lat="48.03963" lon="-0.76658">
        <ele>154</ele>
        <time>2009-06-07T08:30:19Z</time>
      </trkpt>
      <trkpt lat="48.03967" lon="-0.76657">
        <ele>152</ele>
        <time>2009-06-07T08:30:21Z</time>
      </trkpt>
      <trkpt lat="48.03969" lon="-0.76655">
        <ele>152</ele>
        <time>2009-06-07T08:30:23Z</time>
      </trkpt>
      <trkpt lat="48.03971" lon="-0.76651">
        <ele>152</ele>
        <time>2009-06-07T08:30:25Z</time>
      </trkpt>
      <trkpt lat="48.03973" lon="-0.76648">
        <ele>151</ele>
        <time>2009-06-07T08:30:27Z</time>
      </trkpt>
      <trkpt lat="48.03972" lon="-0.76644">
        <ele>150</ele>
        <time>2009-06-07T08:30:29Z</time>
      </trkpt>
      <trkpt lat="48.03972" lon="-0.76638">
        <ele>150</ele>
        <time>2009-06-07T08:30:31Z</time>
      </trkpt>
      <trkpt lat="48.03973" lon="-0.76634">
        <ele>150</ele>
        <time>2009-06-07T08:30:33Z</time>
      </trkpt>
      <trkpt lat="48.03975" lon="-0.76628">
        <ele>150</ele>
        <time>2009-06-07T08:30:35Z</time>
      </trkpt>
      <trkpt lat="48.03978" lon="-0.76622">
        <ele>151</ele>
        <time>2009-06-07T08:30:37Z</time>
      </trkpt>
      <trkpt lat="48.03981" lon="-0.76614">
        <ele>149</ele>
        <time>2009-06-07T08:30:39Z</time>
      </trkpt>
      <trkpt lat="48.03981" lon="-0.76606">
        <ele>149</ele>
        <time>2009-06-07T08:30:41Z</time>
      </trkpt>
      <trkpt lat="48.03982" lon="-0.76602">
        <ele>149</ele>
        <time>2009-06-07T08:30:43Z</time>
      </trkpt>
      <trkpt lat="48.03986" lon="-0.76587">
        <ele>145</ele>
        <time>2009-06-07T08:30:45Z</time>
      </trkpt>
      <trkpt lat="48.03988" lon="-0.76579">
        <ele>144</ele>
        <time>2009-06-07T08:30:47Z</time>
      </trkpt>
      <trkpt lat="48.03989" lon="-0.76573">
        <ele>143</ele>
        <time>2009-06-07T08:30:49Z</time>
      </trkpt>
      <trkpt lat="48.03988" lon="-0.76568">
        <ele>143</ele>
        <time>2009-06-07T08:30:51Z</time>
      </trkpt>
      <trkpt lat="48.03989" lon="-0.76564">
        <ele>143</ele>
        <time>2009-06-07T08:30:53Z</time>
      </trkpt>
      <trkpt lat="48.03989" lon="-0.76561">
        <ele>142</ele>
        <time>2009-06-07T08:30:55Z</time>
      </trkpt>
      <trkpt lat="48.03986" lon="-0.76557">
        <ele>142</ele>
        <time>2009-06-07T08:30:57Z</time>
      </trkpt>
      <trkpt lat="48.03985" lon="-0.76552">
        <ele>142</ele>
        <time>2009-06-07T08:30:59Z</time>
      </trkpt>
      <trkpt lat="48.03986" lon="-0.76549">
        <ele>141</ele>
        <time>2009-06-07T08:31:01Z</time>
      </trkpt>
      <trkpt lat="48.03984" lon="-0.76548">
        <ele>141</ele>
        <time>2009-06-07T08:31:03Z</time>
      </trkpt>
      <trkpt lat="48.03983" lon="-0.76544">
        <ele>141</ele>
        <time>2009-06-07T08:31:05Z</time>
      </trkpt>
      <trkpt lat="48.03982" lon="-0.76543">
        <ele>141</ele>
        <time>2009-06-07T08:31:07Z</time>
      </trkpt>
      <trkpt lat="48.0398" lon="-0.7654">
        <ele>141</ele>
        <time>2009-06-07T08:31:09Z</time>
      </trkpt>
      <trkpt lat="48.03978" lon="-0.76536">
        <ele>142</ele>
        <time>2009-06-07T08:31:11Z</time>
      </trkpt>
      <trkpt lat="48.03977" lon="-0.76535">
        <ele>142</ele>
        <time>2009-06-07T08:31:13Z</time>
      </trkpt>
      <trkpt lat="48.03976" lon="-0.7653">
        <ele>142</ele>
        <time>2009-06-07T08:31:15Z</time>
      </trkpt>
      <trkpt lat="48.0397" lon="-0.76522">
        <ele>143</ele>
        <time>2009-06-07T08:31:17Z</time>
      </trkpt>
      <trkpt lat="48.03968" lon="-0.76522">
        <ele>143</ele>
        <time>2009-06-07T08:31:19Z</time>
      </trkpt>
      <trkpt lat="48.03965" lon="-0.76519">
        <ele>143</ele>
        <time>2009-06-07T08:31:21Z</time>
      </trkpt>
      <trkpt lat="48.03965" lon="-0.76517">
        <ele>143</ele>
        <time>2009-06-07T08:31:23Z</time>
      </trkpt>
      <trkpt lat="48.03961" lon="-0.7651">
        <ele>144</ele>
        <time>2009-06-07T08:31:25Z</time>
      </trkpt>
      <trkpt lat="48.03956" lon="-0.76506">
        <ele>145</ele>
        <time>2009-06-07T08:31:27Z</time>
      </trkpt>
      <trkpt lat="48.03951" lon="-0.76504">
        <ele>145</ele>
        <time>2009-06-07T08:31:29Z</time>
      </trkpt>
      <trkpt lat="48.0394" lon="-0.76499">
        <ele>143</ele>
        <time>2009-06-07T08:31:31Z</time>
      </trkpt>
      <trkpt lat="48.03935" lon="-0.76499">
        <ele>142</ele>
        <time>2009-06-07T08:31:33Z</time>
      </trkpt>
      <trkpt lat="48.03932" lon="-0.76502">
        <ele>142</ele>
        <time>2009-06-07T08:31:35Z</time>
      </trkpt>
      <trkpt lat="48.03927" lon="-0.76506">
        <ele>140</ele>
        <time>2009-06-07T08:31:37Z</time>
      </trkpt>
      <trkpt lat="48.03921" lon="-0.76506">
        <ele>139</ele>
        <time>2009-06-07T08:31:39Z</time>
      </trkpt>
      <trkpt lat="48.03917" lon="-0.76508">
        <ele>139</ele>
        <time>2009-06-07T08:31:41Z</time>
      </trkpt>
      <trkpt lat="48.03914" lon="-0.76508">
        <ele>139</ele>
        <time>2009-06-07T08:31:43Z</time>
      </trkpt>
      <trkpt lat="48.03909" lon="-0.76508">
        <ele>138</ele>
        <time>2009-06-07T08:31:45Z</time>
      </trkpt>
      <trkpt lat="48.03903" lon="-0.7651">
        <ele>137</ele>
        <time>2009-06-07T08:31:47Z</time>
      </trkpt>
      <trkpt lat="48.03897" lon="-0.76514">
        <ele>137</ele>
        <time>2009-06-07T08:31:49Z</time>
      </trkpt>
      <trkpt lat="48.03893" lon="-0.76518">
        <ele>136</ele>
        <time>2009-06-07T08:31:51Z</time>
      </trkpt>
      <trkpt lat="48.0389" lon="-0.76523">
        <ele>135</ele>
        <time>2009-06-07T08:31:53Z</time>
      </trkpt>
      <trkpt lat="48.03889" lon="-0.76527">
        <ele>135</ele>
        <time>2009-06-07T08:31:55Z</time>
      </trkpt>
      <trkpt lat="48.03888" lon="-0.76532">
        <ele>134</ele>
        <time>2009-06-07T08:31:57Z</time>
      </trkpt>
      <trkpt lat="48.03888" lon="-0.76535">
        <ele>134</ele>
        <time>2009-06-07T08:31:59Z</time>
      </trkpt>
      <trkpt lat="48.03891" lon="-0.76539">
        <ele>133</ele>
        <time>2009-06-07T08:32:01Z</time>
      </trkpt>
      <trkpt lat="48.03892" lon="-0.76541">
        <ele>132</ele>
        <time>2009-06-07T08:32:03Z</time>
      </trkpt>
      <trkpt lat="48.03894" lon="-0.76541">
        <ele>132</ele>
        <time>2009-06-07T08:32:05Z</time>
      </trkpt>
      <trkpt lat="48.03897" lon="-0.76544">
        <ele>132</ele>
        <time>2009-06-07T08:32:07Z</time>
      </trkpt>
      <trkpt lat="48.03899" lon="-0.76544">
        <ele>132</ele>
        <time>2009-06-07T08:32:10Z</time>
      </trkpt>
      <trkpt lat="48.03904" lon="-0.76543">
        <ele>132</ele>
        <time>2009-06-07T08:32:12Z</time>
      </trkpt>
      <trkpt lat="48.03907" lon="-0.76543">
        <ele>132</ele>
        <time>2009-06-07T08:32:14Z</time>
      </trkpt>
      <trkpt lat="48.03907" lon="-0.76545">
        <ele>132</ele>
        <time>2009-06-07T08:32:16Z</time>
      </trkpt>
      <trkpt lat="48.03912" lon="-0.76546">
        <ele>132</ele>
        <time>2009-06-07T08:32:18Z</time>
      </trkpt>
      <trkpt lat="48.03913" lon="-0.76547">
        <ele>132</ele>
        <time>2009-06-07T08:32:20Z</time>
      </trkpt>
      <trkpt lat="48.03915" lon="-0.76548">
        <ele>132</ele>
        <time>2009-06-07T08:32:22Z</time>
      </trkpt>
      <trkpt lat="48.0392" lon="-0.76549">
        <ele>132</ele>
        <time>2009-06-07T08:32:24Z</time>
      </trkpt>
      <trkpt lat="48.03924" lon="-0.76551">
        <ele>133</ele>
        <time>2009-06-07T08:32:26Z</time>
      </trkpt>
      <trkpt lat="48.03927" lon="-0.76553">
        <ele>133</ele>
        <time>2009-06-07T08:32:28Z</time>
      </trkpt>
      <trkpt lat="48.03929" lon="-0.76553">
        <ele>133</ele>
        <time>2009-06-07T08:32:30Z</time>
      </trkpt>
      <trkpt lat="48.03932" lon="-0.76554">
        <ele>133</ele>
        <time>2009-06-07T08:32:32Z</time>
      </trkpt>
      <trkpt lat="48.03933" lon="-0.7656">
        <ele>133</ele>
        <time>2009-06-07T08:32:34Z</time>
      </trkpt>
      <trkpt lat="48.03936" lon="-0.76564">
        <ele>133</ele>
        <time>2009-06-07T08:32:36Z</time>
      </trkpt>
      <trkpt lat="48.03938" lon="-0.76567">
        <ele>133</ele>
        <time>2009-06-07T08:32:38Z</time>
      </trkpt>
      <trkpt lat="48.0394" lon="-0.7657">
        <ele>134</ele>
        <time>2009-06-07T08:32:40Z</time>
      </trkpt>
      <trkpt lat="48.03942" lon="-0.76577">
        <ele>134</ele>
        <time>2009-06-07T08:32:42Z</time>
      </trkpt>
      <trkpt lat="48.03946" lon="-0.76583">
        <ele>133</ele>
        <time>2009-06-07T08:32:44Z</time>
      </trkpt>
      <trkpt lat="48.03948" lon="-0.76594">
        <ele>133</ele>
        <time>2009-06-07T08:32:46Z</time>
      </trkpt>
      <trkpt lat="48.03949" lon="-0.76598">
        <ele>133</ele>
        <time>2009-06-07T08:32:48Z</time>
      </trkpt>
      <trkpt lat="48.03948" lon="-0.76603">
        <ele>133</ele>
        <time>2009-06-07T08:32:50Z</time>
      </trkpt>
      <trkpt lat="48.03948" lon="-0.76605">
        <ele>133</ele>
        <time>2009-06-07T08:32:52Z</time>
      </trkpt>
      <trkpt lat="48.03947" lon="-0.76609">
        <ele>133</ele>
        <time>2009-06-07T08:32:54Z</time>
      </trkpt>
      <trkpt lat="48.03946" lon="-0.76611">
        <ele>134</ele>
        <time>2009-06-07T08:32:56Z</time>
      </trkpt>
      <trkpt lat="48.03947" lon="-0.76611">
        <ele>133</ele>
        <time>2009-06-07T08:32:58Z</time>
      </trkpt>
      <trkpt lat="48.03947" lon="-0.76615">
        <ele>133</ele>
        <time>2009-06-07T08:33:00Z</time>
      </trkpt>
      <trkpt lat="48.03947" lon="-0.76617">
        <ele>133</ele>
        <time>2009-06-07T08:33:02Z</time>
      </trkpt>
      <trkpt lat="48.03947" lon="-0.76621">
        <ele>133</ele>
        <time>2009-06-07T08:33:04Z</time>
      </trkpt>
      <trkpt lat="48.03948" lon="-0.76629">
        <ele>132</ele>
        <time>2009-06-07T08:33:06Z</time>
      </trkpt>
      <trkpt lat="48.03948" lon="-0.76634">
        <ele>132</ele>
        <time>2009-06-07T08:33:08Z</time>
      </trkpt>
      <trkpt lat="48.03946" lon="-0.76638">
        <ele>132</ele>
        <time>2009-06-07T08:33:10Z</time>
      </trkpt>
      <trkpt lat="48.03944" lon="-0.76644">
        <ele>132</ele>
        <time>2009-06-07T08:33:12Z</time>
      </trkpt>
      <trkpt lat="48.03941" lon="-0.76652">
        <ele>132</ele>
        <time>2009-06-07T08:33:14Z</time>
      </trkpt>
      <trkpt lat="48.03938" lon="-0.7666">
        <ele>131</ele>
        <time>2009-06-07T08:33:16Z</time>
      </trkpt>
      <trkpt lat="48.03936" lon="-0.76666">
        <ele>130</ele>
        <time>2009-06-07T08:33:18Z</time>
      </trkpt>
      <trkpt lat="48.03935" lon="-0.76674">
        <ele>130</ele>
        <time>2009-06-07T08:33:20Z</time>
      </trkpt>
      <trkpt lat="48.03933" lon="-0.76679">
        <ele>131</ele>
        <time>2009-06-07T08:33:22Z</time>
      </trkpt>
      <trkpt lat="48.0393" lon="-0.76686">
        <ele>132</ele>
        <time>2009-06-07T08:33:24Z</time>
      </trkpt>
      <trkpt lat="48.0393" lon="-0.76694">
        <ele>133</ele>
        <time>2009-06-07T08:33:26Z</time>
      </trkpt>
      <trkpt lat="48.0393" lon="-0.76702">
        <ele>133</ele>
        <time>2009-06-07T08:33:28Z</time>
      </trkpt>
      <trkpt lat="48.0393" lon="-0.76713">
        <ele>133</ele>
        <time>2009-06-07T08:33:30Z</time>
      </trkpt>
      <trkpt lat="48.03931" lon="-0.76723">
        <ele>133</ele>
        <time>2009-06-07T08:33:32Z</time>
      </trkpt>
      <trkpt lat="48.03932" lon="-0.76733">
        <ele>132</ele>
        <time>2009-06-07T08:33:34Z</time>
      </trkpt>
      <trkpt lat="48.03932" lon="-0.76739">
        <ele>132</ele>
        <time>2009-06-07T08:33:36Z</time>
      </trkpt>
      <trkpt lat="48.03931" lon="-0.76748">
        <ele>132</ele>
        <time>2009-06-07T08:33:38Z</time>
      </trkpt>
      <trkpt lat="48.0393" lon="-0.76757">
        <ele>131</ele>
        <time>2009-06-07T08:33:40Z</time>
      </trkpt>
      <trkpt lat="48.03931" lon="-0.76766">
        <ele>131</ele>
        <time>2009-06-07T08:33:42Z</time>
      </trkpt>
      <trkpt lat="48.03932" lon="-0.76774">
        <ele>132</ele>
        <time>2009-06-07T08:33:44Z</time>
      </trkpt>
      <trkpt lat="48.0393" lon="-0.7678">
        <ele>131</ele>
        <time>2009-06-07T08:33:46Z</time>
      </trkpt>
      <trkpt lat="48.03929" lon="-0.76788">
        <ele>131</ele>
        <time>2009-06-07T08:33:48Z</time>
      </trkpt>
      <trkpt lat="48.03931" lon="-0.76799">
        <ele>131</ele>
        <time>2009-06-07T08:33:50Z</time>
      </trkpt>
      <trkpt lat="48.03935" lon="-0.76806">
        <ele>130</ele>
        <time>2009-06-07T08:33:52Z</time>
      </trkpt>
      <trkpt lat="48.03939" lon="-0.76812">
        <ele>130</ele>
        <time>2009-06-07T08:33:54Z</time>
      </trkpt>
      <trkpt lat="48.03942" lon="-0.76815">
        <ele>130</ele>
        <time>2009-06-07T08:33:56Z</time>
      </trkpt>
      <trkpt lat="48.03947" lon="-0.76821">
        <ele>130</ele>
        <time>2009-06-07T08:33:58Z</time>
      </trkpt>
      <trkpt lat="48.0395" lon="-0.76826">
        <ele>130</ele>
        <time>2009-06-07T08:34:00Z</time>
      </trkpt>
      <trkpt lat="48.03952" lon="-0.76832">
        <ele>131</ele>
        <time>2009-06-07T08:34:02Z</time>
      </trkpt>
      <trkpt lat="48.03955" lon="-0.76835">
        <ele>131</ele>
        <time>2009-06-07T08:34:04Z</time>
      </trkpt>
      <trkpt lat="48.03961" lon="-0.76839">
        <ele>131</ele>
        <time>2009-06-07T08:34:06Z</time>
      </trkpt>
      <trkpt lat="48.03966" lon="-0.76845">
        <ele>131</ele>
        <time>2009-06-07T08:34:08Z</time>
      </trkpt>
      <trkpt lat="48.03971" lon="-0.76849">
        <ele>131</ele>
        <time>2009-06-07T08:34:10Z</time>
      </trkpt>
      <trkpt lat="48.03975" lon="-0.76852">
        <ele>131</ele>
        <time>2009-06-07T08:34:12Z</time>
      </trkpt>
      <trkpt lat="48.03977" lon="-0.76853">
        <ele>131</ele>
        <time>2009-06-07T08:34:14Z</time>
      </trkpt>
      <trkpt lat="48.03981" lon="-0.76857">
        <ele>131</ele>
        <time>2009-06-07T08:34:16Z</time>
      </trkpt>
      <trkpt lat="48.03986" lon="-0.76859">
        <ele>131</ele>
        <time>2009-06-07T08:34:18Z</time>
      </trkpt>
      <trkpt lat="48.03988" lon="-0.76863">
        <ele>131</ele>
        <time>2009-06-07T08:34:20Z</time>
      </trkpt>
      <trkpt lat="48.03991" lon="-0.76868">
        <ele>131</ele>
        <time>2009-06-07T08:34:22Z</time>
      </trkpt>
      <trkpt lat="48.03993" lon="-0.76872">
        <ele>131</ele>
        <time>2009-06-07T08:34:24Z</time>
      </trkpt>
      <trkpt lat="48.03996" lon="-0.76875">
        <ele>131</ele>
        <time>2009-06-07T08:34:26Z</time>
      </trkpt>
      <trkpt lat="48.03997" lon="-0.76879">
        <ele>131</ele>
        <time>2009-06-07T08:34:28Z</time>
      </trkpt>
      <trkpt lat="48.03999" lon="-0.76883">
        <ele>131</ele>
        <time>2009-06-07T08:34:30Z</time>
      </trkpt>
      <trkpt lat="48.04004" lon="-0.76889">
        <ele>128</ele>
        <time>2009-06-07T08:34:32Z</time>
      </trkpt>
      <trkpt lat="48.04004" lon="-0.76891">
        <ele>128</ele>
        <time>2009-06-07T08:34:34Z</time>
      </trkpt>
      <trkpt lat="48.04005" lon="-0.76892">
        <ele>128</ele>
        <time>2009-06-07T08:34:36Z</time>
      </trkpt>
      <trkpt lat="48.04003" lon="-0.76889">
        <ele>128</ele>
        <time>2009-06-07T08:34:38Z</time>
      </trkpt>
      <trkpt lat="48.04004" lon="-0.76885">
        <ele>127</ele>
        <time>2009-06-07T08:34:40Z</time>
      </trkpt>
      <trkpt lat="48.04004" lon="-0.76888">
        <ele>127</ele>
        <time>2009-06-07T08:34:42Z</time>
      </trkpt>
      <trkpt lat="48.04008" lon="-0.7689">
        <ele>126</ele>
        <time>2009-06-07T08:34:44Z</time>
      </trkpt>
      <trkpt lat="48.04012" lon="-0.76888">
        <ele>126</ele>
        <time>2009-06-07T08:34:46Z</time>
      </trkpt>
      <trkpt lat="48.04013" lon="-0.76884">
        <ele>126</ele>
        <time>2009-06-07T08:34:48Z</time>
      </trkpt>
      <trkpt lat="48.04016" lon="-0.76881">
        <ele>126</ele>
        <time>2009-06-07T08:34:50Z</time>
      </trkpt>
      <trkpt lat="48.04018" lon="-0.76878">
        <ele>127</ele>
        <time>2009-06-07T08:34:52Z</time>
      </trkpt>
      <trkpt lat="48.04019" lon="-0.76874">
        <ele>127</ele>
        <time>2009-06-07T08:34:54Z</time>
      </trkpt>
      <trkpt lat="48.0402" lon="-0.76871">
        <ele>127</ele>
        <time>2009-06-07T08:34:56Z</time>
      </trkpt>
      <trkpt lat="48.0402" lon="-0.7687">
        <ele>127</ele>
        <time>2009-06-07T08:34:58Z</time>
      </trkpt>
      <trkpt lat="48.04021" lon="-0.76868">
        <ele>127</ele>
        <time>2009-06-07T08:35:00Z</time>
      </trkpt>
      <trkpt lat="48.04021" lon="-0.76866">
        <ele>127</ele>
        <time>2009-06-07T08:35:02Z</time>
      </trkpt>
      <trkpt lat="48.04023" lon="-0.76864">
        <ele>128</ele>
        <time>2009-06-07T08:35:04Z</time>
      </trkpt>
      <trkpt lat="48.04024" lon="-0.76863">
        <ele>128</ele>
        <time>2009-06-07T08:35:06Z</time>
      </trkpt>
      <trkpt lat="48.04025" lon="-0.76862">
        <ele>128</ele>
        <time>2009-06-07T08:35:08Z</time>
      </trkpt>
      <trkpt lat="48.04024" lon="-0.76859">
        <ele>128</ele>
        <time>2009-06-07T08:35:10Z</time>
      </trkpt>
      <trkpt lat="48.04027" lon="-0.76853">
        <ele>128</ele>
        <time>2009-06-07T08:35:12Z</time>
      </trkpt>
      <trkpt lat="48.04026" lon="-0.76851">
        <ele>127</ele>
        <time>2009-06-07T08:35:14Z</time>
      </trkpt>
      <trkpt lat="48.04027" lon="-0.76848">
        <ele>128</ele>
        <time>2009-06-07T08:35:16Z</time>
      </trkpt>
      <trkpt lat="48.04027" lon="-0.76847">
        <ele>128</ele>
        <time>2009-06-07T08:35:18Z</time>
      </trkpt>
      <trkpt lat="48.04027" lon="-0.76847">
        <ele>129</ele>
        <time>2009-06-07T08:35:20Z</time>
      </trkpt>
      <trkpt lat="48.04027" lon="-0.76848">
        <ele>129</ele>
        <time>2009-06-07T08:35:22Z</time>
      </trkpt>
      <trkpt lat="48.04027" lon="-0.76847">
        <ele>129</ele>
        <time>2009-06-07T08:35:24Z</time>
      </trkpt>
      <trkpt lat="48.04027" lon="-0.76847">
        <ele>129</ele>
        <time>2009-06-07T08:35:26Z</time>
      </trkpt>
      <trkpt lat="48.04027" lon="-0.76847">
        <ele>128</ele>
        <time>2009-06-07T08:35:28Z</time>
      </trkpt>
      <trkpt lat="48.04028" lon="-0.76845">
        <ele>129</ele>
        <time>2009-06-07T08:35:30Z</time>
      </trkpt>
      <trkpt lat="48.04028" lon="-0.76845">
        <ele>128</ele>
        <time>2009-06-07T08:35:32Z</time>
      </trkpt>
      <trkpt lat="48.04028" lon="-0.76844">
        <ele>129</ele>
        <time>2009-06-07T08:35:34Z</time>
      </trkpt>
      <trkpt lat="48.04029" lon="-0.76844">
        <ele>129</ele>
        <time>2009-06-07T08:35:36Z</time>
      </trkpt>
      <trkpt lat="48.04029" lon="-0.76844">
        <ele>129</ele>
        <time>2009-06-07T08:35:38Z</time>
      </trkpt>
      <trkpt lat="48.0403" lon="-0.76844">
        <ele>129</ele>
        <time>2009-06-07T08:35:40Z</time>
      </trkpt>
      <trkpt lat="48.0403" lon="-0.76844">
        <ele>129</ele>
        <time>2009-06-07T08:35:42Z</time>
      </trkpt>
      <trkpt lat="48.0403" lon="-0.76843">
        <ele>129</ele>
        <time>2009-06-07T08:35:44Z</time>
      </trkpt>
      <trkpt lat="48.0403" lon="-0.76843">
        <ele>129</ele>
        <time>2009-06-07T08:35:46Z</time>
      </trkpt>
      <trkpt lat="48.04031" lon="-0.76843">
        <ele>129</ele>
        <time>2009-06-07T08:35:48Z</time>
      </trkpt>
      <trkpt lat="48.04031" lon="-0.76841">
        <ele>129</ele>
        <time>2009-06-07T08:35:50Z</time>
      </trkpt>
      <trkpt lat="48.04031" lon="-0.76841">
        <ele>129</ele>
        <time>2009-06-07T08:35:52Z</time>
      </trkpt>
      <trkpt lat="48.04031" lon="-0.76841">
        <ele>129</ele>
        <time>2009-06-07T08:35:54Z</time>
      </trkpt>
      <trkpt lat="48.04031" lon="-0.76841">
        <ele>129</ele>
        <time>2009-06-07T08:35:56Z</time>
      </trkpt>
      <trkpt lat="48.04031" lon="-0.76841">
        <ele>129</ele>
        <time>2009-06-07T08:35:58Z</time>
      </trkpt>
      <trkpt lat="48.04032" lon="-0.7684">
        <ele>129</ele>
        <time>2009-06-07T08:36:00Z</time>
      </trkpt>
      <trkpt lat="48.04032" lon="-0.7684">
        <ele>129</ele>
        <time>2009-06-07T08:36:02Z</time>
      </trkpt>
      <trkpt lat="48.04032" lon="-0.7684">
        <ele>129</ele>
        <time>2009-06-07T08:36:04Z</time>
      </trkpt>
      <trkpt lat="48.04032" lon="-0.7684">
        <ele>128</ele>
        <time>2009-06-07T08:36:06Z</time>
      </trkpt>
      <trkpt lat="48.04032" lon="-0.7684">
        <ele>128</ele>
        <time>2009-06-07T08:36:08Z</time>
      </trkpt>
      <trkpt lat="48.04031" lon="-0.7684">
        <ele>128</ele>
        <time>2009-06-07T08:36:10Z</time>
      </trkpt>
      <trkpt lat="48.04031" lon="-0.7684">
        <ele>128</ele>
        <time>2009-06-07T08:36:12Z</time>
      </trkpt>
      <trkpt lat="48.04031" lon="-0.7684">
        <ele>128</ele>
        <time>2009-06-07T08:36:14Z</time>
      </trkpt>
      <trkpt lat="48.04031" lon="-0.76839">
        <ele>128</ele>
        <time>2009-06-07T08:36:16Z</time>
      </trkpt>
      <trkpt lat="48.04034" lon="-0.76837">
        <ele>130</ele>
        <time>2009-06-07T08:36:18Z</time>
      </trkpt>
      <trkpt lat="48.04033" lon="-0.76837">
        <ele>130</ele>
        <time>2009-06-07T08:36:20Z</time>
      </trkpt>
      <trkpt lat="48.04033" lon="-0.76836">
        <ele>130</ele>
        <time>2009-06-07T08:36:22Z</time>
      </trkpt>
      <trkpt lat="48.04033" lon="-0.76836">
        <ele>130</ele>
        <time>2009-06-07T08:36:24Z</time>
      </trkpt>
      <trkpt lat="48.04033" lon="-0.76834">
        <ele>130</ele>
        <time>2009-06-07T08:36:26Z</time>
      </trkpt>
      <trkpt lat="48.04034" lon="-0.76834">
        <ele>130</ele>
        <time>2009-06-07T08:36:28Z</time>
      </trkpt>
      <trkpt lat="48.04033" lon="-0.76834">
        <ele>130</ele>
        <time>2009-06-07T08:36:30Z</time>
      </trkpt>
      <trkpt lat="48.04034" lon="-0.76834">
        <ele>130</ele>
        <time>2009-06-07T08:36:32Z</time>
      </trkpt>
      <trkpt lat="48.04033" lon="-0.76834">
        <ele>131</ele>
        <time>2009-06-07T08:36:34Z</time>
      </trkpt>
      <trkpt lat="48.04033" lon="-0.76834">
        <ele>131</ele>
        <time>2009-06-07T08:36:36Z</time>
      </trkpt>
      <trkpt lat="48.04032" lon="-0.76834">
        <ele>131</ele>
        <time>2009-06-07T08:36:38Z</time>
      </trkpt>
      <trkpt lat="48.04032" lon="-0.76834">
        <ele>131</ele>
        <time>2009-06-07T08:36:40Z</time>
      </trkpt>
      <trkpt lat="48.04032" lon="-0.76834">
        <ele>131</ele>
        <time>2009-06-07T08:36:42Z</time>
      </trkpt>
      <trkpt lat="48.04032" lon="-0.76834">
        <ele>131</ele>
        <time>2009-06-07T08:36:44Z</time>
      </trkpt>
      <trkpt lat="48.04032" lon="-0.76834">
        <ele>131</ele>
        <time>2009-06-07T08:36:46Z</time>
      </trkpt>
      <trkpt lat="48.04032" lon="-0.76834">
        <ele>131</ele>
        <time>2009-06-07T08:36:48Z</time>
      </trkpt>
      <trkpt lat="48.04032" lon="-0.76834">
        <ele>131</ele>
        <time>2009-06-07T08:36:50Z</time>
      </trkpt>
      <trkpt lat="48.04032" lon="-0.76834">
        <ele>131</ele>
        <time>2009-06-07T08:36:52Z</time>
      </trkpt>
      <trkpt lat="48.04033" lon="-0.76834">
        <ele>131</ele>
        <time>2009-06-07T08:36:54Z</time>
      </trkpt>
      <trkpt lat="48.04033" lon="-0.76834">
        <ele>132</ele>
        <time>2009-06-07T08:36:57Z</time>
      </trkpt>
      <trkpt lat="48.04033" lon="-0.76834">
        <ele>132</ele>
        <time>2009-06-07T08:36:59Z</time>
      </trkpt>
      <trkpt lat="48.04034" lon="-0.76834">
        <ele>133</ele>
        <time>2009-06-07T08:37:01Z</time>
      </trkpt>
      <trkpt lat="48.04034" lon="-0.76834">
        <ele>133</ele>
        <time>2009-06-07T08:37:03Z</time>
      </trkpt>
      <trkpt lat="48.04034" lon="-0.76834">
        <ele>133</ele>
        <time>2009-06-07T08:37:05Z</time>
      </trkpt>
      <trkpt lat="48.04034" lon="-0.76834">
        <ele>133</ele>
        <time>2009-06-07T08:37:07Z</time>
      </trkpt>
      <trkpt lat="48.04034" lon="-0.76834">
        <ele>133</ele>
        <time>2009-06-07T08:37:09Z</time>
      </trkpt>
      <trkpt lat="48.04034" lon="-0.76836">
        <ele>134</ele>
        <time>2009-06-07T08:37:11Z</time>
      </trkpt>
      <trkpt lat="48.04034" lon="-0.76834">
        <ele>134</ele>
        <time>2009-06-07T08:37:13Z</time>
      </trkpt>
      <trkpt lat="48.04034" lon="-0.76834">
        <ele>134</ele>
        <time>2009-06-07T08:37:15Z</time>
      </trkpt>
      <trkpt lat="48.04034" lon="-0.76834">
        <ele>134</ele>
        <time>2009-06-07T08:37:17Z</time>
      </trkpt>
      <trkpt lat="48.04034" lon="-0.76834">
        <ele>134</ele>
        <time>2009-06-07T08:37:19Z</time>
      </trkpt>
      <trkpt lat="48.04036" lon="-0.76834">
        <ele>134</ele>
        <time>2009-06-07T08:37:21Z</time>
      </trkpt>
      <trkpt lat="48.04034" lon="-0.76834">
        <ele>134</ele>
        <time>2009-06-07T08:37:23Z</time>
      </trkpt>
      <trkpt lat="48.04034" lon="-0.76834">
        <ele>134</ele>
        <time>2009-06-07T08:37:25Z</time>
      </trkpt>
      <trkpt lat="48.04034" lon="-0.76834">
        <ele>134</ele>
        <time>2009-06-07T08:37:27Z</time>
      </trkpt>
      <trkpt lat="48.04034" lon="-0.76834">
        <ele>134</ele>
        <time>2009-06-07T08:37:29Z</time>
      </trkpt>
      <trkpt lat="48.04034" lon="-0.76834">
        <ele>134</ele>
        <time>2009-06-07T08:37:31Z</time>
      </trkpt>
      <trkpt lat="48.04036" lon="-0.76834">
        <ele>134</ele>
        <time>2009-06-07T08:37:33Z</time>
      </trkpt>
      <trkpt lat="48.04036" lon="-0.76834">
        <ele>134</ele>
        <time>2009-06-07T08:37:35Z</time>
      </trkpt>
      <trkpt lat="48.04036" lon="-0.76834">
        <ele>134</ele>
        <time>2009-06-07T08:37:37Z</time>
      </trkpt>
      <trkpt lat="48.04036" lon="-0.76834">
        <ele>134</ele>
        <time>2009-06-07T08:37:39Z</time>
      </trkpt>
      <trkpt lat="48.04036" lon="-0.76834">
        <ele>134</ele>
        <time>2009-06-07T08:37:41Z</time>
      </trkpt>
      <trkpt lat="48.04036" lon="-0.76834">
        <ele>134</ele>
        <time>2009-06-07T08:37:43Z</time>
      </trkpt>
      <trkpt lat="48.04036" lon="-0.76834">
        <ele>134</ele>
        <time>2009-06-07T08:37:45Z</time>
      </trkpt>
      <trkpt lat="48.04036" lon="-0.76834">
        <ele>134</ele>
        <time>2009-06-07T08:37:47Z</time>
      </trkpt>
      <trkpt lat="48.04036" lon="-0.76834">
        <ele>135</ele>
        <time>2009-06-07T08:37:49Z</time>
      </trkpt>
      <trkpt lat="48.04036" lon="-0.76834">
        <ele>134</ele>
        <time>2009-06-07T08:37:51Z</time>
      </trkpt>
      <trkpt lat="48.04035" lon="-0.76833">
        <ele>134</ele>
        <time>2009-06-07T08:37:53Z</time>
      </trkpt>
      <trkpt lat="48.04035" lon="-0.76833">
        <ele>135</ele>
        <time>2009-06-07T08:37:55Z</time>
      </trkpt>
      <trkpt lat="48.04036" lon="-0.76833">
        <ele>135</ele>
        <time>2009-06-07T08:37:57Z</time>
      </trkpt>
      <trkpt lat="48.04036" lon="-0.76833">
        <ele>135</ele>
        <time>2009-06-07T08:37:59Z</time>
      </trkpt>
      <trkpt lat="48.04036" lon="-0.76833">
        <ele>135</ele>
        <time>2009-06-07T08:38:01Z</time>
      </trkpt>
      <trkpt lat="48.04036" lon="-0.76832">
        <ele>135</ele>
        <time>2009-06-07T08:38:03Z</time>
      </trkpt>
      <trkpt lat="48.04046" lon="-0.76786">
        <ele>136</ele>
        <time>2009-06-07T08:38:05Z</time>
      </trkpt>
      <trkpt lat="48.04045" lon="-0.7678">
        <ele>136</ele>
        <time>2009-06-07T08:38:07Z</time>
      </trkpt>
      <trkpt lat="48.04044" lon="-0.76776">
        <ele>136</ele>
        <time>2009-06-07T08:38:09Z</time>
      </trkpt>
      <trkpt lat="48.04044" lon="-0.7677">
        <ele>136</ele>
        <time>2009-06-07T08:38:11Z</time>
      </trkpt>
      <trkpt lat="48.04045" lon="-0.76764">
        <ele>137</ele>
        <time>2009-06-07T08:38:13Z</time>
      </trkpt>
      <trkpt lat="48.04045" lon="-0.76759">
        <ele>137</ele>
        <time>2009-06-07T08:38:15Z</time>
      </trkpt>
      <trkpt lat="48.0405" lon="-0.76756">
        <ele>137</ele>
        <time>2009-06-07T08:38:17Z</time>
      </trkpt>
      <trkpt lat="48.04053" lon="-0.7675">
        <ele>137</ele>
        <time>2009-06-07T08:38:19Z</time>
      </trkpt>
      <trkpt lat="48.04055" lon="-0.7675">
        <ele>137</ele>
        <time>2009-06-07T08:38:21Z</time>
      </trkpt>
      <trkpt lat="48.04059" lon="-0.7675">
        <ele>137</ele>
        <time>2009-06-07T08:38:23Z</time>
      </trkpt>
      <trkpt lat="48.04062" lon="-0.76747">
        <ele>137</ele>
        <time>2009-06-07T08:38:25Z</time>
      </trkpt>
      <trkpt lat="48.04067" lon="-0.76746">
        <ele>136</ele>
        <time>2009-06-07T08:38:27Z</time>
      </trkpt>
      <trkpt lat="48.04069" lon="-0.76743">
        <ele>135</ele>
        <time>2009-06-07T08:38:29Z</time>
      </trkpt>
      <trkpt lat="48.04071" lon="-0.76739">
        <ele>135</ele>
        <time>2009-06-07T08:38:31Z</time>
      </trkpt>
      <trkpt lat="48.04075" lon="-0.76729">
        <ele>134</ele>
        <time>2009-06-07T08:38:33Z</time>
      </trkpt>
      <trkpt lat="48.04078" lon="-0.7672">
        <ele>134</ele>
        <time>2009-06-07T08:38:35Z</time>
      </trkpt>
      <trkpt lat="48.04082" lon="-0.76709">
        <ele>135</ele>
        <time>2009-06-07T08:38:37Z</time>
      </trkpt>
      <trkpt lat="48.04086" lon="-0.76705">
        <ele>133</ele>
        <time>2009-06-07T08:38:39Z</time>
      </trkpt>
      <trkpt lat="48.04089" lon="-0.76695">
        <ele>131</ele>
        <time>2009-06-07T08:38:41Z</time>
      </trkpt>
      <trkpt lat="48.04096" lon="-0.76687">
        <ele>126</ele>
        <time>2009-06-07T08:38:43Z</time>
      </trkpt>
      <trkpt lat="48.04099" lon="-0.76681">
        <ele>123</ele>
        <time>2009-06-07T08:38:45Z</time>
      </trkpt>
      <trkpt lat="48.04103" lon="-0.7668">
        <ele>121</ele>
        <time>2009-06-07T08:38:47Z</time>
      </trkpt>
      <trkpt lat="48.04105" lon="-0.7668">
        <ele>121</ele>
        <time>2009-06-07T08:38:49Z</time>
      </trkpt>
      <trkpt lat="48.04106" lon="-0.76677">
        <ele>123</ele>
        <time>2009-06-07T08:38:51Z</time>
      </trkpt>
      <trkpt lat="48.04107" lon="-0.76674">
        <ele>125</ele>
        <time>2009-06-07T08:38:53Z</time>
      </trkpt>
      <trkpt lat="48.04106" lon="-0.76674">
        <ele>126</ele>
        <time>2009-06-07T08:38:55Z</time>
      </trkpt>
      <trkpt lat="48.04106" lon="-0.7667">
        <ele>125</ele>
        <time>2009-06-07T08:38:57Z</time>
      </trkpt>
      <trkpt lat="48.04106" lon="-0.76668">
        <ele>126</ele>
        <time>2009-06-07T08:38:59Z</time>
      </trkpt>
      <trkpt lat="48.04108" lon="-0.76663">
        <ele>125</ele>
        <time>2009-06-07T08:39:01Z</time>
      </trkpt>
      <trkpt lat="48.04111" lon="-0.76659">
        <ele>125</ele>
        <time>2009-06-07T08:39:03Z</time>
      </trkpt>
      <trkpt lat="48.04115" lon="-0.76659">
        <ele>126</ele>
        <time>2009-06-07T08:39:05Z</time>
      </trkpt>
      <trkpt lat="48.04119" lon="-0.76656">
        <ele>126</ele>
        <time>2009-06-07T08:39:07Z</time>
      </trkpt>
      <trkpt lat="48.04121" lon="-0.76653">
        <ele>126</ele>
        <time>2009-06-07T08:39:09Z</time>
      </trkpt>
      <trkpt lat="48.04122" lon="-0.76653">
        <ele>126</ele>
        <time>2009-06-07T08:39:11Z</time>
      </trkpt>
      <trkpt lat="48.04121" lon="-0.76651">
        <ele>126</ele>
        <time>2009-06-07T08:39:13Z</time>
      </trkpt>
      <trkpt lat="48.04121" lon="-0.76649">
        <ele>127</ele>
        <time>2009-06-07T08:39:15Z</time>
      </trkpt>
      <trkpt lat="48.0412" lon="-0.76648">
        <ele>127</ele>
        <time>2009-06-07T08:39:17Z</time>
      </trkpt>
      <trkpt lat="48.0412" lon="-0.76648">
        <ele>127</ele>
        <time>2009-06-07T08:39:19Z</time>
      </trkpt>
      <trkpt lat="48.04121" lon="-0.76648">
        <ele>128</ele>
        <time>2009-06-07T08:39:21Z</time>
      </trkpt>
      <trkpt lat="48.0412" lon="-0.76647">
        <ele>128</ele>
        <time>2009-06-07T08:39:23Z</time>
      </trkpt>
      <trkpt lat="48.0412" lon="-0.76647">
        <ele>128</ele>
        <time>2009-06-07T08:39:25Z</time>
      </trkpt>
      <trkpt lat="48.0412" lon="-0.76647">
        <ele>128</ele>
        <time>2009-06-07T08:39:27Z</time>
      </trkpt>
      <trkpt lat="48.0412" lon="-0.76647">
        <ele>128</ele>
        <time>2009-06-07T08:39:29Z</time>
      </trkpt>
      <trkpt lat="48.0412" lon="-0.76645">
        <ele>128</ele>
        <time>2009-06-07T08:39:31Z</time>
      </trkpt>
      <trkpt lat="48.04121" lon="-0.76645">
        <ele>128</ele>
        <time>2009-06-07T08:39:33Z</time>
      </trkpt>
      <trkpt lat="48.04121" lon="-0.76647">
        <ele>128</ele>
        <time>2009-06-07T08:39:35Z</time>
      </trkpt>
      <trkpt lat="48.04122" lon="-0.76647">
        <ele>128</ele>
        <time>2009-06-07T08:39:37Z</time>
      </trkpt>
      <trkpt lat="48.04123" lon="-0.76647">
        <ele>128</ele>
        <time>2009-06-07T08:39:39Z</time>
      </trkpt>
      <trkpt lat="48.04123" lon="-0.76647">
        <ele>128</ele>
        <time>2009-06-07T08:39:41Z</time>
      </trkpt>
      <trkpt lat="48.04123" lon="-0.76647">
        <ele>128</ele>
        <time>2009-06-07T08:39:43Z</time>
      </trkpt>
      <trkpt lat="48.04123" lon="-0.76647">
        <ele>128</ele>
        <time>2009-06-07T08:39:45Z</time>
      </trkpt>
      <trkpt lat="48.04123" lon="-0.76647">
        <ele>128</ele>
        <time>2009-06-07T08:39:47Z</time>
      </trkpt>
      <trkpt lat="48.04123" lon="-0.76647">
        <ele>128</ele>
        <time>2009-06-07T08:39:49Z</time>
      </trkpt>
      <trkpt lat="48.04123" lon="-0.76645">
        <ele>129</ele>
        <time>2009-06-07T08:39:51Z</time>
      </trkpt>
      <trkpt lat="48.04123" lon="-0.76645">
        <ele>129</ele>
        <time>2009-06-07T08:39:53Z</time>
      </trkpt>
      <trkpt lat="48.04122" lon="-0.76645">
        <ele>129</ele>
        <time>2009-06-07T08:39:55Z</time>
      </trkpt>
      <trkpt lat="48.04122" lon="-0.76644">
        <ele>129</ele>
        <time>2009-06-07T08:39:57Z</time>
      </trkpt>
      <trkpt lat="48.04122" lon="-0.76644">
        <ele>129</ele>
        <time>2009-06-07T08:39:59Z</time>
      </trkpt>
      <trkpt lat="48.04122" lon="-0.76645">
        <ele>129</ele>
        <time>2009-06-07T08:40:01Z</time>
      </trkpt>
      <trkpt lat="48.04122" lon="-0.76645">
        <ele>129</ele>
        <time>2009-06-07T08:40:03Z</time>
      </trkpt>
      <trkpt lat="48.04122" lon="-0.76645">
        <ele>129</ele>
        <time>2009-06-07T08:40:05Z</time>
      </trkpt>
      <trkpt lat="48.04123" lon="-0.76644">
        <ele>129</ele>
        <time>2009-06-07T08:40:07Z</time>
      </trkpt>
      <trkpt lat="48.04123" lon="-0.76643">
        <ele>129</ele>
        <time>2009-06-07T08:40:09Z</time>
      </trkpt>
      <trkpt lat="48.04123" lon="-0.76643">
        <ele>129</ele>
        <time>2009-06-07T08:40:11Z</time>
      </trkpt>
      <trkpt lat="48.04123" lon="-0.76641">
        <ele>129</ele>
        <time>2009-06-07T08:40:13Z</time>
      </trkpt>
      <trkpt lat="48.04123" lon="-0.7664">
        <ele>129</ele>
        <time>2009-06-07T08:40:15Z</time>
      </trkpt>
      <trkpt lat="48.04123" lon="-0.76639">
        <ele>129</ele>
        <time>2009-06-07T08:40:17Z</time>
      </trkpt>
      <trkpt lat="48.04123" lon="-0.76639">
        <ele>129</ele>
        <time>2009-06-07T08:40:19Z</time>
      </trkpt>
      <trkpt lat="48.04123" lon="-0.76639">
        <ele>130</ele>
        <time>2009-06-07T08:40:21Z</time>
      </trkpt>
      <trkpt lat="48.04123" lon="-0.76637">
        <ele>128</ele>
        <time>2009-06-07T08:40:23Z</time>
      </trkpt>
      <trkpt lat="48.04123" lon="-0.76637">
        <ele>129</ele>
        <time>2009-06-07T08:40:25Z</time>
      </trkpt>
      <trkpt lat="48.04123" lon="-0.76637">
        <ele>129</ele>
        <time>2009-06-07T08:40:27Z</time>
      </trkpt>
      <trkpt lat="48.04123" lon="-0.76636">
        <ele>129</ele>
        <time>2009-06-07T08:40:29Z</time>
      </trkpt>
      <trkpt lat="48.04123" lon="-0.76635">
        <ele>129</ele>
        <time>2009-06-07T08:40:31Z</time>
      </trkpt>
      <trkpt lat="48.04123" lon="-0.76633">
        <ele>128</ele>
        <time>2009-06-07T08:40:33Z</time>
      </trkpt>
      <trkpt lat="48.04123" lon="-0.76633">
        <ele>129</ele>
        <time>2009-06-07T08:40:35Z</time>
      </trkpt>
      <trkpt lat="48.04123" lon="-0.76633">
        <ele>129</ele>
        <time>2009-06-07T08:40:37Z</time>
      </trkpt>
      <trkpt lat="48.04123" lon="-0.76632">
        <ele>129</ele>
        <time>2009-06-07T08:40:39Z</time>
      </trkpt>
      <trkpt lat="48.04123" lon="-0.76632">
        <ele>129</ele>
        <time>2009-06-07T08:40:41Z</time>
      </trkpt>
      <trkpt lat="48.04123" lon="-0.76632">
        <ele>129</ele>
        <time>2009-06-07T08:40:43Z</time>
      </trkpt>
      <trkpt lat="48.04124" lon="-0.76632">
        <ele>129</ele>
        <time>2009-06-07T08:40:45Z</time>
      </trkpt>
      <trkpt lat="48.04124" lon="-0.76631">
        <ele>129</ele>
        <time>2009-06-07T08:40:47Z</time>
      </trkpt>
      <trkpt lat="48.04124" lon="-0.76632">
        <ele>130</ele>
        <time>2009-06-07T08:40:49Z</time>
      </trkpt>
      <trkpt lat="48.04124" lon="-0.76632">
        <ele>129</ele>
        <time>2009-06-07T08:40:51Z</time>
      </trkpt>
      <trkpt lat="48.04124" lon="-0.76631">
        <ele>130</ele>
        <time>2009-06-07T08:40:53Z</time>
      </trkpt>
      <trkpt lat="48.04124" lon="-0.76631">
        <ele>130</ele>
        <time>2009-06-07T08:40:55Z</time>
      </trkpt>
      <trkpt lat="48.04124" lon="-0.76631">
        <ele>130</ele>
        <time>2009-06-07T08:40:57Z</time>
      </trkpt>
      <trkpt lat="48.04124" lon="-0.76631">
        <ele>130</ele>
        <time>2009-06-07T08:40:59Z</time>
      </trkpt>
      <trkpt lat="48.04125" lon="-0.76629">
        <ele>130</ele>
        <time>2009-06-07T08:41:01Z</time>
      </trkpt>
      <trkpt lat="48.04125" lon="-0.7663">
        <ele>132</ele>
        <time>2009-06-07T08:41:03Z</time>
      </trkpt>
      <trkpt lat="48.04125" lon="-0.7663">
        <ele>132</ele>
        <time>2009-06-07T08:41:05Z</time>
      </trkpt>
      <trkpt lat="48.04126" lon="-0.7663">
        <ele>132</ele>
        <time>2009-06-07T08:41:07Z</time>
      </trkpt>
      <trkpt lat="48.04126" lon="-0.7663">
        <ele>132</ele>
        <time>2009-06-07T08:41:09Z</time>
      </trkpt>
      <trkpt lat="48.04126" lon="-0.7663">
        <ele>132</ele>
        <time>2009-06-07T08:41:11Z</time>
      </trkpt>
      <trkpt lat="48.04126" lon="-0.7663">
        <ele>132</ele>
        <time>2009-06-07T08:41:13Z</time>
      </trkpt>
      <trkpt lat="48.04126" lon="-0.7663">
        <ele>132</ele>
        <time>2009-06-07T08:41:15Z</time>
      </trkpt>
      <trkpt lat="48.04126" lon="-0.7663">
        <ele>132</ele>
        <time>2009-06-07T08:41:17Z</time>
      </trkpt>
      <trkpt lat="48.04127" lon="-0.7663">
        <ele>133</ele>
        <time>2009-06-07T08:41:19Z</time>
      </trkpt>
      <trkpt lat="48.04127" lon="-0.76632">
        <ele>133</ele>
        <time>2009-06-07T08:41:21Z</time>
      </trkpt>
      <trkpt lat="48.04127" lon="-0.76632">
        <ele>133</ele>
        <time>2009-06-07T08:41:23Z</time>
      </trkpt>
      <trkpt lat="48.04127" lon="-0.76632">
        <ele>133</ele>
        <time>2009-06-07T08:41:25Z</time>
      </trkpt>
      <trkpt lat="48.04129" lon="-0.76632">
        <ele>134</ele>
        <time>2009-06-07T08:41:27Z</time>
      </trkpt>
      <trkpt lat="48.04129" lon="-0.76632">
        <ele>134</ele>
        <time>2009-06-07T08:41:29Z</time>
      </trkpt>
      <trkpt lat="48.04129" lon="-0.76632">
        <ele>134</ele>
        <time>2009-06-07T08:41:31Z</time>
      </trkpt>
      <trkpt lat="48.04129" lon="-0.76632">
        <ele>134</ele>
        <time>2009-06-07T08:41:33Z</time>
      </trkpt>
      <trkpt lat="48.04129" lon="-0.76632">
        <ele>134</ele>
        <time>2009-06-07T08:41:35Z</time>
      </trkpt>
      <trkpt lat="48.04129" lon="-0.76632">
        <ele>134</ele>
        <time>2009-06-07T08:41:37Z</time>
      </trkpt>
      <trkpt lat="48.04129" lon="-0.76632">
        <ele>134</ele>
        <time>2009-06-07T08:41:39Z</time>
      </trkpt>
      <trkpt lat="48.04129" lon="-0.76632">
        <ele>134</ele>
        <time>2009-06-07T08:41:41Z</time>
      </trkpt>
      <trkpt lat="48.04129" lon="-0.76632">
        <ele>135</ele>
        <time>2009-06-07T08:41:43Z</time>
      </trkpt>
      <trkpt lat="48.04129" lon="-0.76633">
        <ele>135</ele>
        <time>2009-06-07T08:41:45Z</time>
      </trkpt>
      <trkpt lat="48.04129" lon="-0.76633">
        <ele>134</ele>
        <time>2009-06-07T08:41:47Z</time>
      </trkpt>
      <trkpt lat="48.04129" lon="-0.76633">
        <ele>134</ele>
        <time>2009-06-07T08:41:49Z</time>
      </trkpt>
      <trkpt lat="48.04131" lon="-0.76633">
        <ele>134</ele>
        <time>2009-06-07T08:41:51Z</time>
      </trkpt>
      <trkpt lat="48.04131" lon="-0.76633">
        <ele>134</ele>
        <time>2009-06-07T08:41:53Z</time>
      </trkpt>
      <trkpt lat="48.04131" lon="-0.76633">
        <ele>134</ele>
        <time>2009-06-07T08:41:55Z</time>
      </trkpt>
      <trkpt lat="48.04131" lon="-0.76633">
        <ele>134</ele>
        <time>2009-06-07T08:41:57Z</time>
      </trkpt>
      <trkpt lat="48.04131" lon="-0.76633">
        <ele>134</ele>
        <time>2009-06-07T08:41:59Z</time>
      </trkpt>
      <trkpt lat="48.04165" lon="-0.76672">
        <ele>136</ele>
        <time>2009-06-07T08:42:01Z</time>
      </trkpt>
      <trkpt lat="48.04165" lon="-0.76676">
        <ele>137</ele>
        <time>2009-06-07T08:42:03Z</time>
      </trkpt>
      <trkpt lat="48.04165" lon="-0.76681">
        <ele>137</ele>
        <time>2009-06-07T08:42:05Z</time>
      </trkpt>
      <trkpt lat="48.04166" lon="-0.76685">
        <ele>137</ele>
        <time>2009-06-07T08:42:07Z</time>
      </trkpt>
      <trkpt lat="48.04165" lon="-0.76688">
        <ele>137</ele>
        <time>2009-06-07T08:42:09Z</time>
      </trkpt>
      <trkpt lat="48.04166" lon="-0.76694">
        <ele>137</ele>
        <time>2009-06-07T08:42:11Z</time>
      </trkpt>
      <trkpt lat="48.04168" lon="-0.76701">
        <ele>137</ele>
        <time>2009-06-07T08:42:13Z</time>
      </trkpt>
      <trkpt lat="48.0417" lon="-0.76706">
        <ele>137</ele>
        <time>2009-06-07T08:42:15Z</time>
      </trkpt>
      <trkpt lat="48.0417" lon="-0.76709">
        <ele>137</ele>
        <time>2009-06-07T08:42:17Z</time>
      </trkpt>
      <trkpt lat="48.04172" lon="-0.76713">
        <ele>137</ele>
        <time>2009-06-07T08:42:19Z</time>
      </trkpt>
      <trkpt lat="48.04173" lon="-0.76717">
        <ele>138</ele>
        <time>2009-06-07T08:42:21Z</time>
      </trkpt>
      <trkpt lat="48.04174" lon="-0.76722">
        <ele>137</ele>
        <time>2009-06-07T08:42:23Z</time>
      </trkpt>
      <trkpt lat="48.04176" lon="-0.76729">
        <ele>137</ele>
        <time>2009-06-07T08:42:25Z</time>
      </trkpt>
      <trkpt lat="48.04177" lon="-0.76737">
        <ele>136</ele>
        <time>2009-06-07T08:42:27Z</time>
      </trkpt>
      <trkpt lat="48.04177" lon="-0.76745">
        <ele>136</ele>
        <time>2009-06-07T08:42:29Z</time>
      </trkpt>
      <trkpt lat="48.04179" lon="-0.76752">
        <ele>136</ele>
        <time>2009-06-07T08:42:31Z</time>
      </trkpt>
      <trkpt lat="48.04179" lon="-0.76757">
        <ele>136</ele>
        <time>2009-06-07T08:42:33Z</time>
      </trkpt>
      <trkpt lat="48.04179" lon="-0.76764">
        <ele>136</ele>
        <time>2009-06-07T08:42:35Z</time>
      </trkpt>
      <trkpt lat="48.04179" lon="-0.76774">
        <ele>135</ele>
        <time>2009-06-07T08:42:37Z</time>
      </trkpt>
      <trkpt lat="48.04178" lon="-0.76782">
        <ele>135</ele>
        <time>2009-06-07T08:42:39Z</time>
      </trkpt>
      <trkpt lat="48.04177" lon="-0.76788">
        <ele>134</ele>
        <time>2009-06-07T08:42:41Z</time>
      </trkpt>
      <trkpt lat="48.04181" lon="-0.76793">
        <ele>134</ele>
        <time>2009-06-07T08:42:43Z</time>
      </trkpt>
      <trkpt lat="48.04182" lon="-0.76802">
        <ele>133</ele>
        <time>2009-06-07T08:42:45Z</time>
      </trkpt>
      <trkpt lat="48.04182" lon="-0.76809">
        <ele>133</ele>
        <time>2009-06-07T08:42:47Z</time>
      </trkpt>
      <trkpt lat="48.04182" lon="-0.76812">
        <ele>133</ele>
        <time>2009-06-07T08:42:49Z</time>
      </trkpt>
      <trkpt lat="48.0418" lon="-0.76811">
        <ele>132</ele>
        <time>2009-06-07T08:42:51Z</time>
      </trkpt>
      <trkpt lat="48.04177" lon="-0.76809">
        <ele>132</ele>
        <time>2009-06-07T08:42:53Z</time>
      </trkpt>
      <trkpt lat="48.04175" lon="-0.76808">
        <ele>132</ele>
        <time>2009-06-07T08:42:55Z</time>
      </trkpt>
      <trkpt lat="48.04171" lon="-0.76806">
        <ele>132</ele>
        <time>2009-06-07T08:42:57Z</time>
      </trkpt>
      <trkpt lat="48.04166" lon="-0.76802">
        <ele>133</ele>
        <time>2009-06-07T08:42:59Z</time>
      </trkpt>
      <trkpt lat="48.04161" lon="-0.76801">
        <ele>133</ele>
        <time>2009-06-07T08:43:01Z</time>
      </trkpt>
      <trkpt lat="48.04158" lon="-0.76799">
        <ele>133</ele>
        <time>2009-06-07T08:43:03Z</time>
      </trkpt>
      <trkpt lat="48.04157" lon="-0.76798">
        <ele>133</ele>
        <time>2009-06-07T08:43:05Z</time>
      </trkpt>
      <trkpt lat="48.04154" lon="-0.76796">
        <ele>133</ele>
        <time>2009-06-07T08:43:07Z</time>
      </trkpt>
      <trkpt lat="48.04153" lon="-0.76797">
        <ele>133</ele>
        <time>2009-06-07T08:43:09Z</time>
      </trkpt>
      <trkpt lat="48.04152" lon="-0.76796">
        <ele>133</ele>
        <time>2009-06-07T08:43:11Z</time>
      </trkpt>
      <trkpt lat="48.04153" lon="-0.768">
        <ele>133</ele>
        <time>2009-06-07T08:43:13Z</time>
      </trkpt>
      <trkpt lat="48.04152" lon="-0.76798">
        <ele>133</ele>
        <time>2009-06-07T08:43:15Z</time>
      </trkpt>
      <trkpt lat="48.04151" lon="-0.768">
        <ele>133</ele>
        <time>2009-06-07T08:43:17Z</time>
      </trkpt>
      <trkpt lat="48.0415" lon="-0.768">
        <ele>133</ele>
        <time>2009-06-07T08:43:19Z</time>
      </trkpt>
      <trkpt lat="48.04151" lon="-0.76798">
        <ele>133</ele>
        <time>2009-06-07T08:43:21Z</time>
      </trkpt>
      <trkpt lat="48.0415" lon="-0.76797">
        <ele>133</ele>
        <time>2009-06-07T08:43:23Z</time>
      </trkpt>
      <trkpt lat="48.04148" lon="-0.76796">
        <ele>134</ele>
        <time>2009-06-07T08:43:25Z</time>
      </trkpt>
      <trkpt lat="48.04147" lon="-0.76795">
        <ele>134</ele>
        <time>2009-06-07T08:43:27Z</time>
      </trkpt>
      <trkpt lat="48.04144" lon="-0.76792">
        <ele>134</ele>
        <time>2009-06-07T08:43:29Z</time>
      </trkpt>
      <trkpt lat="48.04142" lon="-0.76788">
        <ele>134</ele>
        <time>2009-06-07T08:43:31Z</time>
      </trkpt>
      <trkpt lat="48.0414" lon="-0.76781">
        <ele>135</ele>
        <time>2009-06-07T08:43:33Z</time>
      </trkpt>
      <trkpt lat="48.04139" lon="-0.76776">
        <ele>135</ele>
        <time>2009-06-07T08:43:35Z</time>
      </trkpt>
      <trkpt lat="48.04139" lon="-0.76771">
        <ele>135</ele>
        <time>2009-06-07T08:43:37Z</time>
      </trkpt>
      <trkpt lat="48.04137" lon="-0.76771">
        <ele>135</ele>
        <time>2009-06-07T08:43:40Z</time>
      </trkpt>
      <trkpt lat="48.04136" lon="-0.76764">
        <ele>135</ele>
        <time>2009-06-07T08:43:42Z</time>
      </trkpt>
      <trkpt lat="48.04134" lon="-0.76762">
        <ele>135</ele>
        <time>2009-06-07T08:43:44Z</time>
      </trkpt>
      <trkpt lat="48.04136" lon="-0.76756">
        <ele>136</ele>
        <time>2009-06-07T08:43:46Z</time>
      </trkpt>
      <trkpt lat="48.04137" lon="-0.76748">
        <ele>136</ele>
        <time>2009-06-07T08:43:48Z</time>
      </trkpt>
      <trkpt lat="48.04136" lon="-0.76743">
        <ele>136</ele>
        <time>2009-06-07T08:43:50Z</time>
      </trkpt>
      <trkpt lat="48.04134" lon="-0.76735">
        <ele>136</ele>
        <time>2009-06-07T08:43:52Z</time>
      </trkpt>
      <trkpt lat="48.04132" lon="-0.76725">
        <ele>136</ele>
        <time>2009-06-07T08:43:54Z</time>
      </trkpt>
      <trkpt lat="48.04131" lon="-0.76717">
        <ele>135</ele>
        <time>2009-06-07T08:43:56Z</time>
      </trkpt>
      <trkpt lat="48.04131" lon="-0.76713">
        <ele>135</ele>
        <time>2009-06-07T08:43:58Z</time>
      </trkpt>
      <trkpt lat="48.04132" lon="-0.76707">
        <ele>135</ele>
        <time>2009-06-07T08:44:00Z</time>
      </trkpt>
      <trkpt lat="48.04132" lon="-0.767">
        <ele>135</ele>
        <time>2009-06-07T08:44:02Z</time>
      </trkpt>
      <trkpt lat="48.04128" lon="-0.76695">
        <ele>134</ele>
        <time>2009-06-07T08:44:04Z</time>
      </trkpt>
      <trkpt lat="48.04127" lon="-0.76695">
        <ele>135</ele>
        <time>2009-06-07T08:44:06Z</time>
      </trkpt>
      <trkpt lat="48.04128" lon="-0.76692">
        <ele>135</ele>
        <time>2009-06-07T08:44:08Z</time>
      </trkpt>
      <trkpt lat="48.04124" lon="-0.76688">
        <ele>134</ele>
        <time>2009-06-07T08:44:10Z</time>
      </trkpt>
      <trkpt lat="48.04121" lon="-0.76684">
        <ele>134</ele>
        <time>2009-06-07T08:44:12Z</time>
      </trkpt>
      <trkpt lat="48.04123" lon="-0.76684">
        <ele>133</ele>
        <time>2009-06-07T08:44:14Z</time>
      </trkpt>
      <trkpt lat="48.04126" lon="-0.76681">
        <ele>133</ele>
        <time>2009-06-07T08:44:16Z</time>
      </trkpt>
      <trkpt lat="48.04128" lon="-0.76681">
        <ele>133</ele>
        <time>2009-06-07T08:44:18Z</time>
      </trkpt>
      <trkpt lat="48.04132" lon="-0.7668">
        <ele>133</ele>
        <time>2009-06-07T08:44:20Z</time>
      </trkpt>
      <trkpt lat="48.04134" lon="-0.76681">
        <ele>133</ele>
        <time>2009-06-07T08:44:22Z</time>
      </trkpt>
      <trkpt lat="48.04139" lon="-0.76684">
        <ele>133</ele>
        <time>2009-06-07T08:44:24Z</time>
      </trkpt>
      <trkpt lat="48.04145" lon="-0.76686">
        <ele>133</ele>
        <time>2009-06-07T08:44:26Z</time>
      </trkpt>
      <trkpt lat="48.0415" lon="-0.76687">
        <ele>133</ele>
        <time>2009-06-07T08:44:28Z</time>
      </trkpt>
      <trkpt lat="48.04155" lon="-0.76688">
        <ele>132</ele>
        <time>2009-06-07T08:44:30Z</time>
      </trkpt>
      <trkpt lat="48.0416" lon="-0.76689">
        <ele>133</ele>
        <time>2009-06-07T08:44:32Z</time>
      </trkpt>
      <trkpt lat="48.04163" lon="-0.76685">
        <ele>133</ele>
        <time>2009-06-07T08:44:34Z</time>
      </trkpt>
      <trkpt lat="48.04168" lon="-0.76686">
        <ele>133</ele>
        <time>2009-06-07T08:44:36Z</time>
      </trkpt>
      <trkpt lat="48.04171" lon="-0.76686">
        <ele>133</ele>
        <time>2009-06-07T08:44:38Z</time>
      </trkpt>
      <trkpt lat="48.04175" lon="-0.7669">
        <ele>132</ele>
        <time>2009-06-07T08:44:40Z</time>
      </trkpt>
      <trkpt lat="48.04178" lon="-0.76693">
        <ele>132</ele>
        <time>2009-06-07T08:44:42Z</time>
      </trkpt>
      <trkpt lat="48.04183" lon="-0.76696">
        <ele>132</ele>
        <time>2009-06-07T08:44:44Z</time>
      </trkpt>
      <trkpt lat="48.04187" lon="-0.76695">
        <ele>133</ele>
        <time>2009-06-07T08:44:46Z</time>
      </trkpt>
      <trkpt lat="48.04194" lon="-0.76693">
        <ele>133</ele>
        <time>2009-06-07T08:44:48Z</time>
      </trkpt>
      <trkpt lat="48.04198" lon="-0.76697">
        <ele>133</ele>
        <time>2009-06-07T08:44:50Z</time>
      </trkpt>
      <trkpt lat="48.04204" lon="-0.76701">
        <ele>132</ele>
        <time>2009-06-07T08:44:52Z</time>
      </trkpt>
      <trkpt lat="48.04207" lon="-0.76703">
        <ele>132</ele>
        <time>2009-06-07T08:44:54Z</time>
      </trkpt>
      <trkpt lat="48.04212" lon="-0.76703">
        <ele>133</ele>
        <time>2009-06-07T08:44:56Z</time>
      </trkpt>
      <trkpt lat="48.04214" lon="-0.76702">
        <ele>133</ele>
        <time>2009-06-07T08:44:58Z</time>
      </trkpt>
      <trkpt lat="48.04219" lon="-0.76702">
        <ele>133</ele>
        <time>2009-06-07T08:45:00Z</time>
      </trkpt>
      <trkpt lat="48.04224" lon="-0.76704">
        <ele>132</ele>
        <time>2009-06-07T08:45:02Z</time>
      </trkpt>
      <trkpt lat="48.04229" lon="-0.76705">
        <ele>133</ele>
        <time>2009-06-07T08:45:04Z</time>
      </trkpt>
      <trkpt lat="48.04231" lon="-0.76706">
        <ele>133</ele>
        <time>2009-06-07T08:45:06Z</time>
      </trkpt>
      <trkpt lat="48.04234" lon="-0.76709">
        <ele>132</ele>
        <time>2009-06-07T08:45:08Z</time>
      </trkpt>
      <trkpt lat="48.04237" lon="-0.76713">
        <ele>132</ele>
        <time>2009-06-07T08:45:10Z</time>
      </trkpt>
      <trkpt lat="48.04241" lon="-0.76718">
        <ele>132</ele>
        <time>2009-06-07T08:45:12Z</time>
      </trkpt>
      <trkpt lat="48.04244" lon="-0.76725">
        <ele>132</ele>
        <time>2009-06-07T08:45:14Z</time>
      </trkpt>
      <trkpt lat="48.04245" lon="-0.76729">
        <ele>132</ele>
        <time>2009-06-07T08:45:16Z</time>
      </trkpt>
      <trkpt lat="48.04248" lon="-0.76735">
        <ele>133</ele>
        <time>2009-06-07T08:45:18Z</time>
      </trkpt>
      <trkpt lat="48.04252" lon="-0.7674">
        <ele>134</ele>
        <time>2009-06-07T08:45:20Z</time>
      </trkpt>
      <trkpt lat="48.04254" lon="-0.76744">
        <ele>134</ele>
        <time>2009-06-07T08:45:22Z</time>
      </trkpt>
      <trkpt lat="48.04256" lon="-0.7675">
        <ele>134</ele>
        <time>2009-06-07T08:45:24Z</time>
      </trkpt>
      <trkpt lat="48.04258" lon="-0.76755">
        <ele>134</ele>
        <time>2009-06-07T08:45:26Z</time>
      </trkpt>
      <trkpt lat="48.0426" lon="-0.76756">
        <ele>135</ele>
        <time>2009-06-07T08:45:28Z</time>
      </trkpt>
      <trkpt lat="48.04261" lon="-0.76761">
        <ele>135</ele>
        <time>2009-06-07T08:45:30Z</time>
      </trkpt>
      <trkpt lat="48.04263" lon="-0.76764">
        <ele>135</ele>
        <time>2009-06-07T08:45:32Z</time>
      </trkpt>
      <trkpt lat="48.04264" lon="-0.76769">
        <ele>135</ele>
        <time>2009-06-07T08:45:34Z</time>
      </trkpt>
      <trkpt lat="48.04264" lon="-0.76775">
        <ele>134</ele>
        <time>2009-06-07T08:45:36Z</time>
      </trkpt>
      <trkpt lat="48.04266" lon="-0.76779">
        <ele>134</ele>
        <time>2009-06-07T08:45:38Z</time>
      </trkpt>
      <trkpt lat="48.04269" lon="-0.76785">
        <ele>134</ele>
        <time>2009-06-07T08:45:40Z</time>
      </trkpt>
      <trkpt lat="48.04271" lon="-0.76793">
        <ele>134</ele>
        <time>2009-06-07T08:45:42Z</time>
      </trkpt>
      <trkpt lat="48.04276" lon="-0.768">
        <ele>134</ele>
        <time>2009-06-07T08:45:44Z</time>
      </trkpt>
      <trkpt lat="48.04281" lon="-0.76806">
        <ele>133</ele>
        <time>2009-06-07T08:45:46Z</time>
      </trkpt>
      <trkpt lat="48.04286" lon="-0.76817">
        <ele>134</ele>
        <time>2009-06-07T08:45:48Z</time>
      </trkpt>
      <trkpt lat="48.04291" lon="-0.76826">
        <ele>134</ele>
        <time>2009-06-07T08:45:50Z</time>
      </trkpt>
      <trkpt lat="48.04292" lon="-0.76831">
        <ele>135</ele>
        <time>2009-06-07T08:45:52Z</time>
      </trkpt>
      <trkpt lat="48.04293" lon="-0.76835">
        <ele>135</ele>
        <time>2009-06-07T08:45:54Z</time>
      </trkpt>
      <trkpt lat="48.04296" lon="-0.76846">
        <ele>134</ele>
        <time>2009-06-07T08:45:56Z</time>
      </trkpt>
      <trkpt lat="48.043" lon="-0.76852">
        <ele>134</ele>
        <time>2009-06-07T08:45:58Z</time>
      </trkpt>
      <trkpt lat="48.04303" lon="-0.76858">
        <ele>134</ele>
        <time>2009-06-07T08:46:00Z</time>
      </trkpt>
      <trkpt lat="48.04308" lon="-0.76863">
        <ele>133</ele>
        <time>2009-06-07T08:46:02Z</time>
      </trkpt>
      <trkpt lat="48.04309" lon="-0.76865">
        <ele>133</ele>
        <time>2009-06-07T08:46:04Z</time>
      </trkpt>
      <trkpt lat="48.04314" lon="-0.76869">
        <ele>132</ele>
        <time>2009-06-07T08:46:06Z</time>
      </trkpt>
      <trkpt lat="48.04317" lon="-0.7687">
        <ele>132</ele>
        <time>2009-06-07T08:46:08Z</time>
      </trkpt>
      <trkpt lat="48.04318" lon="-0.7687">
        <ele>133</ele>
        <time>2009-06-07T08:46:10Z</time>
      </trkpt>
      <trkpt lat="48.04319" lon="-0.76872">
        <ele>132</ele>
        <time>2009-06-07T08:46:12Z</time>
      </trkpt>
      <trkpt lat="48.04321" lon="-0.7687">
        <ele>133</ele>
        <time>2009-06-07T08:46:14Z</time>
      </trkpt>
      <trkpt lat="48.04322" lon="-0.76869">
        <ele>132</ele>
        <time>2009-06-07T08:46:16Z</time>
      </trkpt>
      <trkpt lat="48.04323" lon="-0.76869">
        <ele>133</ele>
        <time>2009-06-07T08:46:18Z</time>
      </trkpt>
      <trkpt lat="48.04325" lon="-0.76871">
        <ele>133</ele>
        <time>2009-06-07T08:46:20Z</time>
      </trkpt>
      <trkpt lat="48.04325" lon="-0.76871">
        <ele>133</ele>
        <time>2009-06-07T08:46:22Z</time>
      </trkpt>
      <trkpt lat="48.04325" lon="-0.7687">
        <ele>133</ele>
        <time>2009-06-07T08:46:24Z</time>
      </trkpt>
      <trkpt lat="48.04325" lon="-0.76869">
        <ele>134</ele>
        <time>2009-06-07T08:46:26Z</time>
      </trkpt>
      <trkpt lat="48.04326" lon="-0.76871">
        <ele>134</ele>
        <time>2009-06-07T08:46:28Z</time>
      </trkpt>
      <trkpt lat="48.04327" lon="-0.76874">
        <ele>134</ele>
        <time>2009-06-07T08:46:30Z</time>
      </trkpt>
      <trkpt lat="48.04327" lon="-0.76874">
        <ele>134</ele>
        <time>2009-06-07T08:46:32Z</time>
      </trkpt>
      <trkpt lat="48.04328" lon="-0.76878">
        <ele>134</ele>
        <time>2009-06-07T08:46:34Z</time>
      </trkpt>
      <trkpt lat="48.04329" lon="-0.76877">
        <ele>135</ele>
        <time>2009-06-07T08:46:36Z</time>
      </trkpt>
      <trkpt lat="48.04329" lon="-0.76878">
        <ele>135</ele>
        <time>2009-06-07T08:46:38Z</time>
      </trkpt>
      <trkpt lat="48.04329" lon="-0.76877">
        <ele>135</ele>
        <time>2009-06-07T08:46:40Z</time>
      </trkpt>
      <trkpt lat="48.0433" lon="-0.76877">
        <ele>135</ele>
        <time>2009-06-07T08:46:42Z</time>
      </trkpt>
      <trkpt lat="48.0433" lon="-0.76877">
        <ele>135</ele>
        <time>2009-06-07T08:46:44Z</time>
      </trkpt>
      <trkpt lat="48.04331" lon="-0.76878">
        <ele>135</ele>
        <time>2009-06-07T08:46:46Z</time>
      </trkpt>
      <trkpt lat="48.04332" lon="-0.76878">
        <ele>136</ele>
        <time>2009-06-07T08:46:48Z</time>
      </trkpt>
      <trkpt lat="48.04333" lon="-0.76876">
        <ele>136</ele>
        <time>2009-06-07T08:46:50Z</time>
      </trkpt>
      <trkpt lat="48.04336" lon="-0.7688">
        <ele>135</ele>
        <time>2009-06-07T08:46:52Z</time>
      </trkpt>
      <trkpt lat="48.04338" lon="-0.76882">
        <ele>135</ele>
        <time>2009-06-07T08:46:54Z</time>
      </trkpt>
      <trkpt lat="48.04339" lon="-0.76883">
        <ele>135</ele>
        <time>2009-06-07T08:46:56Z</time>
      </trkpt>
      <trkpt lat="48.04339" lon="-0.76883">
        <ele>135</ele>
        <time>2009-06-07T08:46:58Z</time>
      </trkpt>
      <trkpt lat="48.04339" lon="-0.76883">
        <ele>135</ele>
        <time>2009-06-07T08:47:00Z</time>
      </trkpt>
      <trkpt lat="48.0434" lon="-0.76883">
        <ele>135</ele>
        <time>2009-06-07T08:47:02Z</time>
      </trkpt>
      <trkpt lat="48.0434" lon="-0.76883">
        <ele>134</ele>
        <time>2009-06-07T08:47:04Z</time>
      </trkpt>
      <trkpt lat="48.0434" lon="-0.76883">
        <ele>134</ele>
        <time>2009-06-07T08:47:06Z</time>
      </trkpt>
      <trkpt lat="48.0434" lon="-0.76884">
        <ele>134</ele>
        <time>2009-06-07T08:47:08Z</time>
      </trkpt>
      <trkpt lat="48.04342" lon="-0.76883">
        <ele>134</ele>
        <time>2009-06-07T08:47:10Z</time>
      </trkpt>
      <trkpt lat="48.04342" lon="-0.76883">
        <ele>134</ele>
        <time>2009-06-07T08:47:12Z</time>
      </trkpt>
      <trkpt lat="48.04342" lon="-0.76883">
        <ele>134</ele>
        <time>2009-06-07T08:47:14Z</time>
      </trkpt>
      <trkpt lat="48.04342" lon="-0.76883">
        <ele>134</ele>
        <time>2009-06-07T08:47:16Z</time>
      </trkpt>
      <trkpt lat="48.04342" lon="-0.76884">
        <ele>134</ele>
        <time>2009-06-07T08:47:18Z</time>
      </trkpt>
      <trkpt lat="48.04342" lon="-0.76884">
        <ele>134</ele>
        <time>2009-06-07T08:47:20Z</time>
      </trkpt>
      <trkpt lat="48.04342" lon="-0.76884">
        <ele>134</ele>
        <time>2009-06-07T08:47:22Z</time>
      </trkpt>
      <trkpt lat="48.04342" lon="-0.76884">
        <ele>134</ele>
        <time>2009-06-07T08:47:24Z</time>
      </trkpt>
      <trkpt lat="48.04343" lon="-0.76884">
        <ele>134</ele>
        <time>2009-06-07T08:47:26Z</time>
      </trkpt>
      <trkpt lat="48.04343" lon="-0.76884">
        <ele>134</ele>
        <time>2009-06-07T08:47:28Z</time>
      </trkpt>
      <trkpt lat="48.04344" lon="-0.76884">
        <ele>135</ele>
        <time>2009-06-07T08:47:30Z</time>
      </trkpt>
      <trkpt lat="48.04344" lon="-0.76884">
        <ele>135</ele>
        <time>2009-06-07T08:47:32Z</time>
      </trkpt>
      <trkpt lat="48.04344" lon="-0.76884">
        <ele>135</ele>
        <time>2009-06-07T08:47:34Z</time>
      </trkpt>
      <trkpt lat="48.04345" lon="-0.76885">
        <ele>136</ele>
        <time>2009-06-07T08:47:36Z</time>
      </trkpt>
      <trkpt lat="48.04346" lon="-0.76887">
        <ele>137</ele>
        <time>2009-06-07T08:47:38Z</time>
      </trkpt>
      <trkpt lat="48.04346" lon="-0.76887">
        <ele>137</ele>
        <time>2009-06-07T08:47:40Z</time>
      </trkpt>
      <trkpt lat="48.04346" lon="-0.76887">
        <ele>137</ele>
        <time>2009-06-07T08:47:42Z</time>
      </trkpt>
      <trkpt lat="48.04346" lon="-0.76887">
        <ele>137</ele>
        <time>2009-06-07T08:47:44Z</time>
      </trkpt>
      <trkpt lat="48.04346" lon="-0.76887">
        <ele>136</ele>
        <time>2009-06-07T08:47:46Z</time>
      </trkpt>
      <trkpt lat="48.04347" lon="-0.76887">
        <ele>137</ele>
        <time>2009-06-07T08:47:48Z</time>
      </trkpt>
      <trkpt lat="48.04348" lon="-0.76888">
        <ele>137</ele>
        <time>2009-06-07T08:47:50Z</time>
      </trkpt>
      <trkpt lat="48.04348" lon="-0.76887">
        <ele>137</ele>
        <time>2009-06-07T08:47:52Z</time>
      </trkpt>
      <trkpt lat="48.04349" lon="-0.76886">
        <ele>137</ele>
        <time>2009-06-07T08:47:54Z</time>
      </trkpt>
      <trkpt lat="48.0435" lon="-0.76886">
        <ele>138</ele>
        <time>2009-06-07T08:47:56Z</time>
      </trkpt>
      <trkpt lat="48.0435" lon="-0.76886">
        <ele>139</ele>
        <time>2009-06-07T08:47:58Z</time>
      </trkpt>
      <trkpt lat="48.0435" lon="-0.76886">
        <ele>139</ele>
        <time>2009-06-07T08:48:00Z</time>
      </trkpt>
      <trkpt lat="48.0435" lon="-0.76886">
        <ele>139</ele>
        <time>2009-06-07T08:48:02Z</time>
      </trkpt>
      <trkpt lat="48.0435" lon="-0.76886">
        <ele>139</ele>
        <time>2009-06-07T08:48:04Z</time>
      </trkpt>
      <trkpt lat="48.0435" lon="-0.76886">
        <ele>139</ele>
        <time>2009-06-07T08:48:06Z</time>
      </trkpt>
      <trkpt lat="48.0435" lon="-0.76886">
        <ele>139</ele>
        <time>2009-06-07T08:48:08Z</time>
      </trkpt>
      <trkpt lat="48.04351" lon="-0.76886">
        <ele>139</ele>
        <time>2009-06-07T08:48:10Z</time>
      </trkpt>
      <trkpt lat="48.0435" lon="-0.76888">
        <ele>139</ele>
        <time>2009-06-07T08:48:12Z</time>
      </trkpt>
      <trkpt lat="48.04351" lon="-0.76888">
        <ele>139</ele>
        <time>2009-06-07T08:48:14Z</time>
      </trkpt>
      <trkpt lat="48.0435" lon="-0.76888">
        <ele>139</ele>
        <time>2009-06-07T08:48:16Z</time>
      </trkpt>
      <trkpt lat="48.04351" lon="-0.76888">
        <ele>139</ele>
        <time>2009-06-07T08:48:18Z</time>
      </trkpt>
      <trkpt lat="48.04351" lon="-0.76888">
        <ele>139</ele>
        <time>2009-06-07T08:48:20Z</time>
      </trkpt>
      <trkpt lat="48.04352" lon="-0.76888">
        <ele>139</ele>
        <time>2009-06-07T08:48:22Z</time>
      </trkpt>
      <trkpt lat="48.04352" lon="-0.76889">
        <ele>139</ele>
        <time>2009-06-07T08:48:24Z</time>
      </trkpt>
      <trkpt lat="48.04352" lon="-0.76889">
        <ele>139</ele>
        <time>2009-06-07T08:48:26Z</time>
      </trkpt>
      <trkpt lat="48.04353" lon="-0.76889">
        <ele>139</ele>
        <time>2009-06-07T08:48:28Z</time>
      </trkpt>
      <trkpt lat="48.04353" lon="-0.7689">
        <ele>139</ele>
        <time>2009-06-07T08:48:30Z</time>
      </trkpt>
      <trkpt lat="48.04353" lon="-0.7689">
        <ele>139</ele>
        <time>2009-06-07T08:48:32Z</time>
      </trkpt>
      <trkpt lat="48.04353" lon="-0.7689">
        <ele>140</ele>
        <time>2009-06-07T08:48:34Z</time>
      </trkpt>
      <trkpt lat="48.04353" lon="-0.76892">
        <ele>140</ele>
        <time>2009-06-07T08:48:36Z</time>
      </trkpt>
      <trkpt lat="48.04353" lon="-0.76892">
        <ele>140</ele>
        <time>2009-06-07T08:48:38Z</time>
      </trkpt>
      <trkpt lat="48.04353" lon="-0.76893">
        <ele>140</ele>
        <time>2009-06-07T08:48:40Z</time>
      </trkpt>
      <trkpt lat="48.04353" lon="-0.76893">
        <ele>140</ele>
        <time>2009-06-07T08:48:42Z</time>
      </trkpt>
      <trkpt lat="48.04353" lon="-0.76893">
        <ele>140</ele>
        <time>2009-06-07T08:48:44Z</time>
      </trkpt>
      <trkpt lat="48.04353" lon="-0.76896">
        <ele>140</ele>
        <time>2009-06-07T08:48:46Z</time>
      </trkpt>
      <trkpt lat="48.04382" lon="-0.7697">
        <ele>135</ele>
        <time>2009-06-07T08:48:48Z</time>
      </trkpt>
      <trkpt lat="48.04383" lon="-0.76972">
        <ele>135</ele>
        <time>2009-06-07T08:48:50Z</time>
      </trkpt>
      <trkpt lat="48.04385" lon="-0.7698">
        <ele>135</ele>
        <time>2009-06-07T08:48:52Z</time>
      </trkpt>
      <trkpt lat="48.04389" lon="-0.76988">
        <ele>135</ele>
        <time>2009-06-07T08:48:54Z</time>
      </trkpt>
      <trkpt lat="48.04393" lon="-0.76997">
        <ele>134</ele>
        <time>2009-06-07T08:48:56Z</time>
      </trkpt>
      <trkpt lat="48.04394" lon="-0.76999">
        <ele>135</ele>
        <time>2009-06-07T08:48:58Z</time>
      </trkpt>
      <trkpt lat="48.04395" lon="-0.76997">
        <ele>135</ele>
        <time>2009-06-07T08:49:00Z</time>
      </trkpt>
      <trkpt lat="48.04396" lon="-0.76994">
        <ele>135</ele>
        <time>2009-06-07T08:49:02Z</time>
      </trkpt>
      <trkpt lat="48.04396" lon="-0.76993">
        <ele>135</ele>
        <time>2009-06-07T08:49:04Z</time>
      </trkpt>
      <trkpt lat="48.04398" lon="-0.76994">
        <ele>135</ele>
        <time>2009-06-07T08:49:06Z</time>
      </trkpt>
      <trkpt lat="48.044" lon="-0.76994">
        <ele>135</ele>
        <time>2009-06-07T08:49:08Z</time>
      </trkpt>
      <trkpt lat="48.04405" lon="-0.76994">
        <ele>136</ele>
        <time>2009-06-07T08:49:10Z</time>
      </trkpt>
      <trkpt lat="48.04408" lon="-0.76993">
        <ele>136</ele>
        <time>2009-06-07T08:49:12Z</time>
      </trkpt>
      <trkpt lat="48.04411" lon="-0.76991">
        <ele>135</ele>
        <time>2009-06-07T08:49:14Z</time>
      </trkpt>
      <trkpt lat="48.04416" lon="-0.76988">
        <ele>134</ele>
        <time>2009-06-07T08:49:16Z</time>
      </trkpt>
      <trkpt lat="48.04416" lon="-0.76988">
        <ele>134</ele>
        <time>2009-06-07T08:49:18Z</time>
      </trkpt>
      <trkpt lat="48.04418" lon="-0.76985">
        <ele>133</ele>
        <time>2009-06-07T08:49:20Z</time>
      </trkpt>
      <trkpt lat="48.04418" lon="-0.76985">
        <ele>133</ele>
        <time>2009-06-07T08:49:22Z</time>
      </trkpt>
      <trkpt lat="48.04418" lon="-0.76985">
        <ele>133</ele>
        <time>2009-06-07T08:49:24Z</time>
      </trkpt>
      <trkpt lat="48.04421" lon="-0.76985">
        <ele>132</ele>
        <time>2009-06-07T08:49:26Z</time>
      </trkpt>
      <trkpt lat="48.04424" lon="-0.76987">
        <ele>132</ele>
        <time>2009-06-07T08:49:28Z</time>
      </trkpt>
      <trkpt lat="48.04424" lon="-0.76988">
        <ele>132</ele>
        <time>2009-06-07T08:49:30Z</time>
      </trkpt>
      <trkpt lat="48.04424" lon="-0.76988">
        <ele>132</ele>
        <time>2009-06-07T08:49:32Z</time>
      </trkpt>
      <trkpt lat="48.04424" lon="-0.76988">
        <ele>132</ele>
        <time>2009-06-07T08:49:34Z</time>
      </trkpt>
      <trkpt lat="48.04424" lon="-0.76989">
        <ele>133</ele>
        <time>2009-06-07T08:49:36Z</time>
      </trkpt>
      <trkpt lat="48.04425" lon="-0.76991">
        <ele>134</ele>
        <time>2009-06-07T08:49:38Z</time>
      </trkpt>
      <trkpt lat="48.04426" lon="-0.76989">
        <ele>133</ele>
        <time>2009-06-07T08:49:40Z</time>
      </trkpt>
      <trkpt lat="48.04429" lon="-0.7699">
        <ele>133</ele>
        <time>2009-06-07T08:49:42Z</time>
      </trkpt>
      <trkpt lat="48.04431" lon="-0.76993">
        <ele>134</ele>
        <time>2009-06-07T08:49:44Z</time>
      </trkpt>
      <trkpt lat="48.04432" lon="-0.76993">
        <ele>135</ele>
        <time>2009-06-07T08:49:46Z</time>
      </trkpt>
      <trkpt lat="48.04433" lon="-0.76994">
        <ele>136</ele>
        <time>2009-06-07T08:49:48Z</time>
      </trkpt>
      <trkpt lat="48.04433" lon="-0.76994">
        <ele>137</ele>
        <time>2009-06-07T08:49:50Z</time>
      </trkpt>
      <trkpt lat="48.04433" lon="-0.76992">
        <ele>137</ele>
        <time>2009-06-07T08:49:52Z</time>
      </trkpt>
      <trkpt lat="48.04433" lon="-0.7699">
        <ele>138</ele>
        <time>2009-06-07T08:49:54Z</time>
      </trkpt>
      <trkpt lat="48.04434" lon="-0.76989">
        <ele>138</ele>
        <time>2009-06-07T08:49:56Z</time>
      </trkpt>
      <trkpt lat="48.04435" lon="-0.7699">
        <ele>139</ele>
        <time>2009-06-07T08:49:58Z</time>
      </trkpt>
      <trkpt lat="48.04436" lon="-0.76991">
        <ele>139</ele>
        <time>2009-06-07T08:50:00Z</time>
      </trkpt>
      <trkpt lat="48.04436" lon="-0.76993">
        <ele>139</ele>
        <time>2009-06-07T08:50:02Z</time>
      </trkpt>
      <trkpt lat="48.04436" lon="-0.76991">
        <ele>138</ele>
        <time>2009-06-07T08:50:04Z</time>
      </trkpt>
      <trkpt lat="48.04436" lon="-0.7699">
        <ele>139</ele>
        <time>2009-06-07T08:50:06Z</time>
      </trkpt>
      <trkpt lat="48.04436" lon="-0.7699">
        <ele>140</ele>
        <time>2009-06-07T08:50:08Z</time>
      </trkpt>
      <trkpt lat="48.04435" lon="-0.7699">
        <ele>139</ele>
        <time>2009-06-07T08:50:10Z</time>
      </trkpt>
      <trkpt lat="48.04434" lon="-0.7699">
        <ele>138</ele>
        <time>2009-06-07T08:50:12Z</time>
      </trkpt>
      <trkpt lat="48.04434" lon="-0.7699">
        <ele>137</ele>
        <time>2009-06-07T08:50:14Z</time>
      </trkpt>
      <trkpt lat="48.04434" lon="-0.7699">
        <ele>137</ele>
        <time>2009-06-07T08:50:16Z</time>
      </trkpt>
      <trkpt lat="48.04434" lon="-0.7699">
        <ele>137</ele>
        <time>2009-06-07T08:50:18Z</time>
      </trkpt>
      <trkpt lat="48.04434" lon="-0.7699">
        <ele>137</ele>
        <time>2009-06-07T08:50:20Z</time>
      </trkpt>
      <trkpt lat="48.04434" lon="-0.7699">
        <ele>137</ele>
        <time>2009-06-07T08:50:22Z</time>
      </trkpt>
      <trkpt lat="48.04434" lon="-0.7699">
        <ele>137</ele>
        <time>2009-06-07T08:50:24Z</time>
      </trkpt>
      <trkpt lat="48.04434" lon="-0.7699">
        <ele>137</ele>
        <time>2009-06-07T08:50:26Z</time>
      </trkpt>
      <trkpt lat="48.04433" lon="-0.76989">
        <ele>136</ele>
        <time>2009-06-07T08:50:28Z</time>
      </trkpt>
      <trkpt lat="48.04433" lon="-0.76989">
        <ele>136</ele>
        <time>2009-06-07T08:50:30Z</time>
      </trkpt>
      <trkpt lat="48.04433" lon="-0.76989">
        <ele>137</ele>
        <time>2009-06-07T08:50:32Z</time>
      </trkpt>
      <trkpt lat="48.04433" lon="-0.76989">
        <ele>137</ele>
        <time>2009-06-07T08:50:34Z</time>
      </trkpt>
      <trkpt lat="48.04433" lon="-0.76989">
        <ele>137</ele>
        <time>2009-06-07T08:50:36Z</time>
      </trkpt>
      <trkpt lat="48.04432" lon="-0.76992">
        <ele>137</ele>
        <time>2009-06-07T08:50:38Z</time>
      </trkpt>
      <trkpt lat="48.04432" lon="-0.76993">
        <ele>137</ele>
        <time>2009-06-07T08:50:40Z</time>
      </trkpt>
      <trkpt lat="48.04432" lon="-0.76993">
        <ele>136</ele>
        <time>2009-06-07T08:50:42Z</time>
      </trkpt>
      <trkpt lat="48.04432" lon="-0.76993">
        <ele>136</ele>
        <time>2009-06-07T08:50:44Z</time>
      </trkpt>
      <trkpt lat="48.04431" lon="-0.76994">
        <ele>136</ele>
        <time>2009-06-07T08:50:46Z</time>
      </trkpt>
      <trkpt lat="48.04431" lon="-0.76996">
        <ele>136</ele>
        <time>2009-06-07T08:50:48Z</time>
      </trkpt>
      <trkpt lat="48.04431" lon="-0.76996">
        <ele>136</ele>
        <time>2009-06-07T08:50:50Z</time>
      </trkpt>
      <trkpt lat="48.04431" lon="-0.76994">
        <ele>135</ele>
        <time>2009-06-07T08:50:52Z</time>
      </trkpt>
      <trkpt lat="48.04431" lon="-0.76996">
        <ele>135</ele>
        <time>2009-06-07T08:50:54Z</time>
      </trkpt>
      <trkpt lat="48.04432" lon="-0.76994">
        <ele>136</ele>
        <time>2009-06-07T08:50:56Z</time>
      </trkpt>
      <trkpt lat="48.04432" lon="-0.76994">
        <ele>136</ele>
        <time>2009-06-07T08:50:58Z</time>
      </trkpt>
      <trkpt lat="48.04432" lon="-0.76994">
        <ele>136</ele>
        <time>2009-06-07T08:51:00Z</time>
      </trkpt>
      <trkpt lat="48.04432" lon="-0.76994">
        <ele>136</ele>
        <time>2009-06-07T08:51:02Z</time>
      </trkpt>
      <trkpt lat="48.04432" lon="-0.76993">
        <ele>136</ele>
        <time>2009-06-07T08:51:04Z</time>
      </trkpt>
      <trkpt lat="48.04432" lon="-0.76992">
        <ele>136</ele>
        <time>2009-06-07T08:51:06Z</time>
      </trkpt>
      <trkpt lat="48.04432" lon="-0.7699">
        <ele>136</ele>
        <time>2009-06-07T08:51:08Z</time>
      </trkpt>
      <trkpt lat="48.04432" lon="-0.76989">
        <ele>136</ele>
        <time>2009-06-07T08:51:10Z</time>
      </trkpt>
      <trkpt lat="48.04432" lon="-0.76989">
        <ele>136</ele>
        <time>2009-06-07T08:51:13Z</time>
      </trkpt>
      <trkpt lat="48.04432" lon="-0.76988">
        <ele>136</ele>
        <time>2009-06-07T08:51:15Z</time>
      </trkpt>
      <trkpt lat="48.04432" lon="-0.76988">
        <ele>136</ele>
        <time>2009-06-07T08:51:17Z</time>
      </trkpt>
      <trkpt lat="48.04432" lon="-0.76946">
        <ele>137</ele>
        <time>2009-06-07T08:51:19Z</time>
      </trkpt>
      <trkpt lat="48.0443" lon="-0.76939">
        <ele>137</ele>
        <time>2009-06-07T08:51:21Z</time>
      </trkpt>
      <trkpt lat="48.04427" lon="-0.76935">
        <ele>136</ele>
        <time>2009-06-07T08:51:23Z</time>
      </trkpt>
      <trkpt lat="48.04425" lon="-0.76932">
        <ele>137</ele>
        <time>2009-06-07T08:51:25Z</time>
      </trkpt>
      <trkpt lat="48.04425" lon="-0.76927">
        <ele>137</ele>
        <time>2009-06-07T08:51:27Z</time>
      </trkpt>
      <trkpt lat="48.04425" lon="-0.76923">
        <ele>137</ele>
        <time>2009-06-07T08:51:29Z</time>
      </trkpt>
      <trkpt lat="48.04419" lon="-0.76917">
        <ele>137</ele>
        <time>2009-06-07T08:51:31Z</time>
      </trkpt>
      <trkpt lat="48.04417" lon="-0.7691">
        <ele>137</ele>
        <time>2009-06-07T08:51:33Z</time>
      </trkpt>
      <trkpt lat="48.04419" lon="-0.76908">
        <ele>138</ele>
        <time>2009-06-07T08:51:35Z</time>
      </trkpt>
      <trkpt lat="48.04418" lon="-0.76902">
        <ele>139</ele>
        <time>2009-06-07T08:51:37Z</time>
      </trkpt>
      <trkpt lat="48.04418" lon="-0.769">
        <ele>139</ele>
        <time>2009-06-07T08:51:39Z</time>
      </trkpt>
      <trkpt lat="48.04418" lon="-0.76898">
        <ele>140</ele>
        <time>2009-06-07T08:51:41Z</time>
      </trkpt>
      <trkpt lat="48.04418" lon="-0.7689">
        <ele>140</ele>
        <time>2009-06-07T08:51:43Z</time>
      </trkpt>
      <trkpt lat="48.04418" lon="-0.76885">
        <ele>139</ele>
        <time>2009-06-07T08:51:45Z</time>
      </trkpt>
      <trkpt lat="48.04418" lon="-0.76884">
        <ele>140</ele>
        <time>2009-06-07T08:51:47Z</time>
      </trkpt>
      <trkpt lat="48.04419" lon="-0.76878">
        <ele>140</ele>
        <time>2009-06-07T08:51:49Z</time>
      </trkpt>
      <trkpt lat="48.0442" lon="-0.76875">
        <ele>140</ele>
        <time>2009-06-07T08:51:51Z</time>
      </trkpt>
      <trkpt lat="48.04419" lon="-0.76871">
        <ele>140</ele>
        <time>2009-06-07T08:51:53Z</time>
      </trkpt>
      <trkpt lat="48.0442" lon="-0.76869">
        <ele>140</ele>
        <time>2009-06-07T08:51:55Z</time>
      </trkpt>
      <trkpt lat="48.0442" lon="-0.76867">
        <ele>140</ele>
        <time>2009-06-07T08:51:57Z</time>
      </trkpt>
      <trkpt lat="48.04415" lon="-0.76862">
        <ele>140</ele>
        <time>2009-06-07T08:51:59Z</time>
      </trkpt>
      <trkpt lat="48.04414" lon="-0.7686">
        <ele>140</ele>
        <time>2009-06-07T08:52:01Z</time>
      </trkpt>
      <trkpt lat="48.04413" lon="-0.7686">
        <ele>140</ele>
        <time>2009-06-07T08:52:03Z</time>
      </trkpt>
      <trkpt lat="48.04412" lon="-0.76858">
        <ele>140</ele>
        <time>2009-06-07T08:52:05Z</time>
      </trkpt>
      <trkpt lat="48.04411" lon="-0.76857">
        <ele>141</ele>
        <time>2009-06-07T08:52:07Z</time>
      </trkpt>
      <trkpt lat="48.0441" lon="-0.76856">
        <ele>142</ele>
        <time>2009-06-07T08:52:09Z</time>
      </trkpt>
      <trkpt lat="48.0441" lon="-0.76856">
        <ele>142</ele>
        <time>2009-06-07T08:52:11Z</time>
      </trkpt>
      <trkpt lat="48.04411" lon="-0.76856">
        <ele>142</ele>
        <time>2009-06-07T08:52:13Z</time>
      </trkpt>
      <trkpt lat="48.04409" lon="-0.76852">
        <ele>142</ele>
        <time>2009-06-07T08:52:15Z</time>
      </trkpt>
      <trkpt lat="48.04408" lon="-0.76849">
        <ele>141</ele>
        <time>2009-06-07T08:52:17Z</time>
      </trkpt>
      <trkpt lat="48.04408" lon="-0.76848">
        <ele>141</ele>
        <time>2009-06-07T08:52:19Z</time>
      </trkpt>
      <trkpt lat="48.04408" lon="-0.76848">
        <ele>141</ele>
        <time>2009-06-07T08:52:21Z</time>
      </trkpt>
      <trkpt lat="48.04408" lon="-0.76848">
        <ele>141</ele>
        <time>2009-06-07T08:52:23Z</time>
      </trkpt>
      <trkpt lat="48.04408" lon="-0.76848">
        <ele>141</ele>
        <time>2009-06-07T08:52:25Z</time>
      </trkpt>
      <trkpt lat="48.04408" lon="-0.76848">
        <ele>140</ele>
        <time>2009-06-07T08:52:27Z</time>
      </trkpt>
      <trkpt lat="48.04408" lon="-0.76848">
        <ele>140</ele>
        <time>2009-06-07T08:52:29Z</time>
      </trkpt>
      <trkpt lat="48.04407" lon="-0.76846">
        <ele>139</ele>
        <time>2009-06-07T08:52:31Z</time>
      </trkpt>
      <trkpt lat="48.04407" lon="-0.76846">
        <ele>139</ele>
        <time>2009-06-07T08:52:33Z</time>
      </trkpt>
      <trkpt lat="48.04406" lon="-0.76846">
        <ele>139</ele>
        <time>2009-06-07T08:52:35Z</time>
      </trkpt>
      <trkpt lat="48.04406" lon="-0.76845">
        <ele>139</ele>
        <time>2009-06-07T08:52:37Z</time>
      </trkpt>
      <trkpt lat="48.04407" lon="-0.76845">
        <ele>139</ele>
        <time>2009-06-07T08:52:39Z</time>
      </trkpt>
      <trkpt lat="48.04407" lon="-0.76844">
        <ele>139</ele>
        <time>2009-06-07T08:52:41Z</time>
      </trkpt>
      <trkpt lat="48.04407" lon="-0.76844">
        <ele>139</ele>
        <time>2009-06-07T08:52:43Z</time>
      </trkpt>
      <trkpt lat="48.04407" lon="-0.76842">
        <ele>139</ele>
        <time>2009-06-07T08:52:45Z</time>
      </trkpt>
      <trkpt lat="48.04407" lon="-0.76842">
        <ele>140</ele>
        <time>2009-06-07T08:52:47Z</time>
      </trkpt>
      <trkpt lat="48.04407" lon="-0.76842">
        <ele>140</ele>
        <time>2009-06-07T08:52:49Z</time>
      </trkpt>
      <trkpt lat="48.04407" lon="-0.76842">
        <ele>140</ele>
        <time>2009-06-07T08:52:51Z</time>
      </trkpt>
      <trkpt lat="48.04407" lon="-0.76842">
        <ele>141</ele>
        <time>2009-06-07T08:52:53Z</time>
      </trkpt>
      <trkpt lat="48.04408" lon="-0.76841">
        <ele>141</ele>
        <time>2009-06-07T08:52:55Z</time>
      </trkpt>
      <trkpt lat="48.04409" lon="-0.76841">
        <ele>141</ele>
        <time>2009-06-07T08:52:57Z</time>
      </trkpt>
      <trkpt lat="48.04408" lon="-0.7684">
        <ele>142</ele>
        <time>2009-06-07T08:52:59Z</time>
      </trkpt>
      <trkpt lat="48.04409" lon="-0.7684">
        <ele>142</ele>
        <time>2009-06-07T08:53:01Z</time>
      </trkpt>
      <trkpt lat="48.04435" lon="-0.76813">
        <ele>142</ele>
        <time>2009-06-07T08:53:03Z</time>
      </trkpt>
      <trkpt lat="48.04439" lon="-0.76813">
        <ele>142</ele>
        <time>2009-06-07T08:53:05Z</time>
      </trkpt>
      <trkpt lat="48.04445" lon="-0.76814">
        <ele>143</ele>
        <time>2009-06-07T08:53:07Z</time>
      </trkpt>
      <trkpt lat="48.04448" lon="-0.76818">
        <ele>143</ele>
        <time>2009-06-07T08:53:09Z</time>
      </trkpt>
      <trkpt lat="48.04453" lon="-0.76819">
        <ele>144</ele>
        <time>2009-06-07T08:53:11Z</time>
      </trkpt>
      <trkpt lat="48.04456" lon="-0.76819">
        <ele>145</ele>
        <time>2009-06-07T08:53:13Z</time>
      </trkpt>
      <trkpt lat="48.0446" lon="-0.7682">
        <ele>146</ele>
        <time>2009-06-07T08:53:15Z</time>
      </trkpt>
      <trkpt lat="48.04462" lon="-0.7682">
        <ele>146</ele>
        <time>2009-06-07T08:53:17Z</time>
      </trkpt>
      <trkpt lat="48.04467" lon="-0.76818">
        <ele>146</ele>
        <time>2009-06-07T08:53:19Z</time>
      </trkpt>
      <trkpt lat="48.04472" lon="-0.76819">
        <ele>146</ele>
        <time>2009-06-07T08:53:21Z</time>
      </trkpt>
      <trkpt lat="48.04475" lon="-0.76821">
        <ele>145</ele>
        <time>2009-06-07T08:53:23Z</time>
      </trkpt>
      <trkpt lat="48.04478" lon="-0.76822">
        <ele>146</ele>
        <time>2009-06-07T08:53:25Z</time>
      </trkpt>
      <trkpt lat="48.04482" lon="-0.76822">
        <ele>146</ele>
        <time>2009-06-07T08:53:27Z</time>
      </trkpt>
      <trkpt lat="48.04485" lon="-0.76823">
        <ele>145</ele>
        <time>2009-06-07T08:53:29Z</time>
      </trkpt>
      <trkpt lat="48.04487" lon="-0.7682">
        <ele>146</ele>
        <time>2009-06-07T08:53:31Z</time>
      </trkpt>
      <trkpt lat="48.0449" lon="-0.76819">
        <ele>146</ele>
        <time>2009-06-07T08:53:33Z</time>
      </trkpt>
      <trkpt lat="48.04493" lon="-0.76819">
        <ele>146</ele>
        <time>2009-06-07T08:53:35Z</time>
      </trkpt>
      <trkpt lat="48.04496" lon="-0.7682">
        <ele>145</ele>
        <time>2009-06-07T08:53:37Z</time>
      </trkpt>
      <trkpt lat="48.04499" lon="-0.76821">
        <ele>145</ele>
        <time>2009-06-07T08:53:39Z</time>
      </trkpt>
      <trkpt lat="48.045" lon="-0.76817">
        <ele>144</ele>
        <time>2009-06-07T08:53:41Z</time>
      </trkpt>
      <trkpt lat="48.04506" lon="-0.76813">
        <ele>144</ele>
        <time>2009-06-07T08:53:43Z</time>
      </trkpt>
      <trkpt lat="48.04509" lon="-0.76807">
        <ele>144</ele>
        <time>2009-06-07T08:53:45Z</time>
      </trkpt>
      <trkpt lat="48.04514" lon="-0.76803">
        <ele>144</ele>
        <time>2009-06-07T08:53:47Z</time>
      </trkpt>
      <trkpt lat="48.0452" lon="-0.768">
        <ele>144</ele>
        <time>2009-06-07T08:53:49Z</time>
      </trkpt>
      <trkpt lat="48.04522" lon="-0.76793">
        <ele>144</ele>
        <time>2009-06-07T08:53:51Z</time>
      </trkpt>
      <trkpt lat="48.04527" lon="-0.76788">
        <ele>144</ele>
        <time>2009-06-07T08:53:53Z</time>
      </trkpt>
      <trkpt lat="48.04536" lon="-0.76791">
        <ele>143</ele>
        <time>2009-06-07T08:53:55Z</time>
      </trkpt>
      <trkpt lat="48.04543" lon="-0.7679">
        <ele>143</ele>
        <time>2009-06-07T08:53:57Z</time>
      </trkpt>
      <trkpt lat="48.04554" lon="-0.76786">
        <ele>143</ele>
        <time>2009-06-07T08:53:59Z</time>
      </trkpt>
      <trkpt lat="48.04564" lon="-0.76783">
        <ele>144</ele>
        <time>2009-06-07T08:54:01Z</time>
      </trkpt>
      <trkpt lat="48.04571" lon="-0.7678">
        <ele>144</ele>
        <time>2009-06-07T08:54:03Z</time>
      </trkpt>
      <trkpt lat="48.04579" lon="-0.76776">
        <ele>143</ele>
        <time>2009-06-07T08:54:05Z</time>
      </trkpt>
      <trkpt lat="48.04586" lon="-0.76776">
        <ele>143</ele>
        <time>2009-06-07T08:54:07Z</time>
      </trkpt>
      <trkpt lat="48.04589" lon="-0.76773">
        <ele>143</ele>
        <time>2009-06-07T08:54:09Z</time>
      </trkpt>
      <trkpt lat="48.04591" lon="-0.76773">
        <ele>143</ele>
        <time>2009-06-07T08:54:11Z</time>
      </trkpt>
      <trkpt lat="48.04592" lon="-0.7677">
        <ele>142</ele>
        <time>2009-06-07T08:54:13Z</time>
      </trkpt>
      <trkpt lat="48.04594" lon="-0.7677">
        <ele>143</ele>
        <time>2009-06-07T08:54:15Z</time>
      </trkpt>
      <trkpt lat="48.04597" lon="-0.7677">
        <ele>143</ele>
        <time>2009-06-07T08:54:17Z</time>
      </trkpt>
      <trkpt lat="48.046" lon="-0.7677">
        <ele>143</ele>
        <time>2009-06-07T08:54:19Z</time>
      </trkpt>
      <trkpt lat="48.04601" lon="-0.76772">
        <ele>143</ele>
        <time>2009-06-07T08:54:21Z</time>
      </trkpt>
      <trkpt lat="48.04603" lon="-0.76774">
        <ele>143</ele>
        <time>2009-06-07T08:54:23Z</time>
      </trkpt>
      <trkpt lat="48.04605" lon="-0.76776">
        <ele>143</ele>
        <time>2009-06-07T08:54:25Z</time>
      </trkpt>
      <trkpt lat="48.04607" lon="-0.76779">
        <ele>144</ele>
        <time>2009-06-07T08:54:27Z</time>
      </trkpt>
      <trkpt lat="48.04607" lon="-0.76777">
        <ele>143</ele>
        <time>2009-06-07T08:54:29Z</time>
      </trkpt>
      <trkpt lat="48.04607" lon="-0.76773">
        <ele>143</ele>
        <time>2009-06-07T08:54:31Z</time>
      </trkpt>
      <trkpt lat="48.04609" lon="-0.76772">
        <ele>142</ele>
        <time>2009-06-07T08:54:33Z</time>
      </trkpt>
      <trkpt lat="48.04611" lon="-0.76769">
        <ele>140</ele>
        <time>2009-06-07T08:54:35Z</time>
      </trkpt>
      <trkpt lat="48.04613" lon="-0.76766">
        <ele>139</ele>
        <time>2009-06-07T08:54:37Z</time>
      </trkpt>
      <trkpt lat="48.04615" lon="-0.76768">
        <ele>139</ele>
        <time>2009-06-07T08:54:39Z</time>
      </trkpt>
      <trkpt lat="48.04615" lon="-0.76766">
        <ele>138</ele>
        <time>2009-06-07T08:54:41Z</time>
      </trkpt>
      <trkpt lat="48.04617" lon="-0.76766">
        <ele>138</ele>
        <time>2009-06-07T08:54:43Z</time>
      </trkpt>
      <trkpt lat="48.04617" lon="-0.76768">
        <ele>137</ele>
        <time>2009-06-07T08:54:45Z</time>
      </trkpt>
      <trkpt lat="48.04617" lon="-0.76769">
        <ele>137</ele>
        <time>2009-06-07T08:54:47Z</time>
      </trkpt>
      <trkpt lat="48.04618" lon="-0.76768">
        <ele>137</ele>
        <time>2009-06-07T08:54:49Z</time>
      </trkpt>
      <trkpt lat="48.04622" lon="-0.76769">
        <ele>137</ele>
        <time>2009-06-07T08:54:51Z</time>
      </trkpt>
      <trkpt lat="48.04624" lon="-0.76767">
        <ele>138</ele>
        <time>2009-06-07T08:54:53Z</time>
      </trkpt>
      <trkpt lat="48.04627" lon="-0.76766">
        <ele>137</ele>
        <time>2009-06-07T08:54:55Z</time>
      </trkpt>
      <trkpt lat="48.04628" lon="-0.7676">
        <ele>137</ele>
        <time>2009-06-07T08:54:57Z</time>
      </trkpt>
      <trkpt lat="48.04632" lon="-0.76758">
        <ele>137</ele>
        <time>2009-06-07T08:54:59Z</time>
      </trkpt>
      <trkpt lat="48.04636" lon="-0.76753">
        <ele>138</ele>
        <time>2009-06-07T08:55:01Z</time>
      </trkpt>
      <trkpt lat="48.04639" lon="-0.7675">
        <ele>137</ele>
        <time>2009-06-07T08:55:03Z</time>
      </trkpt>
      <trkpt lat="48.04642" lon="-0.76748">
        <ele>138</ele>
        <time>2009-06-07T08:55:05Z</time>
      </trkpt>
      <trkpt lat="48.04646" lon="-0.76746">
        <ele>138</ele>
        <time>2009-06-07T08:55:07Z</time>
      </trkpt>
      <trkpt lat="48.04649" lon="-0.76743">
        <ele>137</ele>
        <time>2009-06-07T08:55:09Z</time>
      </trkpt>
      <trkpt lat="48.04651" lon="-0.76743">
        <ele>137</ele>
        <time>2009-06-07T08:55:11Z</time>
      </trkpt>
      <trkpt lat="48.04654" lon="-0.76743">
        <ele>137</ele>
        <time>2009-06-07T08:55:13Z</time>
      </trkpt>
      <trkpt lat="48.04656" lon="-0.76746">
        <ele>137</ele>
        <time>2009-06-07T08:55:15Z</time>
      </trkpt>
      <trkpt lat="48.0466" lon="-0.76748">
        <ele>137</ele>
        <time>2009-06-07T08:55:17Z</time>
      </trkpt>
      <trkpt lat="48.04663" lon="-0.76749">
        <ele>137</ele>
        <time>2009-06-07T08:55:19Z</time>
      </trkpt>
      <trkpt lat="48.04665" lon="-0.76751">
        <ele>137</ele>
        <time>2009-06-07T08:55:21Z</time>
      </trkpt>
      <trkpt lat="48.04669" lon="-0.76751">
        <ele>137</ele>
        <time>2009-06-07T08:55:23Z</time>
      </trkpt>
      <trkpt lat="48.04673" lon="-0.76746">
        <ele>137</ele>
        <time>2009-06-07T08:55:25Z</time>
      </trkpt>
      <trkpt lat="48.04676" lon="-0.76744">
        <ele>137</ele>
        <time>2009-06-07T08:55:27Z</time>
      </trkpt>
      <trkpt lat="48.04679" lon="-0.76741">
        <ele>137</ele>
        <time>2009-06-07T08:55:29Z</time>
      </trkpt>
      <trkpt lat="48.04684" lon="-0.7674">
        <ele>136</ele>
        <time>2009-06-07T08:55:31Z</time>
      </trkpt>
      <trkpt lat="48.04689" lon="-0.7674">
        <ele>136</ele>
        <time>2009-06-07T08:55:33Z</time>
      </trkpt>
      <trkpt lat="48.04693" lon="-0.7674">
        <ele>136</ele>
        <time>2009-06-07T08:55:35Z</time>
      </trkpt>
      <trkpt lat="48.04699" lon="-0.7674">
        <ele>136</ele>
        <time>2009-06-07T08:55:37Z</time>
      </trkpt>
      <trkpt lat="48.04704" lon="-0.7674">
        <ele>136</ele>
        <time>2009-06-07T08:55:39Z</time>
      </trkpt>
      <trkpt lat="48.04707" lon="-0.76739">
        <ele>136</ele>
        <time>2009-06-07T08:55:41Z</time>
      </trkpt>
      <trkpt lat="48.04711" lon="-0.76738">
        <ele>135</ele>
        <time>2009-06-07T08:55:43Z</time>
      </trkpt>
      <trkpt lat="48.04713" lon="-0.76738">
        <ele>135</ele>
        <time>2009-06-07T08:55:45Z</time>
      </trkpt>
      <trkpt lat="48.04715" lon="-0.76738">
        <ele>135</ele>
        <time>2009-06-07T08:55:47Z</time>
      </trkpt>
      <trkpt lat="48.04718" lon="-0.76738">
        <ele>135</ele>
        <time>2009-06-07T08:55:49Z</time>
      </trkpt>
      <trkpt lat="48.04719" lon="-0.76735">
        <ele>135</ele>
        <time>2009-06-07T08:55:51Z</time>
      </trkpt>
      <trkpt lat="48.04721" lon="-0.76736">
        <ele>134</ele>
        <time>2009-06-07T08:55:53Z</time>
      </trkpt>
      <trkpt lat="48.04723" lon="-0.76737">
        <ele>133</ele>
        <time>2009-06-07T08:55:55Z</time>
      </trkpt>
      <trkpt lat="48.04724" lon="-0.76737">
        <ele>132</ele>
        <time>2009-06-07T08:55:57Z</time>
      </trkpt>
      <trkpt lat="48.04725" lon="-0.76736">
        <ele>132</ele>
        <time>2009-06-07T08:55:59Z</time>
      </trkpt>
      <trkpt lat="48.04726" lon="-0.76739">
        <ele>131</ele>
        <time>2009-06-07T08:56:01Z</time>
      </trkpt>
      <trkpt lat="48.04727" lon="-0.7674">
        <ele>132</ele>
        <time>2009-06-07T08:56:03Z</time>
      </trkpt>
      <trkpt lat="48.04728" lon="-0.76741">
        <ele>132</ele>
        <time>2009-06-07T08:56:05Z</time>
      </trkpt>
      <trkpt lat="48.0473" lon="-0.76743">
        <ele>131</ele>
        <time>2009-06-07T08:56:07Z</time>
      </trkpt>
      <trkpt lat="48.04732" lon="-0.76742">
        <ele>131</ele>
        <time>2009-06-07T08:56:09Z</time>
      </trkpt>
      <trkpt lat="48.04734" lon="-0.76741">
        <ele>131</ele>
        <time>2009-06-07T08:56:11Z</time>
      </trkpt>
      <trkpt lat="48.04736" lon="-0.76742">
        <ele>131</ele>
        <time>2009-06-07T08:56:13Z</time>
      </trkpt>
      <trkpt lat="48.04736" lon="-0.76744">
        <ele>131</ele>
        <time>2009-06-07T08:56:15Z</time>
      </trkpt>
      <trkpt lat="48.04734" lon="-0.76745">
        <ele>131</ele>
        <time>2009-06-07T08:56:17Z</time>
      </trkpt>
      <trkpt lat="48.04738" lon="-0.76744">
        <ele>130</ele>
        <time>2009-06-07T08:56:19Z</time>
      </trkpt>
      <trkpt lat="48.04739" lon="-0.76743">
        <ele>129</ele>
        <time>2009-06-07T08:56:21Z</time>
      </trkpt>
      <trkpt lat="48.0474" lon="-0.76743">
        <ele>129</ele>
        <time>2009-06-07T08:56:23Z</time>
      </trkpt>
      <trkpt lat="48.0474" lon="-0.76743">
        <ele>129</ele>
        <time>2009-06-07T08:56:25Z</time>
      </trkpt>
      <trkpt lat="48.04742" lon="-0.76743">
        <ele>128</ele>
        <time>2009-06-07T08:56:27Z</time>
      </trkpt>
      <trkpt lat="48.04744" lon="-0.76743">
        <ele>128</ele>
        <time>2009-06-07T08:56:29Z</time>
      </trkpt>
      <trkpt lat="48.04745" lon="-0.76743">
        <ele>128</ele>
        <time>2009-06-07T08:56:31Z</time>
      </trkpt>
      <trkpt lat="48.04747" lon="-0.76744">
        <ele>128</ele>
        <time>2009-06-07T08:56:33Z</time>
      </trkpt>
      <trkpt lat="48.04748" lon="-0.76746">
        <ele>126</ele>
        <time>2009-06-07T08:56:35Z</time>
      </trkpt>
      <trkpt lat="48.0475" lon="-0.76743">
        <ele>124</ele>
        <time>2009-06-07T08:56:37Z</time>
      </trkpt>
      <trkpt lat="48.04754" lon="-0.76739">
        <ele>121</ele>
        <time>2009-06-07T08:56:39Z</time>
      </trkpt>
      <trkpt lat="48.04757" lon="-0.76736">
        <ele>119</ele>
        <time>2009-06-07T08:56:41Z</time>
      </trkpt>
      <trkpt lat="48.04758" lon="-0.76735">
        <ele>117</ele>
        <time>2009-06-07T08:56:43Z</time>
      </trkpt>
      <trkpt lat="48.04759" lon="-0.76736">
        <ele>117</ele>
        <time>2009-06-07T08:56:45Z</time>
      </trkpt>
      <trkpt lat="48.04757" lon="-0.76739">
        <ele>117</ele>
        <time>2009-06-07T08:56:47Z</time>
      </trkpt>
      <trkpt lat="48.04756" lon="-0.7674">
        <ele>117</ele>
        <time>2009-06-07T08:56:49Z</time>
      </trkpt>
      <trkpt lat="48.04755" lon="-0.76743">
        <ele>117</ele>
        <time>2009-06-07T08:56:51Z</time>
      </trkpt>
      <trkpt lat="48.04754" lon="-0.76746">
        <ele>117</ele>
        <time>2009-06-07T08:56:53Z</time>
      </trkpt>
      <trkpt lat="48.04753" lon="-0.76747">
        <ele>117</ele>
        <time>2009-06-07T08:56:55Z</time>
      </trkpt>
      <trkpt lat="48.04752" lon="-0.76744">
        <ele>117</ele>
        <time>2009-06-07T08:56:57Z</time>
      </trkpt>
      <trkpt lat="48.04751" lon="-0.76746">
        <ele>117</ele>
        <time>2009-06-07T08:56:59Z</time>
      </trkpt>
      <trkpt lat="48.0475" lon="-0.76748">
        <ele>117</ele>
        <time>2009-06-07T08:57:01Z</time>
      </trkpt>
      <trkpt lat="48.0475" lon="-0.76748">
        <ele>117</ele>
        <time>2009-06-07T08:57:03Z</time>
      </trkpt>
      <trkpt lat="48.0475" lon="-0.76751">
        <ele>117</ele>
        <time>2009-06-07T08:57:05Z</time>
      </trkpt>
      <trkpt lat="48.04751" lon="-0.76758">
        <ele>117</ele>
        <time>2009-06-07T08:57:07Z</time>
      </trkpt>
      <trkpt lat="48.04752" lon="-0.76759">
        <ele>117</ele>
        <time>2009-06-07T08:57:09Z</time>
      </trkpt>
      <trkpt lat="48.04751" lon="-0.76762">
        <ele>117</ele>
        <time>2009-06-07T08:57:11Z</time>
      </trkpt>
      <trkpt lat="48.0475" lon="-0.76766">
        <ele>117</ele>
        <time>2009-06-07T08:57:13Z</time>
      </trkpt>
      <trkpt lat="48.04749" lon="-0.76769">
        <ele>117</ele>
        <time>2009-06-07T08:57:15Z</time>
      </trkpt>
      <trkpt lat="48.0475" lon="-0.76773">
        <ele>116</ele>
        <time>2009-06-07T08:57:17Z</time>
      </trkpt>
      <trkpt lat="48.04749" lon="-0.76775">
        <ele>116</ele>
        <time>2009-06-07T08:57:19Z</time>
      </trkpt>
      <trkpt lat="48.0475" lon="-0.76778">
        <ele>116</ele>
        <time>2009-06-07T08:57:21Z</time>
      </trkpt>
      <trkpt lat="48.04752" lon="-0.76782">
        <ele>116</ele>
        <time>2009-06-07T08:57:23Z</time>
      </trkpt>
      <trkpt lat="48.04751" lon="-0.76785">
        <ele>116</ele>
        <time>2009-06-07T08:57:25Z</time>
      </trkpt>
      <trkpt lat="48.0475" lon="-0.76789">
        <ele>116</ele>
        <time>2009-06-07T08:57:27Z</time>
      </trkpt>
      <trkpt lat="48.0475" lon="-0.76793">
        <ele>116</ele>
        <time>2009-06-07T08:57:29Z</time>
      </trkpt>
      <trkpt lat="48.04751" lon="-0.76833">
        <ele>117</ele>
        <time>2009-06-07T08:57:50Z</time>
      </trkpt>
      <trkpt lat="48.04746" lon="-0.76838">
        <ele>117</ele>
        <time>2009-06-07T08:57:53Z</time>
      </trkpt>
      <trkpt lat="48.04743" lon="-0.76841">
        <ele>118</ele>
        <time>2009-06-07T08:57:55Z</time>
      </trkpt>
      <trkpt lat="48.0474" lon="-0.76845">
        <ele>117</ele>
        <time>2009-06-07T08:57:57Z</time>
      </trkpt>
      <trkpt lat="48.0474" lon="-0.76851">
        <ele>117</ele>
        <time>2009-06-07T08:57:59Z</time>
      </trkpt>
      <trkpt lat="48.04741" lon="-0.76853">
        <ele>117</ele>
        <time>2009-06-07T08:58:01Z</time>
      </trkpt>
      <trkpt lat="48.04742" lon="-0.76857">
        <ele>117</ele>
        <time>2009-06-07T08:58:03Z</time>
      </trkpt>
      <trkpt lat="48.04744" lon="-0.76863">
        <ele>117</ele>
        <time>2009-06-07T08:58:05Z</time>
      </trkpt>
      <trkpt lat="48.04744" lon="-0.76868">
        <ele>117</ele>
        <time>2009-06-07T08:58:07Z</time>
      </trkpt>
      <trkpt lat="48.04743" lon="-0.76872">
        <ele>117</ele>
        <time>2009-06-07T08:58:09Z</time>
      </trkpt>
      <trkpt lat="48.04744" lon="-0.76876">
        <ele>118</ele>
        <time>2009-06-07T08:58:11Z</time>
      </trkpt>
      <trkpt lat="48.04742" lon="-0.76878">
        <ele>118</ele>
        <time>2009-06-07T08:58:13Z</time>
      </trkpt>
      <trkpt lat="48.0474" lon="-0.7688">
        <ele>118</ele>
        <time>2009-06-07T08:58:15Z</time>
      </trkpt>
      <trkpt lat="48.04742" lon="-0.76884">
        <ele>119</ele>
        <time>2009-06-07T08:58:17Z</time>
      </trkpt>
      <trkpt lat="48.04743" lon="-0.76892">
        <ele>118</ele>
        <time>2009-06-07T08:58:19Z</time>
      </trkpt>
      <trkpt lat="48.04744" lon="-0.76895">
        <ele>118</ele>
        <time>2009-06-07T08:58:21Z</time>
      </trkpt>
      <trkpt lat="48.04741" lon="-0.76896">
        <ele>118</ele>
        <time>2009-06-07T08:58:23Z</time>
      </trkpt>
      <trkpt lat="48.04741" lon="-0.76899">
        <ele>118</ele>
        <time>2009-06-07T08:58:25Z</time>
      </trkpt>
      <trkpt lat="48.04737" lon="-0.76902">
        <ele>118</ele>
        <time>2009-06-07T08:58:27Z</time>
      </trkpt>
      <trkpt lat="48.04736" lon="-0.76902">
        <ele>118</ele>
        <time>2009-06-07T08:58:29Z</time>
      </trkpt>
      <trkpt lat="48.04738" lon="-0.76906">
        <ele>118</ele>
        <time>2009-06-07T08:58:31Z</time>
      </trkpt>
      <trkpt lat="48.04737" lon="-0.76909">
        <ele>118</ele>
        <time>2009-06-07T08:58:33Z</time>
      </trkpt>
      <trkpt lat="48.04733" lon="-0.7691">
        <ele>118</ele>
        <time>2009-06-07T08:58:35Z</time>
      </trkpt>
      <trkpt lat="48.04731" lon="-0.76913">
        <ele>118</ele>
        <time>2009-06-07T08:58:37Z</time>
      </trkpt>
      <trkpt lat="48.04726" lon="-0.76916">
        <ele>118</ele>
        <time>2009-06-07T08:58:39Z</time>
      </trkpt>
      <trkpt lat="48.04724" lon="-0.7692">
        <ele>118</ele>
        <time>2009-06-07T08:58:41Z</time>
      </trkpt>
      <trkpt lat="48.04724" lon="-0.76929">
        <ele>120</ele>
        <time>2009-06-07T08:58:43Z</time>
      </trkpt>
      <trkpt lat="48.04723" lon="-0.76931">
        <ele>120</ele>
        <time>2009-06-07T08:58:45Z</time>
      </trkpt>
      <trkpt lat="48.04722" lon="-0.76935">
        <ele>120</ele>
        <time>2009-06-07T08:58:47Z</time>
      </trkpt>
      <trkpt lat="48.04722" lon="-0.76939">
        <ele>121</ele>
        <time>2009-06-07T08:58:49Z</time>
      </trkpt>
      <trkpt lat="48.04722" lon="-0.7694">
        <ele>121</ele>
        <time>2009-06-07T08:58:51Z</time>
      </trkpt>
      <trkpt lat="48.0472" lon="-0.76943">
        <ele>121</ele>
        <time>2009-06-07T08:58:53Z</time>
      </trkpt>
      <trkpt lat="48.04719" lon="-0.76948">
        <ele>122</ele>
        <time>2009-06-07T08:58:55Z</time>
      </trkpt>
      <trkpt lat="48.0472" lon="-0.76952">
        <ele>122</ele>
        <time>2009-06-07T08:58:57Z</time>
      </trkpt>
      <trkpt lat="48.0472" lon="-0.76955">
        <ele>122</ele>
        <time>2009-06-07T08:58:59Z</time>
      </trkpt>
      <trkpt lat="48.04719" lon="-0.76959">
        <ele>123</ele>
        <time>2009-06-07T08:59:01Z</time>
      </trkpt>
      <trkpt lat="48.04715" lon="-0.76966">
        <ele>123</ele>
        <time>2009-06-07T08:59:03Z</time>
      </trkpt>
      <trkpt lat="48.04716" lon="-0.7697">
        <ele>122</ele>
        <time>2009-06-07T08:59:05Z</time>
      </trkpt>
      <trkpt lat="48.04714" lon="-0.76973">
        <ele>124</ele>
        <time>2009-06-07T08:59:07Z</time>
      </trkpt>
      <trkpt lat="48.04712" lon="-0.76977">
        <ele>124</ele>
        <time>2009-06-07T08:59:09Z</time>
      </trkpt>
      <trkpt lat="48.04712" lon="-0.76979">
        <ele>124</ele>
        <time>2009-06-07T08:59:11Z</time>
      </trkpt>
      <trkpt lat="48.04711" lon="-0.76984">
        <ele>124</ele>
        <time>2009-06-07T08:59:13Z</time>
      </trkpt>
      <trkpt lat="48.0471" lon="-0.76986">
        <ele>124</ele>
        <time>2009-06-07T08:59:15Z</time>
      </trkpt>
      <trkpt lat="48.04709" lon="-0.7699">
        <ele>125</ele>
        <time>2009-06-07T08:59:17Z</time>
      </trkpt>
      <trkpt lat="48.04706" lon="-0.76995">
        <ele>125</ele>
        <time>2009-06-07T08:59:19Z</time>
      </trkpt>
      <trkpt lat="48.047" lon="-0.76996">
        <ele>123</ele>
        <time>2009-06-07T08:59:21Z</time>
      </trkpt>
      <trkpt lat="48.04698" lon="-0.77002">
        <ele>123</ele>
        <time>2009-06-07T08:59:23Z</time>
      </trkpt>
      <trkpt lat="48.04698" lon="-0.77003">
        <ele>123</ele>
        <time>2009-06-07T08:59:25Z</time>
      </trkpt>
      <trkpt lat="48.04697" lon="-0.77006">
        <ele>123</ele>
        <time>2009-06-07T08:59:27Z</time>
      </trkpt>
      <trkpt lat="48.04697" lon="-0.77006">
        <ele>123</ele>
        <time>2009-06-07T08:59:29Z</time>
      </trkpt>
      <trkpt lat="48.04697" lon="-0.77008">
        <ele>123</ele>
        <time>2009-06-07T08:59:31Z</time>
      </trkpt>
      <trkpt lat="48.04697" lon="-0.77008">
        <ele>123</ele>
        <time>2009-06-07T08:59:33Z</time>
      </trkpt>
      <trkpt lat="48.04697" lon="-0.7701">
        <ele>125</ele>
        <time>2009-06-07T08:59:35Z</time>
      </trkpt>
      <trkpt lat="48.04697" lon="-0.7701">
        <ele>126</ele>
        <time>2009-06-07T08:59:37Z</time>
      </trkpt>
      <trkpt lat="48.04697" lon="-0.7701">
        <ele>125</ele>
        <time>2009-06-07T08:59:39Z</time>
      </trkpt>
      <trkpt lat="48.04696" lon="-0.7701">
        <ele>125</ele>
        <time>2009-06-07T08:59:41Z</time>
      </trkpt>
      <trkpt lat="48.04696" lon="-0.77008">
        <ele>126</ele>
        <time>2009-06-07T08:59:43Z</time>
      </trkpt>
      <trkpt lat="48.04695" lon="-0.77008">
        <ele>126</ele>
        <time>2009-06-07T08:59:45Z</time>
      </trkpt>
      <trkpt lat="48.04695" lon="-0.77008">
        <ele>127</ele>
        <time>2009-06-07T08:59:47Z</time>
      </trkpt>
      <trkpt lat="48.04695" lon="-0.7701">
        <ele>127</ele>
        <time>2009-06-07T08:59:49Z</time>
      </trkpt>
      <trkpt lat="48.04695" lon="-0.77011">
        <ele>127</ele>
        <time>2009-06-07T08:59:51Z</time>
      </trkpt>
      <trkpt lat="48.04695" lon="-0.77011">
        <ele>127</ele>
        <time>2009-06-07T08:59:53Z</time>
      </trkpt>
      <trkpt lat="48.04695" lon="-0.77011">
        <ele>128</ele>
        <time>2009-06-07T08:59:55Z</time>
      </trkpt>
      <trkpt lat="48.04695" lon="-0.77012">
        <ele>128</ele>
        <time>2009-06-07T08:59:57Z</time>
      </trkpt>
      <trkpt lat="48.04695" lon="-0.77014">
        <ele>127</ele>
        <time>2009-06-07T08:59:59Z</time>
      </trkpt>
      <trkpt lat="48.04695" lon="-0.77015">
        <ele>127</ele>
        <time>2009-06-07T09:00:01Z</time>
      </trkpt>
      <trkpt lat="48.04695" lon="-0.77014">
        <ele>127</ele>
        <time>2009-06-07T09:00:03Z</time>
      </trkpt>
      <trkpt lat="48.04695" lon="-0.77014">
        <ele>128</ele>
        <time>2009-06-07T09:00:05Z</time>
      </trkpt>
      <trkpt lat="48.04695" lon="-0.77015">
        <ele>127</ele>
        <time>2009-06-07T09:00:07Z</time>
      </trkpt>
      <trkpt lat="48.04695" lon="-0.77015">
        <ele>127</ele>
        <time>2009-06-07T09:00:09Z</time>
      </trkpt>
      <trkpt lat="48.04695" lon="-0.77015">
        <ele>128</ele>
        <time>2009-06-07T09:00:11Z</time>
      </trkpt>
      <trkpt lat="48.04695" lon="-0.77015">
        <ele>128</ele>
        <time>2009-06-07T09:00:13Z</time>
      </trkpt>
      <trkpt lat="48.04695" lon="-0.77015">
        <ele>128</ele>
        <time>2009-06-07T09:00:15Z</time>
      </trkpt>
      <trkpt lat="48.04695" lon="-0.77015">
        <ele>128</ele>
        <time>2009-06-07T09:00:17Z</time>
      </trkpt>
      <trkpt lat="48.04694" lon="-0.77015">
        <ele>128</ele>
        <time>2009-06-07T09:00:19Z</time>
      </trkpt>
      <trkpt lat="48.04694" lon="-0.77017">
        <ele>129</ele>
        <time>2009-06-07T09:00:21Z</time>
      </trkpt>
      <trkpt lat="48.04694" lon="-0.77017">
        <ele>129</ele>
        <time>2009-06-07T09:00:23Z</time>
      </trkpt>
      <trkpt lat="48.04693" lon="-0.77017">
        <ele>130</ele>
        <time>2009-06-07T09:00:25Z</time>
      </trkpt>
      <trkpt lat="48.04692" lon="-0.77017">
        <ele>130</ele>
        <time>2009-06-07T09:00:27Z</time>
      </trkpt>
      <trkpt lat="48.04691" lon="-0.77017">
        <ele>130</ele>
        <time>2009-06-07T09:00:29Z</time>
      </trkpt>
      <trkpt lat="48.04689" lon="-0.77019">
        <ele>130</ele>
        <time>2009-06-07T09:00:31Z</time>
      </trkpt>
      <trkpt lat="48.04686" lon="-0.77024">
        <ele>128</ele>
        <time>2009-06-07T09:00:33Z</time>
      </trkpt>
      <trkpt lat="48.04685" lon="-0.77024">
        <ele>128</ele>
        <time>2009-06-07T09:00:35Z</time>
      </trkpt>
      <trkpt lat="48.04684" lon="-0.77024">
        <ele>127</ele>
        <time>2009-06-07T09:00:37Z</time>
      </trkpt>
      <trkpt lat="48.04684" lon="-0.77024">
        <ele>127</ele>
        <time>2009-06-07T09:00:39Z</time>
      </trkpt>
      <trkpt lat="48.04683" lon="-0.77024">
        <ele>127</ele>
        <time>2009-06-07T09:00:41Z</time>
      </trkpt>
      <trkpt lat="48.04683" lon="-0.77024">
        <ele>127</ele>
        <time>2009-06-07T09:00:43Z</time>
      </trkpt>
      <trkpt lat="48.04683" lon="-0.77024">
        <ele>127</ele>
        <time>2009-06-07T09:00:45Z</time>
      </trkpt>
      <trkpt lat="48.04681" lon="-0.77024">
        <ele>126</ele>
        <time>2009-06-07T09:00:47Z</time>
      </trkpt>
      <trkpt lat="48.04681" lon="-0.77025">
        <ele>128</ele>
        <time>2009-06-07T09:00:49Z</time>
      </trkpt>
      <trkpt lat="48.04681" lon="-0.77026">
        <ele>129</ele>
        <time>2009-06-07T09:00:51Z</time>
      </trkpt>
      <trkpt lat="48.0468" lon="-0.77029">
        <ele>129</ele>
        <time>2009-06-07T09:00:53Z</time>
      </trkpt>
      <trkpt lat="48.0468" lon="-0.77029">
        <ele>130</ele>
        <time>2009-06-07T09:00:55Z</time>
      </trkpt>
      <trkpt lat="48.04657" lon="-0.77053">
        <ele>135</ele>
        <time>2009-06-07T09:00:57Z</time>
      </trkpt>
      <trkpt lat="48.04657" lon="-0.77058">
        <ele>135</ele>
        <time>2009-06-07T09:00:59Z</time>
      </trkpt>
      <trkpt lat="48.04656" lon="-0.77062">
        <ele>135</ele>
        <time>2009-06-07T09:01:01Z</time>
      </trkpt>
      <trkpt lat="48.04654" lon="-0.77067">
        <ele>135</ele>
        <time>2009-06-07T09:01:03Z</time>
      </trkpt>
      <trkpt lat="48.04654" lon="-0.77071">
        <ele>136</ele>
        <time>2009-06-07T09:01:05Z</time>
      </trkpt>
      <trkpt lat="48.04653" lon="-0.77075">
        <ele>136</ele>
        <time>2009-06-07T09:01:07Z</time>
      </trkpt>
      <trkpt lat="48.04652" lon="-0.77077">
        <ele>136</ele>
        <time>2009-06-07T09:01:09Z</time>
      </trkpt>
      <trkpt lat="48.04651" lon="-0.7708">
        <ele>136</ele>
        <time>2009-06-07T09:01:11Z</time>
      </trkpt>
      <trkpt lat="48.0465" lon="-0.77084">
        <ele>137</ele>
        <time>2009-06-07T09:01:13Z</time>
      </trkpt>
      <trkpt lat="48.0465" lon="-0.77088">
        <ele>137</ele>
        <time>2009-06-07T09:01:15Z</time>
      </trkpt>
      <trkpt lat="48.04649" lon="-0.77091">
        <ele>138</ele>
        <time>2009-06-07T09:01:17Z</time>
      </trkpt>
      <trkpt lat="48.04649" lon="-0.77095">
        <ele>138</ele>
        <time>2009-06-07T09:01:19Z</time>
      </trkpt>
      <trkpt lat="48.04649" lon="-0.77095">
        <ele>138</ele>
        <time>2009-06-07T09:01:21Z</time>
      </trkpt>
      <trkpt lat="48.04649" lon="-0.77095">
        <ele>138</ele>
        <time>2009-06-07T09:01:23Z</time>
      </trkpt>
      <trkpt lat="48.04649" lon="-0.77096">
        <ele>137</ele>
        <time>2009-06-07T09:01:25Z</time>
      </trkpt>
      <trkpt lat="48.04649" lon="-0.77098">
        <ele>138</ele>
        <time>2009-06-07T09:01:27Z</time>
      </trkpt>
      <trkpt lat="48.0465" lon="-0.77098">
        <ele>138</ele>
        <time>2009-06-07T09:01:29Z</time>
      </trkpt>
      <trkpt lat="48.04649" lon="-0.77099">
        <ele>138</ele>
        <time>2009-06-07T09:01:31Z</time>
      </trkpt>
      <trkpt lat="48.04648" lon="-0.77098">
        <ele>139</ele>
        <time>2009-06-07T09:01:33Z</time>
      </trkpt>
      <trkpt lat="48.04648" lon="-0.77096">
        <ele>139</ele>
        <time>2009-06-07T09:01:35Z</time>
      </trkpt>
      <trkpt lat="48.04649" lon="-0.77098">
        <ele>138</ele>
        <time>2009-06-07T09:01:37Z</time>
      </trkpt>
      <trkpt lat="48.04649" lon="-0.77099">
        <ele>138</ele>
        <time>2009-06-07T09:01:39Z</time>
      </trkpt>
      <trkpt lat="48.04649" lon="-0.77099">
        <ele>138</ele>
        <time>2009-06-07T09:01:41Z</time>
      </trkpt>
      <trkpt lat="48.04648" lon="-0.77102">
        <ele>138</ele>
        <time>2009-06-07T09:01:43Z</time>
      </trkpt>
      <trkpt lat="48.04648" lon="-0.77102">
        <ele>138</ele>
        <time>2009-06-07T09:01:45Z</time>
      </trkpt>
      <trkpt lat="48.04648" lon="-0.771">
        <ele>138</ele>
        <time>2009-06-07T09:01:47Z</time>
      </trkpt>
      <trkpt lat="48.04648" lon="-0.77102">
        <ele>138</ele>
        <time>2009-06-07T09:01:49Z</time>
      </trkpt>
      <trkpt lat="48.04648" lon="-0.77102">
        <ele>138</ele>
        <time>2009-06-07T09:01:51Z</time>
      </trkpt>
      <trkpt lat="48.04648" lon="-0.77103">
        <ele>138</ele>
        <time>2009-06-07T09:01:53Z</time>
      </trkpt>
      <trkpt lat="48.04648" lon="-0.77102">
        <ele>138</ele>
        <time>2009-06-07T09:01:55Z</time>
      </trkpt>
      <trkpt lat="48.04648" lon="-0.77103">
        <ele>138</ele>
        <time>2009-06-07T09:01:57Z</time>
      </trkpt>
      <trkpt lat="48.04648" lon="-0.77102">
        <ele>139</ele>
        <time>2009-06-07T09:01:59Z</time>
      </trkpt>
      <trkpt lat="48.04648" lon="-0.77103">
        <ele>138</ele>
        <time>2009-06-07T09:02:01Z</time>
      </trkpt>
      <trkpt lat="48.04648" lon="-0.77104">
        <ele>138</ele>
        <time>2009-06-07T09:02:03Z</time>
      </trkpt>
      <trkpt lat="48.04648" lon="-0.77104">
        <ele>138</ele>
        <time>2009-06-07T09:02:05Z</time>
      </trkpt>
      <trkpt lat="48.04647" lon="-0.77104">
        <ele>139</ele>
        <time>2009-06-07T09:02:07Z</time>
      </trkpt>
      <trkpt lat="48.04647" lon="-0.77104">
        <ele>139</ele>
        <time>2009-06-07T09:02:09Z</time>
      </trkpt>
      <trkpt lat="48.04647" lon="-0.77104">
        <ele>139</ele>
        <time>2009-06-07T09:02:11Z</time>
      </trkpt>
      <trkpt lat="48.04647" lon="-0.77104">
        <ele>139</ele>
        <time>2009-06-07T09:02:13Z</time>
      </trkpt>
      <trkpt lat="48.04647" lon="-0.77104">
        <ele>139</ele>
        <time>2009-06-07T09:02:15Z</time>
      </trkpt>
      <trkpt lat="48.04647" lon="-0.77104">
        <ele>140</ele>
        <time>2009-06-07T09:02:17Z</time>
      </trkpt>
      <trkpt lat="48.04647" lon="-0.77104">
        <ele>140</ele>
        <time>2009-06-07T09:02:19Z</time>
      </trkpt>
      <trkpt lat="48.04647" lon="-0.77106">
        <ele>140</ele>
        <time>2009-06-07T09:02:21Z</time>
      </trkpt>
      <trkpt lat="48.04647" lon="-0.77106">
        <ele>140</ele>
        <time>2009-06-07T09:02:23Z</time>
      </trkpt>
      <trkpt lat="48.04647" lon="-0.77106">
        <ele>140</ele>
        <time>2009-06-07T09:02:25Z</time>
      </trkpt>
      <trkpt lat="48.04647" lon="-0.77106">
        <ele>140</ele>
        <time>2009-06-07T09:02:27Z</time>
      </trkpt>
      <trkpt lat="48.04648" lon="-0.77106">
        <ele>140</ele>
        <time>2009-06-07T09:02:29Z</time>
      </trkpt>
      <trkpt lat="48.04648" lon="-0.77106">
        <ele>140</ele>
        <time>2009-06-07T09:02:31Z</time>
      </trkpt>
      <trkpt lat="48.04648" lon="-0.77107">
        <ele>140</ele>
        <time>2009-06-07T09:02:33Z</time>
      </trkpt>
      <trkpt lat="48.04648" lon="-0.77107">
        <ele>140</ele>
        <time>2009-06-07T09:02:35Z</time>
      </trkpt>
      <trkpt lat="48.04648" lon="-0.77107">
        <ele>140</ele>
        <time>2009-06-07T09:02:37Z</time>
      </trkpt>
      <trkpt lat="48.04649" lon="-0.77107">
        <ele>140</ele>
        <time>2009-06-07T09:02:39Z</time>
      </trkpt>
      <trkpt lat="48.04649" lon="-0.77107">
        <ele>141</ele>
        <time>2009-06-07T09:02:41Z</time>
      </trkpt>
      <trkpt lat="48.04649" lon="-0.77108">
        <ele>140</ele>
        <time>2009-06-07T09:02:43Z</time>
      </trkpt>
      <trkpt lat="48.04648" lon="-0.77108">
        <ele>140</ele>
        <time>2009-06-07T09:02:45Z</time>
      </trkpt>
      <trkpt lat="48.04648" lon="-0.77108">
        <ele>140</ele>
        <time>2009-06-07T09:02:47Z</time>
      </trkpt>
      <trkpt lat="48.04648" lon="-0.77108">
        <ele>141</ele>
        <time>2009-06-07T09:02:49Z</time>
      </trkpt>
      <trkpt lat="48.04648" lon="-0.77108">
        <ele>142</ele>
        <time>2009-06-07T09:02:51Z</time>
      </trkpt>
      <trkpt lat="48.04648" lon="-0.77108">
        <ele>142</ele>
        <time>2009-06-07T09:02:53Z</time>
      </trkpt>
      <trkpt lat="48.04648" lon="-0.7711">
        <ele>142</ele>
        <time>2009-06-07T09:02:55Z</time>
      </trkpt>
      <trkpt lat="48.04648" lon="-0.7711">
        <ele>142</ele>
        <time>2009-06-07T09:02:57Z</time>
      </trkpt>
      <trkpt lat="48.04648" lon="-0.7711">
        <ele>142</ele>
        <time>2009-06-07T09:02:59Z</time>
      </trkpt>
      <trkpt lat="48.04648" lon="-0.7711">
        <ele>142</ele>
        <time>2009-06-07T09:03:01Z</time>
      </trkpt>
      <trkpt lat="48.04648" lon="-0.7711">
        <ele>142</ele>
        <time>2009-06-07T09:03:03Z</time>
      </trkpt>
      <trkpt lat="48.04648" lon="-0.7711">
        <ele>142</ele>
        <time>2009-06-07T09:03:05Z</time>
      </trkpt>
      <trkpt lat="48.04648" lon="-0.7711">
        <ele>142</ele>
        <time>2009-06-07T09:03:07Z</time>
      </trkpt>
      <trkpt lat="48.04648" lon="-0.7711">
        <ele>142</ele>
        <time>2009-06-07T09:03:09Z</time>
      </trkpt>
      <trkpt lat="48.04648" lon="-0.7711">
        <ele>142</ele>
        <time>2009-06-07T09:03:11Z</time>
      </trkpt>
      <trkpt lat="48.04648" lon="-0.77111">
        <ele>141</ele>
        <time>2009-06-07T09:03:13Z</time>
      </trkpt>
      <trkpt lat="48.04647" lon="-0.77111">
        <ele>141</ele>
        <time>2009-06-07T09:03:15Z</time>
      </trkpt>
      <trkpt lat="48.04646" lon="-0.77111">
        <ele>140</ele>
        <time>2009-06-07T09:03:17Z</time>
      </trkpt>
      <trkpt lat="48.04644" lon="-0.77111">
        <ele>140</ele>
        <time>2009-06-07T09:03:19Z</time>
      </trkpt>
      <trkpt lat="48.04644" lon="-0.77111">
        <ele>139</ele>
        <time>2009-06-07T09:03:21Z</time>
      </trkpt>
      <trkpt lat="48.04643" lon="-0.77113">
        <ele>139</ele>
        <time>2009-06-07T09:03:23Z</time>
      </trkpt>
      <trkpt lat="48.04643" lon="-0.77113">
        <ele>139</ele>
        <time>2009-06-07T09:03:25Z</time>
      </trkpt>
      <trkpt lat="48.04643" lon="-0.77113">
        <ele>138</ele>
        <time>2009-06-07T09:03:27Z</time>
      </trkpt>
      <trkpt lat="48.04643" lon="-0.77113">
        <ele>138</ele>
        <time>2009-06-07T09:03:29Z</time>
      </trkpt>
      <trkpt lat="48.04643" lon="-0.77113">
        <ele>138</ele>
        <time>2009-06-07T09:03:31Z</time>
      </trkpt>
      <trkpt lat="48.04643" lon="-0.77114">
        <ele>138</ele>
        <time>2009-06-07T09:03:33Z</time>
      </trkpt>
      <trkpt lat="48.04643" lon="-0.77114">
        <ele>138</ele>
        <time>2009-06-07T09:03:35Z</time>
      </trkpt>
      <trkpt lat="48.04643" lon="-0.77114">
        <ele>139</ele>
        <time>2009-06-07T09:03:37Z</time>
      </trkpt>
      <trkpt lat="48.04643" lon="-0.77115">
        <ele>139</ele>
        <time>2009-06-07T09:03:39Z</time>
      </trkpt>
      <trkpt lat="48.04643" lon="-0.77115">
        <ele>140</ele>
        <time>2009-06-07T09:03:41Z</time>
      </trkpt>
      <trkpt lat="48.04643" lon="-0.77115">
        <ele>140</ele>
        <time>2009-06-07T09:03:43Z</time>
      </trkpt>
      <trkpt lat="48.04642" lon="-0.77115">
        <ele>141</ele>
        <time>2009-06-07T09:03:45Z</time>
      </trkpt>
      <trkpt lat="48.04642" lon="-0.77115">
        <ele>142</ele>
        <time>2009-06-07T09:03:47Z</time>
      </trkpt>
      <trkpt lat="48.04643" lon="-0.77115">
        <ele>141</ele>
        <time>2009-06-07T09:03:49Z</time>
      </trkpt>
      <trkpt lat="48.04643" lon="-0.77135">
        <ele>146</ele>
        <time>2009-06-07T09:03:51Z</time>
      </trkpt>
      <trkpt lat="48.04643" lon="-0.77135">
        <ele>144</ele>
        <time>2009-06-07T09:03:53Z</time>
      </trkpt>
      <trkpt lat="48.04644" lon="-0.77135">
        <ele>144</ele>
        <time>2009-06-07T09:03:55Z</time>
      </trkpt>
      <trkpt lat="48.04644" lon="-0.77135">
        <ele>143</ele>
        <time>2009-06-07T09:03:57Z</time>
      </trkpt>
      <trkpt lat="48.04645" lon="-0.77135">
        <ele>143</ele>
        <time>2009-06-07T09:03:59Z</time>
      </trkpt>
      <trkpt lat="48.04645" lon="-0.77135">
        <ele>142</ele>
        <time>2009-06-07T09:04:01Z</time>
      </trkpt>
      <trkpt lat="48.04646" lon="-0.77135">
        <ele>142</ele>
        <time>2009-06-07T09:04:03Z</time>
      </trkpt>
      <trkpt lat="48.04646" lon="-0.77137">
        <ele>141</ele>
        <time>2009-06-07T09:04:05Z</time>
      </trkpt>
      <trkpt lat="48.04646" lon="-0.77137">
        <ele>142</ele>
        <time>2009-06-07T09:04:07Z</time>
      </trkpt>
      <trkpt lat="48.04646" lon="-0.77137">
        <ele>142</ele>
        <time>2009-06-07T09:04:09Z</time>
      </trkpt>
      <trkpt lat="48.04646" lon="-0.77137">
        <ele>142</ele>
        <time>2009-06-07T09:04:11Z</time>
      </trkpt>
      <trkpt lat="48.04646" lon="-0.77137">
        <ele>142</ele>
        <time>2009-06-07T09:04:13Z</time>
      </trkpt>
      <trkpt lat="48.04646" lon="-0.77137">
        <ele>142</ele>
        <time>2009-06-07T09:04:15Z</time>
      </trkpt>
      <trkpt lat="48.04646" lon="-0.77135">
        <ele>142</ele>
        <time>2009-06-07T09:04:17Z</time>
      </trkpt>
      <trkpt lat="48.04646" lon="-0.77135">
        <ele>142</ele>
        <time>2009-06-07T09:04:19Z</time>
      </trkpt>
      <trkpt lat="48.04646" lon="-0.77135">
        <ele>143</ele>
        <time>2009-06-07T09:04:21Z</time>
      </trkpt>
      <trkpt lat="48.04646" lon="-0.77135">
        <ele>143</ele>
        <time>2009-06-07T09:04:23Z</time>
      </trkpt>
      <trkpt lat="48.04646" lon="-0.77135">
        <ele>143</ele>
        <time>2009-06-07T09:04:25Z</time>
      </trkpt>
      <trkpt lat="48.04647" lon="-0.77135">
        <ele>143</ele>
        <time>2009-06-07T09:04:27Z</time>
      </trkpt>
      <trkpt lat="48.04647" lon="-0.77135">
        <ele>143</ele>
        <time>2009-06-07T09:04:29Z</time>
      </trkpt>
      <trkpt lat="48.04647" lon="-0.77135">
        <ele>143</ele>
        <time>2009-06-07T09:04:31Z</time>
      </trkpt>
      <trkpt lat="48.04647" lon="-0.77135">
        <ele>144</ele>
        <time>2009-06-07T09:04:33Z</time>
      </trkpt>
      <trkpt lat="48.04648" lon="-0.77134">
        <ele>144</ele>
        <time>2009-06-07T09:04:35Z</time>
      </trkpt>
      <trkpt lat="48.04648" lon="-0.77134">
        <ele>144</ele>
        <time>2009-06-07T09:04:37Z</time>
      </trkpt>
      <trkpt lat="48.04648" lon="-0.77134">
        <ele>144</ele>
        <time>2009-06-07T09:04:39Z</time>
      </trkpt>
      <trkpt lat="48.04648" lon="-0.77134">
        <ele>144</ele>
        <time>2009-06-07T09:04:41Z</time>
      </trkpt>
      <trkpt lat="48.04648" lon="-0.77134">
        <ele>144</ele>
        <time>2009-06-07T09:04:43Z</time>
      </trkpt>
      <trkpt lat="48.04648" lon="-0.77133">
        <ele>144</ele>
        <time>2009-06-07T09:04:45Z</time>
      </trkpt>
      <trkpt lat="48.04648" lon="-0.77134">
        <ele>144</ele>
        <time>2009-06-07T09:04:47Z</time>
      </trkpt>
      <trkpt lat="48.04648" lon="-0.77134">
        <ele>144</ele>
        <time>2009-06-07T09:04:49Z</time>
      </trkpt>
      <trkpt lat="48.04648" lon="-0.77134">
        <ele>144</ele>
        <time>2009-06-07T09:04:51Z</time>
      </trkpt>
      <trkpt lat="48.04647" lon="-0.77134">
        <ele>144</ele>
        <time>2009-06-07T09:04:53Z</time>
      </trkpt>
      <trkpt lat="48.04647" lon="-0.77134">
        <ele>143</ele>
        <time>2009-06-07T09:04:55Z</time>
      </trkpt>
      <trkpt lat="48.04647" lon="-0.77134">
        <ele>143</ele>
        <time>2009-06-07T09:04:57Z</time>
      </trkpt>
      <trkpt lat="48.04647" lon="-0.77134">
        <ele>143</ele>
        <time>2009-06-07T09:04:59Z</time>
      </trkpt>
      <trkpt lat="48.04647" lon="-0.77134">
        <ele>142</ele>
        <time>2009-06-07T09:05:01Z</time>
      </trkpt>
      <trkpt lat="48.04647" lon="-0.77134">
        <ele>143</ele>
        <time>2009-06-07T09:05:03Z</time>
      </trkpt>
      <trkpt lat="48.04647" lon="-0.77134">
        <ele>143</ele>
        <time>2009-06-07T09:05:05Z</time>
      </trkpt>
      <trkpt lat="48.04647" lon="-0.77134">
        <ele>143</ele>
        <time>2009-06-07T09:05:07Z</time>
      </trkpt>
      <trkpt lat="48.04647" lon="-0.77135">
        <ele>142</ele>
        <time>2009-06-07T09:05:09Z</time>
      </trkpt>
      <trkpt lat="48.04647" lon="-0.77135">
        <ele>142</ele>
        <time>2009-06-07T09:05:11Z</time>
      </trkpt>
      <trkpt lat="48.04647" lon="-0.77135">
        <ele>142</ele>
        <time>2009-06-07T09:05:13Z</time>
      </trkpt>
      <trkpt lat="48.04647" lon="-0.77135">
        <ele>142</ele>
        <time>2009-06-07T09:05:15Z</time>
      </trkpt>
      <trkpt lat="48.04647" lon="-0.77135">
        <ele>142</ele>
        <time>2009-06-07T09:05:17Z</time>
      </trkpt>
      <trkpt lat="48.04647" lon="-0.77135">
        <ele>142</ele>
        <time>2009-06-07T09:05:19Z</time>
      </trkpt>
      <trkpt lat="48.04648" lon="-0.77135">
        <ele>142</ele>
        <time>2009-06-07T09:05:21Z</time>
      </trkpt>
      <trkpt lat="48.04648" lon="-0.77135">
        <ele>142</ele>
        <time>2009-06-07T09:05:23Z</time>
      </trkpt>
      <trkpt lat="48.04647" lon="-0.77135">
        <ele>143</ele>
        <time>2009-06-07T09:05:25Z</time>
      </trkpt>
      <trkpt lat="48.04647" lon="-0.77135">
        <ele>143</ele>
        <time>2009-06-07T09:05:27Z</time>
      </trkpt>
      <trkpt lat="48.04647" lon="-0.77135">
        <ele>142</ele>
        <time>2009-06-07T09:05:29Z</time>
      </trkpt>
      <trkpt lat="48.04647" lon="-0.77135">
        <ele>142</ele>
        <time>2009-06-07T09:05:31Z</time>
      </trkpt>
      <trkpt lat="48.04647" lon="-0.77135">
        <ele>142</ele>
        <time>2009-06-07T09:05:33Z</time>
      </trkpt>
      <trkpt lat="48.04647" lon="-0.77135">
        <ele>142</ele>
        <time>2009-06-07T09:05:35Z</time>
      </trkpt>
      <trkpt lat="48.04647" lon="-0.77135">
        <ele>142</ele>
        <time>2009-06-07T09:05:37Z</time>
      </trkpt>
      <trkpt lat="48.04647" lon="-0.77135">
        <ele>142</ele>
        <time>2009-06-07T09:05:39Z</time>
      </trkpt>
      <trkpt lat="48.04647" lon="-0.77135">
        <ele>142</ele>
        <time>2009-06-07T09:05:41Z</time>
      </trkpt>
      <trkpt lat="48.04647" lon="-0.77135">
        <ele>142</ele>
        <time>2009-06-07T09:05:43Z</time>
      </trkpt>
      <trkpt lat="48.04647" lon="-0.77135">
        <ele>142</ele>
        <time>2009-06-07T09:05:45Z</time>
      </trkpt>
      <trkpt lat="48.04647" lon="-0.77135">
        <ele>142</ele>
        <time>2009-06-07T09:05:47Z</time>
      </trkpt>
      <trkpt lat="48.04647" lon="-0.77135">
        <ele>142</ele>
        <time>2009-06-07T09:05:49Z</time>
      </trkpt>
      <trkpt lat="48.04647" lon="-0.77135">
        <ele>142</ele>
        <time>2009-06-07T09:05:51Z</time>
      </trkpt>
      <trkpt lat="48.04647" lon="-0.77135">
        <ele>142</ele>
        <time>2009-06-07T09:05:53Z</time>
      </trkpt>
      <trkpt lat="48.04647" lon="-0.77135">
        <ele>142</ele>
        <time>2009-06-07T09:05:55Z</time>
      </trkpt>
      <trkpt lat="48.04647" lon="-0.77135">
        <ele>142</ele>
        <time>2009-06-07T09:05:57Z</time>
      </trkpt>
      <trkpt lat="48.04647" lon="-0.77135">
        <ele>142</ele>
        <time>2009-06-07T09:05:59Z</time>
      </trkpt>
      <trkpt lat="48.04647" lon="-0.77134">
        <ele>142</ele>
        <time>2009-06-07T09:06:01Z</time>
      </trkpt>
      <trkpt lat="48.04647" lon="-0.77134">
        <ele>142</ele>
        <time>2009-06-07T09:06:03Z</time>
      </trkpt>
      <trkpt lat="48.04647" lon="-0.77134">
        <ele>142</ele>
        <time>2009-06-07T09:06:05Z</time>
      </trkpt>
      <trkpt lat="48.04647" lon="-0.77134">
        <ele>142</ele>
        <time>2009-06-07T09:06:07Z</time>
      </trkpt>
      <trkpt lat="48.04647" lon="-0.77134">
        <ele>142</ele>
        <time>2009-06-07T09:06:09Z</time>
      </trkpt>
      <trkpt lat="48.04647" lon="-0.77134">
        <ele>142</ele>
        <time>2009-06-07T09:06:11Z</time>
      </trkpt>
      <trkpt lat="48.04647" lon="-0.77134">
        <ele>142</ele>
        <time>2009-06-07T09:06:13Z</time>
      </trkpt>
      <trkpt lat="48.04647" lon="-0.77134">
        <ele>142</ele>
        <time>2009-06-07T09:06:15Z</time>
      </trkpt>
      <trkpt lat="48.04647" lon="-0.77134">
        <ele>142</ele>
        <time>2009-06-07T09:06:17Z</time>
      </trkpt>
      <trkpt lat="48.04647" lon="-0.77134">
        <ele>142</ele>
        <time>2009-06-07T09:06:19Z</time>
      </trkpt>
      <trkpt lat="48.04647" lon="-0.77134">
        <ele>142</ele>
        <time>2009-06-07T09:06:21Z</time>
      </trkpt>
      <trkpt lat="48.04647" lon="-0.77134">
        <ele>142</ele>
        <time>2009-06-07T09:06:23Z</time>
      </trkpt>
      <trkpt lat="48.04647" lon="-0.77134">
        <ele>142</ele>
        <time>2009-06-07T09:06:25Z</time>
      </trkpt>
      <trkpt lat="48.04647" lon="-0.77134">
        <ele>142</ele>
        <time>2009-06-07T09:06:27Z</time>
      </trkpt>
      <trkpt lat="48.04647" lon="-0.77134">
        <ele>142</ele>
        <time>2009-06-07T09:06:29Z</time>
      </trkpt>
      <trkpt lat="48.04647" lon="-0.77134">
        <ele>141</ele>
        <time>2009-06-07T09:06:31Z</time>
      </trkpt>
      <trkpt lat="48.04647" lon="-0.77135">
        <ele>141</ele>
        <time>2009-06-07T09:06:33Z</time>
      </trkpt>
      <trkpt lat="48.04647" lon="-0.77135">
        <ele>141</ele>
        <time>2009-06-07T09:06:35Z</time>
      </trkpt>
      <trkpt lat="48.04647" lon="-0.77135">
        <ele>141</ele>
        <time>2009-06-07T09:06:37Z</time>
      </trkpt>
      <trkpt lat="48.04657" lon="-0.77168">
        <ele>140</ele>
        <time>2009-06-07T09:06:39Z</time>
      </trkpt>
      <trkpt lat="48.04657" lon="-0.77172">
        <ele>140</ele>
        <time>2009-06-07T09:06:41Z</time>
      </trkpt>
      <trkpt lat="48.04656" lon="-0.77176">
        <ele>140</ele>
        <time>2009-06-07T09:06:43Z</time>
      </trkpt>
      <trkpt lat="48.04656" lon="-0.77183">
        <ele>140</ele>
        <time>2009-06-07T09:06:45Z</time>
      </trkpt>
      <trkpt lat="48.04655" lon="-0.77189">
        <ele>140</ele>
        <time>2009-06-07T09:06:47Z</time>
      </trkpt>
      <trkpt lat="48.04655" lon="-0.77193">
        <ele>140</ele>
        <time>2009-06-07T09:06:49Z</time>
      </trkpt>
      <trkpt lat="48.04656" lon="-0.77199">
        <ele>140</ele>
        <time>2009-06-07T09:06:51Z</time>
      </trkpt>
      <trkpt lat="48.04656" lon="-0.77202">
        <ele>140</ele>
        <time>2009-06-07T09:06:53Z</time>
      </trkpt>
      <trkpt lat="48.04657" lon="-0.77207">
        <ele>140</ele>
        <time>2009-06-07T09:06:55Z</time>
      </trkpt>
      <trkpt lat="48.04658" lon="-0.77213">
        <ele>141</ele>
        <time>2009-06-07T09:06:57Z</time>
      </trkpt>
      <trkpt lat="48.04658" lon="-0.77218">
        <ele>141</ele>
        <time>2009-06-07T09:06:59Z</time>
      </trkpt>
      <trkpt lat="48.04657" lon="-0.77223">
        <ele>142</ele>
        <time>2009-06-07T09:07:01Z</time>
      </trkpt>
      <trkpt lat="48.04659" lon="-0.77229">
        <ele>142</ele>
        <time>2009-06-07T09:07:03Z</time>
      </trkpt>
      <trkpt lat="48.04661" lon="-0.77231">
        <ele>142</ele>
        <time>2009-06-07T09:07:05Z</time>
      </trkpt>
      <trkpt lat="48.04663" lon="-0.77234">
        <ele>142</ele>
        <time>2009-06-07T09:07:07Z</time>
      </trkpt>
      <trkpt lat="48.04666" lon="-0.77238">
        <ele>142</ele>
        <time>2009-06-07T09:07:09Z</time>
      </trkpt>
      <trkpt lat="48.04667" lon="-0.7724">
        <ele>142</ele>
        <time>2009-06-07T09:07:11Z</time>
      </trkpt>
      <trkpt lat="48.04668" lon="-0.77243">
        <ele>143</ele>
        <time>2009-06-07T09:07:13Z</time>
      </trkpt>
      <trkpt lat="48.0467" lon="-0.77248">
        <ele>143</ele>
        <time>2009-06-07T09:07:15Z</time>
      </trkpt>
      <trkpt lat="48.04671" lon="-0.77251">
        <ele>143</ele>
        <time>2009-06-07T09:07:17Z</time>
      </trkpt>
      <trkpt lat="48.04673" lon="-0.77256">
        <ele>143</ele>
        <time>2009-06-07T09:07:19Z</time>
      </trkpt>
      <trkpt lat="48.04673" lon="-0.77259">
        <ele>143</ele>
        <time>2009-06-07T09:07:21Z</time>
      </trkpt>
      <trkpt lat="48.04673" lon="-0.77266">
        <ele>143</ele>
        <time>2009-06-07T09:07:23Z</time>
      </trkpt>
      <trkpt lat="48.04674" lon="-0.77274">
        <ele>143</ele>
        <time>2009-06-07T09:07:25Z</time>
      </trkpt>
      <trkpt lat="48.04674" lon="-0.77278">
        <ele>142</ele>
        <time>2009-06-07T09:07:27Z</time>
      </trkpt>
      <trkpt lat="48.04675" lon="-0.7728">
        <ele>142</ele>
        <time>2009-06-07T09:07:29Z</time>
      </trkpt>
      <trkpt lat="48.04677" lon="-0.77284">
        <ele>142</ele>
        <time>2009-06-07T09:07:31Z</time>
      </trkpt>
      <trkpt lat="48.04679" lon="-0.77288">
        <ele>142</ele>
        <time>2009-06-07T09:07:33Z</time>
      </trkpt>
      <trkpt lat="48.04681" lon="-0.77293">
        <ele>142</ele>
        <time>2009-06-07T09:07:35Z</time>
      </trkpt>
      <trkpt lat="48.04682" lon="-0.77297">
        <ele>142</ele>
        <time>2009-06-07T09:07:37Z</time>
      </trkpt>
      <trkpt lat="48.04684" lon="-0.77297">
        <ele>141</ele>
        <time>2009-06-07T09:07:39Z</time>
      </trkpt>
      <trkpt lat="48.04686" lon="-0.77303">
        <ele>142</ele>
        <time>2009-06-07T09:07:41Z</time>
      </trkpt>
      <trkpt lat="48.04683" lon="-0.77311">
        <ele>142</ele>
        <time>2009-06-07T09:07:43Z</time>
      </trkpt>
      <trkpt lat="48.04684" lon="-0.77319">
        <ele>142</ele>
        <time>2009-06-07T09:07:45Z</time>
      </trkpt>
      <trkpt lat="48.04688" lon="-0.77332">
        <ele>142</ele>
        <time>2009-06-07T09:07:47Z</time>
      </trkpt>
      <trkpt lat="48.04689" lon="-0.77337">
        <ele>142</ele>
        <time>2009-06-07T09:07:49Z</time>
      </trkpt>
      <trkpt lat="48.04691" lon="-0.77344">
        <ele>142</ele>
        <time>2009-06-07T09:07:51Z</time>
      </trkpt>
      <trkpt lat="48.04693" lon="-0.77349">
        <ele>141</ele>
        <time>2009-06-07T09:07:53Z</time>
      </trkpt>
      <trkpt lat="48.04695" lon="-0.77359">
        <ele>141</ele>
        <time>2009-06-07T09:07:55Z</time>
      </trkpt>
      <trkpt lat="48.04694" lon="-0.77365">
        <ele>141</ele>
        <time>2009-06-07T09:07:57Z</time>
      </trkpt>
      <trkpt lat="48.04694" lon="-0.77372">
        <ele>141</ele>
        <time>2009-06-07T09:07:59Z</time>
      </trkpt>
      <trkpt lat="48.04692" lon="-0.77378">
        <ele>141</ele>
        <time>2009-06-07T09:08:01Z</time>
      </trkpt>
      <trkpt lat="48.0469" lon="-0.77383">
        <ele>141</ele>
        <time>2009-06-07T09:08:03Z</time>
      </trkpt>
      <trkpt lat="48.04689" lon="-0.7739">
        <ele>141</ele>
        <time>2009-06-07T09:08:05Z</time>
      </trkpt>
      <trkpt lat="48.04688" lon="-0.77394">
        <ele>141</ele>
        <time>2009-06-07T09:08:07Z</time>
      </trkpt>
      <trkpt lat="48.04689" lon="-0.77402">
        <ele>141</ele>
        <time>2009-06-07T09:08:09Z</time>
      </trkpt>
      <trkpt lat="48.0469" lon="-0.77413">
        <ele>140</ele>
        <time>2009-06-07T09:08:11Z</time>
      </trkpt>
      <trkpt lat="48.04691" lon="-0.77421">
        <ele>141</ele>
        <time>2009-06-07T09:08:13Z</time>
      </trkpt>
      <trkpt lat="48.0469" lon="-0.77425">
        <ele>141</ele>
        <time>2009-06-07T09:08:15Z</time>
      </trkpt>
      <trkpt lat="48.04689" lon="-0.77431">
        <ele>140</ele>
        <time>2009-06-07T09:08:17Z</time>
      </trkpt>
      <trkpt lat="48.04689" lon="-0.77435">
        <ele>140</ele>
        <time>2009-06-07T09:08:19Z</time>
      </trkpt>
      <trkpt lat="48.0469" lon="-0.77441">
        <ele>140</ele>
        <time>2009-06-07T09:08:21Z</time>
      </trkpt>
      <trkpt lat="48.04686" lon="-0.77452">
        <ele>141</ele>
        <time>2009-06-07T09:08:23Z</time>
      </trkpt>
      <trkpt lat="48.04684" lon="-0.77457">
        <ele>141</ele>
        <time>2009-06-07T09:08:25Z</time>
      </trkpt>
      <trkpt lat="48.04682" lon="-0.77461">
        <ele>141</ele>
        <time>2009-06-07T09:08:27Z</time>
      </trkpt>
      <trkpt lat="48.04681" lon="-0.77468">
        <ele>142</ele>
        <time>2009-06-07T09:08:29Z</time>
      </trkpt>
      <trkpt lat="48.04677" lon="-0.77468">
        <ele>142</ele>
        <time>2009-06-07T09:08:31Z</time>
      </trkpt>
      <trkpt lat="48.04674" lon="-0.7747">
        <ele>143</ele>
        <time>2009-06-07T09:08:33Z</time>
      </trkpt>
      <trkpt lat="48.0467" lon="-0.77472">
        <ele>143</ele>
        <time>2009-06-07T09:08:35Z</time>
      </trkpt>
      <trkpt lat="48.0467" lon="-0.77472">
        <ele>143</ele>
        <time>2009-06-07T09:08:38Z</time>
      </trkpt>
      <trkpt lat="48.04667" lon="-0.77474">
        <ele>143</ele>
        <time>2009-06-07T09:08:40Z</time>
      </trkpt>
      <trkpt lat="48.04662" lon="-0.77478">
        <ele>143</ele>
        <time>2009-06-07T09:08:42Z</time>
      </trkpt>
      <trkpt lat="48.04659" lon="-0.77482">
        <ele>143</ele>
        <time>2009-06-07T09:08:44Z</time>
      </trkpt>
      <trkpt lat="48.04655" lon="-0.77486">
        <ele>143</ele>
        <time>2009-06-07T09:08:46Z</time>
      </trkpt>
      <trkpt lat="48.04655" lon="-0.77495">
        <ele>143</ele>
        <time>2009-06-07T09:08:48Z</time>
      </trkpt>
      <trkpt lat="48.04653" lon="-0.775">
        <ele>143</ele>
        <time>2009-06-07T09:08:50Z</time>
      </trkpt>
      <trkpt lat="48.04652" lon="-0.77507">
        <ele>143</ele>
        <time>2009-06-07T09:08:52Z</time>
      </trkpt>
      <trkpt lat="48.04654" lon="-0.77513">
        <ele>143</ele>
        <time>2009-06-07T09:08:54Z</time>
      </trkpt>
      <trkpt lat="48.04654" lon="-0.77521">
        <ele>143</ele>
        <time>2009-06-07T09:08:56Z</time>
      </trkpt>
      <trkpt lat="48.04656" lon="-0.77532">
        <ele>144</ele>
        <time>2009-06-07T09:08:58Z</time>
      </trkpt>
      <trkpt lat="48.04667" lon="-0.77611">
        <ele>146</ele>
        <time>2009-06-07T09:09:18Z</time>
      </trkpt>
      <trkpt lat="48.04663" lon="-0.77622">
        <ele>147</ele>
        <time>2009-06-07T09:09:20Z</time>
      </trkpt>
      <trkpt lat="48.04663" lon="-0.77634">
        <ele>148</ele>
        <time>2009-06-07T09:09:22Z</time>
      </trkpt>
      <trkpt lat="48.04666" lon="-0.77647">
        <ele>148</ele>
        <time>2009-06-07T09:09:24Z</time>
      </trkpt>
      <trkpt lat="48.04665" lon="-0.77656">
        <ele>148</ele>
        <time>2009-06-07T09:09:26Z</time>
      </trkpt>
      <trkpt lat="48.04661" lon="-0.77673">
        <ele>149</ele>
        <time>2009-06-07T09:09:29Z</time>
      </trkpt>
      <trkpt lat="48.04655" lon="-0.77678">
        <ele>148</ele>
        <time>2009-06-07T09:09:31Z</time>
      </trkpt>
      <trkpt lat="48.04653" lon="-0.77688">
        <ele>148</ele>
        <time>2009-06-07T09:09:33Z</time>
      </trkpt>
      <trkpt lat="48.0465" lon="-0.77693">
        <ele>147</ele>
        <time>2009-06-07T09:09:35Z</time>
      </trkpt>
      <trkpt lat="48.04645" lon="-0.77704">
        <ele>148</ele>
        <time>2009-06-07T09:09:37Z</time>
      </trkpt>
      <trkpt lat="48.0464" lon="-0.7771">
        <ele>149</ele>
        <time>2009-06-07T09:09:39Z</time>
      </trkpt>
      <trkpt lat="48.04638" lon="-0.77717">
        <ele>149</ele>
        <time>2009-06-07T09:09:41Z</time>
      </trkpt>
      <trkpt lat="48.04636" lon="-0.77722">
        <ele>149</ele>
        <time>2009-06-07T09:09:43Z</time>
      </trkpt>
      <trkpt lat="48.04634" lon="-0.77733">
        <ele>151</ele>
        <time>2009-06-07T09:09:45Z</time>
      </trkpt>
      <trkpt lat="48.04631" lon="-0.77737">
        <ele>151</ele>
        <time>2009-06-07T09:09:47Z</time>
      </trkpt>
      <trkpt lat="48.04629" lon="-0.77744">
        <ele>152</ele>
        <time>2009-06-07T09:09:49Z</time>
      </trkpt>
      <trkpt lat="48.04627" lon="-0.77751">
        <ele>151</ele>
        <time>2009-06-07T09:09:51Z</time>
      </trkpt>
      <trkpt lat="48.04627" lon="-0.77747">
        <ele>151</ele>
        <time>2009-06-07T09:09:53Z</time>
      </trkpt>
      <trkpt lat="48.04625" lon="-0.77745">
        <ele>151</ele>
        <time>2009-06-07T09:09:55Z</time>
      </trkpt>
      <trkpt lat="48.04628" lon="-0.77745">
        <ele>151</ele>
        <time>2009-06-07T09:09:57Z</time>
      </trkpt>
      <trkpt lat="48.0463" lon="-0.77743">
        <ele>150</ele>
        <time>2009-06-07T09:09:59Z</time>
      </trkpt>
      <trkpt lat="48.04628" lon="-0.77737">
        <ele>150</ele>
        <time>2009-06-07T09:10:01Z</time>
      </trkpt>
      <trkpt lat="48.04627" lon="-0.77735">
        <ele>150</ele>
        <time>2009-06-07T09:10:03Z</time>
      </trkpt>
      <trkpt lat="48.04627" lon="-0.77735">
        <ele>150</ele>
        <time>2009-06-07T09:10:05Z</time>
      </trkpt>
      <trkpt lat="48.04625" lon="-0.77733">
        <ele>150</ele>
        <time>2009-06-07T09:10:07Z</time>
      </trkpt>
      <trkpt lat="48.04623" lon="-0.77725">
        <ele>150</ele>
        <time>2009-06-07T09:10:09Z</time>
      </trkpt>
      <trkpt lat="48.04612" lon="-0.77686">
        <ele>150</ele>
        <time>2009-06-07T09:10:24Z</time>
      </trkpt>
      <trkpt lat="48.0461" lon="-0.7768">
        <ele>150</ele>
        <time>2009-06-07T09:10:26Z</time>
      </trkpt>
      <trkpt lat="48.04613" lon="-0.77669">
        <ele>151</ele>
        <time>2009-06-07T09:10:28Z</time>
      </trkpt>
      <trkpt lat="48.04586" lon="-0.77637">
        <ele>151</ele>
        <time>2009-06-07T09:10:33Z</time>
      </trkpt>
      <trkpt lat="48.0458" lon="-0.77635">
        <ele>151</ele>
        <time>2009-06-07T09:10:35Z</time>
      </trkpt>
      <trkpt lat="48.04581" lon="-0.77624">
        <ele>151</ele>
        <time>2009-06-07T09:10:37Z</time>
      </trkpt>
      <trkpt lat="48.0457" lon="-0.77612">
        <ele>151</ele>
        <time>2009-06-07T09:10:39Z</time>
      </trkpt>
      <trkpt lat="48.04554" lon="-0.77593">
        <ele>152</ele>
        <time>2009-06-07T09:10:41Z</time>
      </trkpt>
      <trkpt lat="48.04543" lon="-0.77585">
        <ele>151</ele>
        <time>2009-06-07T09:10:43Z</time>
      </trkpt>
      <trkpt lat="48.04536" lon="-0.77568">
        <ele>151</ele>
        <time>2009-06-07T09:10:45Z</time>
      </trkpt>
      <trkpt lat="48.04531" lon="-0.77554">
        <ele>150</ele>
        <time>2009-06-07T09:10:47Z</time>
      </trkpt>
      <trkpt lat="48.04528" lon="-0.77538">
        <ele>150</ele>
        <time>2009-06-07T09:10:49Z</time>
      </trkpt>
      <trkpt lat="48.04524" lon="-0.77524">
        <ele>149</ele>
        <time>2009-06-07T09:10:51Z</time>
      </trkpt>
      <trkpt lat="48.04516" lon="-0.77509">
        <ele>149</ele>
        <time>2009-06-07T09:10:53Z</time>
      </trkpt>
      <trkpt lat="48.04511" lon="-0.77495">
        <ele>149</ele>
        <time>2009-06-07T09:10:55Z</time>
      </trkpt>
      <trkpt lat="48.04505" lon="-0.77484">
        <ele>149</ele>
        <time>2009-06-07T09:10:57Z</time>
      </trkpt>
      <trkpt lat="48.04501" lon="-0.77477">
        <ele>149</ele>
        <time>2009-06-07T09:10:59Z</time>
      </trkpt>
      <trkpt lat="48.04505" lon="-0.77467">
        <ele>149</ele>
        <time>2009-06-07T09:11:01Z</time>
      </trkpt>
      <trkpt lat="48.04506" lon="-0.77458">
        <ele>149</ele>
        <time>2009-06-07T09:11:03Z</time>
      </trkpt>
      <trkpt lat="48.04506" lon="-0.7745">
        <ele>150</ele>
        <time>2009-06-07T09:11:05Z</time>
      </trkpt>
      <trkpt lat="48.04508" lon="-0.77443">
        <ele>150</ele>
        <time>2009-06-07T09:11:07Z</time>
      </trkpt>
      <trkpt lat="48.04509" lon="-0.77438">
        <ele>150</ele>
        <time>2009-06-07T09:11:09Z</time>
      </trkpt>
      <trkpt lat="48.04511" lon="-0.77432">
        <ele>150</ele>
        <time>2009-06-07T09:11:11Z</time>
      </trkpt>
      <trkpt lat="48.04512" lon="-0.77427">
        <ele>150</ele>
        <time>2009-06-07T09:11:13Z</time>
      </trkpt>
      <trkpt lat="48.04506" lon="-0.77419">
        <ele>150</ele>
        <time>2009-06-07T09:11:15Z</time>
      </trkpt>
      <trkpt lat="48.04509" lon="-0.774">
        <ele>151</ele>
        <time>2009-06-07T09:11:17Z</time>
      </trkpt>
      <trkpt lat="48.04505" lon="-0.77386">
        <ele>151</ele>
        <time>2009-06-07T09:11:19Z</time>
      </trkpt>
      <trkpt lat="48.04504" lon="-0.77366">
        <ele>150</ele>
        <time>2009-06-07T09:11:21Z</time>
      </trkpt>
      <trkpt lat="48.04504" lon="-0.77358">
        <ele>149</ele>
        <time>2009-06-07T09:11:23Z</time>
      </trkpt>
      <trkpt lat="48.04502" lon="-0.77351">
        <ele>149</ele>
        <time>2009-06-07T09:11:25Z</time>
      </trkpt>
      <trkpt lat="48.04502" lon="-0.77347">
        <ele>150</ele>
        <time>2009-06-07T09:11:27Z</time>
      </trkpt>
      <trkpt lat="48.04499" lon="-0.77347">
        <ele>150</ele>
        <time>2009-06-07T09:11:29Z</time>
      </trkpt>
      <trkpt lat="48.04499" lon="-0.77336">
        <ele>151</ele>
        <time>2009-06-07T09:11:31Z</time>
      </trkpt>
      <trkpt lat="48.045" lon="-0.77325">
        <ele>150</ele>
        <time>2009-06-07T09:11:33Z</time>
      </trkpt>
      <trkpt lat="48.04501" lon="-0.77316">
        <ele>150</ele>
        <time>2009-06-07T09:11:35Z</time>
      </trkpt>
      <trkpt lat="48.04507" lon="-0.77309">
        <ele>151</ele>
        <time>2009-06-07T09:11:37Z</time>
      </trkpt>
      <trkpt lat="48.04506" lon="-0.77302">
        <ele>151</ele>
        <time>2009-06-07T09:11:39Z</time>
      </trkpt>
      <trkpt lat="48.04506" lon="-0.77296">
        <ele>151</ele>
        <time>2009-06-07T09:11:41Z</time>
      </trkpt>
      <trkpt lat="48.04503" lon="-0.77288">
        <ele>152</ele>
        <time>2009-06-07T09:11:43Z</time>
      </trkpt>
      <trkpt lat="48.04503" lon="-0.77277">
        <ele>152</ele>
        <time>2009-06-07T09:11:45Z</time>
      </trkpt>
      <trkpt lat="48.04503" lon="-0.77268">
        <ele>151</ele>
        <time>2009-06-07T09:11:47Z</time>
      </trkpt>
      <trkpt lat="48.04508" lon="-0.77257">
        <ele>151</ele>
        <time>2009-06-07T09:11:49Z</time>
      </trkpt>
      <trkpt lat="48.04515" lon="-0.77238">
        <ele>150</ele>
        <time>2009-06-07T09:11:51Z</time>
      </trkpt>
      <trkpt lat="48.04518" lon="-0.77221">
        <ele>149</ele>
        <time>2009-06-07T09:11:53Z</time>
      </trkpt>
      <trkpt lat="48.04525" lon="-0.772">
        <ele>147</ele>
        <time>2009-06-07T09:11:55Z</time>
      </trkpt>
      <trkpt lat="48.04529" lon="-0.77186">
        <ele>145</ele>
        <time>2009-06-07T09:11:57Z</time>
      </trkpt>
      <trkpt lat="48.04533" lon="-0.77175">
        <ele>144</ele>
        <time>2009-06-07T09:11:59Z</time>
      </trkpt>
      <trkpt lat="48.04538" lon="-0.77163">
        <ele>143</ele>
        <time>2009-06-07T09:12:01Z</time>
      </trkpt>
      <trkpt lat="48.04542" lon="-0.77156">
        <ele>145</ele>
        <time>2009-06-07T09:12:03Z</time>
      </trkpt>
      <trkpt lat="48.04553" lon="-0.77143">
        <ele>144</ele>
        <time>2009-06-07T09:12:05Z</time>
      </trkpt>
      <trkpt lat="48.04565" lon="-0.77135">
        <ele>145</ele>
        <time>2009-06-07T09:12:07Z</time>
      </trkpt>
      <trkpt lat="48.0457" lon="-0.77129">
        <ele>144</ele>
        <time>2009-06-07T09:12:09Z</time>
      </trkpt>
      <trkpt lat="48.04572" lon="-0.77122">
        <ele>145</ele>
        <time>2009-06-07T09:12:11Z</time>
      </trkpt>
      <trkpt lat="48.04575" lon="-0.77114">
        <ele>145</ele>
        <time>2009-06-07T09:12:13Z</time>
      </trkpt>
      <trkpt lat="48.04576" lon="-0.77109">
        <ele>143</ele>
        <time>2009-06-07T09:12:15Z</time>
      </trkpt>
      <trkpt lat="48.04581" lon="-0.77101">
        <ele>140</ele>
        <time>2009-06-07T09:12:17Z</time>
      </trkpt>
      <trkpt lat="48.04581" lon="-0.77088">
        <ele>142</ele>
        <time>2009-06-07T09:12:20Z</time>
      </trkpt>
      <trkpt lat="48.04588" lon="-0.77069">
        <ele>133</ele>
        <time>2009-06-07T09:12:22Z</time>
      </trkpt>
      <trkpt lat="48.04589" lon="-0.77057">
        <ele>130</ele>
        <time>2009-06-07T09:12:24Z</time>
      </trkpt>
      <trkpt lat="48.04588" lon="-0.77047">
        <ele>131</ele>
        <time>2009-06-07T09:12:26Z</time>
      </trkpt>
      <trkpt lat="48.04586" lon="-0.77037">
        <ele>132</ele>
        <time>2009-06-07T09:12:28Z</time>
      </trkpt>
      <trkpt lat="48.04583" lon="-0.77033">
        <ele>132</ele>
        <time>2009-06-07T09:12:30Z</time>
      </trkpt>
      <trkpt lat="48.04581" lon="-0.77025">
        <ele>132</ele>
        <time>2009-06-07T09:12:32Z</time>
      </trkpt>
      <trkpt lat="48.04578" lon="-0.77022">
        <ele>132</ele>
        <time>2009-06-07T09:12:34Z</time>
      </trkpt>
      <trkpt lat="48.04575" lon="-0.77019">
        <ele>132</ele>
        <time>2009-06-07T09:12:36Z</time>
      </trkpt>
      <trkpt lat="48.04573" lon="-0.77014">
        <ele>133</ele>
        <time>2009-06-07T09:12:38Z</time>
      </trkpt>
      <trkpt lat="48.04572" lon="-0.77008">
        <ele>132</ele>
        <time>2009-06-07T09:12:40Z</time>
      </trkpt>
      <trkpt lat="48.04574" lon="-0.76998">
        <ele>132</ele>
        <time>2009-06-07T09:12:42Z</time>
      </trkpt>
      <trkpt lat="48.04573" lon="-0.76991">
        <ele>131</ele>
        <time>2009-06-07T09:12:44Z</time>
      </trkpt>
      <trkpt lat="48.04573" lon="-0.76981">
        <ele>132</ele>
        <time>2009-06-07T09:12:46Z</time>
      </trkpt>
      <trkpt lat="48.04573" lon="-0.76976">
        <ele>132</ele>
        <time>2009-06-07T09:12:48Z</time>
      </trkpt>
      <trkpt lat="48.04576" lon="-0.76968">
        <ele>132</ele>
        <time>2009-06-07T09:12:50Z</time>
      </trkpt>
      <trkpt lat="48.04578" lon="-0.76958">
        <ele>131</ele>
        <time>2009-06-07T09:12:52Z</time>
      </trkpt>
      <trkpt lat="48.04578" lon="-0.76949">
        <ele>130</ele>
        <time>2009-06-07T09:12:54Z</time>
      </trkpt>
      <trkpt lat="48.04581" lon="-0.76937">
        <ele>130</ele>
        <time>2009-06-07T09:12:56Z</time>
      </trkpt>
      <trkpt lat="48.04584" lon="-0.76927">
        <ele>129</ele>
        <time>2009-06-07T09:12:58Z</time>
      </trkpt>
      <trkpt lat="48.04585" lon="-0.76915">
        <ele>131</ele>
        <time>2009-06-07T09:13:00Z</time>
      </trkpt>
      <trkpt lat="48.04585" lon="-0.76906">
        <ele>132</ele>
        <time>2009-06-07T09:13:02Z</time>
      </trkpt>
      <trkpt lat="48.04583" lon="-0.76897">
        <ele>132</ele>
        <time>2009-06-07T09:13:04Z</time>
      </trkpt>
      <trkpt lat="48.04582" lon="-0.76887">
        <ele>132</ele>
        <time>2009-06-07T09:13:06Z</time>
      </trkpt>
      <trkpt lat="48.0458" lon="-0.76879">
        <ele>133</ele>
        <time>2009-06-07T09:13:08Z</time>
      </trkpt>
      <trkpt lat="48.04576" lon="-0.76871">
        <ele>132</ele>
        <time>2009-06-07T09:13:10Z</time>
      </trkpt>
      <trkpt lat="48.04574" lon="-0.76865">
        <ele>134</ele>
        <time>2009-06-07T09:13:12Z</time>
      </trkpt>
      <trkpt lat="48.04573" lon="-0.76858">
        <ele>134</ele>
        <time>2009-06-07T09:13:14Z</time>
      </trkpt>
      <trkpt lat="48.04573" lon="-0.76853">
        <ele>134</ele>
        <time>2009-06-07T09:13:16Z</time>
      </trkpt>
      <trkpt lat="48.04572" lon="-0.76847">
        <ele>134</ele>
        <time>2009-06-07T09:13:18Z</time>
      </trkpt>
      <trkpt lat="48.0457" lon="-0.76843">
        <ele>134</ele>
        <time>2009-06-07T09:13:20Z</time>
      </trkpt>
      <trkpt lat="48.04567" lon="-0.76841">
        <ele>133</ele>
        <time>2009-06-07T09:13:22Z</time>
      </trkpt>
      <trkpt lat="48.04565" lon="-0.76838">
        <ele>133</ele>
        <time>2009-06-07T09:13:24Z</time>
      </trkpt>
      <trkpt lat="48.04561" lon="-0.76836">
        <ele>132</ele>
        <time>2009-06-07T09:13:26Z</time>
      </trkpt>
      <trkpt lat="48.04557" lon="-0.76835">
        <ele>133</ele>
        <time>2009-06-07T09:13:28Z</time>
      </trkpt>
      <trkpt lat="48.04554" lon="-0.76832">
        <ele>135</ele>
        <time>2009-06-07T09:13:30Z</time>
      </trkpt>
      <trkpt lat="48.04552" lon="-0.76831">
        <ele>135</ele>
        <time>2009-06-07T09:13:32Z</time>
      </trkpt>
      <trkpt lat="48.04549" lon="-0.76828">
        <ele>135</ele>
        <time>2009-06-07T09:13:34Z</time>
      </trkpt>
      <trkpt lat="48.04548" lon="-0.76827">
        <ele>135</ele>
        <time>2009-06-07T09:13:36Z</time>
      </trkpt>
      <trkpt lat="48.04546" lon="-0.76826">
        <ele>136</ele>
        <time>2009-06-07T09:13:38Z</time>
      </trkpt>
      <trkpt lat="48.04545" lon="-0.76823">
        <ele>135</ele>
        <time>2009-06-07T09:13:40Z</time>
      </trkpt>
      <trkpt lat="48.04544" lon="-0.7682">
        <ele>136</ele>
        <time>2009-06-07T09:13:42Z</time>
      </trkpt>
      <trkpt lat="48.04541" lon="-0.76818">
        <ele>136</ele>
        <time>2009-06-07T09:13:44Z</time>
      </trkpt>
      <trkpt lat="48.04539" lon="-0.76817">
        <ele>137</ele>
        <time>2009-06-07T09:13:46Z</time>
      </trkpt>
      <trkpt lat="48.04535" lon="-0.76815">
        <ele>137</ele>
        <time>2009-06-07T09:13:48Z</time>
      </trkpt>
      <trkpt lat="48.04532" lon="-0.76816">
        <ele>137</ele>
        <time>2009-06-07T09:13:50Z</time>
      </trkpt>
      <trkpt lat="48.04528" lon="-0.76813">
        <ele>138</ele>
        <time>2009-06-07T09:13:52Z</time>
      </trkpt>
      <trkpt lat="48.04525" lon="-0.76813">
        <ele>138</ele>
        <time>2009-06-07T09:13:54Z</time>
      </trkpt>
      <trkpt lat="48.04521" lon="-0.76812">
        <ele>139</ele>
        <time>2009-06-07T09:13:56Z</time>
      </trkpt>
      <trkpt lat="48.04521" lon="-0.76811">
        <ele>141</ele>
        <time>2009-06-07T09:13:58Z</time>
      </trkpt>
      <trkpt lat="48.04517" lon="-0.76807">
        <ele>141</ele>
        <time>2009-06-07T09:14:00Z</time>
      </trkpt>
      <trkpt lat="48.04515" lon="-0.76805">
        <ele>141</ele>
        <time>2009-06-07T09:14:02Z</time>
      </trkpt>
      <trkpt lat="48.04513" lon="-0.76806">
        <ele>141</ele>
        <time>2009-06-07T09:14:04Z</time>
      </trkpt>
      <trkpt lat="48.04509" lon="-0.76798">
        <ele>142</ele>
        <time>2009-06-07T09:14:06Z</time>
      </trkpt>
      <trkpt lat="48.04505" lon="-0.76797">
        <ele>142</ele>
        <time>2009-06-07T09:14:08Z</time>
      </trkpt>
      <trkpt lat="48.04501" lon="-0.76791">
        <ele>143</ele>
        <time>2009-06-07T09:14:10Z</time>
      </trkpt>
      <trkpt lat="48.04497" lon="-0.76789">
        <ele>143</ele>
        <time>2009-06-07T09:14:12Z</time>
      </trkpt>
      <trkpt lat="48.04493" lon="-0.76786">
        <ele>142</ele>
        <time>2009-06-07T09:14:14Z</time>
      </trkpt>
      <trkpt lat="48.04488" lon="-0.76785">
        <ele>143</ele>
        <time>2009-06-07T09:14:16Z</time>
      </trkpt>
      <trkpt lat="48.04483" lon="-0.76785">
        <ele>143</ele>
        <time>2009-06-07T09:14:18Z</time>
      </trkpt>
      <trkpt lat="48.0448" lon="-0.76784">
        <ele>143</ele>
        <time>2009-06-07T09:14:20Z</time>
      </trkpt>
      <trkpt lat="48.04477" lon="-0.76786">
        <ele>143</ele>
        <time>2009-06-07T09:14:22Z</time>
      </trkpt>
      <trkpt lat="48.04473" lon="-0.76786">
        <ele>143</ele>
        <time>2009-06-07T09:14:24Z</time>
      </trkpt>
      <trkpt lat="48.04468" lon="-0.76787">
        <ele>142</ele>
        <time>2009-06-07T09:14:26Z</time>
      </trkpt>
      <trkpt lat="48.04466" lon="-0.76789">
        <ele>143</ele>
        <time>2009-06-07T09:14:28Z</time>
      </trkpt>
      <trkpt lat="48.04465" lon="-0.76793">
        <ele>143</ele>
        <time>2009-06-07T09:14:30Z</time>
      </trkpt>
      <trkpt lat="48.04462" lon="-0.76794">
        <ele>143</ele>
        <time>2009-06-07T09:14:32Z</time>
      </trkpt>
      <trkpt lat="48.04457" lon="-0.76796">
        <ele>144</ele>
        <time>2009-06-07T09:14:34Z</time>
      </trkpt>
      <trkpt lat="48.04449" lon="-0.76798">
        <ele>142</ele>
        <time>2009-06-07T09:14:36Z</time>
      </trkpt>
      <trkpt lat="48.0444" lon="-0.76794">
        <ele>138</ele>
        <time>2009-06-07T09:14:38Z</time>
      </trkpt>
      <trkpt lat="48.04434" lon="-0.76797">
        <ele>137</ele>
        <time>2009-06-07T09:14:40Z</time>
      </trkpt>
      <trkpt lat="48.04428" lon="-0.76804">
        <ele>136</ele>
        <time>2009-06-07T09:14:42Z</time>
      </trkpt>
      <trkpt lat="48.04423" lon="-0.76807">
        <ele>134</ele>
        <time>2009-06-07T09:14:44Z</time>
      </trkpt>
      <trkpt lat="48.04421" lon="-0.76811">
        <ele>134</ele>
        <time>2009-06-07T09:14:46Z</time>
      </trkpt>
      <trkpt lat="48.04418" lon="-0.76815">
        <ele>133</ele>
        <time>2009-06-07T09:14:48Z</time>
      </trkpt>
      <trkpt lat="48.04417" lon="-0.7682">
        <ele>133</ele>
        <time>2009-06-07T09:14:50Z</time>
      </trkpt>
      <trkpt lat="48.04416" lon="-0.76825">
        <ele>133</ele>
        <time>2009-06-07T09:14:52Z</time>
      </trkpt>
      <trkpt lat="48.04415" lon="-0.76831">
        <ele>134</ele>
        <time>2009-06-07T09:14:54Z</time>
      </trkpt>
      <trkpt lat="48.04413" lon="-0.76835">
        <ele>134</ele>
        <time>2009-06-07T09:14:56Z</time>
      </trkpt>
      <trkpt lat="48.04412" lon="-0.76841">
        <ele>134</ele>
        <time>2009-06-07T09:14:58Z</time>
      </trkpt>
      <trkpt lat="48.0441" lon="-0.76844">
        <ele>134</ele>
        <time>2009-06-07T09:15:00Z</time>
      </trkpt>
      <trkpt lat="48.04411" lon="-0.76845">
        <ele>133</ele>
        <time>2009-06-07T09:15:02Z</time>
      </trkpt>
      <trkpt lat="48.04409" lon="-0.76848">
        <ele>133</ele>
        <time>2009-06-07T09:15:04Z</time>
      </trkpt>
      <trkpt lat="48.04406" lon="-0.7685">
        <ele>134</ele>
        <time>2009-06-07T09:15:06Z</time>
      </trkpt>
      <trkpt lat="48.04404" lon="-0.76852">
        <ele>134</ele>
        <time>2009-06-07T09:15:08Z</time>
      </trkpt>
      <trkpt lat="48.04403" lon="-0.76856">
        <ele>134</ele>
        <time>2009-06-07T09:15:10Z</time>
      </trkpt>
      <trkpt lat="48.044" lon="-0.76855">
        <ele>136</ele>
        <time>2009-06-07T09:15:12Z</time>
      </trkpt>
      <trkpt lat="48.04397" lon="-0.76856">
        <ele>138</ele>
        <time>2009-06-07T09:15:14Z</time>
      </trkpt>
      <trkpt lat="48.04397" lon="-0.76858">
        <ele>137</ele>
        <time>2009-06-07T09:15:16Z</time>
      </trkpt>
      <trkpt lat="48.04397" lon="-0.76862">
        <ele>137</ele>
        <time>2009-06-07T09:15:18Z</time>
      </trkpt>
      <trkpt lat="48.04394" lon="-0.76863">
        <ele>137</ele>
        <time>2009-06-07T09:15:20Z</time>
      </trkpt>
      <trkpt lat="48.04394" lon="-0.76863">
        <ele>137</ele>
        <time>2009-06-07T09:15:22Z</time>
      </trkpt>
      <trkpt lat="48.04393" lon="-0.76863">
        <ele>137</ele>
        <time>2009-06-07T09:15:24Z</time>
      </trkpt>
      <trkpt lat="48.04392" lon="-0.76863">
        <ele>137</ele>
        <time>2009-06-07T09:15:26Z</time>
      </trkpt>
      <trkpt lat="48.04393" lon="-0.7686">
        <ele>137</ele>
        <time>2009-06-07T09:15:28Z</time>
      </trkpt>
      <trkpt lat="48.04396" lon="-0.76863">
        <ele>136</ele>
        <time>2009-06-07T09:15:30Z</time>
      </trkpt>
      <trkpt lat="48.04394" lon="-0.76864">
        <ele>136</ele>
        <time>2009-06-07T09:15:32Z</time>
      </trkpt>
      <trkpt lat="48.04393" lon="-0.76868">
        <ele>135</ele>
        <time>2009-06-07T09:15:34Z</time>
      </trkpt>
      <trkpt lat="48.04393" lon="-0.76868">
        <ele>135</ele>
        <time>2009-06-07T09:15:36Z</time>
      </trkpt>
      <trkpt lat="48.04393" lon="-0.7687">
        <ele>135</ele>
        <time>2009-06-07T09:15:38Z</time>
      </trkpt>
      <trkpt lat="48.04393" lon="-0.7687">
        <ele>135</ele>
        <time>2009-06-07T09:15:40Z</time>
      </trkpt>
      <trkpt lat="48.04392" lon="-0.7687">
        <ele>135</ele>
        <time>2009-06-07T09:15:42Z</time>
      </trkpt>
      <trkpt lat="48.04392" lon="-0.7687">
        <ele>135</ele>
        <time>2009-06-07T09:15:44Z</time>
      </trkpt>
      <trkpt lat="48.04393" lon="-0.7687">
        <ele>135</ele>
        <time>2009-06-07T09:15:46Z</time>
      </trkpt>
      <trkpt lat="48.04393" lon="-0.7687">
        <ele>135</ele>
        <time>2009-06-07T09:15:48Z</time>
      </trkpt>
      <trkpt lat="48.04393" lon="-0.7687">
        <ele>135</ele>
        <time>2009-06-07T09:15:50Z</time>
      </trkpt>
      <trkpt lat="48.04393" lon="-0.7687">
        <ele>135</ele>
        <time>2009-06-07T09:15:52Z</time>
      </trkpt>
      <trkpt lat="48.04392" lon="-0.7687">
        <ele>135</ele>
        <time>2009-06-07T09:15:54Z</time>
      </trkpt>
      <trkpt lat="48.04391" lon="-0.76869">
        <ele>135</ele>
        <time>2009-06-07T09:15:56Z</time>
      </trkpt>
      <trkpt lat="48.04391" lon="-0.76869">
        <ele>135</ele>
        <time>2009-06-07T09:15:58Z</time>
      </trkpt>
      <trkpt lat="48.0439" lon="-0.76867">
        <ele>135</ele>
        <time>2009-06-07T09:16:00Z</time>
      </trkpt>
      <trkpt lat="48.04388" lon="-0.76865">
        <ele>135</ele>
        <time>2009-06-07T09:16:02Z</time>
      </trkpt>
      <trkpt lat="48.04389" lon="-0.76865">
        <ele>135</ele>
        <time>2009-06-07T09:16:04Z</time>
      </trkpt>
      <trkpt lat="48.04389" lon="-0.76863">
        <ele>135</ele>
        <time>2009-06-07T09:16:06Z</time>
      </trkpt>
      <trkpt lat="48.0439" lon="-0.76865">
        <ele>135</ele>
        <time>2009-06-07T09:16:08Z</time>
      </trkpt>
      <trkpt lat="48.04389" lon="-0.76863">
        <ele>135</ele>
        <time>2009-06-07T09:16:10Z</time>
      </trkpt>
      <trkpt lat="48.04388" lon="-0.76863">
        <ele>135</ele>
        <time>2009-06-07T09:16:12Z</time>
      </trkpt>
      <trkpt lat="48.04389" lon="-0.76863">
        <ele>135</ele>
        <time>2009-06-07T09:16:14Z</time>
      </trkpt>
      <trkpt lat="48.04389" lon="-0.76863">
        <ele>135</ele>
        <time>2009-06-07T09:16:16Z</time>
      </trkpt>
      <trkpt lat="48.04389" lon="-0.76863">
        <ele>135</ele>
        <time>2009-06-07T09:16:18Z</time>
      </trkpt>
      <trkpt lat="48.04388" lon="-0.76862">
        <ele>135</ele>
        <time>2009-06-07T09:16:20Z</time>
      </trkpt>
      <trkpt lat="48.04387" lon="-0.76861">
        <ele>135</ele>
        <time>2009-06-07T09:16:22Z</time>
      </trkpt>
      <trkpt lat="48.04387" lon="-0.76861">
        <ele>135</ele>
        <time>2009-06-07T09:16:24Z</time>
      </trkpt>
      <trkpt lat="48.04387" lon="-0.76859">
        <ele>135</ele>
        <time>2009-06-07T09:16:26Z</time>
      </trkpt>
      <trkpt lat="48.04387" lon="-0.76859">
        <ele>135</ele>
        <time>2009-06-07T09:16:28Z</time>
      </trkpt>
      <trkpt lat="48.04387" lon="-0.76859">
        <ele>135</ele>
        <time>2009-06-07T09:16:30Z</time>
      </trkpt>
      <trkpt lat="48.04386" lon="-0.76858">
        <ele>135</ele>
        <time>2009-06-07T09:16:32Z</time>
      </trkpt>
      <trkpt lat="48.04386" lon="-0.76858">
        <ele>135</ele>
        <time>2009-06-07T09:16:34Z</time>
      </trkpt>
      <trkpt lat="48.04386" lon="-0.76857">
        <ele>135</ele>
        <time>2009-06-07T09:16:36Z</time>
      </trkpt>
      <trkpt lat="48.04384" lon="-0.76854">
        <ele>136</ele>
        <time>2009-06-07T09:16:38Z</time>
      </trkpt>
      <trkpt lat="48.04383" lon="-0.76854">
        <ele>136</ele>
        <time>2009-06-07T09:16:40Z</time>
      </trkpt>
      <trkpt lat="48.04384" lon="-0.76853">
        <ele>136</ele>
        <time>2009-06-07T09:16:42Z</time>
      </trkpt>
      <trkpt lat="48.04384" lon="-0.76851">
        <ele>136</ele>
        <time>2009-06-07T09:16:44Z</time>
      </trkpt>
      <trkpt lat="48.04384" lon="-0.76851">
        <ele>136</ele>
        <time>2009-06-07T09:16:46Z</time>
      </trkpt>
      <trkpt lat="48.04383" lon="-0.7685">
        <ele>136</ele>
        <time>2009-06-07T09:16:48Z</time>
      </trkpt>
      <trkpt lat="48.04383" lon="-0.7685">
        <ele>137</ele>
        <time>2009-06-07T09:16:50Z</time>
      </trkpt>
      <trkpt lat="48.04383" lon="-0.7685">
        <ele>137</ele>
        <time>2009-06-07T09:16:52Z</time>
      </trkpt>
      <trkpt lat="48.04383" lon="-0.7685">
        <ele>137</ele>
        <time>2009-06-07T09:16:54Z</time>
      </trkpt>
      <trkpt lat="48.04383" lon="-0.7685">
        <ele>137</ele>
        <time>2009-06-07T09:16:56Z</time>
      </trkpt>
      <trkpt lat="48.04383" lon="-0.76849">
        <ele>138</ele>
        <time>2009-06-07T09:16:58Z</time>
      </trkpt>
      <trkpt lat="48.04383" lon="-0.76849">
        <ele>138</ele>
        <time>2009-06-07T09:17:00Z</time>
      </trkpt>
      <trkpt lat="48.04383" lon="-0.76849">
        <ele>138</ele>
        <time>2009-06-07T09:17:02Z</time>
      </trkpt>
      <trkpt lat="48.04383" lon="-0.76847">
        <ele>138</ele>
        <time>2009-06-07T09:17:04Z</time>
      </trkpt>
      <trkpt lat="48.04383" lon="-0.76847">
        <ele>138</ele>
        <time>2009-06-07T09:17:06Z</time>
      </trkpt>
      <trkpt lat="48.04383" lon="-0.76846">
        <ele>138</ele>
        <time>2009-06-07T09:17:08Z</time>
      </trkpt>
      <trkpt lat="48.04383" lon="-0.76846">
        <ele>138</ele>
        <time>2009-06-07T09:17:10Z</time>
      </trkpt>
      <trkpt lat="48.04383" lon="-0.76846">
        <ele>138</ele>
        <time>2009-06-07T09:17:12Z</time>
      </trkpt>
      <trkpt lat="48.04384" lon="-0.76846">
        <ele>138</ele>
        <time>2009-06-07T09:17:14Z</time>
      </trkpt>
      <trkpt lat="48.04383" lon="-0.76845">
        <ele>138</ele>
        <time>2009-06-07T09:17:16Z</time>
      </trkpt>
      <trkpt lat="48.04383" lon="-0.76845">
        <ele>137</ele>
        <time>2009-06-07T09:17:18Z</time>
      </trkpt>
      <trkpt lat="48.04382" lon="-0.76843">
        <ele>138</ele>
        <time>2009-06-07T09:17:20Z</time>
      </trkpt>
      <trkpt lat="48.04382" lon="-0.76842">
        <ele>138</ele>
        <time>2009-06-07T09:17:22Z</time>
      </trkpt>
      <trkpt lat="48.04382" lon="-0.76841">
        <ele>138</ele>
        <time>2009-06-07T09:17:24Z</time>
      </trkpt>
      <trkpt lat="48.04382" lon="-0.76841">
        <ele>139</ele>
        <time>2009-06-07T09:17:26Z</time>
      </trkpt>
      <trkpt lat="48.04382" lon="-0.76841">
        <ele>139</ele>
        <time>2009-06-07T09:17:28Z</time>
      </trkpt>
      <trkpt lat="48.04382" lon="-0.76841">
        <ele>139</ele>
        <time>2009-06-07T09:17:30Z</time>
      </trkpt>
      <trkpt lat="48.04382" lon="-0.76841">
        <ele>139</ele>
        <time>2009-06-07T09:17:32Z</time>
      </trkpt>
      <trkpt lat="48.04383" lon="-0.76841">
        <ele>139</ele>
        <time>2009-06-07T09:17:34Z</time>
      </trkpt>
      <trkpt lat="48.04383" lon="-0.76839">
        <ele>139</ele>
        <time>2009-06-07T09:17:36Z</time>
      </trkpt>
      <trkpt lat="48.04383" lon="-0.76838">
        <ele>139</ele>
        <time>2009-06-07T09:17:38Z</time>
      </trkpt>
      <trkpt lat="48.04384" lon="-0.76838">
        <ele>138</ele>
        <time>2009-06-07T09:17:40Z</time>
      </trkpt>
      <trkpt lat="48.04383" lon="-0.76837">
        <ele>138</ele>
        <time>2009-06-07T09:17:42Z</time>
      </trkpt>
      <trkpt lat="48.04383" lon="-0.76837">
        <ele>138</ele>
        <time>2009-06-07T09:17:44Z</time>
      </trkpt>
      <trkpt lat="48.04383" lon="-0.76835">
        <ele>138</ele>
        <time>2009-06-07T09:17:46Z</time>
      </trkpt>
      <trkpt lat="48.04383" lon="-0.76834">
        <ele>137</ele>
        <time>2009-06-07T09:17:48Z</time>
      </trkpt>
      <trkpt lat="48.04383" lon="-0.76833">
        <ele>138</ele>
        <time>2009-06-07T09:17:50Z</time>
      </trkpt>
      <trkpt lat="48.04383" lon="-0.76833">
        <ele>138</ele>
        <time>2009-06-07T09:17:52Z</time>
      </trkpt>
      <trkpt lat="48.04383" lon="-0.76831">
        <ele>137</ele>
        <time>2009-06-07T09:17:54Z</time>
      </trkpt>
      <trkpt lat="48.04383" lon="-0.76831">
        <ele>137</ele>
        <time>2009-06-07T09:17:56Z</time>
      </trkpt>
      <trkpt lat="48.04383" lon="-0.7683">
        <ele>138</ele>
        <time>2009-06-07T09:17:58Z</time>
      </trkpt>
      <trkpt lat="48.04383" lon="-0.76829">
        <ele>139</ele>
        <time>2009-06-07T09:18:00Z</time>
      </trkpt>
      <trkpt lat="48.04368" lon="-0.76743">
        <ele>135</ele>
        <time>2009-06-07T09:18:02Z</time>
      </trkpt>
      <trkpt lat="48.04369" lon="-0.76739">
        <ele>135</ele>
        <time>2009-06-07T09:18:04Z</time>
      </trkpt>
      <trkpt lat="48.04372" lon="-0.76739">
        <ele>136</ele>
        <time>2009-06-07T09:18:06Z</time>
      </trkpt>
      <trkpt lat="48.04372" lon="-0.76739">
        <ele>136</ele>
        <time>2009-06-07T09:18:08Z</time>
      </trkpt>
      <trkpt lat="48.04374" lon="-0.76742">
        <ele>136</ele>
        <time>2009-06-07T09:18:10Z</time>
      </trkpt>
      <trkpt lat="48.04374" lon="-0.76738">
        <ele>136</ele>
        <time>2009-06-07T09:18:12Z</time>
      </trkpt>
      <trkpt lat="48.04375" lon="-0.76742">
        <ele>136</ele>
        <time>2009-06-07T09:18:14Z</time>
      </trkpt>
      <trkpt lat="48.04374" lon="-0.76743">
        <ele>135</ele>
        <time>2009-06-07T09:18:16Z</time>
      </trkpt>
      <trkpt lat="48.04377" lon="-0.76743">
        <ele>136</ele>
        <time>2009-06-07T09:18:18Z</time>
      </trkpt>
      <trkpt lat="48.04378" lon="-0.76744">
        <ele>136</ele>
        <time>2009-06-07T09:18:20Z</time>
      </trkpt>
      <trkpt lat="48.04379" lon="-0.76742">
        <ele>136</ele>
        <time>2009-06-07T09:18:22Z</time>
      </trkpt>
      <trkpt lat="48.04378" lon="-0.76739">
        <ele>136</ele>
        <time>2009-06-07T09:18:24Z</time>
      </trkpt>
      <trkpt lat="48.04379" lon="-0.76742">
        <ele>136</ele>
        <time>2009-06-07T09:18:26Z</time>
      </trkpt>
      <trkpt lat="48.04381" lon="-0.76743">
        <ele>137</ele>
        <time>2009-06-07T09:18:28Z</time>
      </trkpt>
      <trkpt lat="48.04383" lon="-0.76743">
        <ele>137</ele>
        <time>2009-06-07T09:18:30Z</time>
      </trkpt>
      <trkpt lat="48.04382" lon="-0.76741">
        <ele>137</ele>
        <time>2009-06-07T09:18:32Z</time>
      </trkpt>
      <trkpt lat="48.04381" lon="-0.7674">
        <ele>136</ele>
        <time>2009-06-07T09:18:34Z</time>
      </trkpt>
      <trkpt lat="48.04378" lon="-0.76739">
        <ele>135</ele>
        <time>2009-06-07T09:18:36Z</time>
      </trkpt>
      <trkpt lat="48.04378" lon="-0.76738">
        <ele>135</ele>
        <time>2009-06-07T09:18:38Z</time>
      </trkpt>
      <trkpt lat="48.04378" lon="-0.76738">
        <ele>135</ele>
        <time>2009-06-07T09:18:40Z</time>
      </trkpt>
      <trkpt lat="48.04378" lon="-0.76738">
        <ele>135</ele>
        <time>2009-06-07T09:18:42Z</time>
      </trkpt>
      <trkpt lat="48.04378" lon="-0.76739">
        <ele>135</ele>
        <time>2009-06-07T09:18:44Z</time>
      </trkpt>
      <trkpt lat="48.04378" lon="-0.76739">
        <ele>135</ele>
        <time>2009-06-07T09:18:46Z</time>
      </trkpt>
      <trkpt lat="48.04378" lon="-0.76738">
        <ele>134</ele>
        <time>2009-06-07T09:18:48Z</time>
      </trkpt>
      <trkpt lat="48.04376" lon="-0.76736">
        <ele>135</ele>
        <time>2009-06-07T09:18:50Z</time>
      </trkpt>
      <trkpt lat="48.04376" lon="-0.76738">
        <ele>135</ele>
        <time>2009-06-07T09:18:52Z</time>
      </trkpt>
      <trkpt lat="48.04376" lon="-0.76736">
        <ele>134</ele>
        <time>2009-06-07T09:18:54Z</time>
      </trkpt>
      <trkpt lat="48.04376" lon="-0.76736">
        <ele>134</ele>
        <time>2009-06-07T09:18:56Z</time>
      </trkpt>
      <trkpt lat="48.04375" lon="-0.76736">
        <ele>134</ele>
        <time>2009-06-07T09:18:58Z</time>
      </trkpt>
      <trkpt lat="48.04375" lon="-0.76736">
        <ele>134</ele>
        <time>2009-06-07T09:19:00Z</time>
      </trkpt>
      <trkpt lat="48.04377" lon="-0.76738">
        <ele>133</ele>
        <time>2009-06-07T09:19:02Z</time>
      </trkpt>
      <trkpt lat="48.04377" lon="-0.76738">
        <ele>133</ele>
        <time>2009-06-07T09:19:04Z</time>
      </trkpt>
      <trkpt lat="48.04377" lon="-0.76738">
        <ele>133</ele>
        <time>2009-06-07T09:19:06Z</time>
      </trkpt>
      <trkpt lat="48.04377" lon="-0.76738">
        <ele>133</ele>
        <time>2009-06-07T09:19:08Z</time>
      </trkpt>
      <trkpt lat="48.04378" lon="-0.76736">
        <ele>133</ele>
        <time>2009-06-07T09:19:10Z</time>
      </trkpt>
      <trkpt lat="48.04378" lon="-0.76736">
        <ele>133</ele>
        <time>2009-06-07T09:19:12Z</time>
      </trkpt>
      <trkpt lat="48.04379" lon="-0.76736">
        <ele>133</ele>
        <time>2009-06-07T09:19:14Z</time>
      </trkpt>
      <trkpt lat="48.04379" lon="-0.76736">
        <ele>133</ele>
        <time>2009-06-07T09:19:16Z</time>
      </trkpt>
      <trkpt lat="48.04379" lon="-0.76736">
        <ele>133</ele>
        <time>2009-06-07T09:19:18Z</time>
      </trkpt>
      <trkpt lat="48.0438" lon="-0.76738">
        <ele>133</ele>
        <time>2009-06-07T09:19:20Z</time>
      </trkpt>
      <trkpt lat="48.0438" lon="-0.76738">
        <ele>133</ele>
        <time>2009-06-07T09:19:22Z</time>
      </trkpt>
      <trkpt lat="48.04383" lon="-0.76737">
        <ele>135</ele>
        <time>2009-06-07T09:19:24Z</time>
      </trkpt>
      <trkpt lat="48.04383" lon="-0.76737">
        <ele>135</ele>
        <time>2009-06-07T09:19:26Z</time>
      </trkpt>
      <trkpt lat="48.04383" lon="-0.76737">
        <ele>135</ele>
        <time>2009-06-07T09:19:28Z</time>
      </trkpt>
      <trkpt lat="48.04383" lon="-0.76737">
        <ele>135</ele>
        <time>2009-06-07T09:19:30Z</time>
      </trkpt>
      <trkpt lat="48.04383" lon="-0.76739">
        <ele>135</ele>
        <time>2009-06-07T09:19:32Z</time>
      </trkpt>
      <trkpt lat="48.04383" lon="-0.76739">
        <ele>135</ele>
        <time>2009-06-07T09:19:34Z</time>
      </trkpt>
      <trkpt lat="48.04383" lon="-0.76739">
        <ele>135</ele>
        <time>2009-06-07T09:19:36Z</time>
      </trkpt>
      <trkpt lat="48.04385" lon="-0.7674">
        <ele>135</ele>
        <time>2009-06-07T09:19:38Z</time>
      </trkpt>
      <trkpt lat="48.04385" lon="-0.76741">
        <ele>135</ele>
        <time>2009-06-07T09:19:40Z</time>
      </trkpt>
      <trkpt lat="48.04385" lon="-0.76741">
        <ele>135</ele>
        <time>2009-06-07T09:19:42Z</time>
      </trkpt>
      <trkpt lat="48.04385" lon="-0.76744">
        <ele>137</ele>
        <time>2009-06-07T09:19:44Z</time>
      </trkpt>
      <trkpt lat="48.04387" lon="-0.76747">
        <ele>136</ele>
        <time>2009-06-07T09:19:46Z</time>
      </trkpt>
      <trkpt lat="48.04387" lon="-0.76748">
        <ele>136</ele>
        <time>2009-06-07T09:19:48Z</time>
      </trkpt>
      <trkpt lat="48.04387" lon="-0.76748">
        <ele>136</ele>
        <time>2009-06-07T09:19:50Z</time>
      </trkpt>
      <trkpt lat="48.04387" lon="-0.76748">
        <ele>136</ele>
        <time>2009-06-07T09:19:52Z</time>
      </trkpt>
      <trkpt lat="48.04387" lon="-0.76749">
        <ele>135</ele>
        <time>2009-06-07T09:19:54Z</time>
      </trkpt>
      <trkpt lat="48.04387" lon="-0.76749">
        <ele>135</ele>
        <time>2009-06-07T09:19:56Z</time>
      </trkpt>
      <trkpt lat="48.04387" lon="-0.76749">
        <ele>135</ele>
        <time>2009-06-07T09:19:58Z</time>
      </trkpt>
      <trkpt lat="48.04387" lon="-0.76749">
        <ele>135</ele>
        <time>2009-06-07T09:20:00Z</time>
      </trkpt>
      <trkpt lat="48.04387" lon="-0.76749">
        <ele>135</ele>
        <time>2009-06-07T09:20:02Z</time>
      </trkpt>
      <trkpt lat="48.04388" lon="-0.76751">
        <ele>134</ele>
        <time>2009-06-07T09:20:04Z</time>
      </trkpt>
      <trkpt lat="48.04389" lon="-0.76752">
        <ele>133</ele>
        <time>2009-06-07T09:20:06Z</time>
      </trkpt>
      <trkpt lat="48.04389" lon="-0.76752">
        <ele>133</ele>
        <time>2009-06-07T09:20:08Z</time>
      </trkpt>
      <trkpt lat="48.0439" lon="-0.76753">
        <ele>133</ele>
        <time>2009-06-07T09:20:10Z</time>
      </trkpt>
      <trkpt lat="48.0439" lon="-0.76753">
        <ele>133</ele>
        <time>2009-06-07T09:20:12Z</time>
      </trkpt>
      <trkpt lat="48.0439" lon="-0.76753">
        <ele>133</ele>
        <time>2009-06-07T09:20:14Z</time>
      </trkpt>
      <trkpt lat="48.0439" lon="-0.76755">
        <ele>133</ele>
        <time>2009-06-07T09:20:16Z</time>
      </trkpt>
      <trkpt lat="48.0439" lon="-0.76755">
        <ele>133</ele>
        <time>2009-06-07T09:20:18Z</time>
      </trkpt>
      <trkpt lat="48.0439" lon="-0.76755">
        <ele>134</ele>
        <time>2009-06-07T09:20:20Z</time>
      </trkpt>
      <trkpt lat="48.0439" lon="-0.76755">
        <ele>134</ele>
        <time>2009-06-07T09:20:22Z</time>
      </trkpt>
      <trkpt lat="48.0439" lon="-0.76755">
        <ele>134</ele>
        <time>2009-06-07T09:20:24Z</time>
      </trkpt>
      <trkpt lat="48.04389" lon="-0.76755">
        <ele>134</ele>
        <time>2009-06-07T09:20:26Z</time>
      </trkpt>
      <trkpt lat="48.0439" lon="-0.76756">
        <ele>134</ele>
        <time>2009-06-07T09:20:28Z</time>
      </trkpt>
      <trkpt lat="48.0439" lon="-0.76757">
        <ele>134</ele>
        <time>2009-06-07T09:20:30Z</time>
      </trkpt>
      <trkpt lat="48.0439" lon="-0.76757">
        <ele>134</ele>
        <time>2009-06-07T09:20:32Z</time>
      </trkpt>
      <trkpt lat="48.0439" lon="-0.76757">
        <ele>134</ele>
        <time>2009-06-07T09:20:34Z</time>
      </trkpt>
      <trkpt lat="48.0439" lon="-0.76759">
        <ele>134</ele>
        <time>2009-06-07T09:20:36Z</time>
      </trkpt>
      <trkpt lat="48.04391" lon="-0.7676">
        <ele>134</ele>
        <time>2009-06-07T09:20:38Z</time>
      </trkpt>
      <trkpt lat="48.04391" lon="-0.76761">
        <ele>134</ele>
        <time>2009-06-07T09:20:40Z</time>
      </trkpt>
      <trkpt lat="48.04393" lon="-0.76764">
        <ele>133</ele>
        <time>2009-06-07T09:20:42Z</time>
      </trkpt>
      <trkpt lat="48.04395" lon="-0.76766">
        <ele>132</ele>
        <time>2009-06-07T09:20:44Z</time>
      </trkpt>
      <trkpt lat="48.04396" lon="-0.76769">
        <ele>130</ele>
        <time>2009-06-07T09:20:46Z</time>
      </trkpt>
      <trkpt lat="48.04398" lon="-0.76772">
        <ele>129</ele>
        <time>2009-06-07T09:20:48Z</time>
      </trkpt>
      <trkpt lat="48.04399" lon="-0.76773">
        <ele>129</ele>
        <time>2009-06-07T09:20:50Z</time>
      </trkpt>
      <trkpt lat="48.04399" lon="-0.76774">
        <ele>129</ele>
        <time>2009-06-07T09:20:52Z</time>
      </trkpt>
      <trkpt lat="48.04399" lon="-0.76774">
        <ele>129</ele>
        <time>2009-06-07T09:20:54Z</time>
      </trkpt>
      <trkpt lat="48.04399" lon="-0.76774">
        <ele>130</ele>
        <time>2009-06-07T09:20:56Z</time>
      </trkpt>
      <trkpt lat="48.04399" lon="-0.76774">
        <ele>131</ele>
        <time>2009-06-07T09:20:58Z</time>
      </trkpt>
      <trkpt lat="48.04399" lon="-0.76774">
        <ele>131</ele>
        <time>2009-06-07T09:21:00Z</time>
      </trkpt>
      <trkpt lat="48.04399" lon="-0.76776">
        <ele>132</ele>
        <time>2009-06-07T09:21:02Z</time>
      </trkpt>
      <trkpt lat="48.04399" lon="-0.76776">
        <ele>132</ele>
        <time>2009-06-07T09:21:04Z</time>
      </trkpt>
      <trkpt lat="48.04399" lon="-0.76776">
        <ele>132</ele>
        <time>2009-06-07T09:21:06Z</time>
      </trkpt>
      <trkpt lat="48.04399" lon="-0.76776">
        <ele>133</ele>
        <time>2009-06-07T09:21:08Z</time>
      </trkpt>
      <trkpt lat="48.04399" lon="-0.76776">
        <ele>134</ele>
        <time>2009-06-07T09:21:10Z</time>
      </trkpt>
      <trkpt lat="48.04399" lon="-0.76777">
        <ele>134</ele>
        <time>2009-06-07T09:21:12Z</time>
      </trkpt>
      <trkpt lat="48.04399" lon="-0.76777">
        <ele>134</ele>
        <time>2009-06-07T09:21:14Z</time>
      </trkpt>
      <trkpt lat="48.04399" lon="-0.76777">
        <ele>134</ele>
        <time>2009-06-07T09:21:16Z</time>
      </trkpt>
      <trkpt lat="48.04399" lon="-0.76777">
        <ele>134</ele>
        <time>2009-06-07T09:21:18Z</time>
      </trkpt>
      <trkpt lat="48.04399" lon="-0.76777">
        <ele>134</ele>
        <time>2009-06-07T09:21:20Z</time>
      </trkpt>
      <trkpt lat="48.04399" lon="-0.76778">
        <ele>134</ele>
        <time>2009-06-07T09:21:22Z</time>
      </trkpt>
      <trkpt lat="48.04398" lon="-0.76778">
        <ele>134</ele>
        <time>2009-06-07T09:21:24Z</time>
      </trkpt>
      <trkpt lat="48.04398" lon="-0.76778">
        <ele>134</ele>
        <time>2009-06-07T09:21:26Z</time>
      </trkpt>
      <trkpt lat="48.04398" lon="-0.76778">
        <ele>135</ele>
        <time>2009-06-07T09:21:28Z</time>
      </trkpt>
      <trkpt lat="48.04398" lon="-0.7678">
        <ele>135</ele>
        <time>2009-06-07T09:21:30Z</time>
      </trkpt>
      <trkpt lat="48.04397" lon="-0.7678">
        <ele>136</ele>
        <time>2009-06-07T09:21:32Z</time>
      </trkpt>
      <trkpt lat="48.04397" lon="-0.7678">
        <ele>135</ele>
        <time>2009-06-07T09:21:34Z</time>
      </trkpt>
      <trkpt lat="48.04395" lon="-0.76825">
        <ele>140</ele>
        <time>2009-06-07T09:21:36Z</time>
      </trkpt>
      <trkpt lat="48.04394" lon="-0.76827">
        <ele>141</ele>
        <time>2009-06-07T09:21:38Z</time>
      </trkpt>
      <trkpt lat="48.04393" lon="-0.7683">
        <ele>141</ele>
        <time>2009-06-07T09:21:40Z</time>
      </trkpt>
      <trkpt lat="48.04395" lon="-0.76834">
        <ele>141</ele>
        <time>2009-06-07T09:21:42Z</time>
      </trkpt>
      <trkpt lat="48.04395" lon="-0.76835">
        <ele>140</ele>
        <time>2009-06-07T09:21:44Z</time>
      </trkpt>
      <trkpt lat="48.04395" lon="-0.76842">
        <ele>140</ele>
        <time>2009-06-07T09:21:46Z</time>
      </trkpt>
      <trkpt lat="48.04396" lon="-0.76844">
        <ele>140</ele>
        <time>2009-06-07T09:21:48Z</time>
      </trkpt>
      <trkpt lat="48.04396" lon="-0.76848">
        <ele>140</ele>
        <time>2009-06-07T09:21:50Z</time>
      </trkpt>
      <trkpt lat="48.04398" lon="-0.76851">
        <ele>140</ele>
        <time>2009-06-07T09:21:52Z</time>
      </trkpt>
      <trkpt lat="48.04398" lon="-0.76852">
        <ele>140</ele>
        <time>2009-06-07T09:21:54Z</time>
      </trkpt>
      <trkpt lat="48.04398" lon="-0.76854">
        <ele>141</ele>
        <time>2009-06-07T09:21:56Z</time>
      </trkpt>
      <trkpt lat="48.04398" lon="-0.76853">
        <ele>141</ele>
        <time>2009-06-07T09:21:58Z</time>
      </trkpt>
      <trkpt lat="48.04398" lon="-0.7686">
        <ele>141</ele>
        <time>2009-06-07T09:22:00Z</time>
      </trkpt>
      <trkpt lat="48.04399" lon="-0.76863">
        <ele>141</ele>
        <time>2009-06-07T09:22:02Z</time>
      </trkpt>
      <trkpt lat="48.04398" lon="-0.76867">
        <ele>141</ele>
        <time>2009-06-07T09:22:04Z</time>
      </trkpt>
      <trkpt lat="48.04399" lon="-0.76882">
        <ele>141</ele>
        <time>2009-06-07T09:22:06Z</time>
      </trkpt>
      <trkpt lat="48.04398" lon="-0.76879">
        <ele>141</ele>
        <time>2009-06-07T09:22:08Z</time>
      </trkpt>
      <trkpt lat="48.04393" lon="-0.76877">
        <ele>141</ele>
        <time>2009-06-07T09:22:10Z</time>
      </trkpt>
      <trkpt lat="48.04395" lon="-0.76874">
        <ele>141</ele>
        <time>2009-06-07T09:22:12Z</time>
      </trkpt>
      <trkpt lat="48.04395" lon="-0.76882">
        <ele>141</ele>
        <time>2009-06-07T09:22:14Z</time>
      </trkpt>
      <trkpt lat="48.04385" lon="-0.7689">
        <ele>141</ele>
        <time>2009-06-07T09:22:16Z</time>
      </trkpt>
      <trkpt lat="48.04383" lon="-0.76894">
        <ele>141</ele>
        <time>2009-06-07T09:22:18Z</time>
      </trkpt>
      <trkpt lat="48.04381" lon="-0.76899">
        <ele>141</ele>
        <time>2009-06-07T09:22:20Z</time>
      </trkpt>
      <trkpt lat="48.0438" lon="-0.76904">
        <ele>141</ele>
        <time>2009-06-07T09:22:22Z</time>
      </trkpt>
      <trkpt lat="48.04378" lon="-0.76907">
        <ele>141</ele>
        <time>2009-06-07T09:22:24Z</time>
      </trkpt>
      <trkpt lat="48.04373" lon="-0.76916">
        <ele>141</ele>
        <time>2009-06-07T09:22:26Z</time>
      </trkpt>
      <trkpt lat="48.04371" lon="-0.7692">
        <ele>142</ele>
        <time>2009-06-07T09:22:28Z</time>
      </trkpt>
      <trkpt lat="48.04369" lon="-0.76929">
        <ele>142</ele>
        <time>2009-06-07T09:22:30Z</time>
      </trkpt>
      <trkpt lat="48.0437" lon="-0.76937">
        <ele>142</ele>
        <time>2009-06-07T09:22:32Z</time>
      </trkpt>
      <trkpt lat="48.04371" lon="-0.76942">
        <ele>142</ele>
        <time>2009-06-07T09:22:34Z</time>
      </trkpt>
      <trkpt lat="48.0437" lon="-0.76947">
        <ele>143</ele>
        <time>2009-06-07T09:22:36Z</time>
      </trkpt>
      <trkpt lat="48.04372" lon="-0.76957">
        <ele>143</ele>
        <time>2009-06-07T09:22:38Z</time>
      </trkpt>
      <trkpt lat="48.04374" lon="-0.76963">
        <ele>143</ele>
        <time>2009-06-07T09:22:40Z</time>
      </trkpt>
      <trkpt lat="48.04372" lon="-0.76963">
        <ele>142</ele>
        <time>2009-06-07T09:22:42Z</time>
      </trkpt>
      <trkpt lat="48.04371" lon="-0.76963">
        <ele>143</ele>
        <time>2009-06-07T09:22:44Z</time>
      </trkpt>
      <trkpt lat="48.04374" lon="-0.76969">
        <ele>142</ele>
        <time>2009-06-07T09:22:46Z</time>
      </trkpt>
      <trkpt lat="48.04386" lon="-0.76986">
        <ele>141</ele>
        <time>2009-06-07T09:22:48Z</time>
      </trkpt>
      <trkpt lat="48.04387" lon="-0.76987">
        <ele>141</ele>
        <time>2009-06-07T09:22:50Z</time>
      </trkpt>
      <trkpt lat="48.04384" lon="-0.76988">
        <ele>142</ele>
        <time>2009-06-07T09:22:52Z</time>
      </trkpt>
      <trkpt lat="48.04381" lon="-0.76991">
        <ele>143</ele>
        <time>2009-06-07T09:22:54Z</time>
      </trkpt>
      <trkpt lat="48.0438" lon="-0.76992">
        <ele>143</ele>
        <time>2009-06-07T09:22:56Z</time>
      </trkpt>
      <trkpt lat="48.04379" lon="-0.76994">
        <ele>144</ele>
        <time>2009-06-07T09:22:58Z</time>
      </trkpt>
      <trkpt lat="48.04377" lon="-0.76993">
        <ele>144</ele>
        <time>2009-06-07T09:23:00Z</time>
      </trkpt>
      <trkpt lat="48.04379" lon="-0.76993">
        <ele>144</ele>
        <time>2009-06-07T09:23:02Z</time>
      </trkpt>
      <trkpt lat="48.0438" lon="-0.76993">
        <ele>144</ele>
        <time>2009-06-07T09:23:04Z</time>
      </trkpt>
      <trkpt lat="48.0438" lon="-0.76994">
        <ele>144</ele>
        <time>2009-06-07T09:23:06Z</time>
      </trkpt>
      <trkpt lat="48.0438" lon="-0.76995">
        <ele>144</ele>
        <time>2009-06-07T09:23:08Z</time>
      </trkpt>
      <trkpt lat="48.04385" lon="-0.76999">
        <ele>144</ele>
        <time>2009-06-07T09:23:10Z</time>
      </trkpt>
      <trkpt lat="48.04387" lon="-0.77">
        <ele>144</ele>
        <time>2009-06-07T09:23:12Z</time>
      </trkpt>
      <trkpt lat="48.04388" lon="-0.77">
        <ele>144</ele>
        <time>2009-06-07T09:23:14Z</time>
      </trkpt>
      <trkpt lat="48.04389" lon="-0.77">
        <ele>144</ele>
        <time>2009-06-07T09:23:16Z</time>
      </trkpt>
      <trkpt lat="48.04389" lon="-0.77">
        <ele>143</ele>
        <time>2009-06-07T09:23:18Z</time>
      </trkpt>
      <trkpt lat="48.04388" lon="-0.77002">
        <ele>143</ele>
        <time>2009-06-07T09:23:20Z</time>
      </trkpt>
      <trkpt lat="48.04388" lon="-0.77002">
        <ele>143</ele>
        <time>2009-06-07T09:23:22Z</time>
      </trkpt>
      <trkpt lat="48.04388" lon="-0.77002">
        <ele>143</ele>
        <time>2009-06-07T09:23:24Z</time>
      </trkpt>
      <trkpt lat="48.04388" lon="-0.77002">
        <ele>143</ele>
        <time>2009-06-07T09:23:26Z</time>
      </trkpt>
      <trkpt lat="48.04388" lon="-0.77002">
        <ele>142</ele>
        <time>2009-06-07T09:23:28Z</time>
      </trkpt>
      <trkpt lat="48.04388" lon="-0.77002">
        <ele>142</ele>
        <time>2009-06-07T09:23:30Z</time>
      </trkpt>
      <trkpt lat="48.04388" lon="-0.77003">
        <ele>143</ele>
        <time>2009-06-07T09:23:32Z</time>
      </trkpt>
      <trkpt lat="48.04387" lon="-0.77003">
        <ele>143</ele>
        <time>2009-06-07T09:23:34Z</time>
      </trkpt>
      <trkpt lat="48.04386" lon="-0.77003">
        <ele>143</ele>
        <time>2009-06-07T09:23:36Z</time>
      </trkpt>
      <trkpt lat="48.04385" lon="-0.77003">
        <ele>142</ele>
        <time>2009-06-07T09:23:38Z</time>
      </trkpt>
      <trkpt lat="48.04384" lon="-0.77003">
        <ele>142</ele>
        <time>2009-06-07T09:23:40Z</time>
      </trkpt>
      <trkpt lat="48.04383" lon="-0.77003">
        <ele>142</ele>
        <time>2009-06-07T09:23:42Z</time>
      </trkpt>
      <trkpt lat="48.04383" lon="-0.77003">
        <ele>142</ele>
        <time>2009-06-07T09:23:44Z</time>
      </trkpt>
      <trkpt lat="48.04382" lon="-0.77004">
        <ele>142</ele>
        <time>2009-06-07T09:23:46Z</time>
      </trkpt>
      <trkpt lat="48.0438" lon="-0.77005">
        <ele>141</ele>
        <time>2009-06-07T09:23:48Z</time>
      </trkpt>
      <trkpt lat="48.04379" lon="-0.77005">
        <ele>141</ele>
        <time>2009-06-07T09:23:50Z</time>
      </trkpt>
      <trkpt lat="48.04379" lon="-0.77005">
        <ele>142</ele>
        <time>2009-06-07T09:23:52Z</time>
      </trkpt>
      <trkpt lat="48.04379" lon="-0.77005">
        <ele>142</ele>
        <time>2009-06-07T09:23:54Z</time>
      </trkpt>
      <trkpt lat="48.04377" lon="-0.77005">
        <ele>141</ele>
        <time>2009-06-07T09:23:56Z</time>
      </trkpt>
      <trkpt lat="48.04377" lon="-0.77006">
        <ele>142</ele>
        <time>2009-06-07T09:23:58Z</time>
      </trkpt>
      <trkpt lat="48.04376" lon="-0.77006">
        <ele>142</ele>
        <time>2009-06-07T09:24:00Z</time>
      </trkpt>
      <trkpt lat="48.04374" lon="-0.77007">
        <ele>141</ele>
        <time>2009-06-07T09:24:02Z</time>
      </trkpt>
      <trkpt lat="48.04374" lon="-0.77007">
        <ele>141</ele>
        <time>2009-06-07T09:24:04Z</time>
      </trkpt>
      <trkpt lat="48.04374" lon="-0.77006">
        <ele>141</ele>
        <time>2009-06-07T09:24:06Z</time>
      </trkpt>
      <trkpt lat="48.04374" lon="-0.77006">
        <ele>140</ele>
        <time>2009-06-07T09:24:08Z</time>
      </trkpt>
      <trkpt lat="48.04374" lon="-0.77005">
        <ele>141</ele>
        <time>2009-06-07T09:24:10Z</time>
      </trkpt>
      <trkpt lat="48.04374" lon="-0.77005">
        <ele>141</ele>
        <time>2009-06-07T09:24:12Z</time>
      </trkpt>
      <trkpt lat="48.04374" lon="-0.77003">
        <ele>140</ele>
        <time>2009-06-07T09:24:14Z</time>
      </trkpt>
      <trkpt lat="48.04375" lon="-0.77002">
        <ele>140</ele>
        <time>2009-06-07T09:24:16Z</time>
      </trkpt>
      <trkpt lat="48.04375" lon="-0.77002">
        <ele>140</ele>
        <time>2009-06-07T09:24:18Z</time>
      </trkpt>
      <trkpt lat="48.04374" lon="-0.77001">
        <ele>140</ele>
        <time>2009-06-07T09:24:20Z</time>
      </trkpt>
      <trkpt lat="48.04374" lon="-0.77001">
        <ele>140</ele>
        <time>2009-06-07T09:24:22Z</time>
      </trkpt>
      <trkpt lat="48.04374" lon="-0.76999">
        <ele>140</ele>
        <time>2009-06-07T09:24:24Z</time>
      </trkpt>
      <trkpt lat="48.04374" lon="-0.76998">
        <ele>140</ele>
        <time>2009-06-07T09:24:26Z</time>
      </trkpt>
      <trkpt lat="48.04373" lon="-0.76997">
        <ele>140</ele>
        <time>2009-06-07T09:24:28Z</time>
      </trkpt>
      <trkpt lat="48.04373" lon="-0.76997">
        <ele>140</ele>
        <time>2009-06-07T09:24:30Z</time>
      </trkpt>
      <trkpt lat="48.04372" lon="-0.76996">
        <ele>140</ele>
        <time>2009-06-07T09:24:32Z</time>
      </trkpt>
      <trkpt lat="48.04371" lon="-0.76993">
        <ele>140</ele>
        <time>2009-06-07T09:24:34Z</time>
      </trkpt>
      <trkpt lat="48.04371" lon="-0.76993">
        <ele>140</ele>
        <time>2009-06-07T09:24:36Z</time>
      </trkpt>
      <trkpt lat="48.04349" lon="-0.76939">
        <ele>139</ele>
        <time>2009-06-07T09:24:38Z</time>
      </trkpt>
      <trkpt lat="48.04346" lon="-0.76932">
        <ele>139</ele>
        <time>2009-06-07T09:24:40Z</time>
      </trkpt>
      <trkpt lat="48.04344" lon="-0.76928">
        <ele>139</ele>
        <time>2009-06-07T09:24:42Z</time>
      </trkpt>
      <trkpt lat="48.04343" lon="-0.76924">
        <ele>139</ele>
        <time>2009-06-07T09:24:44Z</time>
      </trkpt>
      <trkpt lat="48.04342" lon="-0.76918">
        <ele>140</ele>
        <time>2009-06-07T09:24:46Z</time>
      </trkpt>
      <trkpt lat="48.0434" lon="-0.76912">
        <ele>140</ele>
        <time>2009-06-07T09:24:48Z</time>
      </trkpt>
      <trkpt lat="48.04338" lon="-0.76908">
        <ele>139</ele>
        <time>2009-06-07T09:24:50Z</time>
      </trkpt>
      <trkpt lat="48.04338" lon="-0.76903">
        <ele>139</ele>
        <time>2009-06-07T09:24:52Z</time>
      </trkpt>
      <trkpt lat="48.04336" lon="-0.769">
        <ele>138</ele>
        <time>2009-06-07T09:24:54Z</time>
      </trkpt>
      <trkpt lat="48.04333" lon="-0.76895">
        <ele>137</ele>
        <time>2009-06-07T09:24:56Z</time>
      </trkpt>
      <trkpt lat="48.04332" lon="-0.76891">
        <ele>138</ele>
        <time>2009-06-07T09:24:58Z</time>
      </trkpt>
      <trkpt lat="48.04329" lon="-0.76885">
        <ele>137</ele>
        <time>2009-06-07T09:25:00Z</time>
      </trkpt>
      <trkpt lat="48.04329" lon="-0.76883">
        <ele>138</ele>
        <time>2009-06-07T09:25:02Z</time>
      </trkpt>
      <trkpt lat="48.04326" lon="-0.7687">
        <ele>137</ele>
        <time>2009-06-07T09:25:04Z</time>
      </trkpt>
      <trkpt lat="48.04326" lon="-0.76865">
        <ele>137</ele>
        <time>2009-06-07T09:25:06Z</time>
      </trkpt>
      <trkpt lat="48.04323" lon="-0.76859">
        <ele>136</ele>
        <time>2009-06-07T09:25:08Z</time>
      </trkpt>
      <trkpt lat="48.0432" lon="-0.76856">
        <ele>136</ele>
        <time>2009-06-07T09:25:10Z</time>
      </trkpt>
      <trkpt lat="48.04317" lon="-0.7685">
        <ele>136</ele>
        <time>2009-06-07T09:25:12Z</time>
      </trkpt>
      <trkpt lat="48.04314" lon="-0.76845">
        <ele>137</ele>
        <time>2009-06-07T09:25:14Z</time>
      </trkpt>
      <trkpt lat="48.04316" lon="-0.76842">
        <ele>137</ele>
        <time>2009-06-07T09:25:16Z</time>
      </trkpt>
      <trkpt lat="48.04316" lon="-0.76833">
        <ele>136</ele>
        <time>2009-06-07T09:25:18Z</time>
      </trkpt>
      <trkpt lat="48.04317" lon="-0.76825">
        <ele>137</ele>
        <time>2009-06-07T09:25:20Z</time>
      </trkpt>
      <trkpt lat="48.04313" lon="-0.76817">
        <ele>137</ele>
        <time>2009-06-07T09:25:22Z</time>
      </trkpt>
      <trkpt lat="48.04308" lon="-0.76804">
        <ele>137</ele>
        <time>2009-06-07T09:25:24Z</time>
      </trkpt>
      <trkpt lat="48.04304" lon="-0.76795">
        <ele>137</ele>
        <time>2009-06-07T09:25:26Z</time>
      </trkpt>
      <trkpt lat="48.043" lon="-0.76785">
        <ele>138</ele>
        <time>2009-06-07T09:25:28Z</time>
      </trkpt>
      <trkpt lat="48.04293" lon="-0.76778">
        <ele>137</ele>
        <time>2009-06-07T09:25:30Z</time>
      </trkpt>
      <trkpt lat="48.04287" lon="-0.76763">
        <ele>137</ele>
        <time>2009-06-07T09:25:32Z</time>
      </trkpt>
      <trkpt lat="48.0428" lon="-0.76757">
        <ele>136</ele>
        <time>2009-06-07T09:25:34Z</time>
      </trkpt>
      <trkpt lat="48.04274" lon="-0.76753">
        <ele>136</ele>
        <time>2009-06-07T09:25:36Z</time>
      </trkpt>
      <trkpt lat="48.04269" lon="-0.76748">
        <ele>136</ele>
        <time>2009-06-07T09:25:38Z</time>
      </trkpt>
      <trkpt lat="48.04263" lon="-0.76741">
        <ele>136</ele>
        <time>2009-06-07T09:25:40Z</time>
      </trkpt>
      <trkpt lat="48.0426" lon="-0.7674">
        <ele>136</ele>
        <time>2009-06-07T09:25:42Z</time>
      </trkpt>
      <trkpt lat="48.04255" lon="-0.76735">
        <ele>137</ele>
        <time>2009-06-07T09:25:44Z</time>
      </trkpt>
      <trkpt lat="48.0425" lon="-0.76732">
        <ele>137</ele>
        <time>2009-06-07T09:25:46Z</time>
      </trkpt>
      <trkpt lat="48.04247" lon="-0.76731">
        <ele>138</ele>
        <time>2009-06-07T09:25:48Z</time>
      </trkpt>
      <trkpt lat="48.04242" lon="-0.76725">
        <ele>138</ele>
        <time>2009-06-07T09:25:50Z</time>
      </trkpt>
      <trkpt lat="48.04237" lon="-0.7672">
        <ele>138</ele>
        <time>2009-06-07T09:25:52Z</time>
      </trkpt>
      <trkpt lat="48.04229" lon="-0.76709">
        <ele>138</ele>
        <time>2009-06-07T09:25:54Z</time>
      </trkpt>
      <trkpt lat="48.04223" lon="-0.76703">
        <ele>138</ele>
        <time>2009-06-07T09:25:56Z</time>
      </trkpt>
      <trkpt lat="48.04217" lon="-0.76696">
        <ele>138</ele>
        <time>2009-06-07T09:25:58Z</time>
      </trkpt>
      <trkpt lat="48.04212" lon="-0.76694">
        <ele>138</ele>
        <time>2009-06-07T09:26:00Z</time>
      </trkpt>
      <trkpt lat="48.04207" lon="-0.76689">
        <ele>138</ele>
        <time>2009-06-07T09:26:02Z</time>
      </trkpt>
      <trkpt lat="48.04201" lon="-0.76682">
        <ele>139</ele>
        <time>2009-06-07T09:26:04Z</time>
      </trkpt>
      <trkpt lat="48.04193" lon="-0.76676">
        <ele>139</ele>
        <time>2009-06-07T09:26:06Z</time>
      </trkpt>
      <trkpt lat="48.04186" lon="-0.76671">
        <ele>138</ele>
        <time>2009-06-07T09:26:08Z</time>
      </trkpt>
      <trkpt lat="48.0418" lon="-0.76664">
        <ele>139</ele>
        <time>2009-06-07T09:26:10Z</time>
      </trkpt>
      <trkpt lat="48.04173" lon="-0.76661">
        <ele>138</ele>
        <time>2009-06-07T09:26:12Z</time>
      </trkpt>
      <trkpt lat="48.04165" lon="-0.76656">
        <ele>138</ele>
        <time>2009-06-07T09:26:14Z</time>
      </trkpt>
      <trkpt lat="48.04158" lon="-0.76651">
        <ele>137</ele>
        <time>2009-06-07T09:26:16Z</time>
      </trkpt>
      <trkpt lat="48.04152" lon="-0.76653">
        <ele>136</ele>
        <time>2009-06-07T09:26:18Z</time>
      </trkpt>
      <trkpt lat="48.04147" lon="-0.76656">
        <ele>136</ele>
        <time>2009-06-07T09:26:20Z</time>
      </trkpt>
      <trkpt lat="48.04144" lon="-0.76663">
        <ele>135</ele>
        <time>2009-06-07T09:26:22Z</time>
      </trkpt>
      <trkpt lat="48.04136" lon="-0.76672">
        <ele>133</ele>
        <time>2009-06-07T09:26:25Z</time>
      </trkpt>
      <trkpt lat="48.04129" lon="-0.76676">
        <ele>131</ele>
        <time>2009-06-07T09:26:27Z</time>
      </trkpt>
      <trkpt lat="48.04127" lon="-0.76683">
        <ele>130</ele>
        <time>2009-06-07T09:26:29Z</time>
      </trkpt>
      <trkpt lat="48.04124" lon="-0.76688">
        <ele>130</ele>
        <time>2009-06-07T09:26:31Z</time>
      </trkpt>
      <trkpt lat="48.04123" lon="-0.76692">
        <ele>130</ele>
        <time>2009-06-07T09:26:33Z</time>
      </trkpt>
      <trkpt lat="48.04122" lon="-0.76695">
        <ele>129</ele>
        <time>2009-06-07T09:26:35Z</time>
      </trkpt>
      <trkpt lat="48.0412" lon="-0.76696">
        <ele>128</ele>
        <time>2009-06-07T09:26:37Z</time>
      </trkpt>
      <trkpt lat="48.04115" lon="-0.76695">
        <ele>128</ele>
        <time>2009-06-07T09:26:39Z</time>
      </trkpt>
      <trkpt lat="48.0411" lon="-0.76698">
        <ele>123</ele>
        <time>2009-06-07T09:26:41Z</time>
      </trkpt>
      <trkpt lat="48.04109" lon="-0.767">
        <ele>123</ele>
        <time>2009-06-07T09:26:43Z</time>
      </trkpt>
      <trkpt lat="48.04104" lon="-0.767">
        <ele>120</ele>
        <time>2009-06-07T09:26:45Z</time>
      </trkpt>
      <trkpt lat="48.04098" lon="-0.767">
        <ele>116</ele>
        <time>2009-06-07T09:26:47Z</time>
      </trkpt>
      <trkpt lat="48.04096" lon="-0.76702">
        <ele>116</ele>
        <time>2009-06-07T09:26:49Z</time>
      </trkpt>
      <trkpt lat="48.04094" lon="-0.76702">
        <ele>115</ele>
        <time>2009-06-07T09:26:51Z</time>
      </trkpt>
      <trkpt lat="48.04092" lon="-0.767">
        <ele>114</ele>
        <time>2009-06-07T09:26:53Z</time>
      </trkpt>
      <trkpt lat="48.04089" lon="-0.76702">
        <ele>113</ele>
        <time>2009-06-07T09:26:55Z</time>
      </trkpt>
      <trkpt lat="48.04088" lon="-0.76703">
        <ele>112</ele>
        <time>2009-06-07T09:26:57Z</time>
      </trkpt>
      <trkpt lat="48.04087" lon="-0.76706">
        <ele>112</ele>
        <time>2009-06-07T09:26:59Z</time>
      </trkpt>
      <trkpt lat="48.04087" lon="-0.76707">
        <ele>113</ele>
        <time>2009-06-07T09:27:01Z</time>
      </trkpt>
      <trkpt lat="48.04087" lon="-0.7671">
        <ele>113</ele>
        <time>2009-06-07T09:27:03Z</time>
      </trkpt>
      <trkpt lat="48.04085" lon="-0.7671">
        <ele>113</ele>
        <time>2009-06-07T09:27:05Z</time>
      </trkpt>
      <trkpt lat="48.04084" lon="-0.76715">
        <ele>113</ele>
        <time>2009-06-07T09:27:07Z</time>
      </trkpt>
      <trkpt lat="48.04081" lon="-0.76718">
        <ele>113</ele>
        <time>2009-06-07T09:27:09Z</time>
      </trkpt>
      <trkpt lat="48.04078" lon="-0.7672">
        <ele>114</ele>
        <time>2009-06-07T09:27:11Z</time>
      </trkpt>
      <trkpt lat="48.04078" lon="-0.76725">
        <ele>114</ele>
        <time>2009-06-07T09:27:13Z</time>
      </trkpt>
      <trkpt lat="48.04078" lon="-0.76728">
        <ele>114</ele>
        <time>2009-06-07T09:27:15Z</time>
      </trkpt>
      <trkpt lat="48.04078" lon="-0.76728">
        <ele>115</ele>
        <time>2009-06-07T09:27:17Z</time>
      </trkpt>
      <trkpt lat="48.04076" lon="-0.76731">
        <ele>115</ele>
        <time>2009-06-07T09:27:19Z</time>
      </trkpt>
      <trkpt lat="48.04076" lon="-0.76733">
        <ele>115</ele>
        <time>2009-06-07T09:27:21Z</time>
      </trkpt>
      <trkpt lat="48.04075" lon="-0.76735">
        <ele>115</ele>
        <time>2009-06-07T09:27:23Z</time>
      </trkpt>
      <trkpt lat="48.04074" lon="-0.7674">
        <ele>116</ele>
        <time>2009-06-07T09:27:25Z</time>
      </trkpt>
      <trkpt lat="48.04073" lon="-0.76745">
        <ele>116</ele>
        <time>2009-06-07T09:27:27Z</time>
      </trkpt>
      <trkpt lat="48.04073" lon="-0.76749">
        <ele>116</ele>
        <time>2009-06-07T09:27:29Z</time>
      </trkpt>
      <trkpt lat="48.04068" lon="-0.76756">
        <ele>116</ele>
        <time>2009-06-07T09:27:31Z</time>
      </trkpt>
      <trkpt lat="48.04065" lon="-0.76758">
        <ele>117</ele>
        <time>2009-06-07T09:27:33Z</time>
      </trkpt>
      <trkpt lat="48.04066" lon="-0.76763">
        <ele>117</ele>
        <time>2009-06-07T09:27:35Z</time>
      </trkpt>
      <trkpt lat="48.04066" lon="-0.76767">
        <ele>118</ele>
        <time>2009-06-07T09:27:37Z</time>
      </trkpt>
      <trkpt lat="48.04066" lon="-0.76771">
        <ele>118</ele>
        <time>2009-06-07T09:27:39Z</time>
      </trkpt>
      <trkpt lat="48.04065" lon="-0.76775">
        <ele>118</ele>
        <time>2009-06-07T09:27:41Z</time>
      </trkpt>
      <trkpt lat="48.04067" lon="-0.76781">
        <ele>118</ele>
        <time>2009-06-07T09:27:43Z</time>
      </trkpt>
      <trkpt lat="48.04064" lon="-0.76782">
        <ele>118</ele>
        <time>2009-06-07T09:27:45Z</time>
      </trkpt>
      <trkpt lat="48.04061" lon="-0.76786">
        <ele>119</ele>
        <time>2009-06-07T09:27:47Z</time>
      </trkpt>
      <trkpt lat="48.04059" lon="-0.76786">
        <ele>119</ele>
        <time>2009-06-07T09:27:49Z</time>
      </trkpt>
      <trkpt lat="48.04055" lon="-0.76792">
        <ele>119</ele>
        <time>2009-06-07T09:27:51Z</time>
      </trkpt>
      <trkpt lat="48.04055" lon="-0.76795">
        <ele>119</ele>
        <time>2009-06-07T09:27:53Z</time>
      </trkpt>
      <trkpt lat="48.04056" lon="-0.76801">
        <ele>119</ele>
        <time>2009-06-07T09:27:55Z</time>
      </trkpt>
      <trkpt lat="48.04057" lon="-0.76807">
        <ele>119</ele>
        <time>2009-06-07T09:27:57Z</time>
      </trkpt>
      <trkpt lat="48.04051" lon="-0.76809">
        <ele>120</ele>
        <time>2009-06-07T09:28:00Z</time>
      </trkpt>
      <trkpt lat="48.04049" lon="-0.76808">
        <ele>120</ele>
        <time>2009-06-07T09:28:02Z</time>
      </trkpt>
      <trkpt lat="48.04049" lon="-0.76811">
        <ele>120</ele>
        <time>2009-06-07T09:28:04Z</time>
      </trkpt>
      <trkpt lat="48.04049" lon="-0.76812">
        <ele>120</ele>
        <time>2009-06-07T09:28:06Z</time>
      </trkpt>
      <trkpt lat="48.04049" lon="-0.76816">
        <ele>120</ele>
        <time>2009-06-07T09:28:08Z</time>
      </trkpt>
      <trkpt lat="48.04047" lon="-0.76818">
        <ele>120</ele>
        <time>2009-06-07T09:28:10Z</time>
      </trkpt>
      <trkpt lat="48.04042" lon="-0.76825">
        <ele>119</ele>
        <time>2009-06-07T09:28:12Z</time>
      </trkpt>
      <trkpt lat="48.04038" lon="-0.76829">
        <ele>119</ele>
        <time>2009-06-07T09:28:14Z</time>
      </trkpt>
      <trkpt lat="48.04038" lon="-0.7683">
        <ele>119</ele>
        <time>2009-06-07T09:28:16Z</time>
      </trkpt>
      <trkpt lat="48.04039" lon="-0.76833">
        <ele>119</ele>
        <time>2009-06-07T09:28:18Z</time>
      </trkpt>
      <trkpt lat="48.04039" lon="-0.76837">
        <ele>119</ele>
        <time>2009-06-07T09:28:20Z</time>
      </trkpt>
      <trkpt lat="48.04039" lon="-0.76839">
        <ele>119</ele>
        <time>2009-06-07T09:28:22Z</time>
      </trkpt>
      <trkpt lat="48.04038" lon="-0.76842">
        <ele>119</ele>
        <time>2009-06-07T09:28:24Z</time>
      </trkpt>
      <trkpt lat="48.04038" lon="-0.76844">
        <ele>119</ele>
        <time>2009-06-07T09:28:26Z</time>
      </trkpt>
      <trkpt lat="48.04038" lon="-0.76845">
        <ele>119</ele>
        <time>2009-06-07T09:28:28Z</time>
      </trkpt>
      <trkpt lat="48.04036" lon="-0.76845">
        <ele>119</ele>
        <time>2009-06-07T09:28:30Z</time>
      </trkpt>
      <trkpt lat="48.04035" lon="-0.76848">
        <ele>119</ele>
        <time>2009-06-07T09:28:32Z</time>
      </trkpt>
      <trkpt lat="48.04034" lon="-0.76849">
        <ele>119</ele>
        <time>2009-06-07T09:28:34Z</time>
      </trkpt>
      <trkpt lat="48.04035" lon="-0.7685">
        <ele>119</ele>
        <time>2009-06-07T09:28:36Z</time>
      </trkpt>
      <trkpt lat="48.04036" lon="-0.76846">
        <ele>119</ele>
        <time>2009-06-07T09:28:38Z</time>
      </trkpt>
      <trkpt lat="48.04035" lon="-0.76849">
        <ele>119</ele>
        <time>2009-06-07T09:28:40Z</time>
      </trkpt>
      <trkpt lat="48.04037" lon="-0.76853">
        <ele>119</ele>
        <time>2009-06-07T09:28:42Z</time>
      </trkpt>
      <trkpt lat="48.04039" lon="-0.76852">
        <ele>119</ele>
        <time>2009-06-07T09:28:44Z</time>
      </trkpt>
      <trkpt lat="48.04039" lon="-0.76852">
        <ele>119</ele>
        <time>2009-06-07T09:28:46Z</time>
      </trkpt>
      <trkpt lat="48.04037" lon="-0.7685">
        <ele>119</ele>
        <time>2009-06-07T09:28:48Z</time>
      </trkpt>
      <trkpt lat="48.04037" lon="-0.7685">
        <ele>119</ele>
        <time>2009-06-07T09:28:50Z</time>
      </trkpt>
      <trkpt lat="48.04037" lon="-0.76852">
        <ele>119</ele>
        <time>2009-06-07T09:28:52Z</time>
      </trkpt>
      <trkpt lat="48.04037" lon="-0.76852">
        <ele>119</ele>
        <time>2009-06-07T09:28:54Z</time>
      </trkpt>
      <trkpt lat="48.04036" lon="-0.76852">
        <ele>119</ele>
        <time>2009-06-07T09:28:56Z</time>
      </trkpt>
      <trkpt lat="48.04036" lon="-0.76853">
        <ele>119</ele>
        <time>2009-06-07T09:28:58Z</time>
      </trkpt>
      <trkpt lat="48.04037" lon="-0.76852">
        <ele>119</ele>
        <time>2009-06-07T09:29:00Z</time>
      </trkpt>
      <trkpt lat="48.04039" lon="-0.76852">
        <ele>119</ele>
        <time>2009-06-07T09:29:02Z</time>
      </trkpt>
      <trkpt lat="48.04036" lon="-0.76852">
        <ele>119</ele>
        <time>2009-06-07T09:29:04Z</time>
      </trkpt>
      <trkpt lat="48.04034" lon="-0.76857">
        <ele>120</ele>
        <time>2009-06-07T09:29:06Z</time>
      </trkpt>
      <trkpt lat="48.04036" lon="-0.76857">
        <ele>120</ele>
        <time>2009-06-07T09:29:08Z</time>
      </trkpt>
      <trkpt lat="48.04035" lon="-0.76862">
        <ele>120</ele>
        <time>2009-06-07T09:29:10Z</time>
      </trkpt>
      <trkpt lat="48.04044" lon="-0.7692">
        <ele>122</ele>
        <time>2009-06-07T09:30:07Z</time>
      </trkpt>
      <trkpt lat="48.04046" lon="-0.7693">
        <ele>123</ele>
        <time>2009-06-07T09:30:10Z</time>
      </trkpt>
      <trkpt lat="48.04048" lon="-0.76936">
        <ele>122</ele>
        <time>2009-06-07T09:30:12Z</time>
      </trkpt>
      <trkpt lat="48.04049" lon="-0.76941">
        <ele>122</ele>
        <time>2009-06-07T09:30:14Z</time>
      </trkpt>
      <trkpt lat="48.04048" lon="-0.76942">
        <ele>123</ele>
        <time>2009-06-07T09:30:16Z</time>
      </trkpt>
      <trkpt lat="48.04051" lon="-0.76944">
        <ele>124</ele>
        <time>2009-06-07T09:30:18Z</time>
      </trkpt>
      <trkpt lat="48.04053" lon="-0.76946">
        <ele>124</ele>
        <time>2009-06-07T09:30:20Z</time>
      </trkpt>
      <trkpt lat="48.04055" lon="-0.76947">
        <ele>124</ele>
        <time>2009-06-07T09:30:22Z</time>
      </trkpt>
      <trkpt lat="48.04056" lon="-0.76949">
        <ele>124</ele>
        <time>2009-06-07T09:30:24Z</time>
      </trkpt>
      <trkpt lat="48.04056" lon="-0.76949">
        <ele>124</ele>
        <time>2009-06-07T09:30:26Z</time>
      </trkpt>
      <trkpt lat="48.04057" lon="-0.7695">
        <ele>124</ele>
        <time>2009-06-07T09:30:28Z</time>
      </trkpt>
      <trkpt lat="48.04057" lon="-0.7695">
        <ele>124</ele>
        <time>2009-06-07T09:30:30Z</time>
      </trkpt>
      <trkpt lat="48.04058" lon="-0.76951">
        <ele>124</ele>
        <time>2009-06-07T09:30:32Z</time>
      </trkpt>
      <trkpt lat="48.0406" lon="-0.76954">
        <ele>124</ele>
        <time>2009-06-07T09:30:34Z</time>
      </trkpt>
      <trkpt lat="48.04061" lon="-0.76955">
        <ele>124</ele>
        <time>2009-06-07T09:30:36Z</time>
      </trkpt>
      <trkpt lat="48.04061" lon="-0.76955">
        <ele>125</ele>
        <time>2009-06-07T09:30:38Z</time>
      </trkpt>
      <trkpt lat="48.0406" lon="-0.76957">
        <ele>126</ele>
        <time>2009-06-07T09:30:40Z</time>
      </trkpt>
      <trkpt lat="48.0406" lon="-0.76957">
        <ele>127</ele>
        <time>2009-06-07T09:30:42Z</time>
      </trkpt>
      <trkpt lat="48.0406" lon="-0.76958">
        <ele>127</ele>
        <time>2009-06-07T09:30:44Z</time>
      </trkpt>
      <trkpt lat="48.04059" lon="-0.76958">
        <ele>128</ele>
        <time>2009-06-07T09:30:46Z</time>
      </trkpt>
      <trkpt lat="48.04059" lon="-0.76958">
        <ele>128</ele>
        <time>2009-06-07T09:30:48Z</time>
      </trkpt>
      <trkpt lat="48.04059" lon="-0.76958">
        <ele>128</ele>
        <time>2009-06-07T09:30:50Z</time>
      </trkpt>
      <trkpt lat="48.04059" lon="-0.76958">
        <ele>128</ele>
        <time>2009-06-07T09:30:52Z</time>
      </trkpt>
      <trkpt lat="48.0406" lon="-0.76959">
        <ele>127</ele>
        <time>2009-06-07T09:30:54Z</time>
      </trkpt>
      <trkpt lat="48.0406" lon="-0.76959">
        <ele>127</ele>
        <time>2009-06-07T09:30:56Z</time>
      </trkpt>
      <trkpt lat="48.0406" lon="-0.76961">
        <ele>127</ele>
        <time>2009-06-07T09:30:58Z</time>
      </trkpt>
      <trkpt lat="48.04058" lon="-0.76961">
        <ele>128</ele>
        <time>2009-06-07T09:31:00Z</time>
      </trkpt>
      <trkpt lat="48.04056" lon="-0.7696">
        <ele>129</ele>
        <time>2009-06-07T09:31:02Z</time>
      </trkpt>
      <trkpt lat="48.04055" lon="-0.76961">
        <ele>130</ele>
        <time>2009-06-07T09:31:04Z</time>
      </trkpt>
      <trkpt lat="48.04054" lon="-0.76961">
        <ele>130</ele>
        <time>2009-06-07T09:31:06Z</time>
      </trkpt>
      <trkpt lat="48.04053" lon="-0.76962">
        <ele>131</ele>
        <time>2009-06-07T09:31:08Z</time>
      </trkpt>
      <trkpt lat="48.0405" lon="-0.76964">
        <ele>132</ele>
        <time>2009-06-07T09:31:10Z</time>
      </trkpt>
      <trkpt lat="48.0405" lon="-0.76964">
        <ele>132</ele>
        <time>2009-06-07T09:31:18Z</time>
      </trkpt>
      <trkpt lat="48.0405" lon="-0.76966">
        <ele>132</ele>
        <time>2009-06-07T09:31:20Z</time>
      </trkpt>
      <trkpt lat="48.04048" lon="-0.76968">
        <ele>132</ele>
        <time>2009-06-07T09:31:22Z</time>
      </trkpt>
      <trkpt lat="48.04025" lon="-0.77032">
        <ele>147</ele>
        <time>2009-06-07T09:31:24Z</time>
      </trkpt>
      <trkpt lat="48.04024" lon="-0.77037">
        <ele>147</ele>
        <time>2009-06-07T09:31:26Z</time>
      </trkpt>
      <trkpt lat="48.04022" lon="-0.7704">
        <ele>148</ele>
        <time>2009-06-07T09:31:28Z</time>
      </trkpt>
      <trkpt lat="48.04021" lon="-0.77044">
        <ele>147</ele>
        <time>2009-06-07T09:31:30Z</time>
      </trkpt>
      <trkpt lat="48.04019" lon="-0.77048">
        <ele>147</ele>
        <time>2009-06-07T09:31:32Z</time>
      </trkpt>
      <trkpt lat="48.04019" lon="-0.77052">
        <ele>147</ele>
        <time>2009-06-07T09:31:34Z</time>
      </trkpt>
      <trkpt lat="48.04017" lon="-0.77055">
        <ele>147</ele>
        <time>2009-06-07T09:31:36Z</time>
      </trkpt>
      <trkpt lat="48.04017" lon="-0.7706">
        <ele>146</ele>
        <time>2009-06-07T09:31:38Z</time>
      </trkpt>
      <trkpt lat="48.04013" lon="-0.77063">
        <ele>146</ele>
        <time>2009-06-07T09:31:40Z</time>
      </trkpt>
      <trkpt lat="48.04008" lon="-0.77064">
        <ele>146</ele>
        <time>2009-06-07T09:31:42Z</time>
      </trkpt>
      <trkpt lat="48.04007" lon="-0.77066">
        <ele>147</ele>
        <time>2009-06-07T09:31:44Z</time>
      </trkpt>
      <trkpt lat="48.04005" lon="-0.77069">
        <ele>147</ele>
        <time>2009-06-07T09:31:46Z</time>
      </trkpt>
      <trkpt lat="48.04003" lon="-0.7707">
        <ele>149</ele>
        <time>2009-06-07T09:31:48Z</time>
      </trkpt>
      <trkpt lat="48.04002" lon="-0.77073">
        <ele>148</ele>
        <time>2009-06-07T09:31:50Z</time>
      </trkpt>
      <trkpt lat="48.04003" lon="-0.77072">
        <ele>149</ele>
        <time>2009-06-07T09:31:52Z</time>
      </trkpt>
      <trkpt lat="48.04" lon="-0.77072">
        <ele>148</ele>
        <time>2009-06-07T09:31:54Z</time>
      </trkpt>
      <trkpt lat="48.03998" lon="-0.77071">
        <ele>149</ele>
        <time>2009-06-07T09:31:56Z</time>
      </trkpt>
      <trkpt lat="48.03993" lon="-0.77072">
        <ele>148</ele>
        <time>2009-06-07T09:31:58Z</time>
      </trkpt>
      <trkpt lat="48.03983" lon="-0.77073">
        <ele>149</ele>
        <time>2009-06-07T09:32:06Z</time>
      </trkpt>
      <trkpt lat="48.03979" lon="-0.77078">
        <ele>147</ele>
        <time>2009-06-07T09:32:08Z</time>
      </trkpt>
      <trkpt lat="48.03975" lon="-0.77088">
        <ele>145</ele>
        <time>2009-06-07T09:32:10Z</time>
      </trkpt>
      <trkpt lat="48.03973" lon="-0.77092">
        <ele>145</ele>
        <time>2009-06-07T09:32:12Z</time>
      </trkpt>
      <trkpt lat="48.0397" lon="-0.77101">
        <ele>145</ele>
        <time>2009-06-07T09:32:14Z</time>
      </trkpt>
      <trkpt lat="48.03968" lon="-0.77107">
        <ele>146</ele>
        <time>2009-06-07T09:32:16Z</time>
      </trkpt>
      <trkpt lat="48.03965" lon="-0.77114">
        <ele>145</ele>
        <time>2009-06-07T09:32:18Z</time>
      </trkpt>
      <trkpt lat="48.03963" lon="-0.77121">
        <ele>146</ele>
        <time>2009-06-07T09:32:20Z</time>
      </trkpt>
      <trkpt lat="48.0396" lon="-0.77127">
        <ele>147</ele>
        <time>2009-06-07T09:32:22Z</time>
      </trkpt>
      <trkpt lat="48.03959" lon="-0.7713">
        <ele>147</ele>
        <time>2009-06-07T09:32:24Z</time>
      </trkpt>
      <trkpt lat="48.03958" lon="-0.77136">
        <ele>148</ele>
        <time>2009-06-07T09:32:26Z</time>
      </trkpt>
      <trkpt lat="48.03952" lon="-0.77137">
        <ele>149</ele>
        <time>2009-06-07T09:32:28Z</time>
      </trkpt>
      <trkpt lat="48.03951" lon="-0.77139">
        <ele>149</ele>
        <time>2009-06-07T09:32:30Z</time>
      </trkpt>
      <trkpt lat="48.03948" lon="-0.77136">
        <ele>149</ele>
        <time>2009-06-07T09:32:32Z</time>
      </trkpt>
      <trkpt lat="48.03946" lon="-0.77139">
        <ele>149</ele>
        <time>2009-06-07T09:32:34Z</time>
      </trkpt>
      <trkpt lat="48.03942" lon="-0.77143">
        <ele>147</ele>
        <time>2009-06-07T09:32:36Z</time>
      </trkpt>
      <trkpt lat="48.03937" lon="-0.77143">
        <ele>148</ele>
        <time>2009-06-07T09:32:38Z</time>
      </trkpt>
      <trkpt lat="48.03934" lon="-0.77147">
        <ele>147</ele>
        <time>2009-06-07T09:32:40Z</time>
      </trkpt>
      <trkpt lat="48.03929" lon="-0.77156">
        <ele>145</ele>
        <time>2009-06-07T09:32:42Z</time>
      </trkpt>
      <trkpt lat="48.03924" lon="-0.77164">
        <ele>145</ele>
        <time>2009-06-07T09:32:44Z</time>
      </trkpt>
      <trkpt lat="48.0392" lon="-0.77168">
        <ele>145</ele>
        <time>2009-06-07T09:32:46Z</time>
      </trkpt>
      <trkpt lat="48.03917" lon="-0.77171">
        <ele>145</ele>
        <time>2009-06-07T09:32:48Z</time>
      </trkpt>
      <trkpt lat="48.03914" lon="-0.77174">
        <ele>146</ele>
        <time>2009-06-07T09:32:50Z</time>
      </trkpt>
      <trkpt lat="48.03912" lon="-0.77179">
        <ele>146</ele>
        <time>2009-06-07T09:32:52Z</time>
      </trkpt>
      <trkpt lat="48.03911" lon="-0.77182">
        <ele>146</ele>
        <time>2009-06-07T09:32:54Z</time>
      </trkpt>
      <trkpt lat="48.03909" lon="-0.77187">
        <ele>146</ele>
        <time>2009-06-07T09:32:56Z</time>
      </trkpt>
      <trkpt lat="48.03909" lon="-0.77193">
        <ele>146</ele>
        <time>2009-06-07T09:32:58Z</time>
      </trkpt>
      <trkpt lat="48.03907" lon="-0.77195">
        <ele>147</ele>
        <time>2009-06-07T09:33:00Z</time>
      </trkpt>
      <trkpt lat="48.03905" lon="-0.77198">
        <ele>148</ele>
        <time>2009-06-07T09:33:02Z</time>
      </trkpt>
      <trkpt lat="48.03902" lon="-0.77196">
        <ele>148</ele>
        <time>2009-06-07T09:33:04Z</time>
      </trkpt>
      <trkpt lat="48.03899" lon="-0.77197">
        <ele>150</ele>
        <time>2009-06-07T09:33:06Z</time>
      </trkpt>
      <trkpt lat="48.03897" lon="-0.77197">
        <ele>150</ele>
        <time>2009-06-07T09:33:08Z</time>
      </trkpt>
      <trkpt lat="48.03893" lon="-0.77197">
        <ele>151</ele>
        <time>2009-06-07T09:33:10Z</time>
      </trkpt>
      <trkpt lat="48.03889" lon="-0.77199">
        <ele>152</ele>
        <time>2009-06-07T09:33:12Z</time>
      </trkpt>
      <trkpt lat="48.03882" lon="-0.77198">
        <ele>153</ele>
        <time>2009-06-07T09:33:14Z</time>
      </trkpt>
      <trkpt lat="48.03875" lon="-0.77201">
        <ele>153</ele>
        <time>2009-06-07T09:33:16Z</time>
      </trkpt>
      <trkpt lat="48.03865" lon="-0.77203">
        <ele>154</ele>
        <time>2009-06-07T09:33:18Z</time>
      </trkpt>
      <trkpt lat="48.03862" lon="-0.77204">
        <ele>155</ele>
        <time>2009-06-07T09:33:20Z</time>
      </trkpt>
      <trkpt lat="48.03859" lon="-0.77204">
        <ele>156</ele>
        <time>2009-06-07T09:33:22Z</time>
      </trkpt>
      <trkpt lat="48.03856" lon="-0.77206">
        <ele>156</ele>
        <time>2009-06-07T09:33:24Z</time>
      </trkpt>
      <trkpt lat="48.03856" lon="-0.77207">
        <ele>156</ele>
        <time>2009-06-07T09:33:26Z</time>
      </trkpt>
      <trkpt lat="48.0385" lon="-0.77206">
        <ele>155</ele>
        <time>2009-06-07T09:33:28Z</time>
      </trkpt>
      <trkpt lat="48.03849" lon="-0.77213">
        <ele>155</ele>
        <time>2009-06-07T09:33:30Z</time>
      </trkpt>
      <trkpt lat="48.03848" lon="-0.77215">
        <ele>154</ele>
        <time>2009-06-07T09:33:32Z</time>
      </trkpt>
      <trkpt lat="48.03846" lon="-0.77219">
        <ele>154</ele>
        <time>2009-06-07T09:33:34Z</time>
      </trkpt>
      <trkpt lat="48.03845" lon="-0.7722">
        <ele>154</ele>
        <time>2009-06-07T09:33:36Z</time>
      </trkpt>
      <trkpt lat="48.03844" lon="-0.77221">
        <ele>154</ele>
        <time>2009-06-07T09:33:38Z</time>
      </trkpt>
      <trkpt lat="48.03844" lon="-0.77222">
        <ele>153</ele>
        <time>2009-06-07T09:33:40Z</time>
      </trkpt>
      <trkpt lat="48.03842" lon="-0.77225">
        <ele>153</ele>
        <time>2009-06-07T09:33:42Z</time>
      </trkpt>
      <trkpt lat="48.03843" lon="-0.77229">
        <ele>153</ele>
        <time>2009-06-07T09:33:44Z</time>
      </trkpt>
      <trkpt lat="48.03839" lon="-0.77235">
        <ele>152</ele>
        <time>2009-06-07T09:33:46Z</time>
      </trkpt>
      <trkpt lat="48.03836" lon="-0.7724">
        <ele>152</ele>
        <time>2009-06-07T09:33:48Z</time>
      </trkpt>
      <trkpt lat="48.03836" lon="-0.77248">
        <ele>152</ele>
        <time>2009-06-07T09:33:50Z</time>
      </trkpt>
      <trkpt lat="48.03835" lon="-0.77254">
        <ele>152</ele>
        <time>2009-06-07T09:33:52Z</time>
      </trkpt>
      <trkpt lat="48.03835" lon="-0.77262">
        <ele>152</ele>
        <time>2009-06-07T09:33:54Z</time>
      </trkpt>
      <trkpt lat="48.03831" lon="-0.77271">
        <ele>151</ele>
        <time>2009-06-07T09:33:56Z</time>
      </trkpt>
      <trkpt lat="48.0383" lon="-0.77275">
        <ele>152</ele>
        <time>2009-06-07T09:33:58Z</time>
      </trkpt>
      <trkpt lat="48.03829" lon="-0.77281">
        <ele>152</ele>
        <time>2009-06-07T09:34:00Z</time>
      </trkpt>
      <trkpt lat="48.03827" lon="-0.77285">
        <ele>152</ele>
        <time>2009-06-07T09:34:02Z</time>
      </trkpt>
      <trkpt lat="48.03825" lon="-0.77287">
        <ele>152</ele>
        <time>2009-06-07T09:34:04Z</time>
      </trkpt>
      <trkpt lat="48.03824" lon="-0.77296">
        <ele>152</ele>
        <time>2009-06-07T09:34:06Z</time>
      </trkpt>
      <trkpt lat="48.03822" lon="-0.77296">
        <ele>152</ele>
        <time>2009-06-07T09:34:08Z</time>
      </trkpt>
      <trkpt lat="48.03821" lon="-0.773">
        <ele>151</ele>
        <time>2009-06-07T09:34:10Z</time>
      </trkpt>
      <trkpt lat="48.0382" lon="-0.77301">
        <ele>151</ele>
        <time>2009-06-07T09:34:12Z</time>
      </trkpt>
      <trkpt lat="48.03818" lon="-0.77304">
        <ele>152</ele>
        <time>2009-06-07T09:34:14Z</time>
      </trkpt>
      <trkpt lat="48.03817" lon="-0.77305">
        <ele>152</ele>
        <time>2009-06-07T09:34:16Z</time>
      </trkpt>
      <trkpt lat="48.03816" lon="-0.77308">
        <ele>152</ele>
        <time>2009-06-07T09:34:18Z</time>
      </trkpt>
      <trkpt lat="48.03814" lon="-0.77311">
        <ele>152</ele>
        <time>2009-06-07T09:34:20Z</time>
      </trkpt>
      <trkpt lat="48.03814" lon="-0.77311">
        <ele>151</ele>
        <time>2009-06-07T09:34:22Z</time>
      </trkpt>
      <trkpt lat="48.03812" lon="-0.77312">
        <ele>151</ele>
        <time>2009-06-07T09:34:24Z</time>
      </trkpt>
      <trkpt lat="48.03808" lon="-0.7732">
        <ele>152</ele>
        <time>2009-06-07T09:34:26Z</time>
      </trkpt>
      <trkpt lat="48.03806" lon="-0.77323">
        <ele>152</ele>
        <time>2009-06-07T09:34:28Z</time>
      </trkpt>
      <trkpt lat="48.03803" lon="-0.77322">
        <ele>152</ele>
        <time>2009-06-07T09:34:30Z</time>
      </trkpt>
      <trkpt lat="48.03798" lon="-0.77324">
        <ele>153</ele>
        <time>2009-06-07T09:34:32Z</time>
      </trkpt>
      <trkpt lat="48.03797" lon="-0.77328">
        <ele>153</ele>
        <time>2009-06-07T09:34:34Z</time>
      </trkpt>
      <trkpt lat="48.03787" lon="-0.77336">
        <ele>151</ele>
        <time>2009-06-07T09:34:36Z</time>
      </trkpt>
      <trkpt lat="48.03778" lon="-0.77345">
        <ele>150</ele>
        <time>2009-06-07T09:34:38Z</time>
      </trkpt>
      <trkpt lat="48.03766" lon="-0.77358">
        <ele>148</ele>
        <time>2009-06-07T09:34:40Z</time>
      </trkpt>
      <trkpt lat="48.03754" lon="-0.7737">
        <ele>146</ele>
        <time>2009-06-07T09:34:42Z</time>
      </trkpt>
      <trkpt lat="48.03747" lon="-0.77375">
        <ele>147</ele>
        <time>2009-06-07T09:34:44Z</time>
      </trkpt>
      <trkpt lat="48.03742" lon="-0.77385">
        <ele>148</ele>
        <time>2009-06-07T09:34:46Z</time>
      </trkpt>
      <trkpt lat="48.03736" lon="-0.77391">
        <ele>148</ele>
        <time>2009-06-07T09:34:48Z</time>
      </trkpt>
      <trkpt lat="48.03733" lon="-0.77395">
        <ele>149</ele>
        <time>2009-06-07T09:34:50Z</time>
      </trkpt>
      <trkpt lat="48.03729" lon="-0.77402">
        <ele>148</ele>
        <time>2009-06-07T09:34:52Z</time>
      </trkpt>
      <trkpt lat="48.03721" lon="-0.77406">
        <ele>149</ele>
        <time>2009-06-07T09:34:55Z</time>
      </trkpt>
      <trkpt lat="48.03719" lon="-0.77409">
        <ele>149</ele>
        <time>2009-06-07T09:34:57Z</time>
      </trkpt>
      <trkpt lat="48.0372" lon="-0.77415">
        <ele>150</ele>
        <time>2009-06-07T09:34:59Z</time>
      </trkpt>
      <trkpt lat="48.03717" lon="-0.77421">
        <ele>152</ele>
        <time>2009-06-07T09:35:01Z</time>
      </trkpt>
      <trkpt lat="48.03716" lon="-0.77422">
        <ele>152</ele>
        <time>2009-06-07T09:35:03Z</time>
      </trkpt>
      <trkpt lat="48.03711" lon="-0.77424">
        <ele>152</ele>
        <time>2009-06-07T09:35:05Z</time>
      </trkpt>
      <trkpt lat="48.03711" lon="-0.77427">
        <ele>152</ele>
        <time>2009-06-07T09:35:07Z</time>
      </trkpt>
      <trkpt lat="48.03711" lon="-0.77427">
        <ele>153</ele>
        <time>2009-06-07T09:35:09Z</time>
      </trkpt>
      <trkpt lat="48.03711" lon="-0.77427">
        <ele>152</ele>
        <time>2009-06-07T09:35:11Z</time>
      </trkpt>
      <trkpt lat="48.03709" lon="-0.77427">
        <ele>152</ele>
        <time>2009-06-07T09:35:13Z</time>
      </trkpt>
      <trkpt lat="48.03709" lon="-0.77428">
        <ele>152</ele>
        <time>2009-06-07T09:35:15Z</time>
      </trkpt>
      <trkpt lat="48.03706" lon="-0.77425">
        <ele>153</ele>
        <time>2009-06-07T09:35:17Z</time>
      </trkpt>
      <trkpt lat="48.03702" lon="-0.77428">
        <ele>154</ele>
        <time>2009-06-07T09:35:19Z</time>
      </trkpt>
      <trkpt lat="48.03698" lon="-0.77431">
        <ele>153</ele>
        <time>2009-06-07T09:35:21Z</time>
      </trkpt>
      <trkpt lat="48.03695" lon="-0.77435">
        <ele>153</ele>
        <time>2009-06-07T09:35:23Z</time>
      </trkpt>
      <trkpt lat="48.03692" lon="-0.77441">
        <ele>153</ele>
        <time>2009-06-07T09:35:25Z</time>
      </trkpt>
      <trkpt lat="48.03689" lon="-0.77446">
        <ele>154</ele>
        <time>2009-06-07T09:35:27Z</time>
      </trkpt>
      <trkpt lat="48.03687" lon="-0.77452">
        <ele>155</ele>
        <time>2009-06-07T09:35:29Z</time>
      </trkpt>
      <trkpt lat="48.03685" lon="-0.77456">
        <ele>155</ele>
        <time>2009-06-07T09:35:31Z</time>
      </trkpt>
      <trkpt lat="48.03682" lon="-0.77461">
        <ele>155</ele>
        <time>2009-06-07T09:35:33Z</time>
      </trkpt>
      <trkpt lat="48.0368" lon="-0.77467">
        <ele>155</ele>
        <time>2009-06-07T09:35:35Z</time>
      </trkpt>
      <trkpt lat="48.03679" lon="-0.77472">
        <ele>156</ele>
        <time>2009-06-07T09:35:37Z</time>
      </trkpt>
      <trkpt lat="48.03676" lon="-0.77479">
        <ele>157</ele>
        <time>2009-06-07T09:35:39Z</time>
      </trkpt>
      <trkpt lat="48.03673" lon="-0.77483">
        <ele>158</ele>
        <time>2009-06-07T09:35:41Z</time>
      </trkpt>
      <trkpt lat="48.0367" lon="-0.77487">
        <ele>158</ele>
        <time>2009-06-07T09:35:43Z</time>
      </trkpt>
      <trkpt lat="48.03667" lon="-0.77491">
        <ele>159</ele>
        <time>2009-06-07T09:35:45Z</time>
      </trkpt>
      <trkpt lat="48.03665" lon="-0.77497">
        <ele>159</ele>
        <time>2009-06-07T09:35:47Z</time>
      </trkpt>
      <trkpt lat="48.03663" lon="-0.77501">
        <ele>160</ele>
        <time>2009-06-07T09:35:49Z</time>
      </trkpt>
      <trkpt lat="48.03661" lon="-0.77505">
        <ele>160</ele>
        <time>2009-06-07T09:35:51Z</time>
      </trkpt>
      <trkpt lat="48.03661" lon="-0.77511">
        <ele>160</ele>
        <time>2009-06-07T09:35:53Z</time>
      </trkpt>
      <trkpt lat="48.0366" lon="-0.77515">
        <ele>161</ele>
        <time>2009-06-07T09:35:55Z</time>
      </trkpt>
      <trkpt lat="48.0366" lon="-0.77519">
        <ele>162</ele>
        <time>2009-06-07T09:35:57Z</time>
      </trkpt>
      <trkpt lat="48.03659" lon="-0.77523">
        <ele>163</ele>
        <time>2009-06-07T09:35:59Z</time>
      </trkpt>
      <trkpt lat="48.03658" lon="-0.77528">
        <ele>162</ele>
        <time>2009-06-07T09:36:01Z</time>
      </trkpt>
      <trkpt lat="48.03655" lon="-0.77534">
        <ele>162</ele>
        <time>2009-06-07T09:36:03Z</time>
      </trkpt>
      <trkpt lat="48.03653" lon="-0.77538">
        <ele>162</ele>
        <time>2009-06-07T09:36:05Z</time>
      </trkpt>
      <trkpt lat="48.03651" lon="-0.77543">
        <ele>162</ele>
        <time>2009-06-07T09:36:07Z</time>
      </trkpt>
      <trkpt lat="48.03649" lon="-0.7755">
        <ele>162</ele>
        <time>2009-06-07T09:36:09Z</time>
      </trkpt>
      <trkpt lat="48.03646" lon="-0.77555">
        <ele>162</ele>
        <time>2009-06-07T09:36:11Z</time>
      </trkpt>
      <trkpt lat="48.03644" lon="-0.77561">
        <ele>162</ele>
        <time>2009-06-07T09:36:13Z</time>
      </trkpt>
      <trkpt lat="48.03639" lon="-0.77568">
        <ele>162</ele>
        <time>2009-06-07T09:36:15Z</time>
      </trkpt>
      <trkpt lat="48.03636" lon="-0.77573">
        <ele>162</ele>
        <time>2009-06-07T09:36:17Z</time>
      </trkpt>
      <trkpt lat="48.03633" lon="-0.77579">
        <ele>163</ele>
        <time>2009-06-07T09:36:19Z</time>
      </trkpt>
      <trkpt lat="48.03632" lon="-0.77587">
        <ele>162</ele>
        <time>2009-06-07T09:36:21Z</time>
      </trkpt>
      <trkpt lat="48.03627" lon="-0.77594">
        <ele>161</ele>
        <time>2009-06-07T09:36:23Z</time>
      </trkpt>
      <trkpt lat="48.03625" lon="-0.77602">
        <ele>161</ele>
        <time>2009-06-07T09:36:25Z</time>
      </trkpt>
      <trkpt lat="48.03622" lon="-0.77607">
        <ele>161</ele>
        <time>2009-06-07T09:36:27Z</time>
      </trkpt>
      <trkpt lat="48.03621" lon="-0.77614">
        <ele>162</ele>
        <time>2009-06-07T09:36:29Z</time>
      </trkpt>
      <trkpt lat="48.03619" lon="-0.77621">
        <ele>163</ele>
        <time>2009-06-07T09:36:31Z</time>
      </trkpt>
      <trkpt lat="48.03617" lon="-0.77626">
        <ele>164</ele>
        <time>2009-06-07T09:36:33Z</time>
      </trkpt>
      <trkpt lat="48.03614" lon="-0.77632">
        <ele>165</ele>
        <time>2009-06-07T09:36:35Z</time>
      </trkpt>
      <trkpt lat="48.03612" lon="-0.77636">
        <ele>165</ele>
        <time>2009-06-07T09:36:37Z</time>
      </trkpt>
      <trkpt lat="48.03609" lon="-0.77638">
        <ele>167</ele>
        <time>2009-06-07T09:36:39Z</time>
      </trkpt>
      <trkpt lat="48.03606" lon="-0.77643">
        <ele>167</ele>
        <time>2009-06-07T09:36:41Z</time>
      </trkpt>
      <trkpt lat="48.03606" lon="-0.77648">
        <ele>166</ele>
        <time>2009-06-07T09:36:43Z</time>
      </trkpt>
      <trkpt lat="48.03604" lon="-0.77651">
        <ele>166</ele>
        <time>2009-06-07T09:36:45Z</time>
      </trkpt>
      <trkpt lat="48.036" lon="-0.77651">
        <ele>166</ele>
        <time>2009-06-07T09:36:47Z</time>
      </trkpt>
      <trkpt lat="48.03598" lon="-0.77651">
        <ele>167</ele>
        <time>2009-06-07T09:36:49Z</time>
      </trkpt>
      <trkpt lat="48.03596" lon="-0.77656">
        <ele>167</ele>
        <time>2009-06-07T09:36:51Z</time>
      </trkpt>
      <trkpt lat="48.03595" lon="-0.77658">
        <ele>166</ele>
        <time>2009-06-07T09:36:53Z</time>
      </trkpt>
      <trkpt lat="48.03592" lon="-0.77661">
        <ele>167</ele>
        <time>2009-06-07T09:36:55Z</time>
      </trkpt>
      <trkpt lat="48.03588" lon="-0.77667">
        <ele>167</ele>
        <time>2009-06-07T09:36:57Z</time>
      </trkpt>
      <trkpt lat="48.03586" lon="-0.77668">
        <ele>167</ele>
        <time>2009-06-07T09:36:59Z</time>
      </trkpt>
      <trkpt lat="48.03582" lon="-0.77674">
        <ele>167</ele>
        <time>2009-06-07T09:37:01Z</time>
      </trkpt>
      <trkpt lat="48.03581" lon="-0.77678">
        <ele>167</ele>
        <time>2009-06-07T09:37:03Z</time>
      </trkpt>
      <trkpt lat="48.03584" lon="-0.77679">
        <ele>168</ele>
        <time>2009-06-07T09:37:05Z</time>
      </trkpt>
      <trkpt lat="48.03588" lon="-0.77685">
        <ele>167</ele>
        <time>2009-06-07T09:37:07Z</time>
      </trkpt>
      <trkpt lat="48.0359" lon="-0.77691">
        <ele>168</ele>
        <time>2009-06-07T09:37:09Z</time>
      </trkpt>
      <trkpt lat="48.03589" lon="-0.77695">
        <ele>168</ele>
        <time>2009-06-07T09:37:11Z</time>
      </trkpt>
      <trkpt lat="48.03587" lon="-0.77698">
        <ele>168</ele>
        <time>2009-06-07T09:37:13Z</time>
      </trkpt>
      <trkpt lat="48.03586" lon="-0.777">
        <ele>169</ele>
        <time>2009-06-07T09:37:15Z</time>
      </trkpt>
      <trkpt lat="48.03585" lon="-0.77702">
        <ele>169</ele>
        <time>2009-06-07T09:37:17Z</time>
      </trkpt>
      <trkpt lat="48.03584" lon="-0.77704">
        <ele>168</ele>
        <time>2009-06-07T09:37:19Z</time>
      </trkpt>
      <trkpt lat="48.03584" lon="-0.77706">
        <ele>168</ele>
        <time>2009-06-07T09:37:21Z</time>
      </trkpt>
      <trkpt lat="48.03586" lon="-0.77707">
        <ele>169</ele>
        <time>2009-06-07T09:37:23Z</time>
      </trkpt>
      <trkpt lat="48.03586" lon="-0.77708">
        <ele>169</ele>
        <time>2009-06-07T09:37:25Z</time>
      </trkpt>
      <trkpt lat="48.03586" lon="-0.77711">
        <ele>169</ele>
        <time>2009-06-07T09:37:27Z</time>
      </trkpt>
      <trkpt lat="48.03585" lon="-0.77714">
        <ele>169</ele>
        <time>2009-06-07T09:37:29Z</time>
      </trkpt>
      <trkpt lat="48.03585" lon="-0.77718">
        <ele>169</ele>
        <time>2009-06-07T09:37:31Z</time>
      </trkpt>
      <trkpt lat="48.03585" lon="-0.77719">
        <ele>169</ele>
        <time>2009-06-07T09:37:33Z</time>
      </trkpt>
      <trkpt lat="48.03581" lon="-0.77721">
        <ele>169</ele>
        <time>2009-06-07T09:37:35Z</time>
      </trkpt>
      <trkpt lat="48.03579" lon="-0.77719">
        <ele>169</ele>
        <time>2009-06-07T09:37:37Z</time>
      </trkpt>
      <trkpt lat="48.03577" lon="-0.77718">
        <ele>169</ele>
        <time>2009-06-07T09:37:39Z</time>
      </trkpt>
      <trkpt lat="48.03576" lon="-0.77719">
        <ele>169</ele>
        <time>2009-06-07T09:37:41Z</time>
      </trkpt>
      <trkpt lat="48.0357" lon="-0.7772">
        <ele>170</ele>
        <time>2009-06-07T09:37:43Z</time>
      </trkpt>
      <trkpt lat="48.03568" lon="-0.7772">
        <ele>170</ele>
        <time>2009-06-07T09:37:45Z</time>
      </trkpt>
      <trkpt lat="48.03561" lon="-0.7772">
        <ele>170</ele>
        <time>2009-06-07T09:37:47Z</time>
      </trkpt>
      <trkpt lat="48.03557" lon="-0.77724">
        <ele>170</ele>
        <time>2009-06-07T09:37:49Z</time>
      </trkpt>
      <trkpt lat="48.03557" lon="-0.77731">
        <ele>171</ele>
        <time>2009-06-07T09:37:51Z</time>
      </trkpt>
      <trkpt lat="48.03557" lon="-0.77734">
        <ele>171</ele>
        <time>2009-06-07T09:37:53Z</time>
      </trkpt>
      <trkpt lat="48.03555" lon="-0.77738">
        <ele>171</ele>
        <time>2009-06-07T09:37:55Z</time>
      </trkpt>
      <trkpt lat="48.03552" lon="-0.77739">
        <ele>170</ele>
        <time>2009-06-07T09:37:57Z</time>
      </trkpt>
      <trkpt lat="48.0355" lon="-0.77739">
        <ele>170</ele>
        <time>2009-06-07T09:37:59Z</time>
      </trkpt>
      <trkpt lat="48.0355" lon="-0.77742">
        <ele>170</ele>
        <time>2009-06-07T09:38:01Z</time>
      </trkpt>
      <trkpt lat="48.03543" lon="-0.77752">
        <ele>167</ele>
        <time>2009-06-07T09:38:03Z</time>
      </trkpt>
      <trkpt lat="48.03543" lon="-0.77752">
        <ele>167</ele>
        <time>2009-06-07T09:38:05Z</time>
      </trkpt>
      <trkpt lat="48.03545" lon="-0.77753">
        <ele>167</ele>
        <time>2009-06-07T09:38:07Z</time>
      </trkpt>
      <trkpt lat="48.03547" lon="-0.7775">
        <ele>167</ele>
        <time>2009-06-07T09:38:09Z</time>
      </trkpt>
      <trkpt lat="48.03547" lon="-0.7775">
        <ele>166</ele>
        <time>2009-06-07T09:38:11Z</time>
      </trkpt>
      <trkpt lat="48.03547" lon="-0.77749">
        <ele>167</ele>
        <time>2009-06-07T09:38:13Z</time>
      </trkpt>
      <trkpt lat="48.03548" lon="-0.7775">
        <ele>167</ele>
        <time>2009-06-07T09:38:15Z</time>
      </trkpt>
      <trkpt lat="48.0355" lon="-0.7775">
        <ele>166</ele>
        <time>2009-06-07T09:38:17Z</time>
      </trkpt>
      <trkpt lat="48.0355" lon="-0.7775">
        <ele>166</ele>
        <time>2009-06-07T09:38:19Z</time>
      </trkpt>
      <trkpt lat="48.03551" lon="-0.77751">
        <ele>167</ele>
        <time>2009-06-07T09:38:21Z</time>
      </trkpt>
      <trkpt lat="48.03551" lon="-0.77751">
        <ele>167</ele>
        <time>2009-06-07T09:38:23Z</time>
      </trkpt>
      <trkpt lat="48.03552" lon="-0.77753">
        <ele>167</ele>
        <time>2009-06-07T09:38:25Z</time>
      </trkpt>
      <trkpt lat="48.03554" lon="-0.77754">
        <ele>167</ele>
        <time>2009-06-07T09:38:27Z</time>
      </trkpt>
      <trkpt lat="48.03554" lon="-0.77754">
        <ele>167</ele>
        <time>2009-06-07T09:38:29Z</time>
      </trkpt>
      <trkpt lat="48.03556" lon="-0.77754">
        <ele>167</ele>
        <time>2009-06-07T09:38:31Z</time>
      </trkpt>
      <trkpt lat="48.03556" lon="-0.77754">
        <ele>168</ele>
        <time>2009-06-07T09:38:33Z</time>
      </trkpt>
      <trkpt lat="48.03556" lon="-0.77754">
        <ele>168</ele>
        <time>2009-06-07T09:38:35Z</time>
      </trkpt>
      <trkpt lat="48.03556" lon="-0.77754">
        <ele>168</ele>
        <time>2009-06-07T09:38:37Z</time>
      </trkpt>
      <trkpt lat="48.03556" lon="-0.77754">
        <ele>168</ele>
        <time>2009-06-07T09:38:39Z</time>
      </trkpt>
      <trkpt lat="48.03556" lon="-0.77755">
        <ele>168</ele>
        <time>2009-06-07T09:38:41Z</time>
      </trkpt>
      <trkpt lat="48.03556" lon="-0.77757">
        <ele>168</ele>
        <time>2009-06-07T09:38:43Z</time>
      </trkpt>
      <trkpt lat="48.03556" lon="-0.77757">
        <ele>168</ele>
        <time>2009-06-07T09:38:45Z</time>
      </trkpt>
      <trkpt lat="48.03556" lon="-0.77758">
        <ele>168</ele>
        <time>2009-06-07T09:38:47Z</time>
      </trkpt>
      <trkpt lat="48.03557" lon="-0.77761">
        <ele>168</ele>
        <time>2009-06-07T09:38:49Z</time>
      </trkpt>
      <trkpt lat="48.03558" lon="-0.77761">
        <ele>168</ele>
        <time>2009-06-07T09:38:51Z</time>
      </trkpt>
      <trkpt lat="48.03553" lon="-0.77821">
        <ele>167</ele>
        <time>2009-06-07T09:38:53Z</time>
      </trkpt>
      <trkpt lat="48.03551" lon="-0.77829">
        <ele>166</ele>
        <time>2009-06-07T09:38:55Z</time>
      </trkpt>
      <trkpt lat="48.03547" lon="-0.77837">
        <ele>166</ele>
        <time>2009-06-07T09:38:57Z</time>
      </trkpt>
      <trkpt lat="48.03544" lon="-0.77844">
        <ele>166</ele>
        <time>2009-06-07T09:38:59Z</time>
      </trkpt>
      <trkpt lat="48.03541" lon="-0.7785">
        <ele>166</ele>
        <time>2009-06-07T09:39:01Z</time>
      </trkpt>
      <trkpt lat="48.03536" lon="-0.77853">
        <ele>166</ele>
        <time>2009-06-07T09:39:03Z</time>
      </trkpt>
      <trkpt lat="48.03534" lon="-0.77858">
        <ele>166</ele>
        <time>2009-06-07T09:39:05Z</time>
      </trkpt>
      <trkpt lat="48.03532" lon="-0.77865">
        <ele>166</ele>
        <time>2009-06-07T09:39:07Z</time>
      </trkpt>
      <trkpt lat="48.03528" lon="-0.77869">
        <ele>167</ele>
        <time>2009-06-07T09:39:09Z</time>
      </trkpt>
      <trkpt lat="48.03524" lon="-0.77879">
        <ele>167</ele>
        <time>2009-06-07T09:39:11Z</time>
      </trkpt>
      <trkpt lat="48.03519" lon="-0.77883">
        <ele>168</ele>
        <time>2009-06-07T09:39:13Z</time>
      </trkpt>
      <trkpt lat="48.03517" lon="-0.77895">
        <ele>167</ele>
        <time>2009-06-07T09:39:15Z</time>
      </trkpt>
      <trkpt lat="48.03513" lon="-0.77903">
        <ele>167</ele>
        <time>2009-06-07T09:39:17Z</time>
      </trkpt>
      <trkpt lat="48.0351" lon="-0.7791">
        <ele>167</ele>
        <time>2009-06-07T09:39:19Z</time>
      </trkpt>
      <trkpt lat="48.03508" lon="-0.77918">
        <ele>167</ele>
        <time>2009-06-07T09:39:21Z</time>
      </trkpt>
      <trkpt lat="48.03505" lon="-0.77924">
        <ele>167</ele>
        <time>2009-06-07T09:39:23Z</time>
      </trkpt>
      <trkpt lat="48.03503" lon="-0.77931">
        <ele>168</ele>
        <time>2009-06-07T09:39:25Z</time>
      </trkpt>
      <trkpt lat="48.03503" lon="-0.77939">
        <ele>167</ele>
        <time>2009-06-07T09:39:27Z</time>
      </trkpt>
      <trkpt lat="48.03498" lon="-0.77943">
        <ele>169</ele>
        <time>2009-06-07T09:39:29Z</time>
      </trkpt>
      <trkpt lat="48.03495" lon="-0.77948">
        <ele>170</ele>
        <time>2009-06-07T09:39:31Z</time>
      </trkpt>
      <trkpt lat="48.03493" lon="-0.77959">
        <ele>171</ele>
        <time>2009-06-07T09:39:33Z</time>
      </trkpt>
      <trkpt lat="48.0349" lon="-0.77965">
        <ele>172</ele>
        <time>2009-06-07T09:39:35Z</time>
      </trkpt>
      <trkpt lat="48.03489" lon="-0.77971">
        <ele>171</ele>
        <time>2009-06-07T09:39:37Z</time>
      </trkpt>
      <trkpt lat="48.03488" lon="-0.77977">
        <ele>171</ele>
        <time>2009-06-07T09:39:39Z</time>
      </trkpt>
      <trkpt lat="48.03485" lon="-0.77986">
        <ele>171</ele>
        <time>2009-06-07T09:39:41Z</time>
      </trkpt>
      <trkpt lat="48.03476" lon="-0.78">
        <ele>171</ele>
        <time>2009-06-07T09:39:43Z</time>
      </trkpt>
      <trkpt lat="48.03471" lon="-0.7801">
        <ele>172</ele>
        <time>2009-06-07T09:39:45Z</time>
      </trkpt>
      <trkpt lat="48.03465" lon="-0.78018">
        <ele>172</ele>
        <time>2009-06-07T09:39:47Z</time>
      </trkpt>
      <trkpt lat="48.03464" lon="-0.78023">
        <ele>172</ele>
        <time>2009-06-07T09:39:49Z</time>
      </trkpt>
      <trkpt lat="48.03462" lon="-0.78032">
        <ele>171</ele>
        <time>2009-06-07T09:39:51Z</time>
      </trkpt>
      <trkpt lat="48.0346" lon="-0.78041">
        <ele>171</ele>
        <time>2009-06-07T09:39:53Z</time>
      </trkpt>
      <trkpt lat="48.03454" lon="-0.78047">
        <ele>170</ele>
        <time>2009-06-07T09:39:55Z</time>
      </trkpt>
      <trkpt lat="48.03453" lon="-0.78056">
        <ele>171</ele>
        <time>2009-06-07T09:39:57Z</time>
      </trkpt>
      <trkpt lat="48.03449" lon="-0.78064">
        <ele>171</ele>
        <time>2009-06-07T09:39:59Z</time>
      </trkpt>
      <trkpt lat="48.03446" lon="-0.78071">
        <ele>170</ele>
        <time>2009-06-07T09:40:01Z</time>
      </trkpt>
      <trkpt lat="48.03444" lon="-0.78081">
        <ele>170</ele>
        <time>2009-06-07T09:40:03Z</time>
      </trkpt>
      <trkpt lat="48.0344" lon="-0.78088">
        <ele>170</ele>
        <time>2009-06-07T09:40:05Z</time>
      </trkpt>
      <trkpt lat="48.03437" lon="-0.78094">
        <ele>171</ele>
        <time>2009-06-07T09:40:07Z</time>
      </trkpt>
      <trkpt lat="48.03435" lon="-0.781">
        <ele>172</ele>
        <time>2009-06-07T09:40:09Z</time>
      </trkpt>
      <trkpt lat="48.0343" lon="-0.78107">
        <ele>171</ele>
        <time>2009-06-07T09:40:11Z</time>
      </trkpt>
      <trkpt lat="48.03422" lon="-0.78114">
        <ele>171</ele>
        <time>2009-06-07T09:40:13Z</time>
      </trkpt>
      <trkpt lat="48.03416" lon="-0.78126">
        <ele>172</ele>
        <time>2009-06-07T09:40:15Z</time>
      </trkpt>
      <trkpt lat="48.03408" lon="-0.78136">
        <ele>172</ele>
        <time>2009-06-07T09:40:17Z</time>
      </trkpt>
      <trkpt lat="48.03402" lon="-0.78144">
        <ele>172</ele>
        <time>2009-06-07T09:40:19Z</time>
      </trkpt>
      <trkpt lat="48.03396" lon="-0.78152">
        <ele>173</ele>
        <time>2009-06-07T09:40:21Z</time>
      </trkpt>
      <trkpt lat="48.03391" lon="-0.78159">
        <ele>173</ele>
        <time>2009-06-07T09:40:23Z</time>
      </trkpt>
      <trkpt lat="48.03386" lon="-0.78164">
        <ele>173</ele>
        <time>2009-06-07T09:40:25Z</time>
      </trkpt>
      <trkpt lat="48.03383" lon="-0.7817">
        <ele>172</ele>
        <time>2009-06-07T09:40:27Z</time>
      </trkpt>
      <trkpt lat="48.0338" lon="-0.78176">
        <ele>172</ele>
        <time>2009-06-07T09:40:29Z</time>
      </trkpt>
      <trkpt lat="48.03378" lon="-0.78183">
        <ele>172</ele>
        <time>2009-06-07T09:40:31Z</time>
      </trkpt>
      <trkpt lat="48.03373" lon="-0.78188">
        <ele>171</ele>
        <time>2009-06-07T09:40:33Z</time>
      </trkpt>
      <trkpt lat="48.03367" lon="-0.78195">
        <ele>170</ele>
        <time>2009-06-07T09:40:35Z</time>
      </trkpt>
      <trkpt lat="48.03363" lon="-0.78201">
        <ele>170</ele>
        <time>2009-06-07T09:40:37Z</time>
      </trkpt>
      <trkpt lat="48.03358" lon="-0.7821">
        <ele>170</ele>
        <time>2009-06-07T09:40:39Z</time>
      </trkpt>
      <trkpt lat="48.03354" lon="-0.78216">
        <ele>169</ele>
        <time>2009-06-07T09:40:41Z</time>
      </trkpt>
      <trkpt lat="48.03348" lon="-0.78224">
        <ele>168</ele>
        <time>2009-06-07T09:40:43Z</time>
      </trkpt>
      <trkpt lat="48.03338" lon="-0.78235">
        <ele>166</ele>
        <time>2009-06-07T09:40:45Z</time>
      </trkpt>
      <trkpt lat="48.03333" lon="-0.78241">
        <ele>166</ele>
        <time>2009-06-07T09:40:47Z</time>
      </trkpt>
      <trkpt lat="48.0333" lon="-0.78247">
        <ele>167</ele>
        <time>2009-06-07T09:40:49Z</time>
      </trkpt>
      <trkpt lat="48.03322" lon="-0.78254">
        <ele>169</ele>
        <time>2009-06-07T09:40:51Z</time>
      </trkpt>
      <trkpt lat="48.03318" lon="-0.78259">
        <ele>169</ele>
        <time>2009-06-07T09:40:53Z</time>
      </trkpt>
      <trkpt lat="48.03319" lon="-0.78264">
        <ele>169</ele>
        <time>2009-06-07T09:40:55Z</time>
      </trkpt>
      <trkpt lat="48.03318" lon="-0.78269">
        <ele>169</ele>
        <time>2009-06-07T09:40:57Z</time>
      </trkpt>
      <trkpt lat="48.03318" lon="-0.78273">
        <ele>169</ele>
        <time>2009-06-07T09:40:59Z</time>
      </trkpt>
      <trkpt lat="48.03318" lon="-0.78279">
        <ele>168</ele>
        <time>2009-06-07T09:41:01Z</time>
      </trkpt>
      <trkpt lat="48.03318" lon="-0.78282">
        <ele>169</ele>
        <time>2009-06-07T09:41:03Z</time>
      </trkpt>
      <trkpt lat="48.0332" lon="-0.78289">
        <ele>168</ele>
        <time>2009-06-07T09:41:05Z</time>
      </trkpt>
      <trkpt lat="48.03323" lon="-0.78294">
        <ele>168</ele>
        <time>2009-06-07T09:41:07Z</time>
      </trkpt>
      <trkpt lat="48.03326" lon="-0.78299">
        <ele>168</ele>
        <time>2009-06-07T09:41:09Z</time>
      </trkpt>
      <trkpt lat="48.03329" lon="-0.78302">
        <ele>168</ele>
        <time>2009-06-07T09:41:11Z</time>
      </trkpt>
      <trkpt lat="48.03338" lon="-0.78311">
        <ele>168</ele>
        <time>2009-06-07T09:41:13Z</time>
      </trkpt>
      <trkpt lat="48.03341" lon="-0.78316">
        <ele>168</ele>
        <time>2009-06-07T09:41:15Z</time>
      </trkpt>
      <trkpt lat="48.03344" lon="-0.78316">
        <ele>168</ele>
        <time>2009-06-07T09:41:17Z</time>
      </trkpt>
      <trkpt lat="48.03352" lon="-0.78325">
        <ele>167</ele>
        <time>2009-06-07T09:41:19Z</time>
      </trkpt>
      <trkpt lat="48.03356" lon="-0.78327">
        <ele>167</ele>
        <time>2009-06-07T09:41:21Z</time>
      </trkpt>
      <trkpt lat="48.03359" lon="-0.78335">
        <ele>167</ele>
        <time>2009-06-07T09:41:23Z</time>
      </trkpt>
      <trkpt lat="48.03364" lon="-0.78346">
        <ele>166</ele>
        <time>2009-06-07T09:41:25Z</time>
      </trkpt>
      <trkpt lat="48.03365" lon="-0.78354">
        <ele>166</ele>
        <time>2009-06-07T09:41:27Z</time>
      </trkpt>
      <trkpt lat="48.03365" lon="-0.78362">
        <ele>166</ele>
        <time>2009-06-07T09:41:29Z</time>
      </trkpt>
      <trkpt lat="48.03374" lon="-0.78373">
        <ele>166</ele>
        <time>2009-06-07T09:41:31Z</time>
      </trkpt>
      <trkpt lat="48.03378" lon="-0.78381">
        <ele>165</ele>
        <time>2009-06-07T09:41:33Z</time>
      </trkpt>
      <trkpt lat="48.03382" lon="-0.78388">
        <ele>165</ele>
        <time>2009-06-07T09:41:35Z</time>
      </trkpt>
      <trkpt lat="48.03386" lon="-0.78398">
        <ele>165</ele>
        <time>2009-06-07T09:41:37Z</time>
      </trkpt>
      <trkpt lat="48.03399" lon="-0.78411">
        <ele>165</ele>
        <time>2009-06-07T09:41:39Z</time>
      </trkpt>
      <trkpt lat="48.03408" lon="-0.7842">
        <ele>165</ele>
        <time>2009-06-07T09:41:41Z</time>
      </trkpt>
      <trkpt lat="48.03418" lon="-0.78428">
        <ele>165</ele>
        <time>2009-06-07T09:41:43Z</time>
      </trkpt>
      <trkpt lat="48.0343" lon="-0.78435">
        <ele>165</ele>
        <time>2009-06-07T09:41:45Z</time>
      </trkpt>
      <trkpt lat="48.03434" lon="-0.78439">
        <ele>165</ele>
        <time>2009-06-07T09:41:47Z</time>
      </trkpt>
      <trkpt lat="48.03439" lon="-0.78448">
        <ele>164</ele>
        <time>2009-06-07T09:41:49Z</time>
      </trkpt>
      <trkpt lat="48.03442" lon="-0.78456">
        <ele>164</ele>
        <time>2009-06-07T09:41:51Z</time>
      </trkpt>
      <trkpt lat="48.03449" lon="-0.78463">
        <ele>164</ele>
        <time>2009-06-07T09:41:53Z</time>
      </trkpt>
      <trkpt lat="48.03456" lon="-0.78471">
        <ele>164</ele>
        <time>2009-06-07T09:41:55Z</time>
      </trkpt>
      <trkpt lat="48.03461" lon="-0.78474">
        <ele>163</ele>
        <time>2009-06-07T09:41:57Z</time>
      </trkpt>
      <trkpt lat="48.03467" lon="-0.78483">
        <ele>163</ele>
        <time>2009-06-07T09:41:59Z</time>
      </trkpt>
      <trkpt lat="48.03472" lon="-0.78495">
        <ele>163</ele>
        <time>2009-06-07T09:42:01Z</time>
      </trkpt>
      <trkpt lat="48.0348" lon="-0.78504">
        <ele>163</ele>
        <time>2009-06-07T09:42:03Z</time>
      </trkpt>
      <trkpt lat="48.03485" lon="-0.7851">
        <ele>163</ele>
        <time>2009-06-07T09:42:05Z</time>
      </trkpt>
      <trkpt lat="48.03494" lon="-0.78515">
        <ele>163</ele>
        <time>2009-06-07T09:42:07Z</time>
      </trkpt>
      <trkpt lat="48.03504" lon="-0.78525">
        <ele>163</ele>
        <time>2009-06-07T09:42:09Z</time>
      </trkpt>
      <trkpt lat="48.0351" lon="-0.78533">
        <ele>163</ele>
        <time>2009-06-07T09:42:11Z</time>
      </trkpt>
      <trkpt lat="48.03519" lon="-0.78542">
        <ele>163</ele>
        <time>2009-06-07T09:42:13Z</time>
      </trkpt>
      <trkpt lat="48.03528" lon="-0.78553">
        <ele>163</ele>
        <time>2009-06-07T09:42:15Z</time>
      </trkpt>
      <trkpt lat="48.03541" lon="-0.7857">
        <ele>163</ele>
        <time>2009-06-07T09:42:17Z</time>
      </trkpt>
      <trkpt lat="48.03553" lon="-0.78586">
        <ele>164</ele>
        <time>2009-06-07T09:42:19Z</time>
      </trkpt>
      <trkpt lat="48.03563" lon="-0.786">
        <ele>164</ele>
        <time>2009-06-07T09:42:21Z</time>
      </trkpt>
      <trkpt lat="48.03567" lon="-0.78607">
        <ele>163</ele>
        <time>2009-06-07T09:42:23Z</time>
      </trkpt>
      <trkpt lat="48.03579" lon="-0.78621">
        <ele>163</ele>
        <time>2009-06-07T09:42:25Z</time>
      </trkpt>
      <trkpt lat="48.03585" lon="-0.78631">
        <ele>163</ele>
        <time>2009-06-07T09:42:27Z</time>
      </trkpt>
      <trkpt lat="48.0359" lon="-0.78639">
        <ele>162</ele>
        <time>2009-06-07T09:42:29Z</time>
      </trkpt>
      <trkpt lat="48.03597" lon="-0.78647">
        <ele>163</ele>
        <time>2009-06-07T09:42:31Z</time>
      </trkpt>
      <trkpt lat="48.03604" lon="-0.78657">
        <ele>163</ele>
        <time>2009-06-07T09:42:33Z</time>
      </trkpt>
      <trkpt lat="48.03622" lon="-0.78677">
        <ele>161</ele>
        <time>2009-06-07T09:42:35Z</time>
      </trkpt>
      <trkpt lat="48.03631" lon="-0.78683">
        <ele>161</ele>
        <time>2009-06-07T09:42:37Z</time>
      </trkpt>
      <trkpt lat="48.03634" lon="-0.78695">
        <ele>161</ele>
        <time>2009-06-07T09:42:39Z</time>
      </trkpt>
      <trkpt lat="48.03645" lon="-0.78709">
        <ele>161</ele>
        <time>2009-06-07T09:42:41Z</time>
      </trkpt>
      <trkpt lat="48.03654" lon="-0.78722">
        <ele>161</ele>
        <time>2009-06-07T09:42:43Z</time>
      </trkpt>
      <trkpt lat="48.03666" lon="-0.78738">
        <ele>160</ele>
        <time>2009-06-07T09:42:45Z</time>
      </trkpt>
      <trkpt lat="48.03677" lon="-0.78752">
        <ele>160</ele>
        <time>2009-06-07T09:42:47Z</time>
      </trkpt>
      <trkpt lat="48.03681" lon="-0.78764">
        <ele>158</ele>
        <time>2009-06-07T09:42:49Z</time>
      </trkpt>
      <trkpt lat="48.03684" lon="-0.78775">
        <ele>158</ele>
        <time>2009-06-07T09:42:51Z</time>
      </trkpt>
      <trkpt lat="48.03687" lon="-0.78785">
        <ele>157</ele>
        <time>2009-06-07T09:42:53Z</time>
      </trkpt>
      <trkpt lat="48.0369" lon="-0.78792">
        <ele>156</ele>
        <time>2009-06-07T09:42:55Z</time>
      </trkpt>
      <trkpt lat="48.03693" lon="-0.788">
        <ele>156</ele>
        <time>2009-06-07T09:42:57Z</time>
      </trkpt>
      <trkpt lat="48.03696" lon="-0.78808">
        <ele>156</ele>
        <time>2009-06-07T09:42:59Z</time>
      </trkpt>
      <trkpt lat="48.03695" lon="-0.78812">
        <ele>155</ele>
        <time>2009-06-07T09:43:01Z</time>
      </trkpt>
      <trkpt lat="48.03703" lon="-0.78826">
        <ele>155</ele>
        <time>2009-06-07T09:43:03Z</time>
      </trkpt>
      <trkpt lat="48.03716" lon="-0.78844">
        <ele>157</ele>
        <time>2009-06-07T09:43:05Z</time>
      </trkpt>
      <trkpt lat="48.03723" lon="-0.78856">
        <ele>157</ele>
        <time>2009-06-07T09:43:07Z</time>
      </trkpt>
      <trkpt lat="48.03727" lon="-0.78869">
        <ele>156</ele>
        <time>2009-06-07T09:43:09Z</time>
      </trkpt>
      <trkpt lat="48.03733" lon="-0.78881">
        <ele>156</ele>
        <time>2009-06-07T09:43:11Z</time>
      </trkpt>
      <trkpt lat="48.03736" lon="-0.78888">
        <ele>157</ele>
        <time>2009-06-07T09:43:13Z</time>
      </trkpt>
      <trkpt lat="48.03741" lon="-0.78896">
        <ele>157</ele>
        <time>2009-06-07T09:43:15Z</time>
      </trkpt>
      <trkpt lat="48.03744" lon="-0.78902">
        <ele>157</ele>
        <time>2009-06-07T09:43:17Z</time>
      </trkpt>
      <trkpt lat="48.03748" lon="-0.78907">
        <ele>157</ele>
        <time>2009-06-07T09:43:19Z</time>
      </trkpt>
      <trkpt lat="48.03753" lon="-0.78915">
        <ele>158</ele>
        <time>2009-06-07T09:43:21Z</time>
      </trkpt>
      <trkpt lat="48.03754" lon="-0.78922">
        <ele>158</ele>
        <time>2009-06-07T09:43:23Z</time>
      </trkpt>
      <trkpt lat="48.03759" lon="-0.78927">
        <ele>158</ele>
        <time>2009-06-07T09:43:25Z</time>
      </trkpt>
      <trkpt lat="48.03764" lon="-0.78935">
        <ele>158</ele>
        <time>2009-06-07T09:43:27Z</time>
      </trkpt>
      <trkpt lat="48.0377" lon="-0.78943">
        <ele>159</ele>
        <time>2009-06-07T09:43:29Z</time>
      </trkpt>
      <trkpt lat="48.0378" lon="-0.78954">
        <ele>160</ele>
        <time>2009-06-07T09:43:31Z</time>
      </trkpt>
      <trkpt lat="48.03787" lon="-0.78965">
        <ele>160</ele>
        <time>2009-06-07T09:43:33Z</time>
      </trkpt>
      <trkpt lat="48.03793" lon="-0.78974">
        <ele>162</ele>
        <time>2009-06-07T09:43:35Z</time>
      </trkpt>
      <trkpt lat="48.03801" lon="-0.7898">
        <ele>162</ele>
        <time>2009-06-07T09:43:37Z</time>
      </trkpt>
      <trkpt lat="48.0381" lon="-0.78985">
        <ele>161</ele>
        <time>2009-06-07T09:43:39Z</time>
      </trkpt>
      <trkpt lat="48.03814" lon="-0.78988">
        <ele>161</ele>
        <time>2009-06-07T09:43:41Z</time>
      </trkpt>
      <trkpt lat="48.03822" lon="-0.78989">
        <ele>162</ele>
        <time>2009-06-07T09:43:43Z</time>
      </trkpt>
      <trkpt lat="48.03827" lon="-0.78993">
        <ele>161</ele>
        <time>2009-06-07T09:43:45Z</time>
      </trkpt>
      <trkpt lat="48.03829" lon="-0.78993">
        <ele>161</ele>
        <time>2009-06-07T09:43:47Z</time>
      </trkpt>
      <trkpt lat="48.03835" lon="-0.78995">
        <ele>160</ele>
        <time>2009-06-07T09:43:49Z</time>
      </trkpt>
      <trkpt lat="48.03836" lon="-0.78998">
        <ele>160</ele>
        <time>2009-06-07T09:43:51Z</time>
      </trkpt>
      <trkpt lat="48.03839" lon="-0.79002">
        <ele>159</ele>
        <time>2009-06-07T09:43:53Z</time>
      </trkpt>
      <trkpt lat="48.03841" lon="-0.79001">
        <ele>158</ele>
        <time>2009-06-07T09:43:55Z</time>
      </trkpt>
      <trkpt lat="48.03843" lon="-0.79001">
        <ele>158</ele>
        <time>2009-06-07T09:43:57Z</time>
      </trkpt>
      <trkpt lat="48.03844" lon="-0.79003">
        <ele>158</ele>
        <time>2009-06-07T09:43:59Z</time>
      </trkpt>
      <trkpt lat="48.03848" lon="-0.79005">
        <ele>157</ele>
        <time>2009-06-07T09:44:01Z</time>
      </trkpt>
      <trkpt lat="48.03849" lon="-0.79006">
        <ele>158</ele>
        <time>2009-06-07T09:44:03Z</time>
      </trkpt>
      <trkpt lat="48.03857" lon="-0.7901">
        <ele>156</ele>
        <time>2009-06-07T09:44:05Z</time>
      </trkpt>
      <trkpt lat="48.03859" lon="-0.79011">
        <ele>155</ele>
        <time>2009-06-07T09:44:07Z</time>
      </trkpt>
      <trkpt lat="48.0386" lon="-0.79011">
        <ele>155</ele>
        <time>2009-06-07T09:44:09Z</time>
      </trkpt>
      <trkpt lat="48.03861" lon="-0.79013">
        <ele>155</ele>
        <time>2009-06-07T09:44:11Z</time>
      </trkpt>
      <trkpt lat="48.03862" lon="-0.79013">
        <ele>155</ele>
        <time>2009-06-07T09:44:13Z</time>
      </trkpt>
      <trkpt lat="48.03862" lon="-0.79014">
        <ele>155</ele>
        <time>2009-06-07T09:44:15Z</time>
      </trkpt>
      <trkpt lat="48.03864" lon="-0.79015">
        <ele>155</ele>
        <time>2009-06-07T09:44:17Z</time>
      </trkpt>
      <trkpt lat="48.03864" lon="-0.79015">
        <ele>155</ele>
        <time>2009-06-07T09:44:19Z</time>
      </trkpt>
      <trkpt lat="48.03866" lon="-0.79015">
        <ele>155</ele>
        <time>2009-06-07T09:44:21Z</time>
      </trkpt>
      <trkpt lat="48.03867" lon="-0.79015">
        <ele>156</ele>
        <time>2009-06-07T09:44:23Z</time>
      </trkpt>
      <trkpt lat="48.0387" lon="-0.79016">
        <ele>156</ele>
        <time>2009-06-07T09:44:25Z</time>
      </trkpt>
      <trkpt lat="48.03872" lon="-0.79015">
        <ele>156</ele>
        <time>2009-06-07T09:44:27Z</time>
      </trkpt>
      <trkpt lat="48.03874" lon="-0.79013">
        <ele>156</ele>
        <time>2009-06-07T09:44:29Z</time>
      </trkpt>
      <trkpt lat="48.03876" lon="-0.79012">
        <ele>156</ele>
        <time>2009-06-07T09:44:31Z</time>
      </trkpt>
      <trkpt lat="48.0388" lon="-0.79011">
        <ele>156</ele>
        <time>2009-06-07T09:44:33Z</time>
      </trkpt>
      <trkpt lat="48.03882" lon="-0.79012">
        <ele>156</ele>
        <time>2009-06-07T09:44:35Z</time>
      </trkpt>
      <trkpt lat="48.03888" lon="-0.79012">
        <ele>156</ele>
        <time>2009-06-07T09:44:37Z</time>
      </trkpt>
      <trkpt lat="48.03891" lon="-0.7901">
        <ele>156</ele>
        <time>2009-06-07T09:44:39Z</time>
      </trkpt>
      <trkpt lat="48.03894" lon="-0.79014">
        <ele>156</ele>
        <time>2009-06-07T09:44:41Z</time>
      </trkpt>
      <trkpt lat="48.03897" lon="-0.79015">
        <ele>156</ele>
        <time>2009-06-07T09:44:43Z</time>
      </trkpt>
      <trkpt lat="48.03901" lon="-0.79015">
        <ele>156</ele>
        <time>2009-06-07T09:44:45Z</time>
      </trkpt>
      <trkpt lat="48.03903" lon="-0.79022">
        <ele>156</ele>
        <time>2009-06-07T09:44:47Z</time>
      </trkpt>
      <trkpt lat="48.03905" lon="-0.79026">
        <ele>156</ele>
        <time>2009-06-07T09:44:49Z</time>
      </trkpt>
      <trkpt lat="48.03907" lon="-0.79023">
        <ele>157</ele>
        <time>2009-06-07T09:44:51Z</time>
      </trkpt>
      <trkpt lat="48.03909" lon="-0.79023">
        <ele>157</ele>
        <time>2009-06-07T09:44:53Z</time>
      </trkpt>
      <trkpt lat="48.03912" lon="-0.79024">
        <ele>157</ele>
        <time>2009-06-07T09:44:55Z</time>
      </trkpt>
      <trkpt lat="48.03916" lon="-0.79026">
        <ele>156</ele>
        <time>2009-06-07T09:44:57Z</time>
      </trkpt>
      <trkpt lat="48.03918" lon="-0.79028">
        <ele>156</ele>
        <time>2009-06-07T09:44:59Z</time>
      </trkpt>
      <trkpt lat="48.03924" lon="-0.7903">
        <ele>155</ele>
        <time>2009-06-07T09:45:01Z</time>
      </trkpt>
      <trkpt lat="48.0393" lon="-0.79031">
        <ele>156</ele>
        <time>2009-06-07T09:45:03Z</time>
      </trkpt>
      <trkpt lat="48.03935" lon="-0.79031">
        <ele>156</ele>
        <time>2009-06-07T09:45:05Z</time>
      </trkpt>
      <trkpt lat="48.03939" lon="-0.79031">
        <ele>157</ele>
        <time>2009-06-07T09:45:07Z</time>
      </trkpt>
      <trkpt lat="48.03944" lon="-0.79033">
        <ele>156</ele>
        <time>2009-06-07T09:45:09Z</time>
      </trkpt>
      <trkpt lat="48.03948" lon="-0.79033">
        <ele>156</ele>
        <time>2009-06-07T09:45:11Z</time>
      </trkpt>
      <trkpt lat="48.03952" lon="-0.79033">
        <ele>156</ele>
        <time>2009-06-07T09:45:13Z</time>
      </trkpt>
      <trkpt lat="48.03957" lon="-0.79034">
        <ele>157</ele>
        <time>2009-06-07T09:45:15Z</time>
      </trkpt>
      <trkpt lat="48.03962" lon="-0.79034">
        <ele>157</ele>
        <time>2009-06-07T09:45:17Z</time>
      </trkpt>
      <trkpt lat="48.03966" lon="-0.79031">
        <ele>157</ele>
        <time>2009-06-07T09:45:19Z</time>
      </trkpt>
      <trkpt lat="48.03969" lon="-0.79031">
        <ele>157</ele>
        <time>2009-06-07T09:45:21Z</time>
      </trkpt>
      <trkpt lat="48.03973" lon="-0.79033">
        <ele>157</ele>
        <time>2009-06-07T09:45:23Z</time>
      </trkpt>
      <trkpt lat="48.03976" lon="-0.79035">
        <ele>157</ele>
        <time>2009-06-07T09:45:25Z</time>
      </trkpt>
      <trkpt lat="48.0398" lon="-0.79033">
        <ele>157</ele>
        <time>2009-06-07T09:45:27Z</time>
      </trkpt>
      <trkpt lat="48.03983" lon="-0.79036">
        <ele>157</ele>
        <time>2009-06-07T09:45:29Z</time>
      </trkpt>
      <trkpt lat="48.03986" lon="-0.79035">
        <ele>157</ele>
        <time>2009-06-07T09:45:31Z</time>
      </trkpt>
      <trkpt lat="48.03987" lon="-0.79035">
        <ele>156</ele>
        <time>2009-06-07T09:45:33Z</time>
      </trkpt>
      <trkpt lat="48.03992" lon="-0.79035">
        <ele>157</ele>
        <time>2009-06-07T09:45:35Z</time>
      </trkpt>
      <trkpt lat="48.03996" lon="-0.79034">
        <ele>157</ele>
        <time>2009-06-07T09:45:37Z</time>
      </trkpt>
      <trkpt lat="48.04" lon="-0.79034">
        <ele>157</ele>
        <time>2009-06-07T09:45:39Z</time>
      </trkpt>
      <trkpt lat="48.04004" lon="-0.79033">
        <ele>158</ele>
        <time>2009-06-07T09:45:41Z</time>
      </trkpt>
      <trkpt lat="48.04008" lon="-0.79033">
        <ele>158</ele>
        <time>2009-06-07T09:45:43Z</time>
      </trkpt>
      <trkpt lat="48.04012" lon="-0.79034">
        <ele>158</ele>
        <time>2009-06-07T09:45:45Z</time>
      </trkpt>
      <trkpt lat="48.04016" lon="-0.79037">
        <ele>159</ele>
        <time>2009-06-07T09:45:47Z</time>
      </trkpt>
      <trkpt lat="48.04019" lon="-0.79038">
        <ele>159</ele>
        <time>2009-06-07T09:45:49Z</time>
      </trkpt>
      <trkpt lat="48.04022" lon="-0.79038">
        <ele>158</ele>
        <time>2009-06-07T09:45:51Z</time>
      </trkpt>
      <trkpt lat="48.04024" lon="-0.79041">
        <ele>158</ele>
        <time>2009-06-07T09:45:54Z</time>
      </trkpt>
      <trkpt lat="48.04028" lon="-0.79044">
        <ele>159</ele>
        <time>2009-06-07T09:45:56Z</time>
      </trkpt>
      <trkpt lat="48.04031" lon="-0.79044">
        <ele>159</ele>
        <time>2009-06-07T09:45:58Z</time>
      </trkpt>
      <trkpt lat="48.04033" lon="-0.79044">
        <ele>159</ele>
        <time>2009-06-07T09:46:00Z</time>
      </trkpt>
      <trkpt lat="48.04037" lon="-0.79043">
        <ele>160</ele>
        <time>2009-06-07T09:46:02Z</time>
      </trkpt>
      <trkpt lat="48.04039" lon="-0.79043">
        <ele>160</ele>
        <time>2009-06-07T09:46:04Z</time>
      </trkpt>
      <trkpt lat="48.04041" lon="-0.79037">
        <ele>160</ele>
        <time>2009-06-07T09:46:06Z</time>
      </trkpt>
      <trkpt lat="48.04045" lon="-0.79038">
        <ele>161</ele>
        <time>2009-06-07T09:46:08Z</time>
      </trkpt>
      <trkpt lat="48.04049" lon="-0.79037">
        <ele>161</ele>
        <time>2009-06-07T09:46:10Z</time>
      </trkpt>
      <trkpt lat="48.04052" lon="-0.79037">
        <ele>161</ele>
        <time>2009-06-07T09:46:12Z</time>
      </trkpt>
      <trkpt lat="48.04056" lon="-0.79034">
        <ele>162</ele>
        <time>2009-06-07T09:46:14Z</time>
      </trkpt>
      <trkpt lat="48.0406" lon="-0.79034">
        <ele>162</ele>
        <time>2009-06-07T09:46:16Z</time>
      </trkpt>
      <trkpt lat="48.04071" lon="-0.79036">
        <ele>163</ele>
        <time>2009-06-07T09:46:18Z</time>
      </trkpt>
      <trkpt lat="48.04075" lon="-0.79037">
        <ele>164</ele>
        <time>2009-06-07T09:46:20Z</time>
      </trkpt>
      <trkpt lat="48.0408" lon="-0.79035">
        <ele>164</ele>
        <time>2009-06-07T09:46:22Z</time>
      </trkpt>
      <trkpt lat="48.04085" lon="-0.79037">
        <ele>164</ele>
        <time>2009-06-07T09:46:24Z</time>
      </trkpt>
      <trkpt lat="48.0409" lon="-0.79038">
        <ele>164</ele>
        <time>2009-06-07T09:46:26Z</time>
      </trkpt>
      <trkpt lat="48.04096" lon="-0.7904">
        <ele>164</ele>
        <time>2009-06-07T09:46:28Z</time>
      </trkpt>
      <trkpt lat="48.04103" lon="-0.79041">
        <ele>164</ele>
        <time>2009-06-07T09:46:30Z</time>
      </trkpt>
      <trkpt lat="48.04109" lon="-0.79045">
        <ele>165</ele>
        <time>2009-06-07T09:46:32Z</time>
      </trkpt>
      <trkpt lat="48.04115" lon="-0.79047">
        <ele>164</ele>
        <time>2009-06-07T09:46:34Z</time>
      </trkpt>
      <trkpt lat="48.04121" lon="-0.79049">
        <ele>165</ele>
        <time>2009-06-07T09:46:36Z</time>
      </trkpt>
      <trkpt lat="48.04127" lon="-0.79051">
        <ele>165</ele>
        <time>2009-06-07T09:46:38Z</time>
      </trkpt>
      <trkpt lat="48.04131" lon="-0.79052">
        <ele>165</ele>
        <time>2009-06-07T09:46:40Z</time>
      </trkpt>
      <trkpt lat="48.04134" lon="-0.79051">
        <ele>166</ele>
        <time>2009-06-07T09:46:42Z</time>
      </trkpt>
      <trkpt lat="48.0414" lon="-0.79048">
        <ele>166</ele>
        <time>2009-06-07T09:46:44Z</time>
      </trkpt>
      <trkpt lat="48.04145" lon="-0.79047">
        <ele>166</ele>
        <time>2009-06-07T09:46:46Z</time>
      </trkpt>
      <trkpt lat="48.04149" lon="-0.79046">
        <ele>166</ele>
        <time>2009-06-07T09:46:48Z</time>
      </trkpt>
      <trkpt lat="48.04153" lon="-0.79046">
        <ele>166</ele>
        <time>2009-06-07T09:46:50Z</time>
      </trkpt>
      <trkpt lat="48.04156" lon="-0.79046">
        <ele>167</ele>
        <time>2009-06-07T09:46:52Z</time>
      </trkpt>
      <trkpt lat="48.04161" lon="-0.79045">
        <ele>167</ele>
        <time>2009-06-07T09:46:54Z</time>
      </trkpt>
      <trkpt lat="48.04164" lon="-0.79045">
        <ele>167</ele>
        <time>2009-06-07T09:46:56Z</time>
      </trkpt>
      <trkpt lat="48.04167" lon="-0.79045">
        <ele>168</ele>
        <time>2009-06-07T09:46:58Z</time>
      </trkpt>
      <trkpt lat="48.04171" lon="-0.79042">
        <ele>167</ele>
        <time>2009-06-07T09:47:00Z</time>
      </trkpt>
      <trkpt lat="48.04173" lon="-0.79042">
        <ele>168</ele>
        <time>2009-06-07T09:47:02Z</time>
      </trkpt>
      <trkpt lat="48.04175" lon="-0.79042">
        <ele>167</ele>
        <time>2009-06-07T09:47:04Z</time>
      </trkpt>
      <trkpt lat="48.04178" lon="-0.79042">
        <ele>167</ele>
        <time>2009-06-07T09:47:06Z</time>
      </trkpt>
      <trkpt lat="48.0418" lon="-0.79042">
        <ele>167</ele>
        <time>2009-06-07T09:47:08Z</time>
      </trkpt>
      <trkpt lat="48.04182" lon="-0.79043">
        <ele>167</ele>
        <time>2009-06-07T09:47:10Z</time>
      </trkpt>
      <trkpt lat="48.04188" lon="-0.79047">
        <ele>167</ele>
        <time>2009-06-07T09:47:12Z</time>
      </trkpt>
      <trkpt lat="48.04192" lon="-0.79048">
        <ele>166</ele>
        <time>2009-06-07T09:47:14Z</time>
      </trkpt>
      <trkpt lat="48.04199" lon="-0.79052">
        <ele>166</ele>
        <time>2009-06-07T09:47:16Z</time>
      </trkpt>
      <trkpt lat="48.04203" lon="-0.79053">
        <ele>165</ele>
        <time>2009-06-07T09:47:18Z</time>
      </trkpt>
      <trkpt lat="48.04209" lon="-0.79055">
        <ele>165</ele>
        <time>2009-06-07T09:47:20Z</time>
      </trkpt>
      <trkpt lat="48.04213" lon="-0.79057">
        <ele>165</ele>
        <time>2009-06-07T09:47:22Z</time>
      </trkpt>
      <trkpt lat="48.0422" lon="-0.79056">
        <ele>163</ele>
        <time>2009-06-07T09:47:24Z</time>
      </trkpt>
      <trkpt lat="48.04225" lon="-0.79057">
        <ele>163</ele>
        <time>2009-06-07T09:47:26Z</time>
      </trkpt>
      <trkpt lat="48.04229" lon="-0.79059">
        <ele>163</ele>
        <time>2009-06-07T09:47:28Z</time>
      </trkpt>
      <trkpt lat="48.04233" lon="-0.79057">
        <ele>163</ele>
        <time>2009-06-07T09:47:30Z</time>
      </trkpt>
      <trkpt lat="48.04237" lon="-0.79058">
        <ele>162</ele>
        <time>2009-06-07T09:47:32Z</time>
      </trkpt>
      <trkpt lat="48.04243" lon="-0.79057">
        <ele>163</ele>
        <time>2009-06-07T09:47:34Z</time>
      </trkpt>
      <trkpt lat="48.0425" lon="-0.79056">
        <ele>161</ele>
        <time>2009-06-07T09:47:36Z</time>
      </trkpt>
      <trkpt lat="48.04258" lon="-0.79057">
        <ele>161</ele>
        <time>2009-06-07T09:47:38Z</time>
      </trkpt>
      <trkpt lat="48.04264" lon="-0.79057">
        <ele>161</ele>
        <time>2009-06-07T09:47:40Z</time>
      </trkpt>
      <trkpt lat="48.04274" lon="-0.79055">
        <ele>162</ele>
        <time>2009-06-07T09:47:42Z</time>
      </trkpt>
      <trkpt lat="48.04284" lon="-0.79056">
        <ele>162</ele>
        <time>2009-06-07T09:47:44Z</time>
      </trkpt>
      <trkpt lat="48.04291" lon="-0.79057">
        <ele>162</ele>
        <time>2009-06-07T09:47:46Z</time>
      </trkpt>
      <trkpt lat="48.043" lon="-0.79054">
        <ele>162</ele>
        <time>2009-06-07T09:47:48Z</time>
      </trkpt>
      <trkpt lat="48.0431" lon="-0.79051">
        <ele>162</ele>
        <time>2009-06-07T09:47:50Z</time>
      </trkpt>
      <trkpt lat="48.04321" lon="-0.79053">
        <ele>162</ele>
        <time>2009-06-07T09:47:52Z</time>
      </trkpt>
      <trkpt lat="48.0433" lon="-0.79054">
        <ele>162</ele>
        <time>2009-06-07T09:47:54Z</time>
      </trkpt>
      <trkpt lat="48.04335" lon="-0.7905">
        <ele>162</ele>
        <time>2009-06-07T09:47:56Z</time>
      </trkpt>
      <trkpt lat="48.04347" lon="-0.79048">
        <ele>162</ele>
        <time>2009-06-07T09:47:58Z</time>
      </trkpt>
      <trkpt lat="48.04356" lon="-0.79049">
        <ele>162</ele>
        <time>2009-06-07T09:48:00Z</time>
      </trkpt>
      <trkpt lat="48.04367" lon="-0.79053">
        <ele>161</ele>
        <time>2009-06-07T09:48:02Z</time>
      </trkpt>
      <trkpt lat="48.04377" lon="-0.79054">
        <ele>160</ele>
        <time>2009-06-07T09:48:04Z</time>
      </trkpt>
      <trkpt lat="48.04386" lon="-0.79056">
        <ele>161</ele>
        <time>2009-06-07T09:48:06Z</time>
      </trkpt>
      <trkpt lat="48.04396" lon="-0.7906">
        <ele>161</ele>
        <time>2009-06-07T09:48:08Z</time>
      </trkpt>
      <trkpt lat="48.04406" lon="-0.79059">
        <ele>161</ele>
        <time>2009-06-07T09:48:10Z</time>
      </trkpt>
      <trkpt lat="48.04411" lon="-0.79056">
        <ele>161</ele>
        <time>2009-06-07T09:48:12Z</time>
      </trkpt>
      <trkpt lat="48.04418" lon="-0.79042">
        <ele>154</ele>
        <time>2009-06-07T09:48:14Z</time>
      </trkpt>
      <trkpt lat="48.04422" lon="-0.79032">
        <ele>152</ele>
        <time>2009-06-07T09:48:16Z</time>
      </trkpt>
      <trkpt lat="48.04418" lon="-0.79024">
        <ele>151</ele>
        <time>2009-06-07T09:48:18Z</time>
      </trkpt>
      <trkpt lat="48.04415" lon="-0.79017">
        <ele>151</ele>
        <time>2009-06-07T09:48:20Z</time>
      </trkpt>
      <trkpt lat="48.04413" lon="-0.79008">
        <ele>150</ele>
        <time>2009-06-07T09:48:22Z</time>
      </trkpt>
      <trkpt lat="48.04412" lon="-0.78998">
        <ele>150</ele>
        <time>2009-06-07T09:48:24Z</time>
      </trkpt>
      <trkpt lat="48.04408" lon="-0.78992">
        <ele>150</ele>
        <time>2009-06-07T09:48:26Z</time>
      </trkpt>
      <trkpt lat="48.04404" lon="-0.78985">
        <ele>149</ele>
        <time>2009-06-07T09:48:28Z</time>
      </trkpt>
      <trkpt lat="48.04402" lon="-0.78977">
        <ele>149</ele>
        <time>2009-06-07T09:48:30Z</time>
      </trkpt>
      <trkpt lat="48.04401" lon="-0.78973">
        <ele>149</ele>
        <time>2009-06-07T09:48:32Z</time>
      </trkpt>
      <trkpt lat="48.04399" lon="-0.78964">
        <ele>149</ele>
        <time>2009-06-07T09:48:34Z</time>
      </trkpt>
      <trkpt lat="48.04399" lon="-0.78956">
        <ele>149</ele>
        <time>2009-06-07T09:48:36Z</time>
      </trkpt>
      <trkpt lat="48.04398" lon="-0.78948">
        <ele>150</ele>
        <time>2009-06-07T09:48:38Z</time>
      </trkpt>
      <trkpt lat="48.04398" lon="-0.78944">
        <ele>150</ele>
        <time>2009-06-07T09:48:40Z</time>
      </trkpt>
      <trkpt lat="48.04397" lon="-0.78936">
        <ele>150</ele>
        <time>2009-06-07T09:48:42Z</time>
      </trkpt>
      <trkpt lat="48.04395" lon="-0.78932">
        <ele>151</ele>
        <time>2009-06-07T09:48:44Z</time>
      </trkpt>
      <trkpt lat="48.04393" lon="-0.7892">
        <ele>152</ele>
        <time>2009-06-07T09:48:46Z</time>
      </trkpt>
      <trkpt lat="48.04391" lon="-0.78907">
        <ele>153</ele>
        <time>2009-06-07T09:48:48Z</time>
      </trkpt>
      <trkpt lat="48.04388" lon="-0.78895">
        <ele>154</ele>
        <time>2009-06-07T09:48:50Z</time>
      </trkpt>
      <trkpt lat="48.04385" lon="-0.78887">
        <ele>154</ele>
        <time>2009-06-07T09:48:52Z</time>
      </trkpt>
      <trkpt lat="48.04381" lon="-0.78882">
        <ele>154</ele>
        <time>2009-06-07T09:48:54Z</time>
      </trkpt>
      <trkpt lat="48.04377" lon="-0.78877">
        <ele>155</ele>
        <time>2009-06-07T09:48:56Z</time>
      </trkpt>
      <trkpt lat="48.04374" lon="-0.78863">
        <ele>155</ele>
        <time>2009-06-07T09:48:58Z</time>
      </trkpt>
      <trkpt lat="48.04372" lon="-0.78855">
        <ele>155</ele>
        <time>2009-06-07T09:49:00Z</time>
      </trkpt>
      <trkpt lat="48.0437" lon="-0.7885">
        <ele>155</ele>
        <time>2009-06-07T09:49:02Z</time>
      </trkpt>
      <trkpt lat="48.04371" lon="-0.78845">
        <ele>156</ele>
        <time>2009-06-07T09:49:04Z</time>
      </trkpt>
      <trkpt lat="48.04373" lon="-0.7884">
        <ele>156</ele>
        <time>2009-06-07T09:49:06Z</time>
      </trkpt>
      <trkpt lat="48.0437" lon="-0.78839">
        <ele>156</ele>
        <time>2009-06-07T09:49:08Z</time>
      </trkpt>
      <trkpt lat="48.04364" lon="-0.78835">
        <ele>156</ele>
        <time>2009-06-07T09:49:10Z</time>
      </trkpt>
      <trkpt lat="48.04362" lon="-0.7883">
        <ele>156</ele>
        <time>2009-06-07T09:49:12Z</time>
      </trkpt>
      <trkpt lat="48.0436" lon="-0.78818">
        <ele>157</ele>
        <time>2009-06-07T09:49:14Z</time>
      </trkpt>
      <trkpt lat="48.04357" lon="-0.7881">
        <ele>157</ele>
        <time>2009-06-07T09:49:16Z</time>
      </trkpt>
      <trkpt lat="48.04356" lon="-0.78806">
        <ele>157</ele>
        <time>2009-06-07T09:49:18Z</time>
      </trkpt>
      <trkpt lat="48.04356" lon="-0.78797">
        <ele>158</ele>
        <time>2009-06-07T09:49:20Z</time>
      </trkpt>
      <trkpt lat="48.04356" lon="-0.78788">
        <ele>159</ele>
        <time>2009-06-07T09:49:22Z</time>
      </trkpt>
      <trkpt lat="48.04355" lon="-0.78782">
        <ele>159</ele>
        <time>2009-06-07T09:49:24Z</time>
      </trkpt>
      <trkpt lat="48.04357" lon="-0.7877">
        <ele>159</ele>
        <time>2009-06-07T09:49:26Z</time>
      </trkpt>
      <trkpt lat="48.04357" lon="-0.78759">
        <ele>160</ele>
        <time>2009-06-07T09:49:28Z</time>
      </trkpt>
      <trkpt lat="48.04357" lon="-0.7875">
        <ele>161</ele>
        <time>2009-06-07T09:49:30Z</time>
      </trkpt>
      <trkpt lat="48.04355" lon="-0.78735">
        <ele>160</ele>
        <time>2009-06-07T09:49:32Z</time>
      </trkpt>
      <trkpt lat="48.04353" lon="-0.78727">
        <ele>161</ele>
        <time>2009-06-07T09:49:34Z</time>
      </trkpt>
      <trkpt lat="48.04353" lon="-0.78718">
        <ele>161</ele>
        <time>2009-06-07T09:49:36Z</time>
      </trkpt>
      <trkpt lat="48.04353" lon="-0.78711">
        <ele>162</ele>
        <time>2009-06-07T09:49:38Z</time>
      </trkpt>
      <trkpt lat="48.04351" lon="-0.78705">
        <ele>162</ele>
        <time>2009-06-07T09:49:40Z</time>
      </trkpt>
      <trkpt lat="48.04353" lon="-0.78696">
        <ele>162</ele>
        <time>2009-06-07T09:49:42Z</time>
      </trkpt>
      <trkpt lat="48.04352" lon="-0.7869">
        <ele>161</ele>
        <time>2009-06-07T09:49:44Z</time>
      </trkpt>
      <trkpt lat="48.04351" lon="-0.78686">
        <ele>162</ele>
        <time>2009-06-07T09:49:46Z</time>
      </trkpt>
      <trkpt lat="48.04353" lon="-0.78678">
        <ele>162</ele>
        <time>2009-06-07T09:49:48Z</time>
      </trkpt>
      <trkpt lat="48.04353" lon="-0.78674">
        <ele>162</ele>
        <time>2009-06-07T09:49:50Z</time>
      </trkpt>
      <trkpt lat="48.04351" lon="-0.78667">
        <ele>162</ele>
        <time>2009-06-07T09:49:52Z</time>
      </trkpt>
      <trkpt lat="48.04361" lon="-0.78638">
        <ele>168</ele>
        <time>2009-06-07T09:49:54Z</time>
      </trkpt>
      <trkpt lat="48.0436" lon="-0.78633">
        <ele>169</ele>
        <time>2009-06-07T09:49:56Z</time>
      </trkpt>
      <trkpt lat="48.04358" lon="-0.78625">
        <ele>168</ele>
        <time>2009-06-07T09:49:58Z</time>
      </trkpt>
      <trkpt lat="48.04356" lon="-0.78624">
        <ele>168</ele>
        <time>2009-06-07T09:50:00Z</time>
      </trkpt>
      <trkpt lat="48.04356" lon="-0.78622">
        <ele>168</ele>
        <time>2009-06-07T09:50:02Z</time>
      </trkpt>
      <trkpt lat="48.04358" lon="-0.78618">
        <ele>168</ele>
        <time>2009-06-07T09:50:04Z</time>
      </trkpt>
      <trkpt lat="48.04358" lon="-0.78614">
        <ele>168</ele>
        <time>2009-06-07T09:50:06Z</time>
      </trkpt>
      <trkpt lat="48.04355" lon="-0.78606">
        <ele>168</ele>
        <time>2009-06-07T09:50:08Z</time>
      </trkpt>
      <trkpt lat="48.04351" lon="-0.78604">
        <ele>167</ele>
        <time>2009-06-07T09:50:10Z</time>
      </trkpt>
      <trkpt lat="48.04351" lon="-0.78596">
        <ele>167</ele>
        <time>2009-06-07T09:50:12Z</time>
      </trkpt>
      <trkpt lat="48.04344" lon="-0.78588">
        <ele>166</ele>
        <time>2009-06-07T09:50:14Z</time>
      </trkpt>
      <trkpt lat="48.04337" lon="-0.7858">
        <ele>166</ele>
        <time>2009-06-07T09:50:16Z</time>
      </trkpt>
      <trkpt lat="48.04332" lon="-0.78577">
        <ele>166</ele>
        <time>2009-06-07T09:50:18Z</time>
      </trkpt>
      <trkpt lat="48.04331" lon="-0.7857">
        <ele>165</ele>
        <time>2009-06-07T09:50:20Z</time>
      </trkpt>
      <trkpt lat="48.04332" lon="-0.78563">
        <ele>166</ele>
        <time>2009-06-07T09:50:22Z</time>
      </trkpt>
      <trkpt lat="48.04326" lon="-0.78557">
        <ele>165</ele>
        <time>2009-06-07T09:50:24Z</time>
      </trkpt>
      <trkpt lat="48.04321" lon="-0.7855">
        <ele>165</ele>
        <time>2009-06-07T09:50:26Z</time>
      </trkpt>
      <trkpt lat="48.04319" lon="-0.78545">
        <ele>164</ele>
        <time>2009-06-07T09:50:28Z</time>
      </trkpt>
      <trkpt lat="48.04317" lon="-0.78538">
        <ele>164</ele>
        <time>2009-06-07T09:50:30Z</time>
      </trkpt>
      <trkpt lat="48.04317" lon="-0.78532">
        <ele>163</ele>
        <time>2009-06-07T09:50:32Z</time>
      </trkpt>
      <trkpt lat="48.04313" lon="-0.78526">
        <ele>163</ele>
        <time>2009-06-07T09:50:34Z</time>
      </trkpt>
      <trkpt lat="48.04312" lon="-0.78522">
        <ele>162</ele>
        <time>2009-06-07T09:50:36Z</time>
      </trkpt>
      <trkpt lat="48.04312" lon="-0.78513">
        <ele>161</ele>
        <time>2009-06-07T09:50:38Z</time>
      </trkpt>
      <trkpt lat="48.04301" lon="-0.78507">
        <ele>160</ele>
        <time>2009-06-07T09:50:40Z</time>
      </trkpt>
      <trkpt lat="48.04296" lon="-0.785">
        <ele>159</ele>
        <time>2009-06-07T09:50:42Z</time>
      </trkpt>
      <trkpt lat="48.0429" lon="-0.78492">
        <ele>158</ele>
        <time>2009-06-07T09:50:44Z</time>
      </trkpt>
      <trkpt lat="48.04288" lon="-0.78482">
        <ele>158</ele>
        <time>2009-06-07T09:50:46Z</time>
      </trkpt>
      <trkpt lat="48.0428" lon="-0.78475">
        <ele>157</ele>
        <time>2009-06-07T09:50:48Z</time>
      </trkpt>
      <trkpt lat="48.04265" lon="-0.78467">
        <ele>155</ele>
        <time>2009-06-07T09:50:50Z</time>
      </trkpt>
      <trkpt lat="48.04258" lon="-0.78451">
        <ele>155</ele>
        <time>2009-06-07T09:50:52Z</time>
      </trkpt>
      <trkpt lat="48.04254" lon="-0.78439">
        <ele>155</ele>
        <time>2009-06-07T09:50:54Z</time>
      </trkpt>
      <trkpt lat="48.0425" lon="-0.78424">
        <ele>154</ele>
        <time>2009-06-07T09:50:56Z</time>
      </trkpt>
      <trkpt lat="48.04252" lon="-0.78399">
        <ele>149</ele>
        <time>2009-06-07T09:50:58Z</time>
      </trkpt>
      <trkpt lat="48.04253" lon="-0.78379">
        <ele>146</ele>
        <time>2009-06-07T09:51:00Z</time>
      </trkpt>
      <trkpt lat="48.04255" lon="-0.78362">
        <ele>145</ele>
        <time>2009-06-07T09:51:02Z</time>
      </trkpt>
      <trkpt lat="48.04255" lon="-0.78344">
        <ele>143</ele>
        <time>2009-06-07T09:51:04Z</time>
      </trkpt>
      <trkpt lat="48.04256" lon="-0.78326">
        <ele>142</ele>
        <time>2009-06-07T09:51:06Z</time>
      </trkpt>
      <trkpt lat="48.04259" lon="-0.7831">
        <ele>142</ele>
        <time>2009-06-07T09:51:08Z</time>
      </trkpt>
      <trkpt lat="48.04262" lon="-0.78296">
        <ele>141</ele>
        <time>2009-06-07T09:51:10Z</time>
      </trkpt>
      <trkpt lat="48.04263" lon="-0.78282">
        <ele>142</ele>
        <time>2009-06-07T09:51:12Z</time>
      </trkpt>
      <trkpt lat="48.04266" lon="-0.78264">
        <ele>142</ele>
        <time>2009-06-07T09:51:14Z</time>
      </trkpt>
      <trkpt lat="48.04267" lon="-0.78249">
        <ele>142</ele>
        <time>2009-06-07T09:51:16Z</time>
      </trkpt>
      <trkpt lat="48.04271" lon="-0.78233">
        <ele>142</ele>
        <time>2009-06-07T09:51:18Z</time>
      </trkpt>
      <trkpt lat="48.04273" lon="-0.78219">
        <ele>142</ele>
        <time>2009-06-07T09:51:20Z</time>
      </trkpt>
      <trkpt lat="48.0427" lon="-0.7821">
        <ele>142</ele>
        <time>2009-06-07T09:51:22Z</time>
      </trkpt>
      <trkpt lat="48.04271" lon="-0.78198">
        <ele>142</ele>
        <time>2009-06-07T09:51:24Z</time>
      </trkpt>
      <trkpt lat="48.04275" lon="-0.78185">
        <ele>142</ele>
        <time>2009-06-07T09:51:26Z</time>
      </trkpt>
      <trkpt lat="48.04277" lon="-0.78176">
        <ele>142</ele>
        <time>2009-06-07T09:51:28Z</time>
      </trkpt>
      <trkpt lat="48.04271" lon="-0.78165">
        <ele>141</ele>
        <time>2009-06-07T09:51:30Z</time>
      </trkpt>
      <trkpt lat="48.04272" lon="-0.78147">
        <ele>140</ele>
        <time>2009-06-07T09:51:32Z</time>
      </trkpt>
      <trkpt lat="48.04268" lon="-0.78138">
        <ele>140</ele>
        <time>2009-06-07T09:51:34Z</time>
      </trkpt>
      <trkpt lat="48.04264" lon="-0.78125">
        <ele>140</ele>
        <time>2009-06-07T09:51:36Z</time>
      </trkpt>
      <trkpt lat="48.04262" lon="-0.78114">
        <ele>140</ele>
        <time>2009-06-07T09:51:38Z</time>
      </trkpt>
      <trkpt lat="48.04257" lon="-0.78093">
        <ele>142</ele>
        <time>2009-06-07T09:51:40Z</time>
      </trkpt>
      <trkpt lat="48.04259" lon="-0.78075">
        <ele>141</ele>
        <time>2009-06-07T09:51:42Z</time>
      </trkpt>
      <trkpt lat="48.04253" lon="-0.78061">
        <ele>140</ele>
        <time>2009-06-07T09:51:44Z</time>
      </trkpt>
      <trkpt lat="48.04251" lon="-0.78046">
        <ele>140</ele>
        <time>2009-06-07T09:51:46Z</time>
      </trkpt>
      <trkpt lat="48.04247" lon="-0.78035">
        <ele>140</ele>
        <time>2009-06-07T09:51:48Z</time>
      </trkpt>
      <trkpt lat="48.04246" lon="-0.78023">
        <ele>140</ele>
        <time>2009-06-07T09:51:50Z</time>
      </trkpt>
      <trkpt lat="48.04245" lon="-0.78014">
        <ele>140</ele>
        <time>2009-06-07T09:51:52Z</time>
      </trkpt>
      <trkpt lat="48.04243" lon="-0.78006">
        <ele>141</ele>
        <time>2009-06-07T09:51:54Z</time>
      </trkpt>
      <trkpt lat="48.04242" lon="-0.77997">
        <ele>141</ele>
        <time>2009-06-07T09:51:56Z</time>
      </trkpt>
      <trkpt lat="48.0424" lon="-0.77993">
        <ele>141</ele>
        <time>2009-06-07T09:51:58Z</time>
      </trkpt>
      <trkpt lat="48.04243" lon="-0.77985">
        <ele>141</ele>
        <time>2009-06-07T09:52:00Z</time>
      </trkpt>
      <trkpt lat="48.04249" lon="-0.77975">
        <ele>140</ele>
        <time>2009-06-07T09:52:02Z</time>
      </trkpt>
      <trkpt lat="48.04252" lon="-0.77967">
        <ele>140</ele>
        <time>2009-06-07T09:52:04Z</time>
      </trkpt>
      <trkpt lat="48.04254" lon="-0.77963">
        <ele>141</ele>
        <time>2009-06-07T09:52:06Z</time>
      </trkpt>
      <trkpt lat="48.04254" lon="-0.77961">
        <ele>142</ele>
        <time>2009-06-07T09:52:08Z</time>
      </trkpt>
      <trkpt lat="48.04255" lon="-0.77963">
        <ele>143</ele>
        <time>2009-06-07T09:52:10Z</time>
      </trkpt>
      <trkpt lat="48.04257" lon="-0.77961">
        <ele>143</ele>
        <time>2009-06-07T09:52:12Z</time>
      </trkpt>
      <trkpt lat="48.04255" lon="-0.77959">
        <ele>144</ele>
        <time>2009-06-07T09:52:14Z</time>
      </trkpt>
      <trkpt lat="48.04256" lon="-0.77959">
        <ele>145</ele>
        <time>2009-06-07T09:52:16Z</time>
      </trkpt>
      <trkpt lat="48.04256" lon="-0.77955">
        <ele>146</ele>
        <time>2009-06-07T09:52:18Z</time>
      </trkpt>
      <trkpt lat="48.04253" lon="-0.77955">
        <ele>145</ele>
        <time>2009-06-07T09:52:20Z</time>
      </trkpt>
      <trkpt lat="48.04253" lon="-0.77953">
        <ele>145</ele>
        <time>2009-06-07T09:52:22Z</time>
      </trkpt>
      <trkpt lat="48.04252" lon="-0.77949">
        <ele>144</ele>
        <time>2009-06-07T09:52:24Z</time>
      </trkpt>
      <trkpt lat="48.04247" lon="-0.77935">
        <ele>140</ele>
        <time>2009-06-07T09:52:26Z</time>
      </trkpt>
      <trkpt lat="48.04245" lon="-0.77934">
        <ele>141</ele>
        <time>2009-06-07T09:52:28Z</time>
      </trkpt>
      <trkpt lat="48.04246" lon="-0.77931">
        <ele>142</ele>
        <time>2009-06-07T09:52:30Z</time>
      </trkpt>
      <trkpt lat="48.04247" lon="-0.77927">
        <ele>143</ele>
        <time>2009-06-07T09:52:32Z</time>
      </trkpt>
      <trkpt lat="48.04247" lon="-0.77925">
        <ele>144</ele>
        <time>2009-06-07T09:52:34Z</time>
      </trkpt>
      <trkpt lat="48.04245" lon="-0.77924">
        <ele>144</ele>
        <time>2009-06-07T09:52:36Z</time>
      </trkpt>
      <trkpt lat="48.04245" lon="-0.77923">
        <ele>144</ele>
        <time>2009-06-07T09:52:38Z</time>
      </trkpt>
      <trkpt lat="48.04246" lon="-0.77921">
        <ele>145</ele>
        <time>2009-06-07T09:52:40Z</time>
      </trkpt>
      <trkpt lat="48.04248" lon="-0.7792">
        <ele>146</ele>
        <time>2009-06-07T09:52:42Z</time>
      </trkpt>
      <trkpt lat="48.04248" lon="-0.7792">
        <ele>147</ele>
        <time>2009-06-07T09:52:44Z</time>
      </trkpt>
      <trkpt lat="48.04248" lon="-0.77919">
        <ele>147</ele>
        <time>2009-06-07T09:52:46Z</time>
      </trkpt>
      <trkpt lat="48.04248" lon="-0.77919">
        <ele>148</ele>
        <time>2009-06-07T09:52:48Z</time>
      </trkpt>
      <trkpt lat="48.04248" lon="-0.77919">
        <ele>148</ele>
        <time>2009-06-07T09:52:50Z</time>
      </trkpt>
      <trkpt lat="48.04248" lon="-0.77919">
        <ele>148</ele>
        <time>2009-06-07T09:52:56Z</time>
      </trkpt>
      <trkpt lat="48.04248" lon="-0.77919">
        <ele>149</ele>
        <time>2009-06-07T09:52:58Z</time>
      </trkpt>
      <trkpt lat="48.04251" lon="-0.77917">
        <ele>150</ele>
        <time>2009-06-07T09:53:00Z</time>
      </trkpt>
      <trkpt lat="48.04251" lon="-0.77916">
        <ele>151</ele>
        <time>2009-06-07T09:53:02Z</time>
      </trkpt>
      <trkpt lat="48.0425" lon="-0.77916">
        <ele>151</ele>
        <time>2009-06-07T09:53:04Z</time>
      </trkpt>
      <trkpt lat="48.04249" lon="-0.77916">
        <ele>151</ele>
        <time>2009-06-07T09:53:06Z</time>
      </trkpt>
      <trkpt lat="48.04249" lon="-0.77916">
        <ele>151</ele>
        <time>2009-06-07T09:53:08Z</time>
      </trkpt>
      <trkpt lat="48.04249" lon="-0.77916">
        <ele>151</ele>
        <time>2009-06-07T09:53:10Z</time>
      </trkpt>
      <trkpt lat="48.0425" lon="-0.77916">
        <ele>151</ele>
        <time>2009-06-07T09:53:12Z</time>
      </trkpt>
      <trkpt lat="48.0425" lon="-0.77915">
        <ele>154</ele>
        <time>2009-06-07T09:53:14Z</time>
      </trkpt>
      <trkpt lat="48.0425" lon="-0.77913">
        <ele>155</ele>
        <time>2009-06-07T09:53:16Z</time>
      </trkpt>
      <trkpt lat="48.0425" lon="-0.77915">
        <ele>155</ele>
        <time>2009-06-07T09:53:18Z</time>
      </trkpt>
      <trkpt lat="48.0425" lon="-0.77916">
        <ele>155</ele>
        <time>2009-06-07T09:53:20Z</time>
      </trkpt>
      <trkpt lat="48.04251" lon="-0.77916">
        <ele>155</ele>
        <time>2009-06-07T09:53:22Z</time>
      </trkpt>
      <trkpt lat="48.04251" lon="-0.77915">
        <ele>155</ele>
        <time>2009-06-07T09:53:24Z</time>
      </trkpt>
      <trkpt lat="48.04251" lon="-0.77916">
        <ele>155</ele>
        <time>2009-06-07T09:53:26Z</time>
      </trkpt>
      <trkpt lat="48.04251" lon="-0.77916">
        <ele>155</ele>
        <time>2009-06-07T09:53:34Z</time>
      </trkpt>
      <trkpt lat="48.04251" lon="-0.77915">
        <ele>155</ele>
        <time>2009-06-07T09:53:36Z</time>
      </trkpt>
      <trkpt lat="48.04251" lon="-0.77915">
        <ele>155</ele>
        <time>2009-06-07T09:53:38Z</time>
      </trkpt>
    </trkseg>
  </trk>
</gpx>